Hébergeur de fichiers indépendant

small.csv

À propos

Type de fichier
Fichier CSV de 317 Ko (text/plain)
Confidentialité
Fichier public, envoyé le 20 octobre 2021 à 14:26, depuis l'adresse IP 82.127.x.x (France)
Sécurité
Ne contient aucun Virus ou Malware connus - Dernière vérification: 20/10
Statistiques
La présente page de téléchargement a été vue 23 fois depuis l'envoi du fichier
Page de téléchargement

Aperçu du fichier


date TU;heure TU;latitude;longitude;vitesse fond;route fond;speedo;cap compas (vrai);TWD;AWA;AWS;TWA;TWS;fond;vmg;pres.atm.;temp.air;temp.eau;chrono;date locale;heure locale;Vitesse courant;Direction courant;Vitesse courant atlas;Direction courant atlas;D�clinaison;Hauteur mar�e;% mar�e;Sens mar�e;Sous voiles;mer;GV;Foc1;Foc2;Spi;Quille;Trim;D�rive avant;D�rive cent.;D�rive arr.;Foil;Bal.avt;Bal.avtAuVent;Bal.avtSousVent;Bal.cent;Bal.centAuVent;Bal.centSousVent;Bal.arr;Bal.arrAuVent;Bal.arrSousVent;Pilote;Solitaire;Conf.sp�c.;pos.adv.;age pos.adv.;�v�nement
30/05/2020;22:00:01;46�08,565 N;001�10,070 W;0,00nds;229�;0,01nds;250�;058�;172�;05,5nds;168�;05,3nds;05,7m;-0,01nds;1013,52000hPa;0,00�C(N);22,90�C;---;31/05/2020;00:00:01;0,01nds;070�;0,01nds;087�;0,22�;5,19m;98%;+;non;ind�termin�e;;;;-;;;;;;;;;;;;;;;;;;;;;
30/05/2020;22:00:02;46�08,565 N;001�10,070 W;0,00nds;189�;0,01nds;250�;056�;163�;06,0nds;166�;05,7nds;05,7m;-0,01nds;1013,52000hPa;0,00�C(N);22,90�C;---;31/05/2020;00:00:02;0,01nds;070�;0,01nds;087�;0,22�;5,19m;98%;+;non;ind�termin�e;;;;-;;;;;;;;;;;;;;;;;;;;;
30/05/2020;22:00:03;46�08,565 N;001�10,070 W;0,00nds;189�;0,01nds;250�;053�;163�;06,1nds;163�;06,0nds;05,7m;-0,01nds;1013,53000hPa;0,00�C(N);22,90�C;---;31/05/2020;00:00:03;0,01nds;070�;0,01nds;087�;0,22�;5,19m;98%;+;non;ind�termin�e;;;;-;;;;;;;;;;;;;;;;;;;;;
30/05/2020;22:00:04;46�08,565 N;001�10,070 W;0,00nds;180�;0,01nds;250�;053�;165�;06,3nds;163�;06,1nds;05,7m;-0,01nds;1013,52000hPa;0,00�C(N);22,90�C;---;31/05/2020;00:00:04;0,01nds;070�;0,01nds;087�;0,22�;5,19m;98%;+;non;ind�termin�e;;;;-;;;;;;;;;;;;;;;;;;;;;
30/05/2020;22:00:05;46�08,565 N;001�10,070 W;0,00nds;238�;0,01nds;250�;057�;166�;07,2nds;167�;06,7nds;05,7m;-0,01nds;1013,52000hPa;0,00�C(N);22,90�C;---;31/05/2020;00:00:05;0,01nds;070�;0,01nds;087�;0,22�;5,19m;98%;+;non;ind�termin�e;;;;-;;;;;;;;;;;;;;;;;;;;;
30/05/2020;22:00:06;46�08,565 N;001�10,070 W;0,00nds;280�;0,01nds;251�;056�;165�;07,4nds;166�;07,2nds;05,7m;-0,01nds;1013,52000hPa;0,00�C(N);22,90�C;---;31/05/2020;00:00:06;0,01nds;071�;0,01nds;087�;0,22�;5,19m;98%;+;non;ind�termin�e;;;;-;;;;;;;;;;;;;;;;;;;;;
30/05/2020;22:00:07;46�08,565 N;001�10,070 W;0,00nds;310�;0,01nds;251�;054�;163�;07,4nds;163�;07,4nds;05,7m;-0,01nds;1013,52000hPa;0,00�C(N);22,90�C;---;31/05/2020;00:00:07;0,01nds;071�;0,01nds;087�;0,22�;5,19m;98%;+;non;ind�termin�e;;;;-;;;;;;;;;;;;;;;;;;;;;
30/05/2020;22:00:08;46�08,565 N;001�10,070 W;0,00nds;342�;0,01nds;251�;054�;165�;07,3nds;163�;07,3nds;05,7m;-0,01nds;1013,51000hPa;0,00�C(N);22,90�C;---;31/05/2020;00:00:08;0,01nds;071�;0,01nds;087�;0,22�;5,19m;98%;+;non;ind�termin�e;;;;-;;;;;;;;;;;;;;;;;;;;;
30/05/2020;22:00:09;46�08,565 N;001�10,070 W;0,00nds;344�;0,01nds;251�;054�;167�;07,1nds;163�;07,3nds;05,7m;-0,01nds;1013,51000hPa;0,00�C(N);22,90�C;---;31/05/2020;00:00:09;0,01nds;071�;0,01nds;087�;0,22�;5,19m;98%;+;non;ind�termin�e;;;;-;;;;;;;;;;;;;;;;;;;;;
30/05/2020;22:00:10;46�08,565 N;001�10,070 W;0,00nds;303�;0,01nds;251�;061�;171�;07,6nds;170�;07,3nds;05,7m;-0,01nds;1013,51000hPa;0,00�C(N);22,90�C;---;31/05/2020;00:00:10;0,01nds;071�;0,01nds;087�;0,22�;5,19m;98%;+;non;ind�termin�e;;;;-;;;;;;;;;;;;;;;;;;;;;
30/05/2020;22:00:11;46�08,565 N;001�10,070 W;0,00nds;352�;0,01nds;251�;062�;166�;07,5nds;171�;07,5nds;05,7m;-0,01nds;1013,51000hPa;0,00�C(N);22,90�C;---;31/05/2020;00:00:11;0,01nds;071�;0,01nds;087�;0,22�;5,19m;98%;+;non;ind�termin�e;;;;-;;;;;;;;;;;;;;;;;;;;;
30/05/2020;22:00:12;46�08,565 N;001�10,070 W;0,00nds;037�;0,01nds;251�;057�;160�;07,6nds;166�;07,5nds;05,7m;-0,01nds;1013,51000hPa;0,00�C(N);22,90�C;---;31/05/2020;00:00:12;0,01nds;071�;0,01nds;087�;0,22�;5,19m;98%;+;non;ind�termin�e;;;;-;;;;;;;;;;;;;;;;;;;;;
30/05/2020;22:00:13;46�08,565 N;001�10,070 W;0,00nds;109�;0,01nds;251�;054�;171�;07,2nds;163�;07,4nds;05,7m;-0,01nds;1013,50000hPa;0,00�C(N);22,90�C;---;31/05/2020;00:00:13;0,01nds;071�;0,01nds;087�;0,22�;5,19m;98%;+;non;ind�termin�e;;;;-;;;;;;;;;;;;;;;;;;;;;
30/05/2020;22:00:14;46�08,565 N;001�10,070 W;0,00nds;174�;0,01nds;251�;062�;175�;06,9nds;171�;07,1nds;05,7m;-0,01nds;1013,50000hPa;0,00�C(N);22,80�C;---;31/05/2020;00:00:14;0,01nds;071�;0,01nds;087�;0,22�;5,19m;98%;+;non;ind�termin�e;;;;-;;;;;;;;;;;;;;;;;;;;;
30/05/2020;22:00:15;46�08,565 N;001�10,070 W;0,00nds;198�;0,01nds;251�;066�;177�;07,0nds;175�;06,9nds;05,7m;-0,01nds;1013,50000hPa;0,00�C(N);22,80�C;---;31/05/2020;00:00:15;0,01nds;071�;0,01nds;087�;0,22�;5,19m;98%;+;non;ind�termin�e;;;;-;;;;;;;;;;;;;;;;;;;;;
30/05/2020;22:00:16;46�08,565 N;001�10,070 W;0,00nds;146�;0,01nds;251�;070�;180�;07,4nds;179�;07,1nds;05,7m;-0,01nds;1013,51000hPa;0,00�C(N);22,80�C;---;31/05/2020;00:00:16;0,01nds;071�;0,01nds;087�;0,22�;5,19m;98%;+;non;ind�termin�e;;;;-;;;;;;;;;;;;;;;;;;;;;
30/05/2020;22:00:17;46�08,565 N;001�10,070 W;0,00nds;173�;0,01nds;251�;071�;182�;07,5nds;179�;07,1nds;05,7m;-0,01nds;1013,51000hPa;0,00�C(N);22,80�C;---;31/05/2020;00:00:17;0,01nds;071�;0,01nds;087�;0,22�;5,19m;98%;+;non;ind�termin�e;;;;-;;;;;;;;;;;;;;;;;;;;;
30/05/2020;22:00:18;46�08,565 N;001�10,070 W;0,00nds;231�;0,00nds;251�;074�;183�;07,9nds;183�;07,5nds;05,7m;-0,00nds;1013,51000hPa;0,00�C(N);22,80�C;---;31/05/2020;00:00:18;0,00nds;231�;0,01nds;087�;0,22�;5,19m;98%;+;non;ind�termin�e;;;;-;;;;;;;;;;;;;;;;;;;;;
30/05/2020;22:00:19;46�08,565 N;001�10,070 W;0,00nds;191�;0,00nds;251�;074�;181�;08,4nds;183�;07,9nds;05,7m;-0,00nds;1013,51000hPa;0,00�C(N);22,80�C;---;31/05/2020;00:00:19;0,00nds;191�;0,01nds;087�;0,22�;5,19m;98%;+;non;ind�termin�e;;;;-;;;;;;;;;;;;;;;;;;;;;
30/05/2020;22:00:20;46�08,565 N;001�10,070 W;0,00nds;161�;0,00nds;251�;072�;178�;08,4nds;181�;08,4nds;05,7m;-0,00nds;1013,52000hPa;0,00�C(N);22,80�C;---;31/05/2020;00:00:20;0,00nds;161�;0,01nds;087�;0,22�;5,19m;98%;+;non;ind�termin�e;;;;-;;;;;;;;;;;;;;;;;;;;;
30/05/2020;22:00:21;46�08,565 N;001�10,070 W;0,00nds;169�;0,00nds;250�;066�;170�;07,5nds;176�;08,0nds;05,7m;-0,00nds;1013,51000hPa;0,00�C(N);22,80�C;---;31/05/2020;00:00:21;0,00nds;169�;0,01nds;087�;0,22�;5,19m;98%;+;non;ind�termin�e;;;;-;;;;;;;;;;;;;;;;;;;;;
30/05/2020;22:00:22;46�08,565 N;001�10,070 W;0,00nds;163�;0,00nds;250�;060�;167�;06,9nds;170�;07,5nds;05,7m;-0,00nds;1013,51000hPa;0,00�C(N);22,80�C;---;31/05/2020;00:00:22;0,00nds;163�;0,01nds;087�;0,22�;5,19m;98%;+;non;ind�termin�e;;;;-;;;;;;;;;;;;;;;;;;;;;
30/05/2020;22:00:23;46�08,565 N;001�10,070 W;0,00nds;167�;0,00nds;250�;057�;167�;07,0nds;167�;06,9nds;05,7m;-0,00nds;1013,51000hPa;0,00�C(N);22,80�C;---;31/05/2020;00:00:23;0,00nds;167�;0,01nds;087�;0,22�;5,19m;98%;+;non;ind�termin�e;;;;-;;;;;;;;;;;;;;;;;;;;;
30/05/2020;22:00:24;46�08,565 N;001�10,070 W;0,00nds;143�;0,00nds;250�;058�;171�;08,7nds;168�;07,9nds;05,7m;-0,00nds;1013,52000hPa;0,00�C(N);22,80�C;---;31/05/2020;00:00:24;0,00nds;143�;0,01nds;087�;0,22�;5,19m;98%;+;non;ind�termin�e;;;;-;;;;;;;;;;;;;;;;;;;;;
30/05/2020;22:00:25;46�08,565 N;001�10,070 W;0,00nds;151�;0,00nds;250�;061�;173�;09,2nds;171�;08,6nds;05,7m;-0,00nds;1013,52000hPa;0,00�C(N);22,80�C;---;31/05/2020;00:00:25;0,00nds;151�;0,01nds;087�;0,22�;5,19m;98%;+;non;ind�termin�e;;;;-;;;;;;;;;;;;;;;;;;;;;
30/05/2020;22:00:26;46�08,565 N;001�10,070 W;0,00nds;179�;0,00nds;250�;064�;174�;09,3nds;174�;09,5nds;05,7m;-0,00nds;1013,52000hPa;0,00�C(N);22,80�C;---;31/05/2020;00:00:26;0,00nds;179�;0,01nds;087�;0,22�;5,19m;98%;+;non;ind�termin�e;;;;-;;;;;;;;;;;;;;;;;;;;;
30/05/2020;22:00:27;46�08,565 N;001�10,070 W;0,00nds;249�;0,00nds;251�;064�;172�;08,9nds;174�;09,3nds;05,7m;-0,00nds;1013,51000hPa;0,00�C(N);22,80�C;---;31/05/2020;00:00:27;0,00nds;249�;0,01nds;087�;0,22�;5,19m;98%;+;non;ind�termin�e;;;;-;;;;;;;;;;;;;;;;;;;;;
30/05/2020;22:00:28;46�08,565 N;001�10,070 W;0,00nds;254�;0,00nds;251�;064�;168�;08,4nds;174�;09,3nds;05,7m;-0,00nds;1013,52000hPa;0,00�C(N);22,80�C;---;31/05/2020;00:00:28;0,00nds;254�;0,01nds;087�;0,22�;5,19m;98%;+;non;ind�termin�e;;;;-;;;;;;;;;;;;;;;;;;;;;
30/05/2020;22:00:29;46�08,565 N;001�10,070 W;0,00nds;273�;0,00nds;250�;055�;161�;07,8nds;165�;08,1nds;05,7m;-0,00nds;1013,52000hPa;0,00�C(N);22,80�C;---;31/05/2020;00:00:29;0,00nds;273�;0,01nds;087�;0,22�;5,19m;98%;+;non;ind�termin�e;;;;-;;;;;;;;;;;;;;;;;;;;;
30/05/2020;22:00:30;46�08,565 N;001�10,070 W;0,00nds;282�;0,00nds;250�;051�;163�;07,6nds;161�;07,8nds;05,7m;-0,00nds;1013,52000hPa;0,00�C(N);22,80�C;---;31/05/2020;00:00:30;0,00nds;282�;0,01nds;087�;0,22�;5,19m;98%;+;non;ind�termin�e;;;;-;;;;;;;;;;;;;;;;;;;;;
30/05/2020;22:00:31;46�08,565 N;001�10,070 W;0,00nds;281�;0,00nds;250�;053�;160�;07,4nds;163�;07,5nds;05,7m;-0,00nds;1013,52000hPa;0,00�C(N);22,80�C;---;31/05/2020;00:00:31;0,00nds;281�;0,01nds;087�;0,22�;5,19m;98%;+;non;ind�termin�e;;;;-;;;;;;;;;;;;;;;;;;;;;
30/05/2020;22:00:32;46�08,565 N;001�10,070 W;0,00nds;271�;0,00nds;250�;049�;160�;07,1nds;159�;07,4nds;05,7m;-0,00nds;1013,52000hPa;0,00�C(N);22,80�C;---;31/05/2020;00:00:32;0,00nds;271�;0,01nds;087�;0,22�;5,19m;98%;+;non;ind�termin�e;;;;-;;;;;;;;;;;;;;;;;;;;;
30/05/2020;22:00:33;46�08,565 N;001�10,070 W;0,00nds;258�;0,00nds;250�;050�;158�;06,9nds;160�;07,0nds;05,7m;-0,00nds;1013,51000hPa;0,00�C(N);22,80�C;---;31/05/2020;00:00:33;0,00nds;258�;0,01nds;087�;0,22�;5,19m;98%;+;non;ind�termin�e;;;;-;;;;;;;;;;;;;;;;;;;;;
30/05/2020;22:00:34;46�08,565 N;001�10,070 W;0,00nds;235�;0,00nds;250�;049�;159�;06,8nds;159�;06,8nds;05,7m;-0,00nds;1013,51000hPa;0,00�C(N);22,80�C;---;31/05/2020;00:00:34;0,00nds;235�;0,01nds;087�;0,22�;5,19m;98%;+;non;ind�termin�e;;;;-;;;;;;;;;;;;;;;;;;;;;
30/05/2020;22:00:35;46�08,565 N;001�10,070 W;0,00nds;197�;0,00nds;250�;051�;161�;06,3nds;161�;06,5nds;05,7m;-0,00nds;1013,51000hPa;0,00�C(N);22,80�C;---;31/05/2020;00:00:35;0,00nds;197�;0,01nds;087�;0,22�;5,19m;98%;+;non;ind�termin�e;;;;-;;;;;;;;;;;;;;;;;;;;;
30/05/2020;22:00:36;46�08,565 N;001�10,070 W;0,00nds;158�;0,00nds;250�;051�;158�;06,2nds;161�;06,5nds;05,7m;-0,00nds;1013,51000hPa;0,00�C(N);22,80�C;---;31/05/2020;00:00:36;0,00nds;158�;0,01nds;087�;0,22�;5,19m;98%;+;non;ind�termin�e;;;;-;;;;;;;;;;;;;;;;;;;;;
30/05/2020;22:00:37;46�08,565 N;001�10,070 W;0,00nds;176�;0,01nds;250�;049�;161�;06,0nds;159�;06,1nds;05,7m;-0,01nds;1013,51000hPa;0,00�C(N);22,80�C;---;31/05/2020;00:00:37;0,01nds;070�;0,01nds;087�;0,22�;5,19m;98%;+;non;ind�termin�e;;;;-;;;;;;;;;;;;;;;;;;;;;
30/05/2020;22:00:38;46�08,565 N;001�10,070 W;0,00nds;155�;0,01nds;250�;051�;162�;05,8nds;161�;06,0nds;05,7m;-0,01nds;1013,51000hPa;0,00�C(N);22,80�C;---;31/05/2020;00:00:38;0,01nds;070�;0,01nds;087�;0,22�;5,19m;98%;+;non;ind�termin�e;;;;-;;;;;;;;;;;;;;;;;;;;;
30/05/2020;22:00:39;46�08,565 N;001�10,070 W;0,00nds;123�;0,01nds;250�;052�;161�;05,8nds;162�;05,8nds;05,7m;-0,01nds;1013,51000hPa;0,00�C(N);22,80�C;---;31/05/2020;00:00:39;0,01nds;070�;0,01nds;087�;0,22�;5,19m;98%;+;non;ind�termin�e;;;;-;;;;;;;;;;;;;;;;;;;;;
30/05/2020;22:00:40;46�08,565 N;001�10,070 W;0,00nds;221�;0,01nds;250�;051�;163�;05,7nds;161�;05,6nds;05,7m;-0,01nds;1013,51000hPa;0,00�C(N);22,80�C;---;31/05/2020;00:00:40;0,01nds;070�;0,01nds;087�;0,22�;5,19m;98%;+;non;ind�termin�e;;;;-;;;;;;;;;;;;;;;;;;;;;
30/05/2020;22:00:41;46�08,565 N;001�10,070 W;0,00nds;246�;0,00nds;250�;053�;158�;06,1nds;163�;05,6nds;05,7m;-0,00nds;1013,51000hPa;0,00�C(N);22,80�C;---;31/05/2020;00:00:41;0,00nds;246�;0,01nds;087�;0,22�;5,19m;98%;+;non;ind�termin�e;;;;-;;;;;;;;;;;;;;;;;;;;;
30/05/2020;22:00:42;46�08,565 N;001�10,070 W;0,00nds;271�;0,00nds;250�;047�;157�;06,6nds;157�;06,5nds;05,7m;-0,00nds;1013,51000hPa;0,00�C(N);22,80�C;---;31/05/2020;00:00:42;0,00nds;271�;0,01nds;087�;0,22�;5,19m;98%;+;non;ind�termin�e;;;;-;;;;;;;;;;;;;;;;;;;;;
30/05/2020;22:00:43;46�08,565 N;001�10,070 W;0,00nds;286�;0,00nds;250�;047�;160�;06,9nds;157�;06,9nds;05,7m;-0,00nds;1013,51000hPa;0,00�C(N);22,80�C;---;31/05/2020;00:00:43;0,00nds;286�;0,01nds;087�;0,22�;5,19m;98%;+;non;ind�termin�e;;;;-;;;;;;;;;;;;;;;;;;;;;
30/05/2020;22:00:44;46�08,565 N;001�10,070 W;0,00nds;275�;0,00nds;250�;047�;157�;06,6nds;157�;06,9nds;05,7m;-0,00nds;1013,51000hPa;0,00�C(N);22,90�C;---;31/05/2020;00:00:44;0,00nds;275�;0,01nds;087�;0,22�;5,19m;98%;+;non;ind�termin�e;;;;-;;;;;;;;;;;;;;;;;;;;;
30/05/2020;22:00:45;46�08,565 N;001�10,070 W;0,00nds;296�;0,00nds;250�;050�;164�;06,4nds;160�;06,5nds;05,7m;-0,00nds;1013,51000hPa;0,00�C(N);22,90�C;---;31/05/2020;00:00:45;0,00nds;296�;0,01nds;087�;0,22�;5,19m;98%;+;non;ind�termin�e;;;;-;;;;;;;;;;;;;;;;;;;;;
30/05/2020;22:00:46;46�08,565 N;001�10,070 W;0,00nds;333�;0,00nds;250�;054�;168�;06,2nds;164�;06,4nds;05,7m;-0,00nds;1013,51000hPa;0,00�C(N);22,90�C;---;31/05/2020;00:00:46;0,00nds;333�;0,01nds;087�;0,22�;5,19m;98%;+;non;ind�termin�e;;;;-;;;;;;;;;;;;;;;;;;;;;
30/05/2020;22:00:47;46�08,565 N;001�10,070 W;0,00nds;310�;0,00nds;250�;058�;165�;05,8nds;168�;06,1nds;05,7m;-0,00nds;1013,51000hPa;0,00�C(N);22,90�C;---;31/05/2020;00:00:47;0,00nds;310�;0,01nds;087�;0,22�;5,19m;98%;+;non;ind�termin�e;;;;-;;;;;;;;;;;;;;;;;;;;;
30/05/2020;22:00:48;46�08,565 N;001�10,070 W;0,00nds;300�;0,01nds;250�;050�;151�;05,0nds;160�;05,4nds;05,7m;-0,01nds;1013,51000hPa;0,00�C(N);22,90�C;---;31/05/2020;00:00:48;0,01nds;070�;0,01nds;087�;0,22�;5,19m;98%;+;non;ind�termin�e;;;;-;;;;;;;;;;;;;;;;;;;;;
30/05/2020;22:00:49;46�08,565 N;001�10,070 W;0,00nds;338�;0,01nds;250�;041�;156�;04,7nds;151�;05,0nds;05,7m;-0,01nds;1013,51000hPa;0,00�C(N);22,90�C;---;31/05/2020;00:00:49;0,01nds;070�;0,01nds;087�;0,22�;5,19m;98%;+;non;ind�termin�e;;;;-;;;;;;;;;;;;;;;;;;;;;
30/05/2020;22:00:50;46�08,565 N;001�10,070 W;0,00nds;018�;0,01nds;250�;046�;156�;04,7nds;156�;04,6nds;05,7m;-0,01nds;1013,51000hPa;0,00�C(N);22,90�C;---;31/05/2020;00:00:50;0,01nds;070�;0,01nds;087�;0,22�;5,19m;98%;+;non;ind�termin�e;;;;-;;;;;;;;;;;;;;;;;;;;;
30/05/2020;22:00:51;46�08,565 N;001�10,070 W;0,00nds;033�;0,01nds;250�;046�;160�;05,1nds;156�;04,9nds;05,7m;-0,01nds;1013,51000hPa;0,00�C(N);22,90�C;---;31/05/2020;00:00:51;0,01nds;070�;0,01nds;087�;0,22�;5,19m;98%;+;non;ind�termin�e;;;;-;;;;;;;;;;;;;;;;;;;;;
30/05/2020;22:00:52;46�08,565 N;001�10,070 W;0,00nds;078�;0,01nds;250�;050�;157�;04,9nds;160�;05,0nds;05,7m;-0,01nds;1013,51000hPa;0,00�C(N);22,90�C;---;31/05/2020;00:00:52;0,01nds;070�;0,01nds;087�;0,22�;5,19m;98%;+;non;ind�termin�e;;;;-;;;;;;;;;;;;;;;;;;;;;
30/05/2020;22:00:53;46�08,565 N;001�10,070 W;0,00nds;116�;0,01nds;250�;043�;149�;05,5nds;153�;05,0nds;05,7m;-0,01nds;1013,51000hPa;0,00�C(N);22,90�C;---;31/05/2020;00:00:53;0,01nds;070�;0,01nds;087�;0,22�;5,19m;98%;+;non;ind�termin�e;;;;-;;;;;;;;;;;;;;;;;;;;;
30/05/2020;22:00:54;46�08,565 N;001�10,070 W;0,00nds;000�;0,00nds;250�;039�;145�;05,7nds;149�;05,5nds;05,7m;-0,00nds;1013,51000hPa;0,00�C(N);22,90�C;---;31/05/2020;00:00:54;0,00nds;000�;0,01nds;087�;0,22�;5,19m;98%;+;non;ind�termin�e;;;;-;;;;;;;;;;;;;;;;;;;;;
30/05/2020;22:00:55;46�08,565 N;001�10,070 W;0,00nds;324�;0,00nds;250�;035�;144�;05,8nds;145�;05,6nds;05,7m;-0,00nds;1013,52000hPa;0,00�C(N);22,90�C;---;31/05/2020;00:00:55;0,00nds;324�;0,01nds;087�;0,22�;5,19m;98%;+;non;ind�termin�e;;;;-;;;;;;;;;;;;;;;;;;;;;
30/05/2020;22:00:56;46�08,565 N;001�10,070 W;0,00nds;058�;0,00nds;251�;033�;144�;05,7nds;143�;05,6nds;05,7m;-0,00nds;1013,52000hPa;0,00�C(N);22,90�C;---;31/05/2020;00:00:56;0,00nds;058�;0,01nds;087�;0,22�;5,19m;98%;+;non;ind�termin�e;;;;-;;;;;;;;;;;;;;;;;;;;;
30/05/2020;22:00:57;46�08,565 N;001�10,070 W;0,00nds;102�;0,00nds;251�;035�;146�;05,9nds;144�;05,6nds;05,7m;-0,00nds;1013,52000hPa;0,00�C(N);22,90�C;---;31/05/2020;00:00:57;0,00nds;102�;0,01nds;087�;0,22�;5,19m;98%;+;non;ind�termin�e;;;;-;;;;;;;;;;;;;;;;;;;;;
30/05/2020;22:00:58;46�08,565 N;001�10,070 W;0,00nds;116�;0,00nds;251�;037�;149�;06,2nds;146�;05,9nds;05,7m;-0,00nds;1013,52000hPa;0,00�C(N);22,90�C;---;31/05/2020;00:00:58;0,00nds;116�;0,01nds;087�;0,22�;5,19m;98%;+;non;ind�termin�e;;;;-;;;;;;;;;;;;;;;;;;;;;
30/05/2020;22:00:59;46�08,565 N;001�10,070 W;0,00nds;165�;0,01nds;251�;040�;149�;06,2nds;149�;06,3nds;05,7m;-0,01nds;1013,52000hPa;0,00�C(N);22,90�C;---;31/05/2020;00:00:59;0,01nds;071�;0,01nds;087�;0,22�;5,19m;98%;+;non;ind�termin�e;;;;-;;;;;;;;;;;;;;;;;;;;;
30/05/2020;22:01:00;46�08,565 N;001�10,070 W;0,00nds;166�;0,01nds;251�;040�;146�;06,0nds;149�;06,1nds;05,7m;-0,01nds;1013,52000hPa;0,00�C(N);22,90�C;---;31/05/2020;00:01:00;0,01nds;071�;0,01nds;087�;0,22�;5,19m;98%;+;non;ind�termin�e;;;;-;;;;;;;;;;;;;;;;;;;;;
30/05/2020;22:01:01;46�08,565 N;001�10,070 W;0,00nds;236�;0,01nds;251�;036�;145�;05,8nds;145�;05,8nds;05,7m;-0,01nds;1013,52000hPa;0,00�C(N);22,90�C;---;31/05/2020;00:01:01;0,01nds;071�;0,01nds;087�;0,22�;5,19m;98%;+;non;ind�termin�e;;;;-;;;;;;;;;;;;;;;;;;;;;
30/05/2020;22:01:02;46�08,565 N;001�10,070 W;0,00nds;286�;0,01nds;251�;046�;157�;05,5nds;155�;05,6nds;05,7m;-0,01nds;1013,52000hPa;0,00�C(N);22,90�C;---;31/05/2020;00:01:02;0,01nds;071�;0,01nds;087�;0,22�;5,19m;98%;+;non;ind�termin�e;;;;-;;;;;;;;;;;;;;;;;;;;;
30/05/2020;22:01:03;46�08,565 N;001�10,070 W;0,00nds;285�;0,01nds;251�;046�;158�;05,4nds;155�;05,6nds;05,7m;-0,01nds;1013,52000hPa;0,00�C(N);22,90�C;---;31/05/2020;00:01:03;0,01nds;071�;0,01nds;087�;0,22�;5,19m;98%;+;non;ind�termin�e;;;;-;;;;;;;;;;;;;;;;;;;;;
30/05/2020;22:01:04;46�08,565 N;001�10,070 W;0,00nds;319�;0,01nds;251�;046�;157�;05,2nds;155�;05,4nds;05,7m;-0,01nds;1013,52000hPa;0,00�C(N);22,90�C;---;31/05/2020;00:01:04;0,01nds;071�;0,01nds;087�;0,22�;5,19m;98%;+;non;ind�termin�e;;;;-;;;;;;;;;;;;;;;;;;;;;
30/05/2020;22:01:05;46�08,565 N;001�10,070 W;0,00nds;321�;0,01nds;251�;048�;163�;05,2nds;157�;05,1nds;05,7m;-0,01nds;1013,51000hPa;0,00�C(N);22,90�C;---;31/05/2020;00:01:05;0,01nds;071�;0,01nds;087�;0,22�;5,19m;98%;+;non;ind�termin�e;;;;-;;;;;;;;;;;;;;;;;;;;;
30/05/2020;22:01:06;46�08,565 N;001�10,070 W;0,00nds;299�;0,01nds;250�;054�;159�;05,5nds;163�;05,1nds;05,7m;-0,01nds;1013,51000hPa;0,00�C(N);22,90�C;---;31/05/2020;00:01:06;0,01nds;070�;0,01nds;087�;0,22�;5,19m;98%;+;non;ind�termin�e;;;;-;;;;;;;;;;;;;;;;;;;;;
30/05/2020;22:01:07;46�08,565 N;001�10,070 W;0,00nds;305�;0,01nds;250�;044�;150�;05,8nds;154�;05,6nds;05,7m;-0,01nds;1013,52000hPa;0,00�C(N);22,90�C;---;31/05/2020;00:01:07;0,01nds;070�;0,01nds;087�;0,22�;5,19m;98%;+;non;ind�termin�e;;;;-;;;;;;;;;;;;;;;;;;;;;
30/05/2020;22:01:08;46�08,565 N;001�10,070 W;0,00nds;358�;0,01nds;250�;040�;147�;05,9nds;150�;05,8nds;05,7m;-0,01nds;1013,51000hPa;0,00�C(N);22,90�C;---;31/05/2020;00:01:08;0,01nds;070�;0,01nds;087�;0,22�;5,19m;98%;+;non;ind�termin�e;;;;-;;;;;;;;;;;;;;;;;;;;;
30/05/2020;22:01:09;46�08,565 N;001�10,070 W;0,00nds;320�;0,01nds;250�;038�;148�;05,9nds;148�;05,9nds;05,7m;-0,01nds;1013,51000hPa;0,00�C(N);22,90�C;---;31/05/2020;00:01:09;0,01nds;070�;0,01nds;087�;0,22�;5,19m;98%;+;non;ind�termin�e;;;;-;;;;;;;;;;;;;;;;;;;;;
30/05/2020;22:01:10;46�08,565 N;001�10,070 W;0,00nds;235�;0,01nds;250�;043�;155�;05,6nds;153�;05,8nds;05,7m;-0,01nds;1013,51000hPa;0,00�C(N);22,90�C;---;31/05/2020;00:01:10;0,01nds;070�;0,01nds;087�;0,22�;5,19m;98%;+;non;ind�termin�e;;;;-;;;;;;;;;;;;;;;;;;;;;
30/05/2020;22:01:11;46�08,565 N;001�10,070 W;0,00nds;226�;0,02nds;250�;043�;156�;05,8nds;153�;05,8nds;05,7m;-0,02nds;1013,51000hPa;0,00�C(N);22,90�C;---;31/05/2020;00:01:11;0,02nds;070�;0,01nds;087�;0,22�;5,19m;98%;+;non;ind�termin�e;;;;-;;;;;;;;;;;;;;;;;;;;;
30/05/2020;22:01:12;46�08,565 N;001�10,070 W;0,00nds;210�;0,02nds;250�;049�;163�;06,4nds;159�;06,1nds;05,7m;-0,02nds;1013,51000hPa;0,00�C(N);22,90�C;---;31/05/2020;00:01:12;0,02nds;070�;0,01nds;087�;0,22�;5,19m;98%;+;non;ind�termin�e;;;;-;;;;;;;;;;;;;;;;;;;;;
30/05/2020;22:01:13;46�08,565 N;001�10,070 W;0,00nds;176�;0,02nds;250�;053�;163�;06,4nds;163�;06,4nds;05,7m;-0,02nds;1013,51000hPa;0,00�C(N);22,90�C;---;31/05/2020;00:01:13;0,02nds;070�;0,01nds;087�;0,22�;5,19m;98%;+;non;ind�termin�e;;;;-;;;;;;;;;;;;;;;;;;;;;
30/05/2020;22:01:14;46�08,565 N;001�10,070 W;0,00nds;174�;0,02nds;250�;053�;161�;06,3nds;163�;06,4nds;05,7m;-0,02nds;1013,51000hPa;0,00�C(N);22,90�C;---;31/05/2020;00:01:14;0,02nds;070�;0,01nds;087�;0,22�;5,19m;98%;+;non;ind�termin�e;;;;-;;;;;;;;;;;;;;;;;;;;;
30/05/2020;22:01:15;46�08,565 N;001�10,070 W;0,00nds;181�;0,02nds;251�;050�;156�;06,5nds;159�;06,3nds;05,7m;-0,02nds;1013,51000hPa;0,00�C(N);22,90�C;---;31/05/2020;00:01:15;0,02nds;071�;0,01nds;087�;0,22�;5,19m;98%;+;non;ind�termin�e;;;;-;;;;;;;;;;;;;;;;;;;;;
30/05/2020;22:01:16;46�08,565 N;001�10,070 W;0,00nds;181�;0,02nds;251�;047�;154�;06,6nds;156�;06,5nds;05,7m;-0,02nds;1013,51000hPa;0,00�C(N);22,90�C;---;31/05/2020;00:01:16;0,02nds;071�;0,01nds;087�;0,22�;5,19m;98%;+;non;ind�termin�e;;;;-;;;;;;;;;;;;;;;;;;;;;
30/05/2020;22:01:17;46�08,565 N;001�10,070 W;0,00nds;216�;0,02nds;251�;045�;154�;06,8nds;154�;06,6nds;05,7m;-0,02nds;1013,51000hPa;0,00�C(N);22,90�C;---;31/05/2020;00:01:17;0,02nds;071�;0,01nds;087�;0,22�;5,19m;98%;+;non;ind�termin�e;;;;-;;;;;;;;;;;;;;;;;;;;;
30/05/2020;22:01:18;46�08,565 N;001�10,070 W;0,00nds;237�;0,02nds;251�;051�;165�;07,1nds;160�;06,9nds;05,7m;-0,02nds;1013,51000hPa;0,00�C(N);22,90�C;---;31/05/2020;00:01:18;0,02nds;071�;0,01nds;087�;0,22�;5,19m;98%;+;non;ind�termin�e;;;;-;;;;;;;;;;;;;;;;;;;;;
30/05/2020;22:01:19;46�08,565 N;001�10,070 W;0,00nds;265�;0,02nds;251�;056�;166�;07,7nds;160�;06,9nds;05,7m;-0,02nds;1013,51000hPa;0,00�C(N);22,90�C;---;31/05/2020;00:01:19;0,02nds;071�;0,01nds;087�;0,22�;5,19m;98%;+;non;ind�termin�e;;;;-;;;;;;;;;;;;;;;;;;;;;
30/05/2020;22:01:20;46�08,565 N;001�10,070 W;0,00nds;283�;0,02nds;251�;059�;172�;07,9nds;168�;07,9nds;05,7m;-0,02nds;1013,51000hPa;0,00�C(N);22,90�C;---;31/05/2020;00:01:20;0,02nds;071�;0,01nds;087�;0,22�;5,19m;98%;+;non;ind�termin�e;;;;-;;;;;;;;;;;;;;;;;;;;;
30/05/2020;22:01:21;46�08,565 N;001�10,070 W;0,00nds;310�;0,02nds;251�;063�;175�;07,7nds;172�;07,9nds;05,7m;-0,02nds;1013,51000hPa;0,00�C(N);22,90�C;---;31/05/2020;00:01:21;0,02nds;071�;0,01nds;087�;0,22�;5,19m;98%;+;non;ind�termin�e;;;;-;;;;;;;;;;;;;;;;;;;;;
30/05/2020;22:01:22;46�08,565 N;001�10,070 W;0,00nds;325�;0,02nds;251�;066�;175�;07,5nds;175�;07,7nds;05,7m;-0,02nds;1013,52000hPa;0,00�C(N);22,90�C;---;31/05/2020;00:01:22;0,02nds;071�;0,01nds;087�;0,22�;5,19m;98%;+;non;ind�termin�e;;;;-;;;;;;;;;;;;;;;;;;;;;
30/05/2020;22:01:23;46�08,565 N;001�10,070 W;0,00nds;333�;0,02nds;250�;064�;179�;07,0nds;174�;07,2nds;05,7m;-0,02nds;1013,52000hPa;0,00�C(N);22,90�C;---;31/05/2020;00:01:23;0,02nds;070�;0,01nds;087�;0,22�;5,19m;98%;+;non;ind�termin�e;;;;-;;;;;;;;;;;;;;;;;;;;;
30/05/2020;22:01:24;46�08,565 N;001�10,070 W;0,00nds;327�;0,02nds;250�;069�;178�;07,1nds;179�;07,0nds;05,7m;-0,02nds;1013,53000hPa;0,00�C(N);22,90�C;---;31/05/2020;00:01:24;0,02nds;070�;0,01nds;087�;0,22�;5,19m;98%;+;non;ind�termin�e;;;;-;;;;;;;;;;;;;;;;;;;;;
30/05/2020;22:01:25;46�08,565 N;001�10,070 W;0,00nds;294�;0,02nds;250�;068�;179�;07,2nds;178�;07,1nds;05,7m;-0,02nds;1013,52000hPa;0,00�C(N);22,90�C;---;31/05/2020;00:01:25;0,02nds;070�;0,01nds;087�;0,22�;5,19m;98%;+;non;ind�termin�e;;;;-;;;;;;;;;;;;;;;;;;;;;
30/05/2020;22:01:26;46�08,565 N;001�10,070 W;0,00nds;041�;0,02nds;250�;068�;175�;07,3nds;178�;07,3nds;05,7m;-0,02nds;1013,52000hPa;0,00�C(N);22,90�C;---;31/05/2020;00:01:26;0,02nds;070�;0,01nds;087�;0,22�;5,19m;98%;+;non;ind�termin�e;;;;-;;;;;;;;;;;;;;;;;;;;;
30/05/2020;22:01:27;46�08,565 N;001�10,070 W;0,00nds;073�;0,02nds;250�;065�;170�;07,2nds;175�;07,3nds;05,7m;-0,02nds;1013,52000hPa;0,00�C(N);22,90�C;---;31/05/2020;00:01:27;0,02nds;070�;0,01nds;087�;0,22�;5,19m;98%;+;non;ind�termin�e;;;;-;;;;;;;;;;;;;;;;;;;;;
30/05/2020;22:01:28;46�08,565 N;001�10,070 W;0,00nds;109�;0,02nds;250�;058�;168�;06,8nds;168�;07,0nds;05,7m;-0,02nds;1013,52000hPa;0,00�C(N);22,90�C;---;31/05/2020;00:01:28;0,02nds;070�;0,01nds;087�;0,22�;5,19m;98%;+;non;ind�termin�e;;;;-;;;;;;;;;;;;;;;;;;;;;
30/05/2020;22:01:29;46�08,565 N;001�10,070 W;0,00nds;146�;0,02nds;251�;055�;161�;06,6nds;164�;06,8nds;05,7m;-0,02nds;1013,52000hPa;0,00�C(N);22,90�C;---;31/05/2020;00:01:29;0,02nds;071�;0,01nds;087�;0,22�;5,19m;98%;+;non;ind�termin�e;;;;-;;;;;;;;;;;;;;;;;;;;;
30/05/2020;22:01:30;46�08,565 N;001�10,070 W;0,00nds;150�;0,02nds;251�;055�;159�;06,4nds;164�;06,6nds;05,7m;-0,02nds;1013,52000hPa;0,00�C(N);22,90�C;---;31/05/2020;00:01:30;0,02nds;071�;0,01nds;087�;0,22�;5,19m;98%;+;non;ind�termin�e;;;;-;;;;;;;;;;;;;;;;;;;;;
30/05/2020;22:01:31;46�08,565 N;001�10,070 W;0,00nds;156�;0,02nds;251�;049�;154�;05,9nds;158�;06,1nds;05,7m;-0,02nds;1013,52000hPa;0,00�C(N);22,90�C;---;31/05/2020;00:01:31;0,02nds;071�;0,01nds;087�;0,22�;5,19m;98%;+;non;ind�termin�e;;;;-;;;;;;;;;;;;;;;;;;;;;
30/05/2020;22:01:32;46�08,565 N;001�10,070 W;0,00nds;167�;0,02nds;251�;045�;151�;05,9nds;154�;05,9nds;05,7m;-0,02nds;1013,52000hPa;0,00�C(N);22,90�C;---;31/05/2020;00:01:32;0,02nds;071�;0,01nds;087�;0,22�;5,19m;98%;+;non;ind�termin�e;;;;-;;;;;;;;;;;;;;;;;;;;;
30/05/2020;22:01:33;46�08,565 N;001�10,070 W;0,00nds;179�;0,01nds;251�;042�;149�;05,8nds;151�;05,9nds;05,7m;-0,01nds;1013,52000hPa;0,00�C(N);22,90�C;---;31/05/2020;00:01:33;0,01nds;071�;0,01nds;087�;0,22�;5,19m;98%;+;non;ind�termin�e;;;;-;;;;;;;;;;;;;;;;;;;;;
30/05/2020;22:01:34;46�08,565 N;001�10,070 W;0,00nds;229�;0,01nds;251�;037�;142�;05,7nds;146�;05,8nds;05,7m;-0,01nds;1013,52000hPa;0,00�C(N);22,90�C;---;31/05/2020;00:01:34;0,01nds;071�;0,01nds;087�;0,22�;5,19m;98%;+;non;ind�termin�e;;;;-;;;;;;;;;;;;;;;;;;;;;
30/05/2020;22:01:35;46�08,565 N;001�10,070 W;0,00nds;249�;0,01nds;251�;033�;144�;05,8nds;142�;05,7nds;05,7m;-0,01nds;1013,52000hPa;0,00�C(N);22,90�C;---;31/05/2020;00:01:35;0,01nds;071�;0,01nds;087�;0,22�;5,19m;98%;+;non;ind�termin�e;;;;-;;;;;;;;;;;;;;;;;;;;;
30/05/2020;22:01:36;46�08,565 N;001�10,070 W;0,00nds;294�;0,01nds;251�;037�;146�;06,1nds;146�;06,1nds;05,7m;-0,01nds;1013,53000hPa;0,00�C(N);22,90�C;---;31/05/2020;00:01:36;0,01nds;071�;0,01nds;087�;0,22�;5,19m;98%;+;non;ind�termin�e;;;;-;;;;;;;;;;;;;;;;;;;;;
30/05/2020;22:01:37;46�08,565 N;001�10,070 W;0,00nds;296�;0,01nds;251�;039�;149�;06,3nds;148�;06,3nds;05,7m;-0,01nds;1013,53000hPa;0,00�C(N);22,90�C;---;31/05/2020;00:01:37;0,01nds;071�;0,01nds;087�;0,22�;5,19m;98%;+;non;ind�termin�e;;;;-;;;;;;;;;;;;;;;;;;;;;
30/05/2020;22:01:38;46�08,565 N;001�10,070 W;0,00nds;303�;0,01nds;251�;039�;150�;06,7nds;148�;06,3nds;05,7m;-0,01nds;1013,53000hPa;0,00�C(N);22,90�C;---;31/05/2020;00:01:38;0,01nds;071�;0,01nds;087�;0,22�;5,19m;98%;+;non;ind�termin�e;;;;-;;;;;;;;;;;;;;;;;;;;;
30/05/2020;22:01:39;46�08,565 N;001�10,070 W;0,00nds;281�;0,01nds;250�;044�;157�;07,4nds;154�;07,1nds;05,7m;-0,01nds;1013,53000hPa;0,00�C(N);22,90�C;---;31/05/2020;00:01:39;0,01nds;070�;0,01nds;087�;0,22�;5,19m;98%;+;non;ind�termin�e;;;;-;;;;;;;;;;;;;;;;;;;;;
30/05/2020;22:01:40;46�08,565 N;001�10,070 W;0,00nds;324�;0,01nds;250�;047�;156�;07,7nds;157�;07,4nds;05,7m;-0,01nds;1013,53000hPa;0,00�C(N);22,90�C;---;31/05/2020;00:01:40;0,01nds;070�;0,01nds;087�;0,22�;5,19m;98%;+;non;ind�termin�e;;;;-;;;;;;;;;;;;;;;;;;;;;
30/05/2020;22:01:41;46�08,565 N;001�10,070 W;0,00nds;290�;0,01nds;250�;046�;157�;07,9nds;156�;07,7nds;05,7m;-0,01nds;1013,53000hPa;0,00�C(N);22,90�C;---;31/05/2020;00:01:41;0,01nds;070�;0,01nds;087�;0,22�;5,19m;98%;+;non;ind�termin�e;;;;-;;;;;;;;;;;;;;;;;;;;;
30/05/2020;22:01:42;46�08,565 N;001�10,070 W;0,00nds;345�;0,01nds;251�;049�;163�;08,4nds;158�;08,1nds;05,7m;-0,01nds;1013,53000hPa;0,00�C(N);22,90�C;---;31/05/2020;00:01:42;0,01nds;071�;0,01nds;087�;0,22�;5,19m;98%;+;non;ind�termin�e;;;;-;;;;;;;;;;;;;;;;;;;;;
30/05/2020;22:01:43;46�08,565 N;001�10,070 W;0,00nds;350�;0,01nds;251�;054�;166�;08,6nds;163�;08,4nds;05,7m;-0,01nds;1013,53000hPa;0,00�C(N);22,90�C;---;31/05/2020;00:01:43;0,01nds;071�;0,01nds;087�;0,22�;5,19m;98%;+;non;ind�termin�e;;;;-;;;;;;;;;;;;;;;;;;;;;
30/05/2020;22:01:44;46�08,565 N;001�10,070 W;0,00nds;029�;0,01nds;251�;057�;168�;08,5nds;166�;08,6nds;05,7m;-0,01nds;1013,53000hPa;0,00�C(N);22,90�C;---;31/05/2020;00:01:44;0,01nds;071�;0,01nds;087�;0,22�;5,19m;98%;+;non;ind�termin�e;;;;-;;;;;;;;;;;;;;;;;;;;;
30/05/2020;22:01:45;46�08,565 N;001�10,070 W;0,00nds;350�;0,02nds;251�;062�;173�;08,3nds;171�;08,4nds;05,7m;-0,02nds;1013,52000hPa;0,00�C(N);22,90�C;---;31/05/2020;00:01:45;0,02nds;071�;0,01nds;087�;0,22�;5,19m;98%;+;non;ind�termin�e;;;;-;;;;;;;;;;;;;;;;;;;;;
30/05/2020;22:01:46;46�08,565 N;001�10,070 W;0,00nds;344�;0,02nds;251�;062�;171�;08,0nds;171�;08,4nds;05,7m;-0,02nds;1013,52000hPa;0,00�C(N);22,90�C;---;31/05/2020;00:01:46;0,02nds;071�;0,01nds;087�;0,22�;5,19m;98%;+;non;ind�termin�e;;;;-;;;;;;;;;;;;;;;;;;;;;
30/05/2020;22:01:47;46�08,565 N;001�10,070 W;0,00nds;335�;0,02nds;251�;061�;176�;07,5nds;170�;07,7nds;05,7m;-0,02nds;1013,52000hPa;0,00�C(N);22,90�C;---;31/05/2020;00:01:47;0,02nds;071�;0,01nds;087�;0,22�;5,19m;98%;+;non;ind�termin�e;;;;-;;;;;;;;;;;;;;;;;;;;;
30/05/2020;22:01:48;46�08,565 N;001�10,070 W;0,00nds;338�;0,02nds;251�;067�;172�;07,4nds;176�;07,5nds;05,7m;-0,02nds;1013,51000hPa;0,00�C(N);22,90�C;---;31/05/2020;00:01:48;0,02nds;071�;0,01nds;087�;0,22�;5,19m;98%;+;non;ind�termin�e;;;;-;;;;;;;;;;;;;;;;;;;;;
30/05/2020;22:01:49;46�08,565 N;001�10,070 W;0,00nds;319�;0,02nds;251�;063�;166�;07,3nds;172�;07,4nds;05,7m;-0,02nds;1013,51000hPa;0,00�C(N);22,90�C;---;31/05/2020;00:01:49;0,02nds;071�;0,01nds;087�;0,22�;5,19m;99%;+;non;ind�termin�e;;;;-;;;;;;;;;;;;;;;;;;;;;
30/05/2020;22:01:50;46�08,565 N;001�10,070 W;0,00nds;318�;0,02nds;250�;058�;167�;07,0nds;168�;06,9nds;05,7m;-0,02nds;1013,51000hPa;0,00�C(N);22,90�C;---;31/05/2020;00:01:50;0,02nds;070�;0,01nds;087�;0,22�;5,19m;99%;+;non;ind�termin�e;;;;-;;;;;;;;;;;;;;;;;;;;;
30/05/2020;22:01:51;46�08,565 N;001�10,070 W;0,00nds;003�;0,02nds;250�;057�;162�;07,4nds;167�;07,0nds;05,7m;-0,02nds;1013,52000hPa;0,00�C(N);22,80�C;---;31/05/2020;00:01:51;0,02nds;070�;0,01nds;087�;0,22�;5,19m;99%;+;non;ind�termin�e;;;;-;;;;;;;;;;;;;;;;;;;;;
30/05/2020;22:01:52;46�08,565 N;001�10,070 W;0,00nds;335�;0,02nds;250�;052�;156�;07,6nds;162�;07,4nds;05,7m;-0,02nds;1013,52000hPa;0,00�C(N);22,80�C;---;31/05/2020;00:01:52;0,02nds;070�;0,01nds;087�;0,22�;5,19m;99%;+;non;ind�termin�e;;;;-;;;;;;;;;;;;;;;;;;;;;
30/05/2020;22:01:53;46�08,565 N;001�10,070 W;0,00nds;313�;0,02nds;250�;043�;152�;07,1nds;153�;07,5nds;05,7m;-0,02nds;1013,51000hPa;0,00�C(N);22,80�C;---;31/05/2020;00:01:53;0,02nds;070�;0,01nds;087�;0,22�;5,19m;99%;+;non;ind�termin�e;;;;-;;;;;;;;;;;;;;;;;;;;;
30/05/2020;22:01:54;46�08,565 N;001�10,070 W;0,00nds;284�;0,02nds;250�;042�;159�;06,7nds;152�;07,1nds;05,7m;-0,02nds;1013,52000hPa;0,00�C(N);22,80�C;---;31/05/2020;00:01:54;0,02nds;070�;0,01nds;087�;0,22�;5,19m;99%;+;non;ind�termin�e;;;;-;;;;;;;;;;;;;;;;;;;;;
30/05/2020;22:01:55;46�08,565 N;001�10,070 W;0,00nds;244�;0,02nds;250�;047�;157�;06,5nds;157�;06,5nds;05,7m;-0,02nds;1013,51000hPa;0,00�C(N);22,80�C;---;31/05/2020;00:01:55;0,02nds;070�;0,01nds;087�;0,22�;5,19m;99%;+;non;ind�termin�e;;;;-;;;;;;;;;;;;;;;;;;;;;
30/05/2020;22:01:56;46�08,565 N;001�10,070 W;0,00nds;281�;0,02nds;250�;046�;155�;06,2nds;156�;06,5nds;05,7m;-0,02nds;1013,51000hPa;0,00�C(N);22,80�C;---;31/05/2020;00:01:56;0,02nds;070�;0,01nds;087�;0,22�;5,19m;99%;+;non;ind�termin�e;;;;-;;;;;;;;;;;;;;;;;;;;;
30/05/2020;22:01:57;46�08,565 N;001�10,070 W;0,00nds;243�;0,01nds;250�;046�;157�;06,0nds;156�;06,2nds;05,7m;-0,01nds;1013,51000hPa;0,00�C(N);22,80�C;---;31/05/2020;00:01:57;0,01nds;070�;0,01nds;087�;0,22�;5,19m;99%;+;non;ind�termin�e;;;;-;;;;;;;;;;;;;;;;;;;;;
30/05/2020;22:01:58;46�08,565 N;001�10,070 W;0,00nds;228�;0,01nds;251�;047�;153�;05,8nds;156�;05,8nds;05,7m;-0,01nds;1013,51000hPa;0,00�C(N);22,80�C;---;31/05/2020;00:01:58;0,01nds;071�;0,01nds;087�;0,22�;5,19m;99%;+;non;ind�termin�e;;;;-;;;;;;;;;;;;;;;;;;;;;
30/05/2020;22:01:59;46�08,565 N;001�10,070 W;0,00nds;210�;0,01nds;251�;044�;152�;06,0nds;153�;05,8nds;05,7m;-0,01nds;1013,51000hPa;0,00�C(N);22,80�C;---;31/05/2020;00:01:59;0,01nds;071�;0,01nds;087�;0,22�;5,19m;99%;+;non;ind�termin�e;;;;-;;;;;;;;;;;;;;;;;;;;;
30/05/2020;22:02:00;46�08,565 N;001�10,070 W;0,00nds;194�;0,01nds;251�;043�;151�;06,3nds;152�;06,0nds;05,7m;-0,01nds;1013,51000hPa;0,00�C(N);22,80�C;---;31/05/2020;00:02:00;0,01nds;071�;0,01nds;087�;0,22�;5,19m;99%;+;non;ind�termin�e;;;;-;;;;;;;;;;;;;;;;;;;;;
30/05/2020;22:02:01;46�08,565 N;001�10,070 W;0,00nds;199�;0,01nds;251�;041�;148�;06,5nds;150�;06,4nds;05,7m;-0,01nds;1013,51000hPa;0,00�C(N);22,80�C;---;31/05/2020;00:02:01;0,01nds;071�;0,01nds;087�;0,22�;5,19m;99%;+;non;ind�termin�e;;;;-;;;;;;;;;;;;;;;;;;;;;
30/05/2020;22:02:02;46�08,565 N;001�10,070 W;0,00nds;221�;0,01nds;251�;039�;146�;06,5nds;148�;06,5nds;05,7m;-0,01nds;1013,51000hPa;0,00�C(N);22,80�C;---;31/05/2020;00:02:02;0,01nds;071�;0,01nds;087�;0,22�;5,19m;99%;+;non;ind�termin�e;;;;-;;;;;;;;;;;;;;;;;;;;;
30/05/2020;22:02:03;46�08,565 N;001�10,070 W;0,00nds;262�;0,01nds;251�;040�;149�;06,6nds;149�;06,6nds;05,7m;-0,01nds;1013,51000hPa;0,00�C(N);22,80�C;---;31/05/2020;00:02:03;0,01nds;071�;0,01nds;087�;0,22�;5,19m;99%;+;non;ind�termin�e;;;;-;;;;;;;;;;;;;;;;;;;;;
30/05/2020;22:02:04;46�08,565 N;001�10,070 W;0,00nds;283�;0,01nds;251�;046�;157�;06,1nds;155�;06,4nds;05,7m;-0,01nds;1013,52000hPa;0,00�C(N);22,80�C;---;31/05/2020;00:02:04;0,01nds;071�;0,01nds;087�;0,22�;5,19m;99%;+;non;ind�termin�e;;;;-;;;;;;;;;;;;;;;;;;;;;
30/05/2020;22:02:05;46�08,565 N;001�10,070 W;0,00nds;284�;0,01nds;251�;046�;157�;05,8nds;155�;06,4nds;05,7m;-0,01nds;1013,52000hPa;0,00�C(N);22,80�C;---;31/05/2020;00:02:05;0,01nds;071�;0,01nds;087�;0,22�;5,19m;99%;+;non;ind�termin�e;;;;-;;;;;;;;;;;;;;;;;;;;;
30/05/2020;22:02:06;46�08,565 N;001�10,070 W;0,00nds;302�;0,01nds;250�;049�;158�;05,7nds;158�;05,7nds;05,7m;-0,01nds;1013,51000hPa;0,00�C(N);22,90�C;---;31/05/2020;00:02:06;0,01nds;070�;0,01nds;087�;0,22�;5,19m;99%;+;non;ind�termin�e;;;;-;;;;;;;;;;;;;;;;;;;;;
30/05/2020;22:02:07;46�08,565 N;001�10,070 W;0,00nds;354�;0,02nds;250�;048�;158�;05,7nds;158�;05,7nds;05,7m;-0,02nds;1013,51000hPa;0,00�C(N);22,90�C;---;31/05/2020;00:02:07;0,02nds;070�;0,01nds;087�;0,22�;5,19m;99%;+;non;ind�termin�e;;;;-;;;;;;;;;;;;;;;;;;;;;
30/05/2020;22:02:08;46�08,565 N;001�10,070 W;0,00nds;313�;0,02nds;250�;048�;158�;05,6nds;158�;05,7nds;05,7m;-0,02nds;1013,51000hPa;0,00�C(N);22,90�C;---;31/05/2020;00:02:08;0,02nds;070�;0,01nds;087�;0,22�;5,19m;99%;+;non;ind�termin�e;;;;-;;;;;;;;;;;;;;;;;;;;;
30/05/2020;22:02:09;46�08,565 N;001�10,070 W;0,00nds;343�;0,02nds;250�;047�;163�;05,3nds;157�;05,4nds;05,7m;-0,02nds;1013,51000hPa;0,00�C(N);22,90�C;---;31/05/2020;00:02:09;0,02nds;070�;0,01nds;087�;0,22�;5,19m;99%;+;non;ind�termin�e;;;;-;;;;;;;;;;;;;;;;;;;;;
30/05/2020;22:02:10;46�08,565 N;001�10,070 W;0,00nds;011�;0,02nds;250�;053�;166�;05,3nds;163�;05,3nds;05,7m;-0,02nds;1013,51000hPa;0,00�C(N);22,90�C;---;31/05/2020;00:02:10;0,02nds;070�;0,01nds;087�;0,22�;5,19m;99%;+;non;ind�termin�e;;;;-;;;;;;;;;;;;;;;;;;;;;
30/05/2020;22:02:11;46�08,565 N;001�10,070 W;0,00nds;031�;0,02nds;250�;056�;168�;05,4nds;166�;05,4nds;05,7m;-0,02nds;1013,51000hPa;0,00�C(N);22,90�C;---;31/05/2020;00:02:11;0,02nds;070�;0,01nds;087�;0,22�;5,19m;99%;+;non;ind�termin�e;;;;-;;;;;;;;;;;;;;;;;;;;;
30/05/2020;22:02:12;46�08,565 N;001�10,070 W;0,00nds;037�;0,02nds;250�;056�;168�;05,6nds;166�;05,5nds;05,7m;-0,02nds;1013,51000hPa;0,00�C(N);22,90�C;---;31/05/2020;00:02:12;0,02nds;070�;0,01nds;087�;0,22�;5,19m;99%;+;non;ind�termin�e;;;;-;;;;;;;;;;;;;;;;;;;;;
30/05/2020;22:02:13;46�08,565 N;001�10,070 W;0,00nds;016�;0,02nds;250�;056�;169�;05,9nds;166�;05,5nds;05,7m;-0,02nds;1013,51000hPa;0,00�C(N);22,80�C;---;31/05/2020;00:02:13;0,02nds;070�;0,01nds;087�;0,22�;5,19m;99%;+;non;ind�termin�e;;;;-;;;;;;;;;;;;;;;;;;;;;
30/05/2020;22:02:14;46�08,565 N;001�10,070 W;0,00nds;345�;0,02nds;250�;060�;169�;06,7nds;170�;06,4nds;05,7m;-0,02nds;1013,51000hPa;0,00�C(N);22,80�C;---;31/05/2020;00:02:14;0,02nds;070�;0,01nds;087�;0,22�;5,19m;99%;+;non;ind�termin�e;;;;-;;;;;;;;;;;;;;;;;;;;;
30/05/2020;22:02:15;46�08,565 N;001�10,070 W;0,00nds;259�;0,02nds;250�;059�;170�;07,0nds;169�;06,7nds;05,7m;-0,02nds;1013,51000hPa;0,00�C(N);22,80�C;---;31/05/2020;00:02:15;0,02nds;070�;0,01nds;087�;0,22�;5,19m;99%;+;non;ind�termin�e;;;;-;;;;;;;;;;;;;;;;;;;;;
30/05/2020;22:02:16;46�08,565 N;001�10,070 W;0,00nds;237�;0,02nds;250�;060�;167�;06,9nds;170�;07,0nds;05,7m;-0,02nds;1013,51000hPa;0,00�C(N);22,80�C;---;31/05/2020;00:02:16;0,02nds;070�;0,01nds;087�;0,22�;5,19m;99%;+;non;ind�termin�e;;;;-;;;;;;;;;;;;;;;;;;;;;
30/05/2020;22:02:17;46�08,565 N;001�10,070 W;0,00nds;233�;0,02nds;250�;053�;166�;06,3nds;163�;06,4nds;05,7m;-0,02nds;1013,51000hPa;0,00�C(N);22,80�C;---;31/05/2020;00:02:17;0,02nds;070�;0,01nds;087�;0,22�;5,19m;99%;+;non;ind�termin�e;;;;-;;;;;;;;;;;;;;;;;;;;;
30/05/2020;22:02:18;46�08,565 N;001�10,070 W;0,00nds;224�;0,02nds;250�;056�;164�;06,1nds;166�;06,3nds;05,7m;-0,02nds;1013,52000hPa;0,00�C(N);22,80�C;---;31/05/2020;00:02:18;0,02nds;070�;0,01nds;087�;0,22�;5,19m;99%;+;non;ind�termin�e;;;;-;;;;;;;;;;;;;;;;;;;;;
30/05/2020;22:02:19;46�08,565 N;001�10,070 W;0,00nds;217�;0,02nds;251�;054�;163�;05,9nds;164�;06,1nds;05,7m;-0,02nds;1013,52000hPa;0,00�C(N);22,80�C;---;31/05/2020;00:02:19;0,02nds;071�;0,01nds;087�;0,22�;5,19m;99%;+;non;ind�termin�e;;;;-;;;;;;;;;;;;;;;;;;;;;
30/05/2020;22:02:20;46�08,565 N;001�10,070 W;0,00nds;286�;0,02nds;251�;055�;167�;05,7nds;164�;05,7nds;05,7m;-0,02nds;1013,51000hPa;0,00�C(N);22,80�C;---;31/05/2020;00:02:20;0,02nds;071�;0,01nds;087�;0,22�;5,19m;99%;+;non;ind�termin�e;;;;-;;;;;;;;;;;;;;;;;;;;;
30/05/2020;22:02:21;46�08,565 N;001�10,070 W;0,00nds;300�;0,02nds;251�;058�;167�;05,8nds;167�;05,7nds;05,7m;-0,02nds;1013,51000hPa;0,00�C(N);22,90�C;---;31/05/2020;00:02:21;0,02nds;071�;0,01nds;087�;0,22�;5,19m;99%;+;non;ind�termin�e;;;;-;;;;;;;;;;;;;;;;;;;;;
30/05/2020;22:02:22;46�08,565 N;001�10,070 W;0,00nds;330�;0,02nds;251�;058�;167�;05,7nds;167�;05,7nds;05,7m;-0,02nds;1013,51000hPa;0,00�C(N);22,90�C;---;31/05/2020;00:02:22;0,02nds;071�;0,01nds;087�;0,22�;5,19m;99%;+;non;ind�termin�e;;;;-;;;;;;;;;;;;;;;;;;;;;
30/05/2020;22:02:23;46�08,565 N;001�10,070 W;0,00nds;281�;0,02nds;251�;059�;172�;05,3nds;168�;05,4nds;05,7m;-0,02nds;1013,51000hPa;0,00�C(N);22,90�C;---;31/05/2020;00:02:23;0,02nds;071�;0,01nds;087�;0,22�;5,19m;99%;+;non;ind�termin�e;;;;-;;;;;;;;;;;;;;;;;;;;;
30/05/2020;22:02:24;46�08,565 N;001�10,070 W;0,00nds;289�;0,02nds;251�;063�;173�;05,5nds;172�;05,3nds;05,7m;-0,02nds;1013,51000hPa;0,00�C(N);22,90�C;---;31/05/2020;00:02:24;0,02nds;071�;0,01nds;087�;0,22�;5,19m;99%;+;non;ind�termin�e;;;;-;;;;;;;;;;;;;;;;;;;;;
30/05/2020;22:02:25;46�08,565 N;001�10,070 W;0,00nds;267�;0,01nds;251�;066�;173�;05,8nds;175�;05,6nds;05,7m;-0,01nds;1013,51000hPa;0,00�C(N);22,90�C;---;31/05/2020;00:02:25;0,01nds;071�;0,01nds;087�;0,22�;5,19m;99%;+;non;ind�termin�e;;;;-;;;;;;;;;;;;;;;;;;;;;
30/05/2020;22:02:26;46�08,565 N;001�10,070 W;0,00nds;300�;0,01nds;251�;064�;171�;06,0nds;173�;05,8nds;05,7m;-0,01nds;1013,51000hPa;0,00�C(N);22,90�C;---;31/05/2020;00:02:26;0,01nds;071�;0,01nds;087�;0,22�;5,19m;99%;+;non;ind�termin�e;;;;-;;;;;;;;;;;;;;;;;;;;;
30/05/2020;22:02:27;46�08,565 N;001�10,070 W;0,00nds;305�;0,01nds;251�;062�;169�;06,2nds;171�;06,0nds;05,7m;-0,01nds;1013,51000hPa;0,00�C(N);22,90�C;---;31/05/2020;00:02:27;0,01nds;071�;0,01nds;087�;0,22�;5,19m;99%;+;non;ind�termin�e;;;;-;;;;;;;;;;;;;;;;;;;;;
30/05/2020;22:02:28;46�08,565 N;001�10,070 W;0,00nds;306�;0,01nds;251�;058�;166�;06,2nds;167�;06,3nds;05,7m;-0,01nds;1013,50000hPa;0,00�C(N);22,90�C;---;31/05/2020;00:02:28;0,01nds;071�;0,01nds;087�;0,22�;5,19m;99%;+;non;ind�termin�e;;;;-;;;;;;;;;;;;;;;;;;;;;
30/05/2020;22:02:29;46�08,565 N;001�10,070 W;0,00nds;298�;0,01nds;251�;057�;164�;06,0nds;166�;06,2nds;05,7m;-0,01nds;1013,50000hPa;0,00�C(N);22,80�C;---;31/05/2020;00:02:29;0,01nds;071�;0,01nds;087�;0,22�;5,19m;99%;+;non;ind�termin�e;;;;-;;;;;;;;;;;;;;;;;;;;;
30/05/2020;22:02:30;46�08,565 N;001�10,070 W;0,00nds;267�;0,01nds;250�;054�;164�;05,8nds;164�;05,8nds;05,7m;-0,01nds;1013,50000hPa;0,00�C(N);22,80�C;---;31/05/2020;00:02:30;0,01nds;070�;0,00nds;087�;0,22�;5,19m;99%;+;non;ind�termin�e;;;;-;;;;;;;;;;;;;;;;;;;;;
30/05/2020;22:02:31;46�08,565 N;001�10,070 W;0,00nds;222�;0,01nds;250�;052�;162�;05,2nds;162�;05,5nds;05,7m;-0,01nds;1013,50000hPa;0,00�C(N);22,80�C;---;31/05/2020;00:02:31;0,01nds;070�;0,00nds;087�;0,22�;5,19m;99%;+;non;ind�termin�e;;;;-;;;;;;;;;;;;;;;;;;;;;
30/05/2020;22:02:32;46�08,565 N;001�10,070 W;0,00nds;210�;0,01nds;250�;052�;163�;05,1nds;162�;05,5nds;05,7m;-0,01nds;1013,51000hPa;0,00�C(N);22,80�C;---;31/05/2020;00:02:32;0,01nds;070�;0,00nds;087�;0,22�;5,19m;99%;+;non;ind�termin�e;;;;-;;;;;;;;;;;;;;;;;;;;;
30/05/2020;22:02:33;46�08,565 N;001�10,070 W;0,00nds;172�;0,01nds;250�;054�;163�;04,8nds;164�;05,0nds;05,7m;-0,01nds;1013,51000hPa;0,00�C(N);22,80�C;---;31/05/2020;00:02:33;0,01nds;070�;0,00nds;087�;0,22�;5,19m;99%;+;non;ind�termin�e;;;;-;;;;;;;;;;;;;;;;;;;;;
30/05/2020;22:02:34;46�08,565 N;001�10,070 W;0,00nds;159�;0,01nds;250�;053�;162�;04,6nds;163�;04,8nds;05,7m;-0,01nds;1013,50000hPa;0,00�C(N);22,80�C;---;31/05/2020;00:02:34;0,01nds;070�;0,00nds;087�;0,22�;5,19m;99%;+;non;ind�termin�e;;;;-;;;;;;;;;;;;;;;;;;;;;
30/05/2020;22:02:35;46�08,565 N;001�10,070 W;0,00nds;180�;0,01nds;250�;052�;160�;04,4nds;162�;04,6nds;05,7m;-0,01nds;1013,50000hPa;0,00�C(N);22,80�C;---;31/05/2020;00:02:35;0,01nds;070�;0,00nds;087�;0,22�;5,19m;99%;+;non;ind�termin�e;;;;-;;;;;;;;;;;;;;;;;;;;;
30/05/2020;22:02:36;46�08,565 N;001�10,070 W;0,00nds;172�;0,01nds;251�;049�;162�;04,5nds;159�;04,5nds;05,7m;-0,01nds;1013,51000hPa;0,00�C(N);22,80�C;---;31/05/2020;00:02:36;0,01nds;071�;0,00nds;087�;0,22�;5,19m;99%;+;non;ind�termin�e;;;;-;;;;;;;;;;;;;;;;;;;;;
30/05/2020;22:02:37;46�08,565 N;001�10,070 W;0,00nds;169�;0,01nds;250�;053�;163�;04,6nds;162�;04,5nds;05,7m;-0,01nds;1013,51000hPa;0,00�C(N);22,80�C;---;31/05/2020;00:02:37;0,01nds;070�;0,00nds;087�;0,22�;5,19m;99%;+;non;ind�termin�e;;;;-;;;;;;;;;;;;;;;;;;;;;
30/05/2020;22:02:38;46�08,565 N;001�10,070 W;0,00nds;109�;0,01nds;251�;055�;164�;04,8nds;164�;04,8nds;05,7m;-0,01nds;1013,51000hPa;0,00�C(N);22,80�C;---;31/05/2020;00:02:38;0,01nds;071�;0,00nds;087�;0,22�;5,19m;99%;+;non;ind�termin�e;;;;-;;;;;;;;;;;;;;;;;;;;;
30/05/2020;22:02:39;46�08,565 N;001�10,070 W;0,00nds;078�;0,01nds;251�;054�;167�;04,7nds;163�;04,7nds;05,7m;-0,01nds;1013,51000hPa;0,00�C(N);22,80�C;---;31/05/2020;00:02:39;0,01nds;071�;0,00nds;087�;0,22�;5,20m;99%;+;non;ind�termin�e;;;;-;;;;;;;;;;;;;;;;;;;;;
30/05/2020;22:02:40;46�08,565 N;001�10,070 W;0,00nds;043�;0,01nds;251�;054�;169�;04,9nds;163�;04,7nds;05,7m;-0,01nds;1013,51000hPa;0,00�C(N);22,80�C;---;31/05/2020;00:02:40;0,01nds;071�;0,00nds;087�;0,22�;5,20m;99%;+;non;ind�termin�e;;;;-;;;;;;;;;;;;;;;;;;;;;
30/05/2020;22:02:41;46�08,565 N;001�10,070 W;0,00nds;027�;0,01nds;250�;062�;173�;06,4nds;171�;05,6nds;05,7m;-0,01nds;1013,51000hPa;0,00�C(N);22,80�C;---;31/05/2020;00:02:41;0,01nds;070�;0,00nds;087�;0,22�;5,20m;99%;+;non;ind�termin�e;;;;-;;;;;;;;;;;;;;;;;;;;;
30/05/2020;22:02:42;46�08,565 N;001�10,070 W;0,00nds;349�;0,01nds;250�;063�;170�;07,0nds;173�;06,4nds;05,7m;-0,01nds;1013,51000hPa;0,00�C(N);22,80�C;---;31/05/2020;00:02:42;0,01nds;070�;0,00nds;087�;0,22�;5,20m;99%;+;non;ind�termin�e;;;;-;;;;;;;;;;;;;;;;;;;;;
30/05/2020;22:02:43;46�08,565 N;001�10,070 W;0,00nds;355�;0,01nds;250�;060�;167�;07,2nds;170�;07,0nds;05,7m;-0,01nds;1013,51000hPa;0,00�C(N);22,80�C;---;31/05/2020;00:02:43;0,01nds;070�;0,00nds;087�;0,22�;5,20m;99%;+;non;ind�termin�e;;;;-;;;;;;;;;;;;;;;;;;;;;
30/05/2020;22:02:44;46�08,565 N;001�10,070 W;0,00nds;024�;0,01nds;250�;052�;162�;07,2nds;162�;07,3nds;05,7m;-0,01nds;1013,51000hPa;0,00�C(N);22,80�C;---;31/05/2020;00:02:44;0,01nds;070�;0,00nds;087�;0,22�;5,20m;99%;+;non;ind�termin�e;;;;-;;;;;;;;;;;;;;;;;;;;;
30/05/2020;22:02:45;46�08,565 N;001�10,070 W;0,00nds;011�;0,01nds;250�;052�;165�;06,9nds;162�;07,2nds;05,7m;-0,01nds;1013,51000hPa;0,00�C(N);22,80�C;---;31/05/2020;00:02:45;0,01nds;070�;0,00nds;087�;0,22�;5,20m;99%;+;non;ind�termin�e;;;;-;;;;;;;;;;;;;;;;;;;;;
30/05/2020;22:02:46;46�08,565 N;001�10,070 W;0,00nds;352�;0,01nds;250�;055�;166�;06,8nds;165�;06,8nds;05,7m;-0,01nds;1013,51000hPa;0,00�C(N);22,80�C;---;31/05/2020;00:02:46;0,01nds;070�;0,00nds;087�;0,22�;5,20m;99%;+;non;ind�termin�e;;;;-;;;;;;;;;;;;;;;;;;;;;
30/05/2020;22:02:47;46�08,565 N;001�10,070 W;0,00nds;293�;0,01nds;250�;056�;162�;06,7nds;166�;06,8nds;05,7m;-0,01nds;1013,51000hPa;0,00�C(N);22,80�C;---;31/05/2020;00:02:47;0,01nds;070�;0,00nds;087�;0,22�;5,20m;99%;+;non;ind�termin�e;;;;-;;;;;;;;;;;;;;;;;;;;;
30/05/2020;22:02:48;46�08,565 N;001�10,070 W;0,00nds;255�;0,01nds;250�;056�;162�;06,5nds;166�;06,8nds;05,7m;-0,01nds;1013,51000hPa;0,00�C(N);22,80�C;---;31/05/2020;00:02:48;0,01nds;070�;0,00nds;087�;0,22�;5,20m;99%;+;non;ind�termin�e;;;;-;;;;;;;;;;;;;;;;;;;;;
30/05/2020;22:02:49;46�08,565 N;001�10,070 W;0,00nds;245�;0,01nds;250�;050�;161�;06,2nds;160�;06,3nds;05,7m;-0,01nds;1013,51000hPa;0,00�C(N);22,80�C;---;31/05/2020;00:02:49;0,01nds;070�;0,00nds;087�;0,22�;5,20m;99%;+;non;ind�termin�e;;;;-;;;;;;;;;;;;;;;;;;;;;
30/05/2020;22:02:50;46�08,565 N;001�10,070 W;0,00nds;169�;0,01nds;250�;051�;159�;06,2nds;161�;06,2nds;05,7m;-0,01nds;1013,51000hPa;0,00�C(N);22,80�C;---;31/05/2020;00:02:50;0,01nds;070�;0,00nds;087�;0,22�;5,20m;99%;+;non;ind�termin�e;;;;-;;;;;;;;;;;;;;;;;;;;;
30/05/2020;22:02:51;46�08,565 N;001�10,070 W;0,00nds;170�;0,01nds;250�;049�;158�;06,4nds;159�;06,1nds;05,7m;-0,01nds;1013,51000hPa;0,00�C(N);22,80�C;---;31/05/2020;00:02:51;0,01nds;070�;0,00nds;087�;0,22�;5,20m;99%;+;non;ind�termin�e;;;;-;;;;;;;;;;;;;;;;;;;;;
30/05/2020;22:02:52;46�08,565 N;001�10,070 W;0,00nds;187�;0,01nds;250�;047�;160�;06,3nds;157�;06,4nds;05,7m;-0,01nds;1013,51000hPa;0,00�C(N);22,80�C;---;31/05/2020;00:02:52;0,01nds;070�;0,00nds;087�;0,22�;5,20m;99%;+;non;ind�termin�e;;;;-;;;;;;;;;;;;;;;;;;;;;
30/05/2020;22:02:53;46�08,565 N;001�10,070 W;0,00nds;183�;0,01nds;250�;050�;165�;06,8nds;160�;06,3nds;05,7m;-0,01nds;1013,51000hPa;0,00�C(N);22,80�C;---;31/05/2020;00:02:53;0,01nds;070�;0,00nds;087�;0,22�;5,20m;99%;+;non;ind�termin�e;;;;-;;;;;;;;;;;;;;;;;;;;;
30/05/2020;22:02:54;46�08,565 N;001�10,070 W;0,00nds;183�;0,01nds;250�;055�;169�;07,5nds;165�;06,8nds;05,7m;-0,01nds;1013,51000hPa;0,00�C(N);22,80�C;---;31/05/2020;00:02:54;0,01nds;070�;0,00nds;087�;0,22�;5,20m;99%;+;non;ind�termin�e;;;;-;;;;;;;;;;;;;;;;;;;;;
30/05/2020;22:02:55;46�08,565 N;001�10,070 W;0,00nds;151�;0,01nds;250�;060�;173�;08,4nds;170�;08,0nds;05,7m;-0,01nds;1013,51000hPa;0,00�C(N);22,80�C;---;31/05/2020;00:02:55;0,01nds;070�;0,00nds;087�;0,22�;5,20m;99%;+;non;ind�termin�e;;;;-;;;;;;;;;;;;;;;;;;;;;
30/05/2020;22:02:56;46�08,565 N;001�10,070 W;0,00nds;124�;0,01nds;250�;063�;172�;08,8nds;173�;08,3nds;05,8m;-0,01nds;1013,51000hPa;0,00�C(N);22,80�C;---;31/05/2020;00:02:56;0,01nds;070�;0,00nds;087�;0,22�;5,20m;99%;+;non;ind�termin�e;;;;-;;;;;;;;;;;;;;;;;;;;;
30/05/2020;22:02:57;46�08,565 N;001�10,070 W;0,00nds;088�;0,01nds;250�;061�;171�;08,8nds;171�;08,8nds;05,8m;-0,01nds;1013,51000hPa;0,00�C(N);22,80�C;---;31/05/2020;00:02:57;0,01nds;070�;0,00nds;087�;0,22�;5,20m;99%;+;non;ind�termin�e;;;;-;;;;;;;;;;;;;;;;;;;;;
30/05/2020;22:02:58;46�08,565 N;001�10,070 W;0,00nds;049�;0,01nds;250�;060�;173�;08,9nds;170�;08,8nds;05,7m;-0,01nds;1013,51000hPa;0,00�C(N);22,90�C;---;31/05/2020;00:02:58;0,01nds;070�;0,00nds;087�;0,22�;5,20m;99%;+;non;ind�termin�e;;;;-;;;;;;;;;;;;;;;;;;;;;
30/05/2020;22:02:59;46�08,565 N;001�10,070 W;0,00nds;033�;0,01nds;250�;063�;174�;08,8nds;173�;08,8nds;05,7m;-0,01nds;1013,51000hPa;0,00�C(N);22,90�C;---;31/05/2020;00:02:59;0,01nds;070�;0,00nds;087�;0,22�;5,20m;99%;+;non;ind�termin�e;;;;-;;;;;;;;;;;;;;;;;;;;;
30/05/2020;22:03:00;46�08,565 N;001�10,070 W;0,00nds;343�;0,01nds;250�;062�;172�;09,8nds;172�;09,1nds;05,7m;-0,01nds;1013,51000hPa;0,00�C(N);22,90�C;---;31/05/2020;00:03:00;0,01nds;070�;0,00nds;087�;0,22�;5,20m;99%;+;non;ind�termin�e;;;;-;;;;;;;;;;;;;;;;;;;;;
30/05/2020;22:03:01;46�08,565 N;001�10,070 W;0,00nds;344�;0,01nds;250�;062�;173�;10,1nds;172�;09,8nds;05,7m;-0,01nds;1013,51000hPa;0,00�C(N);22,90�C;---;31/05/2020;00:03:01;0,01nds;070�;0,00nds;087�;0,22�;5,20m;99%;+;non;ind�termin�e;;;;-;;;;;;;;;;;;;;;;;;;;;
30/05/2020;22:03:02;46�08,565 N;001�10,070 W;0,00nds;317�;0,01nds;250�;063�;171�;09,8nds;173�;10,1nds;05,7m;-0,01nds;1013,51000hPa;0,00�C(N);22,90�C;---;31/05/2020;00:03:02;0,01nds;070�;0,00nds;087�;0,22�;5,20m;99%;+;non;ind�termin�e;;;;-;;;;;;;;;;;;;;;;;;;;;
30/05/2020;22:03:03;46�08,565 N;001�10,070 W;0,00nds;243�;0,01nds;250�;057�;162�;09,1nds;167�;09,3nds;05,7m;-0,01nds;1013,51000hPa;0,00�C(N);22,90�C;---;31/05/2020;00:03:03;0,01nds;070�;0,00nds;087�;0,22�;5,20m;99%;+;non;ind�termin�e;;;;-;;;;;;;;;;;;;;;;;;;;;
30/05/2020;22:03:04;46�08,565 N;001�10,070 W;0,00nds;231�;0,01nds;250�;052�;158�;08,7nds;162�;09,1nds;05,7m;-0,01nds;1013,51000hPa;0,00�C(N);22,90�C;---;31/05/2020;00:03:04;0,01nds;070�;0,00nds;087�;0,22�;5,20m;99%;+;non;ind�termin�e;;;;-;;;;;;;;;;;;;;;;;;;;;
30/05/2020;22:03:05;46�08,565 N;001�10,070 W;0,00nds;212�;0,01nds;250�;051�;161�;08,3nds;161�;08,3nds;05,7m;-0,01nds;1013,52000hPa;0,00�C(N);22,90�C;---;31/05/2020;00:03:05;0,01nds;070�;0,00nds;087�;0,22�;5,20m;99%;+;non;ind�termin�e;;;;-;;;;;;;;;;;;;;;;;;;;;
30/05/2020;22:03:06;46�08,565 N;001�10,070 W;0,00nds;191�;0,01nds;250�;055�;169�;08,2nds;165�;08,3nds;05,7m;-0,01nds;1013,51000hPa;0,00�C(N);22,80�C;---;31/05/2020;00:03:06;0,01nds;070�;0,00nds;087�;0,22�;5,20m;99%;+;non;ind�termin�e;;;;-;;;;;;;;;;;;;;;;;;;;;
30/05/2020;22:03:07;46�08,565 N;001�10,070 W;0,00nds;231�;0,01nds;250�;055�;168�;08,2nds;165�;08,2nds;05,7m;-0,01nds;1013,51000hPa;0,00�C(N);22,80�C;---;31/05/2020;00:03:07;0,01nds;070�;0,00nds;087�;0,22�;5,20m;99%;+;non;ind�termin�e;;;;-;;;;;;;;;;;;;;;;;;;;;
30/05/2020;22:03:08;46�08,565 N;001�10,070 W;0,00nds;227�;0,01nds;250�;060�;165�;07,5nds;170�;08,1nds;05,7m;-0,01nds;1013,51000hPa;0,00�C(N);22,80�C;---;31/05/2020;00:03:08;0,01nds;070�;0,00nds;087�;0,22�;5,20m;99%;+;non;ind�termin�e;;;;-;;;;;;;;;;;;;;;;;;;;;
30/05/2020;22:03:09;46�08,565 N;001�10,070 W;0,00nds;162�;0,01nds;250�;055�;160�;06,8nds;165�;07,5nds;05,7m;-0,01nds;1013,51000hPa;0,00�C(N);22,80�C;---;31/05/2020;00:03:09;0,01nds;070�;0,00nds;087�;0,22�;5,20m;99%;+;non;ind�termin�e;;;;-;;;;;;;;;;;;;;;;;;;;;
30/05/2020;22:03:10;46�08,565 N;001�10,070 W;0,00nds;167�;0,01nds;250�;050�;160�;06,2nds;160�;06,8nds;05,7m;-0,01nds;1013,51000hPa;0,00�C(N);22,80�C;---;31/05/2020;00:03:10;0,01nds;070�;0,00nds;087�;0,22�;5,20m;99%;+;non;ind�termin�e;;;;-;;;;;;;;;;;;;;;;;;;;;
30/05/2020;22:03:11;46�08,565 N;001�10,070 W;0,00nds;185�;0,01nds;250�;046�;157�;05,6nds;156�;05,8nds;05,7m;-0,01nds;1013,52000hPa;0,00�C(N);22,80�C;---;31/05/2020;00:03:11;0,01nds;070�;0,00nds;087�;0,22�;5,20m;99%;+;non;ind�termin�e;;;;-;;;;;;;;;;;;;;;;;;;;;
30/05/2020;22:03:12;46�08,565 N;001�10,070 W;0,00nds;185�;0,01nds;251�;047�;157�;05,4nds;157�;05,6nds;05,7m;-0,01nds;1013,51000hPa;0,00�C(N);22,80�C;---;31/05/2020;00:03:12;0,01nds;071�;0,00nds;087�;0,22�;5,20m;99%;+;non;ind�termin�e;;;;-;;;;;;;;;;;;;;;;;;;;;
30/05/2020;22:03:13;46�08,565 N;001�10,070 W;0,00nds;191�;0,01nds;251�;047�;156�;05,3nds;156�;05,3nds;05,7m;-0,01nds;1013,51000hPa;0,00�C(N);22,90�C;---;31/05/2020;00:03:13;0,01nds;071�;0,00nds;087�;0,22�;5,20m;99%;+;non;ind�termin�e;;;;-;;;;;;;;;;;;;;;;;;;;;
30/05/2020;22:03:14;46�08,565 N;001�10,070 W;0,00nds;262�;0,01nds;251�;048�;162�;05,0nds;157�;05,1nds;05,7m;-0,01nds;1013,51000hPa;0,00�C(N);22,90�C;---;31/05/2020;00:03:14;0,01nds;071�;0,00nds;087�;0,22�;5,20m;99%;+;non;ind�termin�e;;;;-;;;;;;;;;;;;;;;;;;;;;
30/05/2020;22:03:15;46�08,565 N;001�10,070 W;0,00nds;268�;0,01nds;251�;048�;166�;05,4nds;157�;05,1nds;05,7m;-0,01nds;1013,51000hPa;0,00�C(N);22,90�C;---;31/05/2020;00:03:15;0,01nds;071�;0,00nds;087�;0,22�;5,20m;99%;+;non;ind�termin�e;;;;-;;;;;;;;;;;;;;;;;;;;;
30/05/2020;22:03:16;46�08,565 N;001�10,070 W;0,00nds;299�;0,01nds;251�;057�;162�;05,5nds;166�;05,6nds;05,7m;-0,01nds;1013,51000hPa;0,00�C(N);22,90�C;---;31/05/2020;00:03:16;0,01nds;071�;0,00nds;087�;0,22�;5,20m;99%;+;non;ind�termin�e;;;;-;;;;;;;;;;;;;;;;;;;;;
30/05/2020;22:03:17;46�08,565 N;001�10,070 W;0,00nds;324�;0,01nds;251�;053�;158�;05,7nds;162�;05,5nds;05,7m;-0,01nds;1013,51000hPa;0,00�C(N);22,90�C;---;31/05/2020;00:03:17;0,01nds;071�;0,00nds;087�;0,22�;5,20m;99%;+;non;ind�termin�e;;;;-;;;;;;;;;;;;;;;;;;;;;
30/05/2020;22:03:18;46�08,565 N;001�10,070 W;0,00nds;331�;0,01nds;251�;049�;151�;05,8nds;158�;05,7nds;05,7m;-0,01nds;1013,52000hPa;0,00�C(N);22,90�C;---;31/05/2020;00:03:18;0,01nds;071�;0,00nds;087�;0,22�;5,20m;99%;+;non;ind�termin�e;;;;-;;;;;;;;;;;;;;;;;;;;;
30/05/2020;22:03:19;46�08,565 N;001�10,070 W;0,00nds;351�;0,01nds;250�;036�;146�;05,9nds;145�;06,0nds;05,7m;-0,01nds;1013,52000hPa;0,00�C(N);22,90�C;---;31/05/2020;00:03:19;0,01nds;070�;0,00nds;087�;0,22�;5,20m;99%;+;non;ind�termin�e;;;;-;;;;;;;;;;;;;;;;;;;;;
30/05/2020;22:03:20;46�08,565 N;001�10,070 W;0,00nds;023�;0,01nds;250�;036�;145�;05,4nds;146�;05,9nds;05,7m;-0,01nds;1013,52000hPa;0,00�C(N);22,90�C;---;31/05/2020;00:03:20;0,01nds;070�;0,00nds;087�;0,22�;5,20m;99%;+;non;ind�termin�e;;;;-;;;;;;;;;;;;;;;;;;;;;
30/05/2020;22:03:21;46�08,565 N;001�10,070 W;0,00nds;359�;0,01nds;250�;035�;148�;04,9nds;145�;04,9nds;05,7m;-0,01nds;1013,52000hPa;0,00�C(N);22,80�C;---;31/05/2020;00:03:21;0,01nds;070�;0,00nds;087�;0,22�;5,20m;99%;+;non;ind�termin�e;;;;-;;;;;;;;;;;;;;;;;;;;;
30/05/2020;22:03:22;46�08,565 N;001�10,070 W;0,00nds;047�;0,01nds;250�;041�;151�;04,4nds;151�;04,5nds;05,7m;-0,01nds;1013,52000hPa;0,00�C(N);22,80�C;---;31/05/2020;00:03:22;0,01nds;070�;0,00nds;087�;0,22�;5,20m;99%;+;non;ind�termin�e;;;;-;;;;;;;;;;;;;;;;;;;;;
30/05/2020;22:03:23;46�08,565 N;001�10,070 W;0,00nds;086�;0,01nds;250�;041�;153�;04,3nds;151�;04,5nds;05,7m;-0,01nds;1013,52000hPa;0,00�C(N);22,80�C;---;31/05/2020;00:03:23;0,01nds;070�;0,00nds;087�;0,22�;5,20m;99%;+;non;ind�termin�e;;;;-;;;;;;;;;;;;;;;;;;;;;
30/05/2020;22:03:24;46�08,565 N;001�10,070 W;0,00nds;114�;0,01nds;250�;043�;152�;05,4nds;153�;04,6nds;05,7m;-0,01nds;1013,52000hPa;0,00�C(N);22,80�C;---;31/05/2020;00:03:24;0,01nds;070�;0,00nds;087�;0,22�;5,20m;99%;+;non;ind�termin�e;;;;-;;;;;;;;;;;;;;;;;;;;;
30/05/2020;22:03:25;46�08,565 N;001�10,070 W;0,00nds;115�;0,01nds;250�;042�;154�;05,9nds;152�;05,4nds;05,7m;-0,01nds;1013,52000hPa;0,00�C(N);22,80�C;---;31/05/2020;00:03:25;0,01nds;070�;0,00nds;087�;0,22�;5,20m;99%;+;non;ind�termin�e;;;;-;;;;;;;;;;;;;;;;;;;;;
30/05/2020;22:03:26;46�08,565 N;001�10,070 W;0,00nds;102�;0,01nds;250�;044�;157�;06,3nds;154�;05,9nds;05,7m;-0,01nds;1013,52000hPa;0,00�C(N);22,80�C;---;31/05/2020;00:03:26;0,01nds;070�;0,00nds;087�;0,22�;5,20m;99%;+;non;ind�termin�e;;;;-;;;;;;;;;;;;;;;;;;;;;
30/05/2020;22:03:27;46�08,565 N;001�10,070 W;0,00nds;055�;0,01nds;250�;044�;150�;06,7nds;154�;06,5nds;05,7m;-0,01nds;1013,51000hPa;0,00�C(N);22,80�C;---;31/05/2020;00:03:27;0,01nds;070�;0,00nds;087�;0,22�;5,20m;99%;+;non;ind�termin�e;;;;-;;;;;;;;;;;;;;;;;;;;;
30/05/2020;22:03:28;46�08,565 N;001�10,070 W;0,00nds;056�;0,01nds;251�;040�;147�;06,6nds;150�;06,6nds;05,7m;-0,01nds;1013,51000hPa;0,00�C(N);22,80�C;---;31/05/2020;00:03:28;0,01nds;071�;0,00nds;087�;0,22�;5,20m;99%;+;non;ind�termin�e;;;;-;;;;;;;;;;;;;;;;;;;;;
30/05/2020;22:03:29;46�08,565 N;001�10,070 W;0,00nds;088�;0,01nds;251�;038�;147�;06,7nds;147�;06,5nds;05,7m;-0,01nds;1013,52000hPa;0,00�C(N);22,80�C;---;31/05/2020;00:03:29;0,01nds;071�;0,00nds;087�;0,22�;5,20m;99%;+;non;ind�termin�e;;;;-;;;;;;;;;;;;;;;;;;;;;
30/05/2020;22:03:30;46�08,565 N;001�10,070 W;0,00nds;059�;0,01nds;251�;040�;152�;07,4nds;149�;07,0nds;05,7m;-0,01nds;1013,51000hPa;0,00�C(N);22,80�C;---;31/05/2020;00:03:30;0,01nds;071�;0,00nds;087�;0,22�;5,20m;99%;+;non;ind�termin�e;;;;-;;;;;;;;;;;;;;;;;;;;;
30/05/2020;22:03:31;46�08,565 N;001�10,070 W;0,00nds;020�;0,01nds;251�;043�;154�;07,8nds;152�;07,4nds;05,7m;-0,01nds;1013,51000hPa;0,00�C(N);22,80�C;---;31/05/2020;00:03:31;0,01nds;071�;0,00nds;087�;0,22�;5,20m;99%;+;non;ind�termin�e;;;;-;;;;;;;;;;;;;;;;;;;;;
30/05/2020;22:03:32;46�08,565 N;001�10,070 W;0,00nds;326�;0,01nds;251�;046�;155�;07,7nds;155�;07,9nds;05,7m;-0,01nds;1013,51000hPa;0,00�C(N);22,80�C;---;31/05/2020;00:03:32;0,01nds;071�;0,00nds;087�;0,22�;5,20m;99%;+;non;ind�termin�e;;;;-;;;;;;;;;;;;;;;;;;;;;
30/05/2020;22:03:33;46�08,565 N;001�10,070 W;0,00nds;287�;0,01nds;250�;051�;165�;07,8nds;161�;07,6nds;05,7m;-0,01nds;1013,52000hPa;0,00�C(N);22,80�C;---;31/05/2020;00:03:33;0,01nds;070�;0,00nds;087�;0,22�;5,20m;99%;+;non;ind�termin�e;;;;-;;;;;;;;;;;;;;;;;;;;;
30/05/2020;22:03:34;46�08,565 N;001�10,070 W;0,00nds;296�;0,01nds;250�;055�;165�;08,1nds;165�;07,8nds;05,7m;-0,01nds;1013,52000hPa;0,00�C(N);22,80�C;---;31/05/2020;00:03:34;0,01nds;070�;0,00nds;087�;0,22�;5,20m;99%;+;non;ind�termin�e;;;;-;;;;;;;;;;;;;;;;;;;;;
30/05/2020;22:03:35;46�08,565 N;001�10,070 W;0,00nds;271�;0,01nds;250�;057�;169�;08,9nds;167�;08,5nds;05,7m;-0,01nds;1013,52000hPa;0,00�C(N);22,80�C;---;31/05/2020;00:03:35;0,01nds;070�;0,00nds;087�;0,22�;5,20m;99%;+;non;ind�termin�e;;;;-;;;;;;;;;;;;;;;;;;;;;
30/05/2020;22:03:36;46�08,565 N;001�10,070 W;0,00nds;258�;0,01nds;250�;059�;172�;08,8nds;169�;08,8nds;05,7m;-0,01nds;1013,52000hPa;0,00�C(N);22,80�C;---;31/05/2020;00:03:36;0,01nds;070�;0,00nds;087�;0,22�;5,20m;99%;+;non;ind�termin�e;;;;-;;;;;;;;;;;;;;;;;;;;;
30/05/2020;22:03:37;46�08,565 N;001�10,070 W;0,00nds;296�;0,01nds;250�;062�;173�;08,3nds;172�;08,8nds;05,7m;-0,01nds;1013,52000hPa;0,00�C(N);22,80�C;---;31/05/2020;00:03:37;0,01nds;070�;0,00nds;087�;0,22�;5,20m;99%;+;non;ind�termin�e;;;;-;;;;;;;;;;;;;;;;;;;;;
30/05/2020;22:03:38;46�08,565 N;001�10,070 W;0,00nds;260�;0,01nds;250�;066�;175�;07,2nds;176�;07,6nds;05,7m;-0,01nds;1013,52000hPa;0,00�C(N);22,80�C;---;31/05/2020;00:03:38;0,01nds;070�;0,00nds;087�;0,22�;5,20m;99%;+;non;ind�termin�e;;;;-;;;;;;;;;;;;;;;;;;;;;
30/05/2020;22:03:39;46�08,565 N;001�10,070 W;0,00nds;231�;0,01nds;250�;065�;173�;06,9nds;175�;07,1nds;05,7m;-0,01nds;1013,52000hPa;0,00�C(N);22,80�C;---;31/05/2020;00:03:39;0,01nds;070�;0,00nds;087�;0,22�;5,20m;99%;+;non;ind�termin�e;;;;-;;;;;;;;;;;;;;;;;;;;;
30/05/2020;22:03:40;46�08,565 N;001�10,070 W;0,00nds;190�;0,01nds;250�;058�;168�;06,7nds;168�;06,6nds;05,7m;-0,01nds;1013,52000hPa;0,00�C(N);22,80�C;---;31/05/2020;00:03:40;0,01nds;070�;0,00nds;087�;0,22�;5,20m;99%;+;non;ind�termin�e;;;;-;;;;;;;;;;;;;;;;;;;;;
30/05/2020;22:03:41;46�08,565 N;001�10,070 W;0,00nds;220�;0,01nds;250�;056�;168�;06,7nds;166�;06,6nds;05,7m;-0,01nds;1013,52000hPa;0,00�C(N);22,80�C;---;31/05/2020;00:03:41;0,01nds;070�;0,00nds;087�;0,22�;5,20m;99%;+;non;ind�termin�e;;;;-;;;;;;;;;;;;;;;;;;;;;
30/05/2020;22:03:42;46�08,565 N;001�10,070 W;0,00nds;217�;0,01nds;251�;056�;167�;06,7nds;166�;06,6nds;05,7m;-0,01nds;1013,52000hPa;0,00�C(N);22,80�C;---;31/05/2020;00:03:42;0,01nds;071�;0,00nds;087�;0,22�;5,20m;99%;+;non;ind�termin�e;;;;-;;;;;;;;;;;;;;;;;;;;;
30/05/2020;22:03:43;46�08,565 N;001�10,070 W;0,00nds;246�;0,01nds;251�;054�;161�;06,2nds;163�;06,4nds;05,7m;-0,01nds;1013,52000hPa;0,00�C(N);22,80�C;---;31/05/2020;00:03:43;0,01nds;071�;0,00nds;087�;0,22�;5,20m;99%;+;non;ind�termin�e;;;;-;;;;;;;;;;;;;;;;;;;;;
30/05/2020;22:03:44;46�08,565 N;001�10,070 W;0,00nds;264�;0,01nds;250�;052�;161�;05,9nds;161�;06,1nds;05,7m;-0,01nds;1013,52000hPa;0,00�C(N);22,90�C;---;31/05/2020;00:03:44;0,01nds;070�;0,00nds;087�;0,22�;5,20m;99%;+;non;ind�termin�e;;;;-;;;;;;;;;;;;;;;;;;;;;
30/05/2020;22:03:45;46�08,565 N;001�10,070 W;0,00nds;258�;0,01nds;250�;051�;158�;05,6nds;161�;05,9nds;05,7m;-0,01nds;1013,52000hPa;0,00�C(N);22,90�C;---;31/05/2020;00:03:45;0,01nds;070�;0,00nds;087�;0,22�;5,20m;99%;+;non;ind�termin�e;;;;-;;;;;;;;;;;;;;;;;;;;;
30/05/2020;22:03:46;46�08,565 N;001�10,070 W;0,00nds;245�;0,01nds;250�;050�;162�;05,1nds;160�;05,3nds;05,7m;-0,01nds;1013,52000hPa;0,00�C(N);22,90�C;---;31/05/2020;00:03:46;0,01nds;070�;0,00nds;087�;0,22�;5,20m;99%;+;non;ind�termin�e;;;;-;;;;;;;;;;;;;;;;;;;;;
30/05/2020;22:03:47;46�08,565 N;001�10,070 W;0,00nds;299�;0,01nds;250�;052�;162�;04,9nds;162�;05,1nds;05,7m;-0,01nds;1013,52000hPa;0,00�C(N);22,90�C;---;31/05/2020;00:03:47;0,01nds;070�;0,00nds;087�;0,22�;5,20m;99%;+;non;ind�termin�e;;;;-;;;;;;;;;;;;;;;;;;;;;
30/05/2020;22:03:48;46�08,565 N;001�10,070 W;0,00nds;331�;0,01nds;250�;048�;158�;05,0nds;158�;05,0nds;05,7m;-0,01nds;1013,52000hPa;0,00�C(N);22,90�C;---;31/05/2020;00:03:48;0,01nds;070�;0,00nds;087�;0,22�;5,20m;99%;+;non;ind�termin�e;;;;-;;;;;;;;;;;;;;;;;;;;;
30/05/2020;22:03:49;46�08,565 N;001�10,070 W;0,00nds;307�;0,01nds;250�;048�;157�;05,4nds;158�;05,1nds;05,7m;-0,01nds;1013,52000hPa;0,00�C(N);22,90�C;---;31/05/2020;00:03:49;0,01nds;070�;0,00nds;087�;0,22�;5,20m;99%;+;non;ind�termin�e;;;;-;;;;;;;;;;;;;;;;;;;;;
30/05/2020;22:03:50;46�08,565 N;001�10,070 W;0,00nds;314�;0,01nds;250�;048�;160�;05,3nds;158�;05,1nds;05,7m;-0,01nds;1013,51000hPa;0,00�C(N);22,90�C;---;31/05/2020;00:03:50;0,01nds;070�;0,00nds;087�;0,22�;5,20m;99%;+;non;ind�termin�e;;;;-;;;;;;;;;;;;;;;;;;;;;
30/05/2020;22:03:51;46�08,565 N;001�10,070 W;0,00nds;350�;0,01nds;250�;054�;173�;05,3nds;164�;05,3nds;05,7m;-0,01nds;1013,51000hPa;0,00�C(N);22,80�C;---;31/05/2020;00:03:51;0,01nds;070�;0,00nds;087�;0,22�;5,20m;99%;+;non;ind�termin�e;;;;-;;;;;;;;;;;;;;;;;;;;;
30/05/2020;22:03:52;46�08,565 N;001�10,070 W;0,00nds;008�;0,01nds;251�;063�;179�;05,1nds;173�;05,3nds;05,7m;-0,01nds;1013,51000hPa;0,00�C(N);22,80�C;---;31/05/2020;00:03:52;0,01nds;071�;0,00nds;087�;0,22�;5,20m;99%;+;non;ind�termin�e;;;;-;;;;;;;;;;;;;;;;;;;;;
30/05/2020;22:03:53;46�08,565 N;001�10,070 W;0,00nds;324�;0,01nds;251�;070�;178�;04,9nds;179�;05,0nds;05,7m;-0,01nds;1013,51000hPa;0,00�C(N);22,80�C;---;31/05/2020;00:03:53;0,01nds;071�;0,00nds;087�;0,22�;5,20m;99%;+;non;ind�termin�e;;;;-;;;;;;;;;;;;;;;;;;;;;
30/05/2020;22:03:54;46�08,565 N;001�10,070 W;0,00nds;339�;0,01nds;250�;066�;176�;04,4nds;175�;04,6nds;05,7m;-0,01nds;1013,51000hPa;0,00�C(N);22,80�C;---;31/05/2020;00:03:54;0,01nds;070�;0,00nds;087�;0,22�;5,20m;99%;+;non;ind�termin�e;;;;-;;;;;;;;;;;;;;;;;;;;;
30/05/2020;22:03:55;46�08,565 N;001�10,070 W;0,00nds;303�;0,01nds;251�;066�;176�;04,1nds;176�;04,4nds;05,7m;-0,01nds;1013,51000hPa;0,00�C(N);22,80�C;---;31/05/2020;00:03:55;0,01nds;071�;0,00nds;087�;0,22�;5,20m;99%;+;non;ind�termin�e;;;;-;;;;;;;;;;;;;;;;;;;;;
30/05/2020;22:03:56;46�08,565 N;001�10,070 W;0,00nds;304�;0,01nds;251�;067�;175�;04,0nds;176�;04,0nds;05,7m;-0,01nds;1013,51000hPa;0,00�C(N);22,80�C;---;31/05/2020;00:03:56;0,01nds;071�;0,00nds;087�;0,22�;5,20m;99%;+;non;ind�termin�e;;;;-;;;;;;;;;;;;;;;;;;;;;
30/05/2020;22:03:57;46�08,565 N;001�10,070 W;0,00nds;264�;0,00nds;251�;063�;167�;04,0nds;172�;03,9nds;05,7m;-0,00nds;1013,51000hPa;0,00�C(N);22,80�C;---;31/05/2020;00:03:57;0,00nds;264�;0,00nds;087�;0,22�;5,20m;99%;+;non;ind�termin�e;;;;-;;;;;;;;;;;;;;;;;;;;;
30/05/2020;22:03:58;46�08,565 N;001�10,070 W;0,00nds;298�;0,00nds;251�;058�;165�;04,1nds;167�;03,9nds;05,7m;-0,00nds;1013,51000hPa;0,00�C(N);22,80�C;---;31/05/2020;00:03:58;0,00nds;298�;0,00nds;087�;0,22�;5,20m;99%;+;non;ind�termin�e;;;;-;;;;;;;;;;;;;;;;;;;;;
30/05/2020;22:03:59;46�08,565 N;001�10,070 W;0,00nds;253�;0,01nds;251�;060�;169�;04,1nds;169�;04,0nds;05,7m;-0,01nds;1013,51000hPa;0,00�C(N);22,80�C;---;31/05/2020;00:03:59;0,01nds;071�;0,00nds;087�;0,22�;5,20m;99%;+;non;ind�termin�e;;;;-;;;;;;;;;;;;;;;;;;;;;
30/05/2020;22:04:00;46�08,565 N;001�10,070 W;0,00nds;235�;0,01nds;251�;058�;172�;04,6nds;167�;04,3nds;05,7m;-0,01nds;1013,50000hPa;0,00�C(N);22,80�C;---;31/05/2020;00:04:00;0,01nds;071�;0,00nds;087�;0,22�;5,20m;99%;+;non;ind�termin�e;;;;-;;;;;;;;;;;;;;;;;;;;;
30/05/2020;22:04:01;46�08,565 N;001�10,070 W;0,00nds;274�;0,01nds;251�;063�;172�;04,9nds;172�;04,5nds;05,7m;-0,01nds;1013,50000hPa;0,00�C(N);22,80�C;---;31/05/2020;00:04:01;0,01nds;071�;0,00nds;087�;0,22�;5,20m;99%;+;non;ind�termin�e;;;;-;;;;;;;;;;;;;;;;;;;;;
30/05/2020;22:04:02;46�08,565 N;001�10,070 W;0,00nds;301�;0,01nds;251�;059�;167�;04,9nds;168�;05,0nds;05,7m;-0,01nds;1013,50000hPa;0,00�C(N);22,80�C;---;31/05/2020;00:04:02;0,01nds;071�;0,00nds;087�;0,22�;5,20m;99%;+;non;ind�termin�e;;;;-;;;;;;;;;;;;;;;;;;;;;
30/05/2020;22:04:03;46�08,565 N;001�10,070 W;0,00nds;330�;0,01nds;250�;058�;163�;04,7nds;167�;04,9nds;05,7m;-0,01nds;1013,50000hPa;0,00�C(N);22,80�C;---;31/05/2020;00:04:03;0,01nds;070�;0,00nds;087�;0,22�;5,20m;99%;+;non;ind�termin�e;;;;-;;;;;;;;;;;;;;;;;;;;;
30/05/2020;22:04:04;46�08,565 N;001�10,070 W;0,00nds;350�;0,01nds;250�;053�;162�;04,5nds;163�;04,7nds;05,7m;-0,01nds;1013,50000hPa;0,00�C(N);22,80�C;---;31/05/2020;00:04:04;0,01nds;070�;0,00nds;087�;0,22�;5,20m;99%;+;non;ind�termin�e;;;;-;;;;;;;;;;;;;;;;;;;;;
30/05/2020;22:04:05;46�08,565 N;001�10,070 W;0,00nds;026�;0,01nds;251�;051�;162�;04,0nds;161�;04,3nds;05,7m;-0,01nds;1013,50000hPa;0,00�C(N);22,80�C;---;31/05/2020;00:04:05;0,01nds;071�;0,00nds;087�;0,22�;5,20m;99%;+;non;ind�termin�e;;;;-;;;;;;;;;;;;;;;;;;;;;
30/05/2020;22:04:06;46�08,565 N;001�10,070 W;0,00nds;352�;0,01nds;251�;053�;162�;03,9nds;162�;04,0nds;05,7m;-0,01nds;1013,00000hPa;0,00�C(N);22,80�C;---;31/05/2020;00:04:06;0,01nds;071�;0,00nds;087�;0,22�;5,20m;99%;+;non;ind�termin�e;;;;-;;;;;;;;;;;;;;;;;;;;;
30/05/2020;22:04:07;46�08,565 N;001�10,070 W;0,00nds;343�;0,01nds;251�;049�;158�;04,1nds;158�;04,1nds;05,7m;-0,01nds;1013,50000hPa;0,00�C(N);22,80�C;---;31/05/2020;00:04:07;0,01nds;071�;0,00nds;087�;0,22�;5,20m;99%;+;non;ind�termin�e;;;;-;;;;;;;;;;;;;;;;;;;;;
30/05/2020;22:04:08;46�08,565 N;001�10,070 W;0,00nds;070�;0,01nds;251�;047�;154�;05,4nds;156�;04,6nds;05,7m;-0,01nds;1013,00000hPa;0,00�C(N);22,80�C;---;31/05/2020;00:04:08;0,01nds;071�;0,00nds;087�;0,22�;5,20m;99%;+;non;ind�termin�e;;;;-;;;;;;;;;;;;;;;;;;;;;
30/05/2020;22:04:09;46�08,565 N;001�10,070 W;0,00nds;115�;0,01nds;251�;047�;150�;05,7nds;156�;04,6nds;05,7m;-0,01nds;1013,00000hPa;0,00�C(N);22,80�C;---;31/05/2020;00:04:09;0,01nds;071�;0,00nds;087�;0,22�;5,20m;99%;+;non;ind�termin�e;;;;-;;;;;;;;;;;;;;;;;;;;;
30/05/2020;22:04:10;46�08,565 N;001�10,070 W;0,00nds;108�;0,01nds;251�;044�;157�;05,3nds;153�;05,5nds;05,7m;-0,01nds;1014,00000hPa;0,00�C(N);22,80�C;---;31/05/2020;00:04:10;0,01nds;071�;0,00nds;087�;0,22�;5,20m;99%;+;non;ind�termin�e;;;;-;;;;;;;;;;;;;;;;;;;;;
30/05/2020;22:04:11;46�08,565 N;001�10,070 W;0,00nds;074�;0,01nds;251�;048�;162�;05,3nds;157�;05,3nds;05,7m;-0,01nds;1013,50000hPa;0,00�C(N);22,80�C;---;31/05/2020;00:04:11;0,01nds;071�;0,00nds;087�;0,22�;5,20m;99%;+;non;ind�termin�e;;;;-;;;;;;;;;;;;;;;;;;;;;
30/05/2020;22:04:12;46�08,565 N;001�10,070 W;0,00nds;107�;0,01nds;251�;053�;161�;05,3nds;162�;05,3nds;05,7m;-0,01nds;1013,50000hPa;0,00�C(N);22,80�C;---;31/05/2020;00:04:12;0,01nds;071�;0,00nds;087�;0,22�;5,20m;99%;+;non;ind�termin�e;;;;-;;;;;;;;;;;;;;;;;;;;;
30/05/2020;22:04:13;46�08,565 N;001�10,070 W;0,00nds;227�;0,01nds;251�;051�;160�;05,1nds;160�;05,1nds;05,7m;-0,01nds;1013,50000hPa;0,00�C(N);22,80�C;---;31/05/2020;00:04:13;0,01nds;071�;0,00nds;087�;0,22�;5,20m;99%;+;non;ind�termin�e;;;;-;;;;;;;;;;;;;;;;;;;;;
30/05/2020;22:04:14;46�08,565 N;001�10,070 W;0,00nds;184�;0,01nds;251�;051�;158�;05,0nds;160�;05,0nds;05,7m;-0,01nds;1013,51000hPa;0,00�C(N);22,80�C;---;31/05/2020;00:04:14;0,01nds;071�;0,00nds;087�;0,22�;5,20m;99%;+;non;ind�termin�e;;;;-;;;;;;;;;;;;;;;;;;;;;
30/05/2020;22:04:15;46�08,565 N;001�10,070 W;0,00nds;157�;0,01nds;251�;046�;155�;04,8nds;155�;04,8nds;05,7m;-0,01nds;1013,51000hPa;0,00�C(N);22,80�C;---;31/05/2020;00:04:15;0,01nds;071�;0,00nds;087�;0,22�;5,20m;99%;+;non;ind�termin�e;;;;-;;;;;;;;;;;;;;;;;;;;;
30/05/2020;22:04:16;46�08,565 N;001�10,070 W;0,00nds;123�;0,01nds;250�;045�;154�;04,9nds;154�;04,7nds;05,7m;-0,01nds;1013,51000hPa;0,00�C(N);22,80�C;---;31/05/2020;00:04:16;0,01nds;070�;0,00nds;087�;0,22�;5,20m;99%;+;non;ind�termin�e;;;;-;;;;;;;;;;;;;;;;;;;;;
30/05/2020;22:04:17;46�08,565 N;001�10,070 W;0,00nds;141�;0,01nds;250�;045�;153�;05,2nds;154�;04,7nds;05,7m;-0,01nds;1013,51000hPa;0,00�C(N);22,80�C;---;31/05/2020;00:04:17;0,01nds;070�;0,00nds;087�;0,22�;5,20m;99%;+;non;ind�termin�e;;;;-;;;;;;;;;;;;;;;;;;;;;
30/05/2020;22:04:18;46�08,565 N;001�10,070 W;0,00nds;124�;0,00nds;250�;043�;153�;04,9nds;153�;05,0nds;05,7m;-0,00nds;1013,51000hPa;0,00�C(N);22,80�C;---;31/05/2020;00:04:18;0,00nds;124�;0,00nds;087�;0,22�;5,20m;99%;+;non;ind�termin�e;;;;-;;;;;;;;;;;;;;;;;;;;;
30/05/2020;22:04:19;46�08,565 N;001�10,070 W;0,00nds;129�;0,00nds;250�;043�;158�;04,6nds;153�;04,8nds;05,7m;-0,00nds;1013,51000hPa;0,00�C(N);22,80�C;---;31/05/2020;00:04:19;0,00nds;129�;0,00nds;087�;0,22�;5,20m;99%;+;non;ind�termin�e;;;;-;;;;;;;;;;;;;;;;;;;;;
30/05/2020;22:04:20;46�08,565 N;001�10,070 W;0,00nds;133�;0,00nds;251�;048�;159�;04,4nds;158�;04,5nds;05,7m;-0,00nds;1013,52000hPa;0,00�C(N);22,80�C;---;31/05/2020;00:04:20;0,00nds;133�;0,00nds;087�;0,22�;5,20m;99%;+;non;ind�termin�e;;;;-;;;;;;;;;;;;;;;;;;;;;
30/05/2020;22:04:21;46�08,565 N;001�10,070 W;0,00nds;194�;0,00nds;251�;048�;158�;04,2nds;157�;04,3nds;05,7m;-0,00nds;1013,53000hPa;0,00�C(N);22,80�C;---;31/05/2020;00:04:21;0,00nds;194�;0,00nds;087�;0,22�;5,20m;99%;+;non;ind�termin�e;;;;-;;;;;;;;;;;;;;;;;;;;;
30/05/2020;22:04:22;46�08,565 N;001�10,070 W;0,00nds;217�;0,00nds;251�;049�;160�;04,2nds;158�;04,1nds;05,7m;-0,00nds;1013,53000hPa;0,00�C(N);22,80�C;---;31/05/2020;00:04:22;0,00nds;217�;0,00nds;087�;0,22�;5,20m;99%;+;non;ind�termin�e;;;;-;;;;;;;;;;;;;;;;;;;;;
30/05/2020;22:04:23;46�08,565 N;001�10,070 W;0,00nds;250�;0,01nds;251�;051�;162�;04,3nds;160�;04,1nds;05,7m;-0,01nds;1013,53000hPa;0,00�C(N);22,80�C;---;31/05/2020;00:04:23;0,01nds;071�;0,00nds;087�;0,22�;5,20m;99%;+;non;ind�termin�e;;;;-;;;;;;;;;;;;;;;;;;;;;
30/05/2020;22:04:24;46�08,565 N;001�10,070 W;0,00nds;304�;0,01nds;251�;058�;171�;04,7nds;167�;04,4nds;05,7m;-0,01nds;1013,53000hPa;0,00�C(N);22,80�C;---;31/05/2020;00:04:24;0,01nds;071�;0,00nds;087�;0,22�;5,20m;99%;+;non;ind�termin�e;;;;-;;;;;;;;;;;;;;;;;;;;;
30/05/2020;22:04:25;46�08,565 N;001�10,070 W;0,00nds;315�;0,01nds;250�;058�;177�;04,9nds;167�;04,4nds;05,7m;-0,01nds;1013,52000hPa;0,00�C(N);22,80�C;---;31/05/2020;00:04:25;0,01nds;070�;0,00nds;087�;0,22�;5,20m;99%;+;non;ind�termin�e;;;;-;;;;;;;;;;;;;;;;;;;;;
30/05/2020;22:04:26;46�08,565 N;001�10,070 W;0,00nds;328�;0,01nds;250�;070�;180�;05,2nds;180�;05,0nds;05,7m;-0,01nds;1013,52000hPa;0,00�C(N);22,80�C;---;31/05/2020;00:04:26;0,01nds;070�;0,00nds;087�;0,22�;5,20m;99%;+;non;ind�termin�e;;;;-;;;;;;;;;;;;;;;;;;;;;
30/05/2020;22:04:27;46�08,565 N;001�10,070 W;0,00nds;017�;0,01nds;250�;070�;185�;05,2nds;180�;05,1nds;05,7m;-0,01nds;1013,53000hPa;0,00�C(N);22,80�C;---;31/05/2020;00:04:27;0,01nds;070�;0,00nds;087�;0,22�;5,20m;99%;+;non;ind�termin�e;;;;-;;;;;;;;;;;;;;;;;;;;;
30/05/2020;22:04:28;46�08,565 N;001�10,070 W;0,00nds;337�;0,01nds;250�;075�;191�;04,9nds;185�;05,1nds;05,7m;-0,01nds;1013,53000hPa;0,00�C(N);22,90�C;---;31/05/2020;00:04:28;0,01nds;070�;0,00nds;087�;0,22�;5,20m;99%;+;non;ind�termin�e;;;;-;;;;;;;;;;;;;;;;;;;;;
30/05/2020;22:04:29;46�08,565 N;001�10,070 W;0,00nds;009�;0,01nds;251�;082�;195�;04,7nds;191�;04,5nds;05,7m;-0,01nds;1013,53000hPa;0,00�C(N);22,90�C;---;31/05/2020;00:04:29;0,01nds;071�;0,00nds;087�;0,22�;5,20m;99%;+;non;ind�termin�e;;;;-;;;;;;;;;;;;;;;;;;;;;
30/05/2020;22:04:30;46�08,565 N;001�10,070 W;0,00nds;004�;0,01nds;250�;086�;185�;04,6nds;195�;04,6nds;05,7m;-0,01nds;1013,53000hPa;0,00�C(N);22,90�C;---;31/05/2020;00:04:30;0,01nds;070�;0,00nds;087�;0,22�;5,20m;99%;+;non;ind�termin�e;;;;-;;;;;;;;;;;;;;;;;;;;;
30/05/2020;22:04:31;46�08,565 N;001�10,070 W;0,00nds;008�;0,01nds;251�;075�;182�;04,5nds;185�;04,6nds;05,7m;-0,01nds;1013,53000hPa;0,00�C(N);22,90�C;---;31/05/2020;00:04:31;0,01nds;071�;0,00nds;087�;0,22�;5,20m;99%;+;non;ind�termin�e;;;;-;;;;;;;;;;;;;;;;;;;;;
30/05/2020;22:04:32;46�08,565 N;001�10,070 W;0,00nds;009�;0,01nds;250�;065�;168�;04,4nds;175�;04,5nds;05,7m;-0,01nds;1013,52000hPa;0,00�C(N);22,90�C;---;31/05/2020;00:04:32;0,01nds;070�;0,00nds;087�;0,22�;5,20m;99%;+;non;ind�termin�e;;;;-;;;;;;;;;;;;;;;;;;;;;
30/05/2020;22:04:33;46�08,565 N;001�10,070 W;0,00nds;356�;0,01nds;250�;058�;165�;04,3nds;168�;04,4nds;05,7m;-0,01nds;1013,52000hPa;0,00�C(N);22,90�C;---;31/05/2020;00:04:33;0,01nds;070�;0,00nds;087�;0,22�;5,20m;99%;+;non;ind�termin�e;;;;-;;;;;;;;;;;;;;;;;;;;;
30/05/2020;22:04:34;46�08,565 N;001�10,070 W;0,00nds;343�;0,01nds;250�;053�;163�;04,2nds;163�;04,1nds;05,7m;-0,01nds;1013,52000hPa;0,00�C(N);22,90�C;---;31/05/2020;00:04:34;0,01nds;070�;0,00nds;087�;0,22�;5,20m;99%;+;non;ind�termin�e;;;;-;;;;;;;;;;;;;;;;;;;;;
30/05/2020;22:04:35;46�08,565 N;001�10,070 W;0,00nds;353�;0,01nds;250�;053�;167�;04,3nds;163�;04,0nds;05,7m;-0,01nds;1013,52000hPa;0,00�C(N);22,90�C;---;31/05/2020;00:04:35;0,01nds;070�;0,00nds;087�;0,22�;5,20m;99%;+;non;ind�termin�e;;;;-;;;;;;;;;;;;;;;;;;;;;
30/05/2020;22:04:36;46�08,565 N;001�10,070 W;0,00nds;034�;0,01nds;250�;053�;167�;04,4nds;163�;04,0nds;05,7m;-0,01nds;1013,52000hPa;0,00�C(N);22,80�C;---;31/05/2020;00:04:36;0,01nds;070�;0,00nds;087�;0,22�;5,20m;99%;+;non;ind�termin�e;;;;-;;;;;;;;;;;;;;;;;;;;;
30/05/2020;22:04:37;46�08,565 N;001�10,070 W;0,00nds;080�;0,02nds;251�;061�;173�;04,8nds;171�;04,6nds;05,7m;-0,02nds;1013,52000hPa;0,00�C(N);22,80�C;---;31/05/2020;00:04:37;0,02nds;071�;0,00nds;087�;0,22�;5,20m;99%;+;non;ind�termin�e;;;;-;;;;;;;;;;;;;;;;;;;;;
30/05/2020;22:04:38;46�08,565 N;001�10,070 W;0,00nds;097�;0,02nds;250�;064�;170�;04,9nds;173�;04,8nds;05,7m;-0,02nds;1013,52000hPa;0,00�C(N);22,80�C;---;31/05/2020;00:04:38;0,02nds;070�;0,00nds;087�;0,22�;5,20m;99%;+;non;ind�termin�e;;;;-;;;;;;;;;;;;;;;;;;;;;
30/05/2020;22:04:39;46�08,565 N;001�10,070 W;0,00nds;103�;0,02nds;251�;060�;167�;04,9nds;170�;04,9nds;05,7m;-0,02nds;1013,52000hPa;0,00�C(N);22,80�C;---;31/05/2020;00:04:39;0,02nds;071�;0,00nds;087�;0,22�;5,20m;99%;+;non;ind�termin�e;;;;-;;;;;;;;;;;;;;;;;;;;;
30/05/2020;22:04:40;46�08,565 N;001�10,070 W;0,00nds;142�;0,02nds;251�;055�;169�;05,4nds;164�;05,0nds;05,7m;-0,02nds;1013,52000hPa;0,00�C(N);22,80�C;---;31/05/2020;00:04:40;0,02nds;071�;0,00nds;087�;0,22�;5,20m;99%;+;non;ind�termin�e;;;;-;;;;;;;;;;;;;;;;;;;;;
30/05/2020;22:04:41;46�08,565 N;001�10,070 W;0,00nds;145�;0,02nds;251�;060�;170�;05,8nds;169�;05,4nds;05,7m;-0,02nds;1013,52000hPa;0,00�C(N);22,80�C;---;31/05/2020;00:04:41;0,02nds;071�;0,00nds;087�;0,22�;5,20m;99%;+;non;ind�termin�e;;;;-;;;;;;;;;;;;;;;;;;;;;
30/05/2020;22:04:42;46�08,565 N;001�10,070 W;0,00nds;177�;0,02nds;251�;062�;171�;05,8nds;171�;05,8nds;05,7m;-0,02nds;1013,52000hPa;0,00�C(N);22,80�C;---;31/05/2020;00:04:42;0,02nds;071�;0,00nds;087�;0,22�;5,20m;99%;+;non;ind�termin�e;;;;-;;;;;;;;;;;;;;;;;;;;;
30/05/2020;22:04:43;46�08,565 N;001�10,070 W;0,00nds;172�;0,02nds;251�;062�;171�;05,5nds;171�;05,6nds;05,7m;-0,02nds;1013,52000hPa;0,00�C(N);22,80�C;---;31/05/2020;00:04:43;0,02nds;071�;0,00nds;087�;0,22�;5,20m;99%;+;non;ind�termin�e;;;;-;;;;;;;;;;;;;;;;;;;;;
30/05/2020;22:04:44;46�08,565 N;001�10,070 W;0,00nds;202�;0,02nds;251�;062�;169�;05,2nds;171�;05,6nds;05,7m;-0,02nds;1013,52000hPa;0,00�C(N);22,80�C;---;31/05/2020;00:04:44;0,02nds;071�;0,00nds;087�;0,22�;5,20m;99%;+;non;ind�termin�e;;;;-;;;;;;;;;;;;;;;;;;;;;
30/05/2020;22:04:45;46�08,565 N;001�10,070 W;0,00nds;256�;0,02nds;251�;053�;158�;04,8nds;162�;04,9nds;05,7m;-0,02nds;1013,52000hPa;0,00�C(N);22,80�C;---;31/05/2020;00:04:45;0,02nds;071�;0,00nds;087�;0,22�;5,20m;99%;+;non;ind�termin�e;;;;-;;;;;;;;;;;;;;;;;;;;;
30/05/2020;22:04:46;46�08,565 N;001�10,070 W;0,00nds;261�;0,02nds;251�;049�;159�;04,7nds;158�;04,8nds;05,7m;-0,02nds;1013,52000hPa;0,00�C(N);22,80�C;---;31/05/2020;00:04:46;0,02nds;071�;0,00nds;087�;0,22�;5,20m;99%;+;non;ind�termin�e;;;;-;;;;;;;;;;;;;;;;;;;;;
30/05/2020;22:04:47;46�08,565 N;001�10,070 W;0,00nds;263�;0,02nds;251�;050�;158�;04,5nds;159�;04,7nds;05,7m;-0,02nds;1013,52000hPa;0,00�C(N);22,80�C;---;31/05/2020;00:04:47;0,02nds;071�;0,00nds;087�;0,22�;5,20m;99%;+;non;ind�termin�e;;;;-;;;;;;;;;;;;;;;;;;;;;
30/05/2020;22:04:48;46�08,565 N;001�10,070 W;0,00nds;315�;0,02nds;251�;048�;158�;04,6nds;157�;04,6nds;05,7m;-0,02nds;1013,52000hPa;0,00�C(N);22,80�C;---;31/05/2020;00:04:48;0,02nds;071�;0,00nds;087�;0,22�;5,20m;99%;+;non;ind�termin�e;;;;-;;;;;;;;;;;;;;;;;;;;;
30/05/2020;22:04:49;46�08,565 N;001�10,070 W;0,00nds;317�;0,02nds;251�;049�;158�;04,6nds;158�;04,6nds;05,7m;-0,02nds;1013,51000hPa;0,00�C(N);22,80�C;---;31/05/2020;00:04:49;0,02nds;071�;0,00nds;087�;0,22�;5,20m;99%;+;non;ind�termin�e;;;;-;;;;;;;;;;;;;;;;;;;;;
30/05/2020;22:04:50;46�08,565 N;001�10,070 W;0,00nds;335�;0,02nds;251�;055�;164�;04,7nds;164�;04,7nds;05,7m;-0,02nds;1013,51000hPa;0,00�C(N);22,80�C;---;31/05/2020;00:04:50;0,02nds;071�;0,00nds;087�;0,22�;5,20m;99%;+;non;ind�termin�e;;;;-;;;;;;;;;;;;;;;;;;;;;
30/05/2020;22:04:51;46�08,565 N;001�10,070 W;0,00nds;318�;0,02nds;250�;055�;165�;04,8nds;164�;04,8nds;05,7m;-0,02nds;1013,51000hPa;0,00�C(N);22,80�C;---;31/05/2020;00:04:51;0,02nds;070�;0,00nds;087�;0,22�;5,20m;99%;+;non;ind�termin�e;;;;-;;;;;;;;;;;;;;;;;;;;;
30/05/2020;22:04:52;46�08,565 N;001�10,070 W;0,00nds;318�;0,02nds;250�;055�;161�;04,7nds;164�;04,8nds;05,7m;-0,02nds;1013,51000hPa;0,00�C(N);22,80�C;---;31/05/2020;00:04:52;0,02nds;070�;0,00nds;087�;0,22�;5,20m;99%;+;non;ind�termin�e;;;;-;;;;;;;;;;;;;;;;;;;;;
30/05/2020;22:04:53;46�08,565 N;001�10,070 W;0,00nds;261�;0,02nds;250�;051�;161�;04,8nds;161�;04,7nds;05,7m;-0,02nds;1013,51000hPa;0,00�C(N);22,80�C;---;31/05/2020;00:04:53;0,02nds;070�;0,00nds;087�;0,22�;5,20m;99%;+;non;ind�termin�e;;;;-;;;;;;;;;;;;;;;;;;;;;
30/05/2020;22:04:54;46�08,565 N;001�10,070 W;0,00nds;265�;0,02nds;250�;051�;161�;04,9nds;161�;04,8nds;05,7m;-0,02nds;1013,52000hPa;0,00�C(N);22,80�C;---;31/05/2020;00:04:54;0,02nds;070�;0,00nds;087�;0,22�;5,20m;99%;+;non;ind�termin�e;;;;-;;;;;;;;;;;;;;;;;;;;;
30/05/2020;22:04:55;46�08,565 N;001�10,070 W;0,00nds;256�;0,02nds;250�;051�;162�;05,0nds;161�;04,9nds;05,7m;-0,02nds;1013,52000hPa;0,00�C(N);22,80�C;---;31/05/2020;00:04:55;0,02nds;070�;0,00nds;087�;0,22�;5,20m;99%;+;non;ind�termin�e;;;;-;;;;;;;;;;;;;;;;;;;;;
30/05/2020;22:04:56;46�08,565 N;001�10,070 W;0,00nds;234�;0,02nds;250�;053�;163�;05,2nds;163�;05,1nds;05,7m;-0,02nds;1013,52000hPa;0,00�C(N);22,80�C;---;31/05/2020;00:04:56;0,02nds;070�;0,00nds;087�;0,22�;5,20m;99%;+;non;ind�termin�e;;;;-;;;;;;;;;;;;;;;;;;;;;
30/05/2020;22:04:57;46�08,565 N;001�10,070 W;0,00nds;223�;0,02nds;250�;053�;163�;05,2nds;163�;05,2nds;05,7m;-0,02nds;1013,51000hPa;0,00�C(N);22,80�C;---;31/05/2020;00:04:57;0,02nds;070�;0,00nds;087�;0,22�;5,20m;99%;+;non;ind�termin�e;;;;-;;;;;;;;;;;;;;;;;;;;;
30/05/2020;22:04:58;46�08,565 N;001�10,070 W;0,00nds;216�;0,02nds;250�;053�;162�;05,2nds;163�;05,2nds;05,7m;-0,02nds;1013,51000hPa;0,00�C(N);22,80�C;---;31/05/2020;00:04:58;0,02nds;070�;0,00nds;087�;0,22�;5,20m;99%;+;non;ind�termin�e;;;;-;;;;;;;;;;;;;;;;;;;;;
30/05/2020;22:04:59;46�08,565 N;001�10,070 W;0,00nds;156�;0,02nds;251�;052�;163�;05,6nds;161�;05,3nds;05,7m;-0,02nds;1013,51000hPa;0,00�C(N);22,80�C;---;31/05/2020;00:04:59;0,02nds;071�;0,00nds;087�;0,22�;5,20m;99%;+;non;ind�termin�e;;;;-;;;;;;;;;;;;;;;;;;;;;
30/05/2020;22:05:00;46�08,565 N;001�10,070 W;0,00nds;167�;0,01nds;251�;052�;165�;06,1nds;161�;05,3nds;05,7m;-0,01nds;1013,51000hPa;0,00�C(N);22,80�C;---;31/05/2020;00:05:00;0,01nds;071�;0,00nds;087�;0,22�;5,20m;99%;+;non;ind�termin�e;;;;-;;;;;;;;;;;;;;;;;;;;;
30/05/2020;22:05:01;46�08,565 N;001�10,070 W;0,00nds;176�;0,01nds;251�;058�;167�;06,1nds;167�;06,3nds;05,7m;-0,01nds;1013,52000hPa;0,00�C(N);22,80�C;---;31/05/2020;00:05:01;0,01nds;071�;0,00nds;087�;0,22�;5,20m;99%;+;non;ind�termin�e;;;;-;;;;;;;;;;;;;;;;;;;;;
30/05/2020;22:05:02;46�08,565 N;001�10,070 W;0,00nds;216�;0,01nds;251�;058�;167�;05,7nds;167�;06,1nds;05,7m;-0,01nds;1013,52000hPa;0,00�C(N);22,80�C;---;31/05/2020;00:05:02;0,01nds;071�;0,00nds;087�;0,22�;5,20m;99%;+;non;ind�termin�e;;;;-;;;;;;;;;;;;;;;;;;;;;
30/05/2020;22:05:03;46�08,565 N;001�10,070 W;0,00nds;219�;0,01nds;251�;058�;166�;05,5nds;167�;05,7nds;05,7m;-0,01nds;1013,52000hPa;0,00�C(N);22,80�C;---;31/05/2020;00:05:03;0,01nds;071�;0,00nds;087�;0,22�;5,20m;99%;+;non;ind�termin�e;;;;-;;;;;;;;;;;;;;;;;;;;;
30/05/2020;22:05:04;46�08,565 N;001�10,070 W;0,00nds;275�;0,01nds;251�;059�;167�;05,7nds;168�;05,5nds;05,7m;-0,01nds;1013,52000hPa;0,00�C(N);22,80�C;---;31/05/2020;00:05:04;0,01nds;071�;0,00nds;087�;0,22�;5,20m;99%;+;non;ind�termin�e;;;;-;;;;;;;;;;;;;;;;;;;;;
30/05/2020;22:05:05;46�08,565 N;001�10,070 W;0,00nds;310�;0,01nds;251�;058�;163�;05,6nds;167�;05,7nds;05,7m;-0,01nds;1013,52000hPa;0,00�C(N);22,80�C;---;31/05/2020;00:05:05;0,01nds;071�;0,00nds;087�;0,22�;5,20m;99%;+;non;ind�termin�e;;;;-;;;;;;;;;;;;;;;;;;;;;
30/05/2020;22:05:06;46�08,565 N;001�10,070 W;0,00nds;312�;0,01nds;251�;054�;160�;05,9nds;163�;05,6nds;05,7m;-0,01nds;1013,52000hPa;0,00�C(N);22,80�C;---;31/05/2020;00:05:06;0,01nds;071�;0,00nds;087�;0,22�;5,20m;99%;+;non;ind�termin�e;;;;-;;;;;;;;;;;;;;;;;;;;;
30/05/2020;22:05:07;46�08,565 N;001�10,070 W;0,00nds;006�;0,01nds;250�;049�;160�;06,2nds;158�;06,2nds;05,7m;-0,01nds;1013,52000hPa;0,00�C(N);22,80�C;---;31/05/2020;00:05:07;0,01nds;070�;0,00nds;087�;0,22�;5,20m;99%;+;non;ind�termin�e;;;;-;;;;;;;;;;;;;;;;;;;;;
30/05/2020;22:05:08;46�08,565 N;001�10,070 W;0,00nds;015�;0,01nds;250�;050�;161�;06,4nds;160�;06,2nds;05,7m;-0,01nds;1013,52000hPa;0,00�C(N);22,80�C;---;31/05/2020;00:05:08;0,01nds;070�;0,00nds;087�;0,22�;5,20m;99%;+;non;ind�termin�e;;;;-;;;;;;;;;;;;;;;;;;;;;
30/05/2020;22:05:09;46�08,565 N;001�10,070 W;0,00nds;317�;0,01nds;250�;049�;159�;06,8nds;159�;06,8nds;05,7m;-0,01nds;1013,52000hPa;0,00�C(N);22,80�C;---;31/05/2020;00:05:09;0,01nds;070�;0,00nds;087�;0,22�;5,20m;99%;+;non;ind�termin�e;;;;-;;;;;;;;;;;;;;;;;;;;;
30/05/2020;22:05:10;46�08,565 N;001�10,070 W;0,00nds;284�;0,01nds;250�;044�;149�;07,0nds;154�;07,0nds;05,7m;-0,01nds;1013,52000hPa;0,00�C(N);22,80�C;---;31/05/2020;00:05:10;0,01nds;070�;0,00nds;087�;0,22�;5,20m;99%;+;non;ind�termin�e;;;;-;;;;;;;;;;;;;;;;;;;;;
30/05/2020;22:05:11;46�08,565 N;001�10,070 W;0,00nds;328�;0,01nds;250�;044�;155�;06,7nds;154�;07,0nds;05,7m;-0,01nds;1013,52000hPa;0,00�C(N);22,80�C;---;31/05/2020;00:05:11;0,01nds;070�;0,00nds;087�;0,22�;5,20m;99%;+;non;ind�termin�e;;;;-;;;;;;;;;;;;;;;;;;;;;
30/05/2020;22:05:12;46�08,565 N;001�10,070 W;0,00nds;080�;0,01nds;250�;054�;168�;06,1nds;164�;06,4nds;05,7m;-0,01nds;1013,52000hPa;0,00�C(N);22,80�C;---;31/05/2020;00:05:12;0,01nds;070�;0,00nds;087�;0,22�;5,20m;99%;+;non;ind�termin�e;;;;-;;;;;;;;;;;;;;;;;;;;;
30/05/2020;22:05:13;46�08,565 N;001�10,070 W;0,00nds;108�;0,01nds;250�;058�;167�;06,0nds;168�;06,0nds;05,7m;-0,01nds;1013,52000hPa;0,00�C(N);22,90�C;---;31/05/2020;00:05:13;0,01nds;070�;0,00nds;087�;0,22�;5,20m;99%;+;non;ind�termin�e;;;;-;;;;;;;;;;;;;;;;;;;;;
30/05/2020;22:05:14;46�08,565 N;001�10,070 W;0,00nds;124�;0,01nds;250�;057�;165�;06,2nds;167�;06,0nds;05,7m;-0,01nds;1013,52000hPa;0,00�C(N);22,90�C;---;31/05/2020;00:05:14;0,01nds;070�;0,00nds;087�;0,22�;5,20m;99%;+;non;ind�termin�e;;;;-;;;;;;;;;;;;;;;;;;;;;
30/05/2020;22:05:15;46�08,565 N;001�10,070 W;0,00nds;128�;0,01nds;251�;049�;154�;07,1nds;158�;06,6nds;05,7m;-0,01nds;1013,52000hPa;0,00�C(N);22,90�C;---;31/05/2020;00:05:15;0,01nds;071�;0,00nds;087�;0,22�;5,20m;99%;+;non;ind�termin�e;;;;-;;;;;;;;;;;;;;;;;;;;;
30/05/2020;22:05:16;46�08,565 N;001�10,070 W;0,00nds;165�;0,01nds;251�;045�;154�;07,3nds;154�;07,0nds;05,7m;-0,01nds;1013,52000hPa;0,00�C(N);22,90�C;---;31/05/2020;00:05:16;0,01nds;071�;0,00nds;087�;0,22�;5,20m;99%;+;non;ind�termin�e;;;;-;;;;;;;;;;;;;;;;;;;;;
30/05/2020;22:05:17;46�08,565 N;001�10,070 W;0,00nds;227�;0,01nds;251�;044�;153�;07,5nds;153�;07,5nds;05,7m;-0,01nds;1013,52000hPa;0,00�C(N);22,90�C;---;31/05/2020;00:05:17;0,01nds;071�;0,00nds;087�;0,22�;5,20m;99%;+;non;ind�termin�e;;;;-;;;;;;;;;;;;;;;;;;;;;
30/05/2020;22:05:18;46�08,565 N;001�10,070 W;0,00nds;272�;0,01nds;251�;050�;158�;07,9nds;159�;07,6nds;05,7m;-0,01nds;1013,52000hPa;0,00�C(N);22,90�C;---;31/05/2020;00:05:18;0,01nds;071�;0,00nds;087�;0,22�;5,20m;99%;+;non;ind�termin�e;;;;-;;;;;;;;;;;;;;;;;;;;;
30/05/2020;22:05:19;46�08,565 N;001�10,070 W;0,00nds;284�;0,01nds;251�;050�;159�;08,0nds;159�;07,6nds;05,7m;-0,01nds;1013,52000hPa;0,00�C(N);22,90�C;---;31/05/2020;00:05:19;0,01nds;071�;0,00nds;087�;0,22�;5,20m;99%;+;non;ind�termin�e;;;;-;;;;;;;;;;;;;;;;;;;;;
30/05/2020;22:05:20;46�08,565 N;001�10,070 W;0,00nds;250�;0,01nds;251�;051�;162�;08,4nds;161�;08,1nds;05,7m;-0,01nds;1013,53000hPa;0,00�C(N);22,90�C;---;31/05/2020;00:05:20;0,01nds;071�;0,00nds;087�;0,22�;5,20m;99%;+;non;ind�termin�e;;;;-;;;;;;;;;;;;;;;;;;;;;
30/05/2020;22:05:21;46�08,565 N;001�10,070 W;0,00nds;214�;0,01nds;251�;053�;163�;08,8nds;162�;08,3nds;05,7m;-0,01nds;1013,53000hPa;0,00�C(N);22,90�C;---;31/05/2020;00:05:21;0,01nds;071�;0,00nds;087�;0,22�;5,20m;99%;+;non;ind�termin�e;;;;-;;;;;;;;;;;;;;;;;;;;;
30/05/2020;22:05:22;46�08,565 N;001�10,070 W;0,00nds;193�;0,01nds;251�;054�;162�;08,9nds;163�;08,8nds;05,7m;-0,01nds;1013,53000hPa;0,00�C(N);22,90�C;---;31/05/2020;00:05:22;0,01nds;071�;0,00nds;087�;0,22�;5,20m;99%;+;non;ind�termin�e;;;;-;;;;;;;;;;;;;;;;;;;;;
30/05/2020;22:05:23;46�08,565 N;001�10,070 W;0,00nds;230�;0,01nds;251�;054�;165�;08,8nds;163�;08,6nds;05,7m;-0,01nds;1013,53000hPa;0,00�C(N);22,90�C;---;31/05/2020;00:05:23;0,01nds;071�;0,00nds;087�;0,22�;5,20m;99%;+;non;ind�termin�e;;;;-;;;;;;;;;;;;;;;;;;;;;
30/05/2020;22:05:24;46�08,565 N;001�10,070 W;0,00nds;299�;0,01nds;251�;056�;165�;08,8nds;165�;08,8nds;05,7m;-0,01nds;1013,53000hPa;0,00�C(N);22,90�C;---;31/05/2020;00:05:24;0,01nds;071�;0,00nds;087�;0,22�;5,20m;99%;+;non;ind�termin�e;;;;-;;;;;;;;;;;;;;;;;;;;;
30/05/2020;22:05:25;46�08,565 N;001�10,070 W;0,00nds;290�;0,00nds;251�;055�;164�;08,6nds;164�;08,6nds;05,7m;-0,00nds;1013,53000hPa;0,00�C(N);22,90�C;---;31/05/2020;00:05:25;0,00nds;290�;0,00nds;087�;0,22�;5,20m;99%;+;non;ind�termin�e;;;;-;;;;;;;;;;;;;;;;;;;;;
30/05/2020;22:05:26;46�08,565 N;001�10,070 W;0,00nds;329�;0,00nds;251�;053�;163�;07,8nds;162�;08,1nds;05,7m;-0,00nds;1013,53000hPa;0,00�C(N);22,90�C;---;31/05/2020;00:05:26;0,00nds;329�;0,00nds;087�;0,22�;5,20m;99%;+;non;ind�termin�e;;;;-;;;;;;;;;;;;;;;;;;;;;
30/05/2020;22:05:27;46�08,565 N;001�10,070 W;0,00nds;298�;0,00nds;251�;053�;167�;07,6nds;162�;08,1nds;05,7m;-0,00nds;1013,52000hPa;0,00�C(N);22,90�C;---;31/05/2020;00:05:27;0,00nds;298�;0,00nds;087�;0,22�;5,20m;99%;+;non;ind�termin�e;;;;-;;;;;;;;;;;;;;;;;;;;;
30/05/2020;22:05:28;46�08,565 N;001�10,070 W;0,00nds;315�;0,00nds;251�;059�;170�;07,0nds;168�;07,4nds;05,7m;-0,00nds;1013,52000hPa;0,00�C(N);22,80�C;---;31/05/2020;00:05:28;0,00nds;315�;0,00nds;087�;0,22�;5,20m;99%;+;non;ind�termin�e;;;;-;;;;;;;;;;;;;;;;;;;;;
30/05/2020;22:05:29;46�08,565 N;001�10,070 W;0,00nds;333�;0,00nds;251�;061�;172�;06,7nds;170�;07,0nds;05,7m;-0,00nds;1013,52000hPa;0,00�C(N);22,80�C;---;31/05/2020;00:05:29;0,00nds;333�;0,00nds;087�;0,22�;5,20m;99%;+;non;ind�termin�e;;;;-;;;;;;;;;;;;;;;;;;;;;
30/05/2020;22:05:30;46�08,565 N;001�10,070 W;0,00nds;012�;0,00nds;251�;063�;169�;06,5nds;172�;06,6nds;05,7m;-0,00nds;1013,52000hPa;0,00�C(N);22,80�C;---;31/05/2020;00:05:30;0,00nds;012�;0,00nds;087�;0,22�;5,20m;99%;+;non;ind�termin�e;;;;-;;;;;;;;;;;;;;;;;;;;;
30/05/2020;22:05:31;46�08,565 N;001�10,070 W;0,00nds;336�;0,00nds;251�;056�;166�;05,9nds;165�;06,0nds;05,7m;-0,00nds;1013,52000hPa;0,00�C(N);22,80�C;---;31/05/2020;00:05:31;0,00nds;336�;0,00nds;087�;0,22�;5,20m;99%;+;non;ind�termin�e;;;;-;;;;;;;;;;;;;;;;;;;;;
30/05/2020;22:05:32;46�08,565 N;001�10,070 W;0,00nds;265�;0,01nds;251�;057�;164�;05,8nds;166�;05,9nds;05,7m;-0,01nds;1013,52000hPa;0,00�C(N);22,80�C;---;31/05/2020;00:05:32;0,01nds;071�;0,00nds;087�;0,22�;5,20m;99%;+;non;ind�termin�e;;;;-;;;;;;;;;;;;;;;;;;;;;
30/05/2020;22:05:33;46�08,565 N;001�10,070 W;0,00nds;239�;0,01nds;251�;055�;161�;05,8nds;164�;05,8nds;05,7m;-0,01nds;1013,52000hPa;0,00�C(N);22,80�C;---;31/05/2020;00:05:33;0,01nds;071�;0,00nds;087�;0,22�;5,20m;99%;+;non;ind�termin�e;;;;-;;;;;;;;;;;;;;;;;;;;;
30/05/2020;22:05:34;46�08,565 N;001�10,070 W;0,00nds;189�;0,01nds;251�;052�;158�;05,5nds;161�;05,6nds;05,7m;-0,01nds;1013,52000hPa;0,00�C(N);22,80�C;---;31/05/2020;00:05:34;0,01nds;071�;0,00nds;087�;0,22�;5,20m;99%;+;non;ind�termin�e;;;;-;;;;;;;;;;;;;;;;;;;;;
30/05/2020;22:05:35;46�08,565 N;001�10,070 W;0,00nds;164�;0,01nds;251�;049�;154�;05,7nds;161�;05,6nds;05,7m;-0,01nds;1013,53000hPa;0,00�C(N);22,80�C;---;31/05/2020;00:05:35;0,01nds;071�;0,00nds;087�;0,22�;5,20m;99%;+;non;ind�termin�e;;;;-;;;;;;;;;;;;;;;;;;;;;
30/05/2020;22:05:36;46�08,565 N;001�10,070 W;0,00nds;174�;0,01nds;251�;041�;150�;06,2nds;150�;06,1nds;05,7m;-0,01nds;1013,53000hPa;0,00�C(N);22,80�C;---;31/05/2020;00:05:36;0,01nds;071�;0,00nds;087�;0,22�;5,20m;99%;+;non;ind�termin�e;;;;-;;;;;;;;;;;;;;;;;;;;;
30/05/2020;22:05:37;46�08,565 N;001�10,070 W;0,00nds;142�;0,01nds;251�;048�;163�;06,7nds;157�;06,5nds;05,7m;-0,01nds;1013,53000hPa;0,00�C(N);22,80�C;---;31/05/2020;00:05:37;0,01nds;071�;0,00nds;087�;0,22�;5,20m;99%;+;non;ind�termin�e;;;;-;;;;;;;;;;;;;;;;;;;;;
30/05/2020;22:05:38;46�08,565 N;001�10,070 W;0,00nds;175�;0,01nds;251�;048�;164�;06,5nds;157�;06,5nds;05,7m;-0,01nds;1013,53000hPa;0,00�C(N);22,80�C;---;31/05/2020;00:05:38;0,01nds;071�;0,00nds;087�;0,22�;5,20m;99%;+;non;ind�termin�e;;;;-;;;;;;;;;;;;;;;;;;;;;
30/05/2020;22:05:39;46�08,565 N;001�10,070 W;0,00nds;246�;0,01nds;251�;051�;160�;06,1nds;160�;06,3nds;05,7m;-0,01nds;1013,53000hPa;0,00�C(N);22,80�C;---;31/05/2020;00:05:39;0,01nds;071�;0,00nds;087�;0,22�;5,20m;99%;+;non;ind�termin�e;;;;-;;;;;;;;;;;;;;;;;;;;;
30/05/2020;22:05:40;46�08,565 N;001�10,070 W;0,00nds;282�;0,01nds;251�;051�;159�;05,7nds;160�;06,0nds;05,7m;-0,01nds;1013,53000hPa;0,00�C(N);22,80�C;---;31/05/2020;00:05:40;0,01nds;071�;0,00nds;087�;0,22�;5,20m;99%;+;non;ind�termin�e;;;;-;;;;;;;;;;;;;;;;;;;;;
30/05/2020;22:05:41;46�08,565 N;001�10,070 W;0,00nds;296�;0,01nds;251�;050�;157�;05,6nds;159�;05,6nds;05,8m;-0,01nds;1013,53000hPa;0,00�C(N);22,80�C;---;31/05/2020;00:05:41;0,01nds;071�;0,00nds;087�;0,22�;5,20m;99%;+;non;ind�termin�e;;;;-;;;;;;;;;;;;;;;;;;;;;
30/05/2020;22:05:42;46�08,565 N;001�10,070 W;0,00nds;318�;0,01nds;250�;049�;154�;05,0nds;159�;05,3nds;05,7m;-0,01nds;1013,53000hPa;0,00�C(N);22,80�C;---;31/05/2020;00:05:42;0,01nds;070�;0,00nds;087�;0,22�;5,20m;99%;+;non;ind�termin�e;;;;-;;;;;;;;;;;;;;;;;;;;;
30/05/2020;22:05:43;46�08,565 N;001�10,070 W;0,00nds;313�;0,01nds;250�;044�;158�;05,2nds;154�;05,0nds;05,8m;-0,01nds;1013,53000hPa;0,00�C(N);22,80�C;---;31/05/2020;00:05:43;0,01nds;070�;0,00nds;087�;0,22�;5,20m;99%;+;non;ind�termin�e;;;;-;;;;;;;;;;;;;;;;;;;;;
30/05/2020;22:05:44;46�08,565 N;001�10,070 W;0,00nds;029�;0,01nds;250�;052�;162�;05,3nds;162�;05,3nds;05,7m;-0,01nds;1013,53000hPa;0,00�C(N);22,90�C;---;31/05/2020;00:05:44;0,01nds;070�;0,00nds;087�;0,22�;5,20m;99%;+;non;ind�termin�e;;;;-;;;;;;;;;;;;;;;;;;;;;
30/05/2020;22:05:45;46�08,565 N;001�10,070 W;0,00nds;069�;0,01nds;250�;052�;161�;05,4nds;162�;05,3nds;05,7m;-0,01nds;1013,52000hPa;0,00�C(N);22,90�C;---;31/05/2020;00:05:45;0,01nds;070�;0,00nds;087�;0,22�;5,20m;99%;+;non;ind�termin�e;;;;-;;;;;;;;;;;;;;;;;;;;;
30/05/2020;22:05:46;46�08,565 N;001�10,070 W;0,00nds;100�;0,01nds;250�;052�;171�;05,7nds;162�;05,3nds;05,7m;-0,01nds;1013,53000hPa;0,00�C(N);22,90�C;---;31/05/2020;00:05:46;0,01nds;070�;0,00nds;087�;0,22�;5,20m;99%;+;non;ind�termin�e;;;;-;;;;;;;;;;;;;;;;;;;;;
30/05/2020;22:05:47;46�08,565 N;001�10,070 W;0,00nds;124�;0,01nds;250�;064�;176�;06,2nds;174�;06,0nds;05,7m;-0,01nds;1013,53000hPa;0,00�C(N);22,90�C;---;31/05/2020;00:05:47;0,01nds;070�;0,00nds;087�;0,22�;5,20m;99%;+;non;ind�termin�e;;;;-;;;;;;;;;;;;;;;;;;;;;
30/05/2020;22:05:48;46�08,565 N;001�10,070 W;0,00nds;138�;0,01nds;250�;066�;171�;06,4nds;176�;06,2nds;05,7m;-0,01nds;1013,53000hPa;0,00�C(N);22,90�C;---;31/05/2020;00:05:48;0,01nds;070�;0,00nds;087�;0,22�;5,20m;99%;+;non;ind�termin�e;;;;-;;;;;;;;;;;;;;;;;;;;;
30/05/2020;22:05:49;46�08,565 N;001�10,070 W;0,00nds;132�;0,01nds;250�;061�;169�;06,2nds;171�;06,4nds;05,7m;-0,01nds;1013,53000hPa;0,00�C(N);22,90�C;---;31/05/2020;00:05:49;0,01nds;070�;0,00nds;087�;0,22�;5,20m;99%;+;non;ind�termin�e;;;;-;;;;;;;;;;;;;;;;;;;;;
30/05/2020;22:05:50;46�08,565 N;001�10,070 W;0,00nds;234�;0,01nds;250�;059�;170�;06,5nds;169�;06,3nds;05,7m;-0,01nds;1013,53000hPa;0,00�C(N);22,90�C;---;31/05/2020;00:05:50;0,01nds;070�;0,00nds;087�;0,22�;5,20m;99%;+;non;ind�termin�e;;;;-;;;;;;;;;;;;;;;;;;;;;
30/05/2020;22:05:51;46�08,565 N;001�10,070 W;0,00nds;224�;0,01nds;251�;060�;169�;07,1nds;170�;06,5nds;05,7m;-0,01nds;1013,53000hPa;0,00�C(N);22,80�C;---;31/05/2020;00:05:51;0,01nds;071�;0,00nds;087�;0,22�;5,20m;99%;+;non;ind�termin�e;;;;-;;;;;;;;;;;;;;;;;;;;;
30/05/2020;22:05:52;46�08,565 N;001�10,070 W;0,00nds;216�;0,01nds;250�;058�;168�;07,8nds;168�;07,8nds;05,7m;-0,01nds;1013,53000hPa;0,00�C(N);22,80�C;---;31/05/2020;00:05:52;0,01nds;070�;0,00nds;087�;0,22�;5,20m;99%;+;non;ind�termin�e;;;;-;;;;;;;;;;;;;;;;;;;;;
30/05/2020;22:05:53;46�08,565 N;001�10,070 W;0,00nds;267�;0,01nds;250�;058�;173�;08,5nds;168�;08,1nds;05,7m;-0,01nds;1013,52000hPa;0,00�C(N);22,80�C;---;31/05/2020;00:05:53;0,01nds;070�;0,00nds;087�;0,22�;5,20m;99%;+;non;ind�termin�e;;;;-;;;;;;;;;;;;;;;;;;;;;
30/05/2020;22:05:54;46�08,565 N;001�10,070 W;0,00nds;305�;0,01nds;250�;058�;182�;08,7nds;168�;08,1nds;05,7m;-0,01nds;1013,52000hPa;0,00�C(N);22,80�C;---;31/05/2020;00:05:54;0,01nds;070�;0,00nds;087�;0,22�;5,20m;99%;+;non;ind�termin�e;;;;-;;;;;;;;;;;;;;;;;;;;;
30/05/2020;22:05:55;46�08,565 N;001�10,070 W;0,00nds;314�;0,01nds;250�;076�;183�;07,6nds;186�;08,0nds;05,7m;-0,01nds;1013,52000hPa;0,00�C(N);22,80�C;---;31/05/2020;00:05:55;0,01nds;070�;0,00nds;087�;0,22�;5,20m;99%;+;non;ind�termin�e;;;;-;;;;;;;;;;;;;;;;;;;;;
30/05/2020;22:05:56;46�08,565 N;001�10,070 W;0,00nds;350�;0,01nds;250�;073�;182�;07,9nds;183�;07,5nds;05,7m;-0,01nds;1013,52000hPa;0,00�C(N);22,80�C;---;31/05/2020;00:05:56;0,01nds;070�;0,00nds;087�;0,22�;5,20m;99%;+;non;ind�termin�e;;;;-;;;;;;;;;;;;;;;;;;;;;
30/05/2020;22:05:57;46�08,565 N;001�10,070 W;0,00nds;025�;0,01nds;250�;072�;181�;08,1nds;182�;07,8nds;05,7m;-0,01nds;1013,52000hPa;0,00�C(N);22,80�C;---;31/05/2020;00:05:57;0,01nds;070�;0,00nds;087�;0,22�;5,20m;99%;+;non;ind�termin�e;;;;-;;;;;;;;;;;;;;;;;;;;;
30/05/2020;22:05:58;46�08,565 N;001�10,070 W;0,00nds;028�;0,01nds;250�;073�;182�;08,1nds;183�;08,1nds;05,8m;-0,01nds;1013,51000hPa;0,00�C(N);22,80�C;---;31/05/2020;00:05:58;0,01nds;070�;0,00nds;087�;0,22�;5,20m;99%;+;non;ind�termin�e;;;;-;;;;;;;;;;;;;;;;;;;;;
30/05/2020;22:05:59;46�08,565 N;001�10,070 W;0,00nds;073�;0,01nds;250�;072�;181�;08,0nds;182�;08,1nds;05,8m;-0,01nds;1013,51000hPa;0,00�C(N);22,80�C;---;31/05/2020;00:05:59;0,01nds;070�;0,00nds;087�;0,22�;5,20m;99%;+;non;ind�termin�e;;;;-;;;;;;;;;;;;;;;;;;;;;
30/05/2020;22:06:00;46�08,565 N;001�10,070 W;0,00nds;043�;0,01nds;250�;071�;179�;07,8nds;181�;07,8nds;05,7m;-0,01nds;1013,51000hPa;0,00�C(N);22,80�C;---;31/05/2020;00:06:00;0,01nds;070�;0,00nds;087�;0,22�;5,20m;99%;+;non;ind�termin�e;;;;-;;;;;;;;;;;;;;;;;;;;;
30/05/2020;22:06:01;46�08,565 N;001�10,070 W;0,00nds;065�;0,01nds;251�;061�;166�;07,0nds;170�;07,3nds;05,7m;-0,01nds;1013,51000hPa;0,00�C(N);22,80�C;---;31/05/2020;00:06:01;0,01nds;071�;0,00nds;087�;0,22�;5,20m;99%;+;non;ind�termin�e;;;;-;;;;;;;;;;;;;;;;;;;;;
30/05/2020;22:06:02;46�08,565 N;001�10,070 W;0,00nds;021�;0,01nds;251�;061�;165�;06,7nds;170�;07,3nds;05,7m;-0,01nds;1013,51000hPa;0,00�C(N);22,80�C;---;31/05/2020;00:06:02;0,01nds;071�;0,00nds;087�;0,22�;5,20m;99%;+;non;ind�termin�e;;;;-;;;;;;;;;;;;;;;;;;;;;
30/05/2020;22:06:03;46�08,565 N;001�10,070 W;0,00nds;057�;0,01nds;251�;056�;167�;06,0nds;165�;06,4nds;05,7m;-0,01nds;1013,51000hPa;0,00�C(N);22,80�C;---;31/05/2020;00:06:03;0,01nds;071�;0,00nds;087�;0,22�;5,20m;99%;+;non;ind�termin�e;;;;-;;;;;;;;;;;;;;;;;;;;;
30/05/2020;22:06:04;46�08,565 N;001�10,070 W;0,00nds;104�;0,01nds;251�;058�;166�;05,7nds;167�;06,0nds;05,7m;-0,01nds;1013,51000hPa;0,00�C(N);22,80�C;---;31/05/2020;00:06:04;0,01nds;071�;0,00nds;087�;0,22�;5,20m;99%;+;non;ind�termin�e;;;;-;;;;;;;;;;;;;;;;;;;;;
30/05/2020;22:06:05;46�08,565 N;001�10,070 W;0,00nds;093�;0,01nds;251�;057�;166�;05,6nds;166�;05,6nds;05,7m;-0,01nds;1013,51000hPa;0,00�C(N);22,80�C;---;31/05/2020;00:06:05;0,01nds;071�;0,00nds;087�;0,22�;5,20m;99%;+;non;ind�termin�e;;;;-;;;;;;;;;;;;;;;;;;;;;
30/05/2020;22:06:06;46�08,565 N;001�10,070 W;0,00nds;075�;0,00nds;251�;055�;169�;05,5nds;164�;05,5nds;05,7m;-0,00nds;1013,51000hPa;0,00�C(N);22,90�C;---;31/05/2020;00:06:06;0,00nds;075�;0,00nds;087�;0,22�;5,20m;99%;+;non;ind�termin�e;;;;-;;;;;;;;;;;;;;;;;;;;;
30/05/2020;22:06:07;46�08,565 N;001�10,070 W;0,00nds;058�;0,00nds;251�;060�;172�;05,9nds;169�;05,5nds;05,7m;-0,00nds;1013,51000hPa;0,00�C(N);22,90�C;---;31/05/2020;00:06:07;0,00nds;058�;0,00nds;087�;0,22�;5,20m;99%;+;non;ind�termin�e;;;;-;;;;;;;;;;;;;;;;;;;;;
30/05/2020;22:06:08;46�08,565 N;001�10,070 W;0,00nds;054�;0,00nds;251�;063�;169�;06,3nds;172�;05,9nds;05,7m;-0,00nds;1013,51000hPa;0,00�C(N);22,90�C;---;31/05/2020;00:06:08;0,00nds;054�;0,00nds;087�;0,22�;5,20m;99%;+;non;ind�termin�e;;;;-;;;;;;;;;;;;;;;;;;;;;
30/05/2020;22:06:09;46�08,565 N;001�10,070 W;0,00nds;346�;0,01nds;251�;058�;162�;06,7nds;167�;06,4nds;05,7m;-0,01nds;1013,51000hPa;0,00�C(N);22,90�C;---;31/05/2020;00:06:09;0,01nds;071�;0,00nds;087�;0,22�;5,20m;99%;+;non;ind�termin�e;;;;-;;;;;;;;;;;;;;;;;;;;;
30/05/2020;22:06:10;46�08,565 N;001�10,070 W;0,00nds;342�;0,01nds;251�;053�;161�;07,2nds;162�;06,4nds;05,7m;-0,01nds;1013,50000hPa;0,00�C(N);22,90�C;---;31/05/2020;00:06:10;0,01nds;071�;0,00nds;087�;0,22�;5,20m;99%;+;non;ind�termin�e;;;;-;;;;;;;;;;;;;;;;;;;;;
30/05/2020;22:06:11;46�08,565 N;001�10,070 W;0,00nds;355�;0,01nds;251�;054�;163�;07,5nds;163�;07,5nds;05,7m;-0,01nds;1013,50000hPa;0,00�C(N);22,90�C;---;31/05/2020;00:06:11;0,01nds;071�;0,00nds;087�;0,22�;5,20m;99%;+;non;ind�termin�e;;;;-;;;;;;;;;;;;;;;;;;;;;
30/05/2020;22:06:12;46�08,565 N;001�10,070 W;0,00nds;328�;0,01nds;251�;054�;163�;07,3nds;163�;07,3nds;05,7m;-0,01nds;1013,50000hPa;0,00�C(N);22,90�C;---;31/05/2020;00:06:12;0,01nds;071�;0,00nds;087�;0,22�;5,20m;99%;+;non;ind�termin�e;;;;-;;;;;;;;;;;;;;;;;;;;;
30/05/2020;22:06:13;46�08,565 N;001�10,070 W;0,00nds;317�;0,01nds;251�;054�;159�;07,7nds;163�;07,3nds;05,7m;-0,01nds;1013,50000hPa;0,00�C(N);22,90�C;---;31/05/2020;00:06:13;0,01nds;071�;0,00nds;087�;0,22�;5,20m;99%;+;non;ind�termin�e;;;;-;;;;;;;;;;;;;;;;;;;;;
30/05/2020;22:06:14;46�08,565 N;001�10,070 W;0,00nds;325�;0,01nds;250�;049�;156�;08,4nds;158�;07,9nds;05,7m;-0,01nds;1013,50000hPa;0,00�C(N);22,90�C;---;31/05/2020;00:06:14;0,01nds;070�;0,00nds;087�;0,22�;5,20m;99%;+;non;ind�termin�e;;;;-;;;;;;;;;;;;;;;;;;;;;
30/05/2020;22:06:15;46�08,565 N;001�10,070 W;0,00nds;005�;0,01nds;250�;046�;156�;08,7nds;156�;08,4nds;05,7m;-0,01nds;1013,51000hPa;0,00�C(N);22,90�C;---;31/05/2020;00:06:15;0,01nds;070�;0,00nds;087�;0,22�;5,20m;99%;+;non;ind�termin�e;;;;-;;;;;;;;;;;;;;;;;;;;;
30/05/2020;22:06:16;46�08,565 N;001�10,070 W;0,00nds;330�;0,01nds;250�;046�;155�;08,8nds;156�;08,6nds;05,7m;-0,01nds;1013,51000hPa;0,00�C(N);22,90�C;---;31/05/2020;00:06:16;0,01nds;070�;0,00nds;087�;0,22�;5,20m;99%;+;non;ind�termin�e;;;;-;;;;;;;;;;;;;;;;;;;;;
30/05/2020;22:06:17;46�08,565 N;001�10,070 W;0,00nds;342�;0,01nds;250�;049�;161�;08,2nds;159�;08,6nds;05,7m;-0,01nds;1013,51000hPa;0,00�C(N);22,90�C;---;31/05/2020;00:06:17;0,01nds;070�;0,00nds;087�;0,22�;5,20m;99%;+;non;ind�termin�e;;;;-;;;;;;;;;;;;;;;;;;;;;
30/05/2020;22:06:18;46�08,565 N;001�10,070 W;0,00nds;319�;0,01nds;250�;051�;161�;07,9nds;161�;08,2nds;05,7m;-0,01nds;1013,51000hPa;0,00�C(N);22,90�C;---;31/05/2020;00:06:18;0,01nds;070�;0,00nds;087�;0,22�;5,20m;99%;+;non;ind�termin�e;;;;-;;;;;;;;;;;;;;;;;;;;;
30/05/2020;22:06:19;46�08,565 N;001�10,070 W;0,00nds;007�;0,01nds;250�;054�;164�;07,9nds;164�;07,8nds;05,7m;-0,01nds;1013,51000hPa;0,00�C(N);22,90�C;---;31/05/2020;00:06:19;0,01nds;070�;0,00nds;087�;0,22�;5,20m;99%;+;non;ind�termin�e;;;;-;;;;;;;;;;;;;;;;;;;;;
30/05/2020;22:06:20;46�08,565 N;001�10,070 W;0,00nds;303�;0,01nds;251�;055�;163�;08,3nds;164�;08,3nds;05,7m;-0,01nds;1013,51000hPa;0,00�C(N);22,90�C;---;31/05/2020;00:06:20;0,01nds;071�;0,00nds;087�;0,22�;5,20m;99%;+;non;ind�termin�e;;;;-;;;;;;;;;;;;;;;;;;;;;
30/05/2020;22:06:21;46�08,565 N;001�10,070 W;0,00nds;316�;0,01nds;251�;055�;163�;08,1nds;164�;08,3nds;05,7m;-0,01nds;1013,51000hPa;0,00�C(N);22,80�C;---;31/05/2020;00:06:21;0,01nds;071�;0,00nds;087�;0,22�;5,20m;99%;+;non;ind�termin�e;;;;-;;;;;;;;;;;;;;;;;;;;;
30/05/2020;22:06:22;46�08,565 N;001�10,070 W;0,00nds;314�;0,01nds;251�;058�;167�;07,4nds;167�;07,8nds;05,7m;-0,01nds;1013,51000hPa;0,00�C(N);22,80�C;---;31/05/2020;00:06:22;0,01nds;071�;0,00nds;087�;0,22�;5,20m;99%;+;non;ind�termin�e;;;;-;;;;;;;;;;;;;;;;;;;;;
30/05/2020;22:06:23;46�08,565 N;001�10,070 W;0,00nds;277�;0,01nds;250�;058�;168�;07,3nds;167�;07,4nds;05,7m;-0,01nds;1013,51000hPa;0,00�C(N);22,80�C;---;31/05/2020;00:06:23;0,01nds;070�;0,00nds;087�;0,22�;5,20m;99%;+;non;ind�termin�e;;;;-;;;;;;;;;;;;;;;;;;;;;
30/05/2020;22:06:24;46�08,565 N;001�10,070 W;0,00nds;281�;0,01nds;250�;058�;167�;07,4nds;168�;07,3nds;05,7m;-0,01nds;1013,51000hPa;0,00�C(N);22,80�C;---;31/05/2020;00:06:24;0,01nds;070�;0,00nds;087�;0,22�;5,20m;99%;+;non;ind�termin�e;;;;-;;;;;;;;;;;;;;;;;;;;;
30/05/2020;22:06:25;46�08,565 N;001�10,070 W;0,00nds;351�;0,01nds;250�;055�;165�;08,1nds;165�;07,8nds;05,7m;-0,01nds;1013,51000hPa;0,00�C(N);22,80�C;---;31/05/2020;00:06:25;0,01nds;070�;0,00nds;087�;0,22�;5,20m;99%;+;non;ind�termin�e;;;;-;;;;;;;;;;;;;;;;;;;;;
30/05/2020;22:06:26;46�08,565 N;001�10,070 W;0,00nds;347�;0,01nds;250�;055�;163�;08,1nds;165�;08,1nds;05,7m;-0,01nds;1013,51000hPa;0,00�C(N);22,80�C;---;31/05/2020;00:06:26;0,01nds;070�;0,00nds;087�;0,22�;5,20m;99%;+;non;ind�termin�e;;;;-;;;;;;;;;;;;;;;;;;;;;
30/05/2020;22:06:27;46�08,565 N;001�10,070 W;0,00nds;006�;0,01nds;250�;052�;162�;08,0nds;162�;08,0nds;05,7m;-0,01nds;1013,51000hPa;0,00�C(N);22,80�C;---;31/05/2020;00:06:27;0,01nds;070�;0,00nds;087�;0,22�;5,20m;99%;+;non;ind�termin�e;;;;-;;;;;;;;;;;;;;;;;;;;;
30/05/2020;22:06:28;46�08,565 N;001�10,070 W;0,00nds;081�;0,01nds;250�;049�;157�;08,4nds;159�;08,0nds;05,7m;-0,01nds;1013,51000hPa;0,00�C(N);22,90�C;---;31/05/2020;00:06:28;0,01nds;070�;0,00nds;087�;0,22�;5,20m;99%;+;non;ind�termin�e;;;;-;;;;;;;;;;;;;;;;;;;;;
30/05/2020;22:06:29;46�08,565 N;001�10,070 W;0,00nds;091�;0,01nds;250�;049�;158�;08,6nds;159�;08,0nds;05,7m;-0,01nds;1013,51000hPa;0,00�C(N);22,90�C;---;31/05/2020;00:06:29;0,01nds;070�;0,00nds;087�;0,22�;5,20m;99%;+;non;ind�termin�e;;;;-;;;;;;;;;;;;;;;;;;;;;
30/05/2020;22:06:30;46�08,565 N;001�10,070 W;0,00nds;078�;0,01nds;250�;045�;148�;08,4nds;155�;08,5nds;05,7m;-0,01nds;1013,51000hPa;0,00�C(N);22,90�C;---;31/05/2020;00:06:30;0,01nds;070�;0,00nds;087�;0,22�;5,20m;99%;+;non;ind�termin�e;;;;-;;;;;;;;;;;;;;;;;;;;;
30/05/2020;22:06:31;46�08,565 N;001�10,070 W;0,00nds;047�;0,01nds;250�;038�;147�;08,4nds;148�;08,3nds;05,7m;-0,01nds;1013,51000hPa;0,00�C(N);22,90�C;---;31/05/2020;00:06:31;0,01nds;070�;0,00nds;087�;0,22�;5,20m;99%;+;non;ind�termin�e;;;;-;;;;;;;;;;;;;;;;;;;;;
30/05/2020;22:06:32;46�08,565 N;001�10,070 W;0,00nds;041�;0,01nds;250�;037�;150�;08,4nds;147�;08,4nds;05,8m;-0,01nds;1013,51000hPa;0,00�C(N);22,90�C;---;31/05/2020;00:06:32;0,01nds;070�;0,00nds;087�;0,22�;5,20m;99%;+;non;ind�termin�e;;;;-;;;;;;;;;;;;;;;;;;;;;
30/05/2020;22:06:33;46�08,565 N;001�10,070 W;0,00nds;089�;0,01nds;250�;041�;154�;08,2nds;151�;08,3nds;05,7m;-0,01nds;1013,51000hPa;0,00�C(N);22,90�C;---;31/05/2020;00:06:33;0,01nds;070�;0,00nds;087�;0,22�;5,20m;99%;+;non;ind�termin�e;;;;-;;;;;;;;;;;;;;;;;;;;;
30/05/2020;22:06:34;46�08,565 N;001�10,070 W;0,00nds;155�;0,01nds;250�;044�;152�;08,3nds;154�;08,1nds;05,7m;-0,01nds;1013,51000hPa;0,00�C(N);22,90�C;---;31/05/2020;00:06:34;0,01nds;070�;0,00nds;087�;0,22�;5,20m;99%;+;non;ind�termin�e;;;;-;;;;;;;;;;;;;;;;;;;;;
30/05/2020;22:06:35;46�08,565 N;001�10,070 W;0,00nds;126�;0,01nds;250�;042�;157�;08,2nds;152�;08,3nds;05,7m;-0,01nds;1013,51000hPa;0,00�C(N);22,90�C;---;31/05/2020;00:06:35;0,01nds;070�;0,00nds;087�;0,22�;5,20m;99%;+;non;ind�termin�e;;;;-;;;;;;;;;;;;;;;;;;;;;
30/05/2020;22:06:36;46�08,565 N;001�10,070 W;0,00nds;143�;0,01nds;250�;050�;163�;07,5nds;160�;07,8nds;05,7m;-0,01nds;1013,51000hPa;0,00�C(N);22,80�C;---;31/05/2020;00:06:36;0,01nds;070�;0,00nds;087�;0,22�;5,20m;99%;+;non;ind�termin�e;;;;-;;;;;;;;;;;;;;;;;;;;;
30/05/2020;22:06:37;46�08,565 N;001�10,070 W;0,00nds;154�;0,01nds;250�;050�;165�;07,6nds;160�;07,8nds;05,7m;-0,01nds;1013,51000hPa;0,00�C(N);22,80�C;---;31/05/2020;00:06:37;0,01nds;070�;0,00nds;087�;0,22�;5,20m;99%;+;non;ind�termin�e;;;;-;;;;;;;;;;;;;;;;;;;;;
30/05/2020;22:06:38;46�08,565 N;001�10,070 W;0,00nds;115�;0,01nds;250�;059�;169�;08,1nds;169�;08,1nds;05,7m;-0,01nds;1013,51000hPa;0,00�C(N);22,80�C;---;31/05/2020;00:06:38;0,01nds;070�;0,00nds;087�;0,22�;5,20m;99%;+;non;ind�termin�e;;;;-;;;;;;;;;;;;;;;;;;;;;
30/05/2020;22:06:39;46�08,565 N;001�10,070 W;0,00nds;101�;0,01nds;250�;060�;171�;09,0nds;170�;08,7nds;05,7m;-0,01nds;1013,51000hPa;0,00�C(N);22,80�C;---;31/05/2020;00:06:39;0,01nds;070�;0,00nds;087�;0,22�;5,20m;99%;+;non;ind�termin�e;;;;-;;;;;;;;;;;;;;;;;;;;;
30/05/2020;22:06:40;46�08,565 N;001�10,070 W;0,00nds;133�;0,01nds;250�;060�;173�;09,1nds;170�;08,7nds;05,7m;-0,01nds;1013,51000hPa;0,00�C(N);22,80�C;---;31/05/2020;00:06:40;0,01nds;070�;0,00nds;087�;0,22�;5,20m;99%;+;non;ind�termin�e;;;;-;;;;;;;;;;;;;;;;;;;;;
30/05/2020;22:06:41;46�08,565 N;001�10,070 W;0,00nds;105�;0,01nds;251�;057�;161�;09,3nds;166�;09,0nds;05,8m;-0,01nds;1013,51000hPa;0,00�C(N);22,80�C;---;31/05/2020;00:06:41;0,01nds;071�;0,00nds;087�;0,22�;5,20m;99%;+;non;ind�termin�e;;;;-;;;;;;;;;;;;;;;;;;;;;
30/05/2020;22:06:42;46�08,565 N;001�10,070 W;0,00nds;051�;0,01nds;251�;052�;157�;09,5nds;161�;09,2nds;05,7m;-0,01nds;1013,51000hPa;0,00�C(N);22,80�C;---;31/05/2020;00:06:42;0,01nds;071�;0,00nds;087�;0,22�;5,20m;99%;+;non;ind�termin�e;;;;-;;;;;;;;;;;;;;;;;;;;;
30/05/2020;22:06:43;46�08,565 N;001�10,070 W;0,00nds;044�;0,01nds;251�;048�;151�;09,4nds;157�;09,5nds;05,7m;-0,01nds;1013,51000hPa;0,00�C(N);22,90�C;---;31/05/2020;00:06:43;0,01nds;071�;0,00nds;087�;0,22�;5,20m;99%;+;non;ind�termin�e;;;;-;;;;;;;;;;;;;;;;;;;;;
30/05/2020;22:06:44;46�08,565 N;001�10,070 W;0,00nds;022�;0,01nds;251�;040�;150�;09,0nds;150�;09,3nds;05,7m;-0,01nds;1013,51000hPa;0,00�C(N);22,90�C;---;31/05/2020;00:06:44;0,01nds;071�;0,00nds;087�;0,22�;5,20m;99%;+;non;ind�termin�e;;;;-;;;;;;;;;;;;;;;;;;;;;
30/05/2020;22:06:45;46�08,565 N;001�10,070 W;0,00nds;000�;0,01nds;251�;041�;146�;08,9nds;150�;09,0nds;05,7m;-0,01nds;1013,51000hPa;0,00�C(N);22,90�C;---;31/05/2020;00:06:45;0,01nds;071�;0,00nds;087�;0,22�;5,20m;99%;+;non;ind�termin�e;;;;-;;;;;;;;;;;;;;;;;;;;;
30/05/2020;22:06:46;46�08,565 N;001�10,070 W;0,00nds;347�;0,00nds;250�;032�;142�;08,9nds;142�;08,8nds;05,7m;-0,00nds;1013,51000hPa;0,00�C(N);22,90�C;---;31/05/2020;00:06:46;0,00nds;347�;0,00nds;087�;0,22�;5,20m;99%;+;non;ind�termin�e;;;;-;;;;;;;;;;;;;;;;;;;;;
30/05/2020;22:06:47;46�08,565 N;001�10,070 W;0,00nds;325�;0,01nds;250�;034�;145�;08,5nds;144�;08,6nds;05,7m;-0,01nds;1013,51000hPa;0,00�C(N);22,90�C;---;31/05/2020;00:06:47;0,01nds;070�;0,00nds;087�;0,22�;5,20m;99%;+;non;ind�termin�e;;;;-;;;;;;;;;;;;;;;;;;;;;
30/05/2020;22:06:48;46�08,565 N;001�10,070 W;0,00nds;330�;0,01nds;250�;034�;148�;08,4nds;144�;08,6nds;05,7m;-0,01nds;1013,51000hPa;0,00�C(N);22,90�C;---;31/05/2020;00:06:48;0,01nds;070�;0,00nds;087�;0,22�;5,20m;99%;+;non;ind�termin�e;;;;-;;;;;;;;;;;;;;;;;;;;;
30/05/2020;22:06:49;46�08,565 N;001�10,070 W;0,00nds;343�;0,01nds;250�;040�;150�;08,1nds;150�;08,3nds;05,7m;-0,01nds;1013,51000hPa;0,00�C(N);22,90�C;---;31/05/2020;00:06:49;0,01nds;070�;0,00nds;087�;0,22�;5,20m;99%;+;non;ind�termin�e;;;;-;;;;;;;;;;;;;;;;;;;;;
30/05/2020;22:06:50;46�08,565 N;001�10,070 W;0,00nds;275�;0,02nds;250�;040�;152�;07,9nds;150�;08,1nds;05,7m;-0,02nds;1013,51000hPa;0,00�C(N);22,90�C;---;31/05/2020;00:06:50;0,02nds;070�;0,00nds;087�;0,22�;5,20m;99%;+;non;ind�termin�e;;;;-;;;;;;;;;;;;;;;;;;;;;
30/05/2020;22:06:51;46�08,565 N;001�10,070 W;0,00nds;234�;0,02nds;250�;042�;157�;07,5nds;152�;07,9nds;05,7m;-0,02nds;1013,52000hPa;0,00�C(N);22,80�C;---;31/05/2020;00:06:51;0,02nds;070�;0,00nds;087�;0,22�;5,20m;99%;+;non;ind�termin�e;;;;-;;;;;;;;;;;;;;;;;;;;;
30/05/2020;22:06:52;46�08,565 N;001�10,070 W;0,00nds;192�;0,02nds;250�;050�;163�;07,0nds;160�;07,3nds;05,7m;-0,02nds;1013,52000hPa;0,00�C(N);22,80�C;---;31/05/2020;00:06:52;0,02nds;070�;0,00nds;087�;0,22�;5,20m;99%;+;non;ind�termin�e;;;;-;;;;;;;;;;;;;;;;;;;;;
30/05/2020;22:06:53;46�08,565 N;001�10,070 W;0,00nds;205�;0,02nds;250�;053�;164�;06,7nds;163�;07,0nds;05,7m;-0,02nds;1013,52000hPa;0,00�C(N);22,80�C;---;31/05/2020;00:06:53;0,02nds;070�;0,00nds;087�;0,22�;5,20m;99%;+;non;ind�termin�e;;;;-;;;;;;;;;;;;;;;;;;;;;
30/05/2020;22:06:54;46�08,565 N;001�10,070 W;0,00nds;182�;0,02nds;250�;051�;161�;06,4nds;161�;06,4nds;05,7m;-0,02nds;1013,51000hPa;0,00�C(N);22,80�C;---;31/05/2020;00:06:54;0,02nds;070�;0,00nds;087�;0,22�;5,20m;99%;+;non;ind�termin�e;;;;-;;;;;;;;;;;;;;;;;;;;;
30/05/2020;22:06:55;46�08,565 N;001�10,070 W;0,00nds;164�;0,02nds;250�;045�;151�;06,4nds;155�;06,4nds;05,7m;-0,02nds;1013,51000hPa;0,00�C(N);22,80�C;---;31/05/2020;00:06:55;0,02nds;070�;0,00nds;087�;0,22�;5,20m;99%;+;non;ind�termin�e;;;;-;;;;;;;;;;;;;;;;;;;;;
30/05/2020;22:06:56;46�08,565 N;001�10,070 W;0,00nds;131�;0,02nds;251�;045�;151�;06,8nds;155�;06,4nds;05,7m;-0,02nds;1013,52000hPa;0,00�C(N);22,80�C;---;31/05/2020;00:06:56;0,02nds;071�;0,00nds;087�;0,22�;5,20m;99%;+;non;ind�termin�e;;;;-;;;;;;;;;;;;;;;;;;;;;
30/05/2020;22:06:57;46�08,565 N;001�10,070 W;0,00nds;089�;0,02nds;251�;041�;151�;07,6nds;150�;07,2nds;05,7m;-0,02nds;1013,52000hPa;0,00�C(N);22,80�C;---;31/05/2020;00:06:57;0,02nds;071�;0,00nds;087�;0,22�;5,20m;99%;+;non;ind�termin�e;;;;-;;;;;;;;;;;;;;;;;;;;;
30/05/2020;22:06:58;46�08,565 N;001�10,070 W;0,00nds;093�;0,02nds;251�;042�;151�;07,7nds;151�;07,6nds;05,7m;-0,02nds;1013,52000hPa;0,00�C(N);22,90�C;---;31/05/2020;00:06:58;0,02nds;071�;0,00nds;087�;0,22�;5,20m;99%;+;non;ind�termin�e;;;;-;;;;;;;;;;;;;;;;;;;;;
30/05/2020;22:06:59;46�08,565 N;001�10,070 W;0,00nds;085�;0,02nds;251�;042�;149�;07,7nds;151�;07,7nds;05,7m;-0,02nds;1013,52000hPa;0,00�C(N);22,90�C;---;31/05/2020;00:06:59;0,02nds;071�;0,00nds;087�;0,22�;5,20m;99%;+;non;ind�termin�e;;;;-;;;;;;;;;;;;;;;;;;;;;
30/05/2020;22:07:00;46�08,565 N;001�10,070 W;0,00nds;020�;0,02nds;251�;041�;154�;07,5nds;150�;07,6nds;05,7m;-0,02nds;1013,52000hPa;0,00�C(N);22,90�C;---;31/05/2020;00:07:00;0,02nds;071�;0,00nds;087�;0,22�;5,20m;99%;+;non;ind�termin�e;;;;-;;;;;;;;;;;;;;;;;;;;;
30/05/2020;22:07:01;46�08,565 N;001�10,070 W;0,00nds;026�;0,02nds;251�;045�;161�;06,9nds;154�;07,5nds;05,7m;-0,02nds;1013,52000hPa;0,00�C(N);22,90�C;---;31/05/2020;00:07:01;0,02nds;071�;0,00nds;087�;0,22�;5,20m;99%;+;non;ind�termin�e;;;;-;;;;;;;;;;;;;;;;;;;;;
30/05/2020;22:07:02;46�08,565 N;001�10,070 W;0,00nds;002�;0,02nds;251�;055�;164�;06,3nds;164�;06,3nds;05,7m;-0,02nds;1013,52000hPa;0,00�C(N);22,90�C;---;31/05/2020;00:07:02;0,02nds;071�;0,00nds;087�;0,22�;5,20m;99%;+;non;ind�termin�e;;;;-;;;;;;;;;;;;;;;;;;;;;
30/05/2020;22:07:03;46�08,565 N;001�10,070 W;0,00nds;333�;0,01nds;250�;056�;169�;06,1nds;165�;05,9nds;05,7m;-0,01nds;1013,52000hPa;0,00�C(N);22,90�C;---;31/05/2020;00:07:03;0,01nds;070�;0,00nds;087�;0,22�;5,20m;99%;+;non;ind�termin�e;;;;-;;;;;;;;;;;;;;;;;;;;;
30/05/2020;22:07:04;46�08,565 N;001�10,070 W;0,00nds;322�;0,01nds;250�;056�;172�;06,4nds;165�;05,9nds;05,7m;-0,01nds;1013,51000hPa;0,00�C(N);22,90�C;---;31/05/2020;00:07:04;0,01nds;070�;0,00nds;087�;0,22�;5,20m;99%;+;non;ind�termin�e;;;;-;;;;;;;;;;;;;;;;;;;;;
30/05/2020;22:07:05;46�08,565 N;001�10,070 W;0,00nds;006�;0,01nds;250�;061�;174�;06,6nds;171�;06,5nds;05,7m;-0,01nds;1013,52000hPa;0,00�C(N);22,90�C;---;31/05/2020;00:07:05;0,01nds;070�;0,00nds;087�;0,22�;5,20m;99%;+;non;ind�termin�e;;;;-;;;;;;;;;;;;;;;;;;;;;
30/05/2020;22:07:06;46�08,565 N;001�10,070 W;0,00nds;027�;0,01nds;250�;064�;175�;06,9nds;174�;06,6nds;05,7m;-0,01nds;1013,52000hPa;0,00�C(N);22,90�C;---;31/05/2020;00:07:06;0,01nds;070�;0,00nds;087�;0,22�;5,20m;99%;+;non;ind�termin�e;;;;-;;;;;;;;;;;;;;;;;;;;;
30/05/2020;22:07:07;46�08,565 N;001�10,070 W;0,00nds;012�;0,01nds;250�;065�;174�;06,9nds;175�;06,9nds;05,7m;-0,01nds;1013,52000hPa;0,00�C(N);22,90�C;---;31/05/2020;00:07:07;0,01nds;070�;0,00nds;087�;0,22�;5,20m;99%;+;non;ind�termin�e;;;;-;;;;;;;;;;;;;;;;;;;;;
30/05/2020;22:07:08;46�08,565 N;001�10,070 W;0,00nds;349�;0,01nds;250�;062�;170�;06,6nds;172�;06,8nds;05,7m;-0,01nds;1013,52000hPa;0,00�C(N);22,90�C;---;31/05/2020;00:07:08;0,01nds;070�;0,00nds;087�;0,22�;5,20m;99%;+;non;ind�termin�e;;;;-;;;;;;;;;;;;;;;;;;;;;
30/05/2020;22:07:09;46�08,565 N;001�10,070 W;0,00nds;353�;0,01nds;250�;060�;169�;06,3nds;170�;06,6nds;05,8m;-0,01nds;1013,52000hPa;0,00�C(N);22,90�C;---;31/05/2020;00:07:09;0,01nds;070�;0,00nds;087�;0,22�;5,20m;99%;+;non;ind�termin�e;;;;-;;;;;;;;;;;;;;;;;;;;;
30/05/2020;22:07:10;46�08,565 N;001�10,070 W;0,00nds;321�;0,01nds;250�;059�;165�;05,9nds;169�;06,3nds;05,7m;-0,01nds;1013,52000hPa;0,00�C(N);22,90�C;---;31/05/2020;00:07:10;0,01nds;070�;0,00nds;087�;0,22�;5,20m;99%;+;non;ind�termin�e;;;;-;;;;;;;;;;;;;;;;;;;;;
30/05/2020;22:07:11;46�08,565 N;001�10,070 W;0,00nds;291�;0,01nds;250�;060�;168�;05,2nds;170�;05,5nds;05,7m;-0,01nds;1013,52000hPa;0,00�C(N);22,90�C;---;31/05/2020;00:07:11;0,01nds;070�;0,00nds;087�;0,22�;5,20m;99%;+;non;ind�termin�e;;;;-;;;;;;;;;;;;;;;;;;;;;
30/05/2020;22:07:12;46�08,565 N;001�10,070 W;0,00nds;330�;0,01nds;251�;058�;163�;05,3nds;168�;05,5nds;05,7m;-0,01nds;1013,52000hPa;0,00�C(N);22,90�C;---;31/05/2020;00:07:12;0,01nds;071�;0,00nds;087�;0,22�;5,20m;99%;+;non;ind�termin�e;;;;-;;;;;;;;;;;;;;;;;;;;;
30/05/2020;22:07:13;46�08,565 N;001�10,070 W;0,00nds;335�;0,01nds;251�;050�;159�;06,1nds;159�;05,5nds;05,7m;-0,01nds;1013,52000hPa;0,00�C(N);22,80�C;---;31/05/2020;00:07:13;0,01nds;071�;0,00nds;087�;0,22�;5,20m;99%;+;non;ind�termin�e;;;;-;;;;;;;;;;;;;;;;;;;;;
30/05/2020;22:07:14;46�08,565 N;001�10,070 W;0,00nds;013�;0,01nds;251�;050�;160�;06,5nds;159�;06,0nds;05,7m;-0,01nds;1013,52000hPa;0,00�C(N);22,80�C;---;31/05/2020;00:07:14;0,01nds;071�;0,00nds;087�;0,22�;5,20m;99%;+;non;ind�termin�e;;;;-;;;;;;;;;;;;;;;;;;;;;
30/05/2020;22:07:15;46�08,565 N;001�10,070 W;0,00nds;020�;0,01nds;251�;050�;163�;06,9nds;159�;06,0nds;05,7m;-0,01nds;1013,52000hPa;0,00�C(N);22,80�C;---;31/05/2020;00:07:15;0,01nds;071�;0,00nds;087�;0,22�;5,20m;99%;+;non;ind�termin�e;;;;-;;;;;;;;;;;;;;;;;;;;;
30/05/2020;22:07:16;46�08,565 N;001�10,070 W;0,00nds;010�;0,01nds;251�;055�;164�;06,9nds;164�;07,1nds;05,8m;-0,01nds;1013,52000hPa;0,00�C(N);22,80�C;---;31/05/2020;00:07:16;0,01nds;071�;0,00nds;087�;0,22�;5,20m;99%;+;non;ind�termin�e;;;;-;;;;;;;;;;;;;;;;;;;;;
30/05/2020;22:07:17;46�08,565 N;001�10,070 W;0,00nds;002�;0,01nds;251�;055�;167�;06,8nds;164�;06,9nds;05,7m;-0,01nds;1013,52000hPa;0,00�C(N);22,80�C;---;31/05/2020;00:07:17;0,01nds;071�;0,00nds;087�;0,22�;5,20m;99%;+;non;ind�termin�e;;;;-;;;;;;;;;;;;;;;;;;;;;
30/05/2020;22:07:18;46�08,565 N;001�10,070 W;0,00nds;003�;0,01nds;250�;058�;165�;06,9nds;167�;06,8nds;05,8m;-0,01nds;1013,51000hPa;0,00�C(N);22,80�C;---;31/05/2020;00:07:18;0,01nds;070�;0,00nds;087�;0,22�;5,20m;99%;+;non;ind�termin�e;;;;-;;;;;;;;;;;;;;;;;;;;;
30/05/2020;22:07:19;46�08,565 N;001�10,070 W;0,00nds;026�;0,01nds;250�;052�;160�;07,2nds;162�;06,9nds;05,7m;-0,01nds;1013,52000hPa;0,00�C(N);22,80�C;---;31/05/2020;00:07:19;0,01nds;070�;0,00nds;087�;0,22�;5,20m;99%;+;non;ind�termin�e;;;;-;;;;;;;;;;;;;;;;;;;;;
30/05/2020;22:07:20;46�08,565 N;001�10,070 W;0,00nds;032�;0,00nds;250�;050�;154�;07,3nds;160�;07,1nds;05,7m;-0,00nds;1013,52000hPa;0,00�C(N);22,80�C;---;31/05/2020;00:07:20;0,00nds;032�;0,00nds;087�;0,22�;5,20m;99%;+;non;ind�termin�e;;;;-;;;;;;;;;;;;;;;;;;;;;
30/05/2020;22:07:21;46�08,565 N;001�10,070 W;0,00nds;061�;0,00nds;250�;044�;154�;07,4nds;154�;07,4nds;05,8m;-0,00nds;1013,52000hPa;0,00�C(N);22,80�C;---;31/05/2020;00:07:21;0,00nds;061�;0,00nds;087�;0,22�;5,20m;99%;+;non;ind�termin�e;;;;-;;;;;;;;;;;;;;;;;;;;;
30/05/2020;22:07:22;46�08,565 N;001�10,070 W;0,00nds;063�;0,00nds;250�;048�;164�;07,3nds;158�;07,0nds;05,7m;-0,00nds;1013,52000hPa;0,00�C(N);22,80�C;---;31/05/2020;00:07:22;0,00nds;063�;0,00nds;087�;0,22�;5,20m;99%;+;non;ind�termin�e;;;;-;;;;;;;;;;;;;;;;;;;;;
30/05/2020;22:07:23;46�08,565 N;001�10,070 W;0,00nds;090�;0,01nds;250�;048�;168�;07,5nds;158�;07,0nds;05,7m;-0,01nds;1013,52000hPa;0,00�C(N);22,80�C;---;31/05/2020;00:07:23;0,01nds;070�;0,00nds;087�;0,22�;5,20m;99%;+;non;ind�termin�e;;;;-;;;;;;;;;;;;;;;;;;;;;
30/05/2020;22:07:24;46�08,565 N;001�10,070 W;0,00nds;096�;0,01nds;251�;060�;165�;06,6nds;170�;07,3nds;05,7m;-0,01nds;1013,52000hPa;0,00�C(N);22,80�C;---;31/05/2020;00:07:24;0,01nds;071�;0,00nds;087�;0,22�;5,20m;99%;+;non;ind�termin�e;;;;-;;;;;;;;;;;;;;;;;;;;;
30/05/2020;22:07:25;46�08,565 N;001�10,070 W;0,00nds;092�;0,01nds;251�;056�;166�;06,1nds;165�;06,5nds;05,7m;-0,01nds;1013,52000hPa;0,00�C(N);22,80�C;---;31/05/2020;00:07:25;0,01nds;071�;0,00nds;087�;0,22�;5,20m;99%;+;non;ind�termin�e;;;;-;;;;;;;;;;;;;;;;;;;;;
30/05/2020;22:07:26;46�08,565 N;001�10,070 W;0,00nds;112�;0,01nds;251�;057�;165�;05,7nds;166�;06,0nds;05,7m;-0,01nds;1013,52000hPa;0,00�C(N);22,80�C;---;31/05/2020;00:07:26;0,01nds;071�;0,00nds;087�;0,22�;5,20m;99%;+;non;ind�termin�e;;;;-;;;;;;;;;;;;;;;;;;;;;
30/05/2020;22:07:27;46�08,565 N;001�10,070 W;0,00nds;059�;0,01nds;251�;056�;158�;04,8nds;165�;05,3nds;05,7m;-0,01nds;1013,52000hPa;0,00�C(N);22,80�C;---;31/05/2020;00:07:27;0,01nds;071�;0,00nds;087�;0,22�;5,20m;99%;+;non;ind�termin�e;;;;-;;;;;;;;;;;;;;;;;;;;;
30/05/2020;22:07:28;46�08,565 N;001�10,070 W;0,00nds;016�;0,01nds;251�;049�;151�;04,6nds;158�;04,8nds;05,7m;-0,01nds;1013,52000hPa;0,00�C(N);22,90�C;---;31/05/2020;00:07:28;0,01nds;071�;0,00nds;087�;0,22�;5,20m;99%;+;non;ind�termin�e;;;;-;;;;;;;;;;;;;;;;;;;;;
30/05/2020;22:07:29;46�08,565 N;001�10,070 W;0,00nds;051�;0,01nds;251�;043�;152�;04,7nds;152�;04,7nds;05,7m;-0,01nds;1013,52000hPa;0,00�C(N);22,90�C;---;31/05/2020;00:07:29;0,01nds;071�;0,00nds;087�;0,22�;5,20m;99%;+;non;ind�termin�e;;;;-;;;;;;;;;;;;;;;;;;;;;
30/05/2020;22:07:30;46�08,565 N;001�10,070 W;0,00nds;359�;0,01nds;250�;043�;151�;04,9nds;152�;04,8nds;05,7m;-0,01nds;1013,52000hPa;0,00�C(N);22,90�C;---;31/05/2020;00:07:30;0,01nds;070�;0,00nds;000�;0,22�;5,20m;99%;+;non;ind�termin�e;;;;-;;;;;;;;;;;;;;;;;;;;;
30/05/2020;22:07:31;46�08,565 N;001�10,070 W;0,00nds;350�;0,01nds;250�;043�;156�;05,1nds;152�;04,8nds;05,7m;-0,01nds;1013,52000hPa;0,00�C(N);22,90�C;---;31/05/2020;00:07:31;0,01nds;070�;0,00nds;000�;0,22�;5,20m;99%;+;non;ind�termin�e;;;;-;;;;;;;;;;;;;;;;;;;;;
30/05/2020;22:07:32;46�08,565 N;001�10,070 W;0,00nds;355�;0,01nds;250�;047�;154�;05,5nds;157�;05,3nds;05,7m;-0,01nds;1013,52000hPa;0,00�C(N);22,90�C;---;31/05/2020;00:07:32;0,01nds;070�;0,00nds;000�;0,22�;5,20m;99%;+;non;ind�termin�e;;;;-;;;;;;;;;;;;;;;;;;;;;
30/05/2020;22:07:33;46�08,565 N;001�10,070 W;0,00nds;307�;0,01nds;250�;044�;154�;05,5nds;154�;05,5nds;05,7m;-0,01nds;1013,51000hPa;0,00�C(N);22,90�C;---;31/05/2020;00:07:33;0,01nds;070�;0,00nds;000�;0,22�;5,20m;99%;+;non;ind�termin�e;;;;-;;;;;;;;;;;;;;;;;;;;;
30/05/2020;22:07:34;46�08,565 N;001�10,070 W;0,00nds;335�;0,01nds;250�;044�;152�;05,4nds;154�;05,5nds;05,7m;-0,01nds;1013,52000hPa;0,00�C(N);22,90�C;---;31/05/2020;00:07:34;0,01nds;070�;0,00nds;000�;0,22�;5,20m;99%;+;non;ind�termin�e;;;;-;;;;;;;;;;;;;;;;;;;;;
30/05/2020;22:07:35;46�08,565 N;001�10,070 W;0,00nds;062�;0,01nds;250�;046�;155�;05,6nds;156�;05,4nds;05,7m;-0,01nds;1013,51000hPa;0,00�C(N);22,90�C;---;31/05/2020;00:07:35;0,01nds;070�;0,00nds;000�;0,22�;5,20m;99%;+;non;ind�termin�e;;;;-;;;;;;;;;;;;;;;;;;;;;
30/05/2020;22:07:36;46�08,565 N;001�10,070 W;0,00nds;133�;0,01nds;250�;045�;154�;06,0nds;155�;05,6nds;05,7m;-0,01nds;1013,51000hPa;0,00�C(N);22,80�C;---;31/05/2020;00:07:36;0,01nds;070�;0,00nds;000�;0,22�;5,20m;99%;+;non;ind�termin�e;;;;-;;;;;;;;;;;;;;;;;;;;;
30/05/2020;22:07:37;46�08,565 N;001�10,070 W;0,00nds;121�;0,01nds;250�;048�;158�;06,0nds;158�;06,0nds;05,7m;-0,01nds;1013,51000hPa;0,00�C(N);22,80�C;---;31/05/2020;00:07:37;0,01nds;070�;0,00nds;000�;0,22�;5,20m;99%;+;non;ind�termin�e;;;;-;;;;;;;;;;;;;;;;;;;;;
30/05/2020;22:07:38;46�08,565 N;001�10,070 W;0,00nds;115�;0,01nds;250�;052�;165�;05,7nds;162�;05,8nds;05,7m;-0,01nds;1013,51000hPa;0,00�C(N);22,80�C;---;31/05/2020;00:07:38;0,01nds;070�;0,00nds;000�;0,22�;5,20m;99%;+;non;ind�termin�e;;;;-;;;;;;;;;;;;;;;;;;;;;
30/05/2020;22:07:39;46�08,565 N;001�10,070 W;0,00nds;110�;0,01nds;250�;052�;166�;05,5nds;162�;05,8nds;05,7m;-0,01nds;1013,52000hPa;0,00�C(N);22,80�C;---;31/05/2020;00:07:39;0,01nds;070�;0,00nds;000�;0,22�;5,21m;99%;+;non;ind�termin�e;;;;-;;;;;;;;;;;;;;;;;;;;;
30/05/2020;22:07:40;46�08,565 N;001�10,070 W;0,00nds;030�;0,01nds;250�;060�;176�;05,3nds;170�;05,3nds;05,7m;-0,01nds;1013,52000hPa;0,00�C(N);22,80�C;---;31/05/2020;00:07:40;0,01nds;070�;0,00nds;000�;0,22�;5,21m;99%;+;non;ind�termin�e;;;;-;;;;;;;;;;;;;;;;;;;;;
30/05/2020;22:07:41;46�08,565 N;001�10,070 W;0,00nds;091�;0,01nds;251�;066�;178�;05,5nds;176�;05,3nds;05,7m;-0,01nds;1013,52000hPa;0,00�C(N);22,80�C;---;31/05/2020;00:07:41;0,01nds;071�;0,00nds;000�;0,22�;5,21m;99%;+;non;ind�termin�e;;;;-;;;;;;;;;;;;;;;;;;;;;
30/05/2020;22:07:42;46�08,565 N;001�10,070 W;0,00nds;063�;0,01nds;251�;069�;180�;05,5nds;178�;05,5nds;05,7m;-0,01nds;1013,52000hPa;0,00�C(N);22,80�C;---;31/05/2020;00:07:42;0,01nds;071�;0,00nds;000�;0,22�;5,21m;99%;+;non;ind�termin�e;;;;-;;;;;;;;;;;;;;;;;;;;;
30/05/2020;22:07:43;46�08,565 N;001�10,070 W;0,00nds;005�;0,01nds;251�;069�;174�;05,3nds;178�;05,4nds;05,7m;-0,01nds;1013,52000hPa;0,00�C(N);22,80�C;---;31/05/2020;00:07:43;0,01nds;071�;0,00nds;000�;0,22�;5,21m;99%;+;non;ind�termin�e;;;;-;;;;;;;;;;;;;;;;;;;;;
30/05/2020;22:07:44;46�08,565 N;001�10,070 W;0,00nds;281�;0,01nds;251�;065�;175�;05,3nds;174�;05,3nds;05,7m;-0,01nds;1013,52000hPa;0,00�C(N);22,80�C;---;31/05/2020;00:07:44;0,01nds;071�;0,00nds;000�;0,22�;5,21m;99%;+;non;ind�termin�e;;;;-;;;;;;;;;;;;;;;;;;;;;
30/05/2020;22:07:45;46�08,565 N;001�10,070 W;0,00nds;321�;0,02nds;251�;066�;177�;05,6nds;175�;05,3nds;05,7m;-0,02nds;1013,52000hPa;0,00�C(N);22,80�C;---;31/05/2020;00:07:45;0,02nds;071�;0,00nds;000�;0,22�;5,21m;99%;+;non;ind�termin�e;;;;-;;;;;;;;;;;;;;;;;;;;;
30/05/2020;22:07:46;46�08,565 N;001�10,070 W;0,00nds;282�;0,02nds;251�;068�;175�;06,2nds;177�;06,0nds;05,7m;-0,02nds;1013,52000hPa;0,00�C(N);22,80�C;---;31/05/2020;00:07:46;0,02nds;071�;0,00nds;000�;0,22�;5,21m;99%;+;non;ind�termin�e;;;;-;;;;;;;;;;;;;;;;;;;;;
30/05/2020;22:07:47;46�08,565 N;001�10,070 W;0,00nds;265�;0,02nds;251�;066�;174�;06,4nds;175�;06,2nds;05,7m;-0,02nds;1013,52000hPa;0,00�C(N);22,80�C;---;31/05/2020;00:07:47;0,02nds;071�;0,00nds;000�;0,22�;5,21m;99%;+;non;ind�termin�e;;;;-;;;;;;;;;;;;;;;;;;;;;
30/05/2020;22:07:48;46�08,565 N;001�10,070 W;0,00nds;278�;0,02nds;251�;065�;174�;06,4nds;174�;06,4nds;05,7m;-0,02nds;1013,52000hPa;0,00�C(N);22,80�C;---;31/05/2020;00:07:48;0,02nds;071�;0,00nds;000�;0,22�;5,21m;99%;+;non;ind�termin�e;;;;-;;;;;;;;;;;;;;;;;;;;;
30/05/2020;22:07:49;46�08,565 N;001�10,070 W;0,00nds;323�;0,02nds;251�;064�;175�;06,4nds;173�;06,4nds;05,7m;-0,02nds;1013,52000hPa;0,00�C(N);22,80�C;---;31/05/2020;00:07:49;0,02nds;071�;0,00nds;000�;0,22�;5,21m;99%;+;non;ind�termin�e;;;;-;;;;;;;;;;;;;;;;;;;;;
30/05/2020;22:07:50;46�08,565 N;001�10,070 W;0,10nds;325�;0,03nds;251�;064�;174�;06,6nds;173�;06,4nds;05,7m;-0,03nds;1013,51000hPa;0,00�C(N);22,80�C;---;31/05/2020;00:07:50;0,10nds;342�;0,00nds;000�;0,22�;5,21m;99%;+;non;ind�termin�e;;;;-;;;;;;;;;;;;;;;;;;;;;
30/05/2020;22:07:51;46�08,565 N;001�10,070 W;0,10nds;330�;0,03nds;250�;064�;176�;07,3nds;174�;06,9nds;05,7m;-0,03nds;1013,51000hPa;0,00�C(N);22,80�C;---;31/05/2020;00:07:51;0,10nds;347�;0,00nds;000�;0,22�;5,21m;99%;+;non;ind�termin�e;;;;-;;;;;;;;;;;;;;;;;;;;;
30/05/2020;22:07:52;46�08,565 N;001�10,070 W;0,00nds;289�;0,03nds;250�;066�;176�;07,9nds;176�;07,3nds;05,7m;-0,03nds;1013,52000hPa;0,00�C(N);22,80�C;---;31/05/2020;00:07:52;0,03nds;070�;0,00nds;000�;0,22�;5,21m;99%;+;non;ind�termin�e;;;;-;;;;;;;;;;;;;;;;;;;;;
30/05/2020;22:07:53;46�08,565 N;001�10,070 W;0,00nds;301�;0,03nds;250�;066�;173�;08,1nds;176�;07,9nds;05,7m;-0,03nds;1013,52000hPa;0,00�C(N);22,80�C;---;31/05/2020;00:07:53;0,03nds;070�;0,00nds;000�;0,22�;5,21m;99%;+;non;ind�termin�e;;;;-;;;;;;;;;;;;;;;;;;;;;
30/05/2020;22:07:54;46�08,565 N;001�10,070 W;0,00nds;248�;0,03nds;250�;059�;166�;07,5nds;169�;08,0nds;05,7m;-0,03nds;1013,52000hPa;0,00�C(N);22,80�C;---;31/05/2020;00:07:54;0,03nds;070�;0,00nds;000�;0,22�;5,21m;99%;+;non;ind�termin�e;;;;-;;;;;;;;;;;;;;;;;;;;;
30/05/2020;22:07:55;46�08,565 N;001�10,070 W;0,00nds;244�;0,03nds;250�;056�;166�;07,2nds;166�;07,5nds;05,7m;-0,03nds;1013,52000hPa;0,00�C(N);22,80�C;---;31/05/2020;00:07:55;0,03nds;070�;0,00nds;000�;0,22�;5,21m;99%;+;non;ind�termin�e;;;;-;;;;;;;;;;;;;;;;;;;;;
30/05/2020;22:07:56;46�08,565 N;001�10,070 W;0,00nds;202�;0,03nds;250�;056�;166�;07,1nds;166�;07,1nds;05,7m;-0,03nds;1013,52000hPa;0,00�C(N);22,80�C;---;31/05/2020;00:07:56;0,03nds;070�;0,00nds;000�;0,22�;5,21m;99%;+;non;ind�termin�e;;;;-;;;;;;;;;;;;;;;;;;;;;
30/05/2020;22:07:57;46�08,565 N;001�10,070 W;0,00nds;209�;0,03nds;250�;055�;162�;06,6nds;165�;07,0nds;05,7m;-0,03nds;1013,51000hPa;0,00�C(N);22,80�C;---;31/05/2020;00:07:57;0,03nds;070�;0,00nds;000�;0,22�;5,21m;99%;+;non;ind�termin�e;;;;-;;;;;;;;;;;;;;;;;;;;;
30/05/2020;22:07:58;46�08,565 N;001�10,070 W;0,00nds;204�;0,03nds;250�;055�;163�;06,4nds;165�;07,0nds;05,7m;-0,03nds;1013,51000hPa;0,00�C(N);22,80�C;---;31/05/2020;00:07:58;0,03nds;070�;0,00nds;000�;0,22�;5,21m;99%;+;non;ind�termin�e;;;;-;;;;;;;;;;;;;;;;;;;;;
30/05/2020;22:07:59;46�08,565 N;001�10,070 W;0,00nds;211�;0,03nds;250�;057�;168�;07,1nds;167�;06,7nds;05,7m;-0,03nds;1013,51000hPa;0,00�C(N);22,80�C;---;31/05/2020;00:07:59;0,03nds;070�;0,00nds;000�;0,22�;5,21m;99%;+;non;ind�termin�e;;;;-;;;;;;;;;;;;;;;;;;;;;
30/05/2020;22:08:00;46�08,565 N;001�10,070 W;0,00nds;117�;0,03nds;250�;058�;168�;07,0nds;168�;07,1nds;05,7m;-0,03nds;1013,51000hPa;0,00�C(N);22,80�C;---;31/05/2020;00:08:00;0,03nds;070�;0,00nds;000�;0,22�;5,21m;99%;+;non;ind�termin�e;;;;-;;;;;;;;;;;;;;;;;;;;;
30/05/2020;22:08:01;46�08,565 N;001�10,070 W;0,00nds;103�;0,03nds;250�;058�;165�;07,1nds;168�;07,0nds;05,9m;-0,03nds;1013,51000hPa;0,00�C(N);22,80�C;---;31/05/2020;00:08:01;0,03nds;070�;0,00nds;000�;0,22�;5,21m;99%;+;non;ind�termin�e;;;;-;;;;;;;;;;;;;;;;;;;;;
30/05/2020;22:08:02;46�08,565 N;001�10,070 W;0,00nds;075�;0,03nds;250�;050�;159�;07,5nds;160�;07,6nds;05,9m;-0,03nds;1013,52000hPa;0,00�C(N);22,80�C;---;31/05/2020;00:08:02;0,03nds;070�;0,00nds;000�;0,22�;5,21m;99%;+;non;ind�termin�e;;;;-;;;;;;;;;;;;;;;;;;;;;
30/05/2020;22:08:03;46�08,565 N;001�10,070 W;0,00nds;109�;0,03nds;250�;049�;158�;07,4nds;159�;07,5nds;05,9m;-0,03nds;1013,51000hPa;0,00�C(N);22,80�C;---;31/05/2020;00:08:03;0,03nds;070�;0,00nds;000�;0,22�;5,21m;99%;+;non;ind�termin�e;;;;-;;;;;;;;;;;;;;;;;;;;;
30/05/2020;22:08:04;46�08,565 N;001�10,070 W;0,00nds;122�;0,03nds;250�;047�;157�;07,2nds;157�;07,2nds;05,8m;-0,03nds;1013,51000hPa;0,00�C(N);22,80�C;---;31/05/2020;00:08:04;0,03nds;070�;0,00nds;000�;0,22�;5,21m;99%;+;non;ind�termin�e;;;;-;;;;;;;;;;;;;;;;;;;;;
30/05/2020;22:08:05;46�08,565 N;001�10,070 W;0,00nds;088�;0,03nds;250�;045�;156�;06,7nds;155�;07,0nds;05,7m;-0,03nds;1013,51000hPa;0,00�C(N);22,80�C;---;31/05/2020;00:08:05;0,03nds;070�;0,00nds;000�;0,22�;5,21m;99%;+;non;ind�termin�e;;;;-;;;;;;;;;;;;;;;;;;;;;
30/05/2020;22:08:06;46�08,565 N;001�10,070 W;0,00nds;081�;0,02nds;250�;045�;156�;06,5nds;155�;07,0nds;05,7m;-0,02nds;1013,51000hPa;0,00�C(N);22,80�C;---;31/05/2020;00:08:06;0,02nds;070�;0,00nds;000�;0,22�;5,21m;99%;+;non;ind�termin�e;;;;-;;;;;;;;;;;;;;;;;;;;;
30/05/2020;22:08:07;46�08,565 N;001�10,070 W;0,00nds;099�;0,02nds;250�;049�;165�;06,5nds;159�;06,3nds;05,7m;-0,02nds;1013,52000hPa;0,00�C(N);22,80�C;---;31/05/2020;00:08:07;0,02nds;070�;0,00nds;000�;0,22�;5,21m;99%;+;non;ind�termin�e;;;;-;;;;;;;;;;;;;;;;;;;;;
30/05/2020;22:08:08;46�08,565 N;001�10,070 W;0,00nds;084�;0,02nds;250�;055�;167�;06,6nds;165�;06,5nds;05,7m;-0,02nds;1013,51000hPa;0,00�C(N);22,80�C;---;31/05/2020;00:08:08;0,02nds;070�;0,00nds;000�;0,22�;5,21m;99%;+;non;ind�termin�e;;;;-;;;;;;;;;;;;;;;;;;;;;
30/05/2020;22:08:09;46�08,565 N;001�10,070 W;0,00nds;094�;0,02nds;250�;057�;168�;06,4nds;167�;06,6nds;05,8m;-0,02nds;1013,51000hPa;0,00�C(N);22,80�C;---;31/05/2020;00:08:09;0,02nds;070�;0,00nds;000�;0,22�;5,21m;99%;+;non;ind�termin�e;;;;-;;;;;;;;;;;;;;;;;;;;;
30/05/2020;22:08:10;46�08,565 N;001�10,070 W;0,00nds;052�;0,02nds;250�;057�;166�;06,3nds;167�;06,4nds;05,9m;-0,02nds;1013,51000hPa;0,00�C(N);22,80�C;---;31/05/2020;00:08:10;0,02nds;070�;0,00nds;000�;0,22�;5,21m;99%;+;non;ind�termin�e;;;;-;;;;;;;;;;;;;;;;;;;;;
30/05/2020;22:08:11;46�08,565 N;001�10,070 W;0,00nds;119�;0,02nds;250�;056�;166�;05,9nds;166�;06,3nds;05,8m;-0,02nds;1013,51000hPa;0,00�C(N);22,80�C;---;31/05/2020;00:08:11;0,02nds;070�;0,00nds;000�;0,22�;5,21m;99%;+;non;ind�termin�e;;;;-;;;;;;;;;;;;;;;;;;;;;
30/05/2020;22:08:12;46�08,565 N;001�10,070 W;0,00nds;107�;0,01nds;250�;056�;163�;05,6nds;166�;05,9nds;05,7m;-0,01nds;1013,51000hPa;0,00�C(N);22,80�C;---;31/05/2020;00:08:12;0,01nds;070�;0,00nds;000�;0,22�;5,21m;99%;+;non;ind�termin�e;;;;-;;;;;;;;;;;;;;;;;;;;;
30/05/2020;22:08:13;46�08,565 N;001�10,070 W;0,00nds;110�;0,01nds;250�;054�;161�;05,7nds;164�;05,5nds;05,9m;-0,01nds;1013,51000hPa;0,00�C(N);22,80�C;---;31/05/2020;00:08:13;0,01nds;070�;0,00nds;000�;0,22�;5,21m;99%;+;non;ind�termin�e;;;;-;;;;;;;;;;;;;;;;;;;;;
30/05/2020;22:08:14;46�08,565 N;001�10,070 W;0,00nds;083�;0,01nds;250�;051�;158�;05,9nds;161�;05,5nds;05,7m;-0,01nds;1013,51000hPa;0,00�C(N);22,80�C;---;31/05/2020;00:08:14;0,01nds;070�;0,00nds;000�;0,22�;5,21m;99%;+;non;ind�termin�e;;;;-;;;;;;;;;;;;;;;;;;;;;
30/05/2020;22:08:15;46�08,565 N;001�10,070 W;0,00nds;037�;0,01nds;250�;045�;155�;06,2nds;155�;06,2nds;05,9m;-0,01nds;1013,51000hPa;0,00�C(N);22,80�C;---;31/05/2020;00:08:15;0,01nds;070�;0,00nds;000�;0,22�;5,21m;99%;+;non;ind�termin�e;;;;-;;;;;;;;;;;;;;;;;;;;;
30/05/2020;22:08:16;46�08,565 N;001�10,070 W;0,00nds;301�;0,01nds;250�;041�;150�;06,6nds;151�;06,5nds;05,8m;-0,01nds;1013,50000hPa;0,00�C(N);22,80�C;---;31/05/2020;00:08:16;0,01nds;070�;0,00nds;000�;0,22�;5,21m;99%;+;non;ind�termin�e;;;;-;;;;;;;;;;;;;;;;;;;;;
30/05/2020;22:08:17;46�08,565 N;001�10,070 W;0,00nds;297�;0,01nds;250�;041�;152�;06,5nds;151�;06,5nds;05,8m;-0,01nds;1013,50000hPa;0,00�C(N);22,80�C;---;31/05/2020;00:08:17;0,01nds;070�;0,00nds;000�;0,22�;5,21m;99%;+;non;ind�termin�e;;;;-;;;;;;;;;;;;;;;;;;;;;
30/05/2020;22:08:18;46�08,565 N;001�10,070 W;0,00nds;257�;0,01nds;250�;046�;158�;06,0nds;156�;06,3nds;05,8m;-0,01nds;1013,50000hPa;0,00�C(N);22,80�C;---;31/05/2020;00:08:18;0,01nds;070�;0,00nds;000�;0,22�;5,21m;99%;+;non;ind�termin�e;;;;-;;;;;;;;;;;;;;;;;;;;;
30/05/2020;22:08:19;46�08,565 N;001�10,070 W;0,00nds;308�;0,01nds;250�;048�;157�;05,9nds;158�;06,0nds;05,7m;-0,01nds;1013,50000hPa;0,00�C(N);22,80�C;---;31/05/2020;00:08:19;0,01nds;070�;0,00nds;000�;0,22�;5,21m;99%;+;non;ind�termin�e;;;;-;;;;;;;;;;;;;;;;;;;;;
30/05/2020;22:08:20;46�08,565 N;001�10,070 W;0,00nds;304�;0,01nds;250�;047�;157�;05,7nds;157�;05,9nds;05,7m;-0,01nds;1013,50000hPa;0,00�C(N);22,80�C;---;31/05/2020;00:08:20;0,01nds;070�;0,00nds;000�;0,22�;5,21m;99%;+;non;ind�termin�e;;;;-;;;;;;;;;;;;;;;;;;;;;
30/05/2020;22:08:21;46�08,565 N;001�10,070 W;0,00nds;297�;0,01nds;250�;048�;158�;05,3nds;158�;05,4nds;05,7m;-0,01nds;1013,50000hPa;0,00�C(N);22,80�C;---;31/05/2020;00:08:21;0,01nds;070�;0,00nds;000�;0,22�;5,21m;99%;+;non;ind�termin�e;;;;-;;;;;;;;;;;;;;;;;;;;;
30/05/2020;22:08:22;46�08,565 N;001�10,070 W;0,00nds;261�;0,01nds;250�;048�;159�;05,2nds;158�;05,3nds;05,7m;-0,01nds;1013,50000hPa;0,00�C(N);22,80�C;---;31/05/2020;00:08:22;0,01nds;070�;0,00nds;000�;0,22�;5,21m;99%;+;non;ind�termin�e;;;;-;;;;;;;;;;;;;;;;;;;;;
30/05/2020;22:08:23;46�08,565 N;001�10,070 W;0,00nds;296�;0,01nds;250�;045�;155�;05,3nds;155�;05,3nds;05,7m;-0,01nds;1013,50000hPa;0,00�C(N);22,80�C;---;31/05/2020;00:08:23;0,01nds;070�;0,00nds;000�;0,22�;5,21m;99%;+;non;ind�termin�e;;;;-;;;;;;;;;;;;;;;;;;;;;
30/05/2020;22:08:24;46�08,565 N;001�10,070 W;0,00nds;261�;0,00nds;250�;042�;150�;05,4nds;152�;05,4nds;05,8m;-0,00nds;1013,50000hPa;0,00�C(N);22,80�C;---;31/05/2020;00:08:24;0,00nds;261�;0,00nds;000�;0,22�;5,21m;99%;+;non;ind�termin�e;;;;-;;;;;;;;;;;;;;;;;;;;;
30/05/2020;22:08:25;46�08,565 N;001�10,070 W;0,00nds;240�;0,00nds;250�;042�;153�;05,6nds;152�;05,4nds;05,9m;-0,00nds;1013,50000hPa;0,00�C(N);22,80�C;---;31/05/2020;00:08:25;0,00nds;240�;0,00nds;000�;0,22�;5,21m;99%;+;non;ind�termin�e;;;;-;;;;;;;;;;;;;;;;;;;;;
30/05/2020;22:08:26;46�08,565 N;001�10,070 W;0,00nds;177�;0,00nds;250�;045�;154�;06,4nds;155�;06,0nds;05,9m;-0,00nds;1013,50000hPa;0,00�C(N);22,80�C;---;31/05/2020;00:08:26;0,00nds;177�;0,00nds;000�;0,22�;5,21m;99%;+;non;ind�termin�e;;;;-;;;;;;;;;;;;;;;;;;;;;
30/05/2020;22:08:27;46�08,565 N;001�10,070 W;0,00nds;172�;0,00nds;250�;044�;154�;06,6nds;154�;06,4nds;05,7m;-0,00nds;1013,50000hPa;0,00�C(N);22,80�C;---;31/05/2020;00:08:27;0,00nds;172�;0,00nds;000�;0,22�;5,21m;99%;+;non;ind�termin�e;;;;-;;;;;;;;;;;;;;;;;;;;;
30/05/2020;22:08:28;46�08,565 N;001�10,070 W;0,00nds;189�;0,00nds;250�;044�;151�;07,0nds;154�;06,5nds;05,7m;-0,00nds;1013,49000hPa;0,00�C(N);22,80�C;---;31/05/2020;00:08:28;0,00nds;189�;0,00nds;000�;0,22�;5,21m;99%;+;non;ind�termin�e;;;;-;;;;;;;;;;;;;;;;;;;;;
30/05/2020;22:08:29;46�08,565 N;001�10,070 W;0,00nds;107�;0,00nds;250�;042�;155�;06,7nds;152�;07,0nds;05,7m;-0,00nds;1013,00000hPa;0,00�C(N);22,80�C;---;31/05/2020;00:08:29;0,00nds;107�;0,00nds;000�;0,22�;5,21m;99%;+;non;ind�termin�e;;;;-;;;;;;;;;;;;;;;;;;;;;
30/05/2020;22:08:30;46�08,565 N;001�10,070 W;0,00nds;061�;0,00nds;250�;045�;156�;06,5nds;155�;06,6nds;05,8m;-0,00nds;1013,00000hPa;0,00�C(N);22,80�C;---;31/05/2020;00:08:30;0,00nds;061�;0,00nds;000�;0,22�;5,21m;99%;+;non;ind�termin�e;;;;-;;;;;;;;;;;;;;;;;;;;;
30/05/2020;22:08:31;46�08,565 N;001�10,070 W;0,00nds;031�;0,00nds;250�;039�;149�;06,9nds;149�;06,8nds;05,8m;-0,00nds;1013,00000hPa;0,00�C(N);22,80�C;---;31/05/2020;00:08:31;0,00nds;031�;0,00nds;000�;0,22�;5,21m;99%;+;non;ind�termin�e;;;;-;;;;;;;;;;;;;;;;;;;;;
30/05/2020;22:08:32;46�08,565 N;001�10,070 W;0,00nds;027�;0,00nds;250�;034�;149�;07,0nds;144�;07,0nds;05,9m;-0,00nds;1014,00000hPa;0,00�C(N);22,80�C;---;31/05/2020;00:08:32;0,00nds;027�;0,00nds;000�;0,22�;5,21m;99%;+;non;ind�termin�e;;;;-;;;;;;;;;;;;;;;;;;;;;
30/05/2020;22:08:33;46�08,565 N;001�10,070 W;0,00nds;359�;0,00nds;250�;034�;151�;07,0nds;144�;07,0nds;05,7m;-0,00nds;1013,50000hPa;0,00�C(N);22,80�C;---;31/05/2020;00:08:33;0,00nds;359�;0,00nds;000�;0,22�;5,21m;99%;+;non;ind�termin�e;;;;-;;;;;;;;;;;;;;;;;;;;;
30/05/2020;22:08:34;46�08,565 N;001�10,070 W;0,00nds;334�;0,00nds;250�;045�;158�;06,7nds;155�;06,9nds;05,7m;-0,00nds;1013,49000hPa;0,00�C(N);22,80�C;---;31/05/2020;00:08:34;0,00nds;334�;0,00nds;000�;0,22�;5,21m;99%;+;non;ind�termin�e;;;;-;;;;;;;;;;;;;;;;;;;;;
30/05/2020;22:08:35;46�08,565 N;001�10,070 W;0,00nds;319�;0,00nds;250�;048�;157�;06,8nds;158�;06,6nds;05,7m;-0,00nds;1013,00000hPa;0,00�C(N);22,80�C;---;31/05/2020;00:08:35;0,00nds;319�;0,00nds;000�;0,22�;5,21m;99%;+;non;ind�termin�e;;;;-;;;;;;;;;;;;;;;;;;;;;
30/05/2020;22:08:36;46�08,565 N;001�10,070 W;0,00nds;283�;0,00nds;250�;047�;161�;06,7nds;157�;06,7nds;05,7m;-0,00nds;1013,00000hPa;0,00�C(N);22,90�C;---;31/05/2020;00:08:36;0,00nds;283�;0,00nds;000�;0,22�;5,21m;99%;+;non;ind�termin�e;;;;-;;;;;;;;;;;;;;;;;;;;;
30/05/2020;22:08:37;46�08,565 N;001�10,070 W;0,00nds;227�;0,00nds;250�;053�;165�;06,8nds;163�;06,5nds;05,8m;-0,00nds;1013,00000hPa;0,00�C(N);22,90�C;---;31/05/2020;00:08:37;0,00nds;227�;0,00nds;000�;0,22�;5,21m;99%;+;non;ind�termin�e;;;;-;;;;;;;;;;;;;;;;;;;;;
30/05/2020;22:08:38;46�08,565 N;001�10,070 W;0,00nds;233�;0,00nds;250�;055�;167�;06,8nds;165�;06,8nds;05,7m;-0,00nds;1013,00000hPa;0,00�C(N);22,90�C;---;31/05/2020;00:08:38;0,00nds;233�;0,00nds;000�;0,22�;5,21m;99%;+;non;ind�termin�e;;;;-;;;;;;;;;;;;;;;;;;;;;
30/05/2020;22:08:39;46�08,565 N;001�10,070 W;0,00nds;208�;0,00nds;250�;057�;169�;06,6nds;167�;06,8nds;05,7m;-0,00nds;1013,50000hPa;0,00�C(N);22,90�C;---;31/05/2020;00:08:39;0,00nds;208�;0,00nds;000�;0,22�;5,21m;99%;+;non;ind�termin�e;;;;-;;;;;;;;;;;;;;;;;;;;;
30/05/2020;22:08:40;46�08,565 N;001�10,070 W;0,00nds;186�;0,00nds;251�;052�;157�;06,3nds;162�;06,1nds;05,7m;-0,00nds;1013,49000hPa;0,00�C(N);22,90�C;---;31/05/2020;00:08:40;0,00nds;186�;0,00nds;000�;0,22�;5,21m;99%;+;non;ind�termin�e;;;;-;;;;;;;;;;;;;;;;;;;;;
30/05/2020;22:08:41;46�08,565 N;001�10,070 W;0,00nds;202�;0,00nds;251�;052�;154�;06,8nds;162�;06,1nds;05,7m;-0,00nds;1013,49000hPa;0,00�C(N);22,90�C;---;31/05/2020;00:08:41;0,00nds;202�;0,00nds;000�;0,22�;5,21m;99%;+;non;ind�termin�e;;;;-;;;;;;;;;;;;;;;;;;;;;
30/05/2020;22:08:42;46�08,565 N;001�10,070 W;0,00nds;265�;0,00nds;251�;044�;153�;07,1nds;153�;07,1nds;05,7m;-0,00nds;1013,49000hPa;0,00�C(N);22,90�C;---;31/05/2020;00:08:42;0,00nds;265�;0,00nds;000�;0,22�;5,21m;99%;+;non;ind�termin�e;;;;-;;;;;;;;;;;;;;;;;;;;;
30/05/2020;22:08:43;46�08,565 N;001�10,070 W;0,00nds;294�;0,00nds;251�;046�;154�;06,9nds;155�;07,1nds;05,7m;-0,00nds;1013,49000hPa;0,00�C(N);22,90�C;---;31/05/2020;00:08:43;0,00nds;294�;0,00nds;000�;0,22�;5,21m;99%;+;non;ind�termin�e;;;;-;;;;;;;;;;;;;;;;;;;;;
30/05/2020;22:08:44;46�08,565 N;001�10,070 W;0,00nds;315�;0,00nds;251�;046�;152�;07,0nds;155�;07,1nds;05,8m;-0,00nds;1013,49000hPa;0,00�C(N);22,90�C;---;31/05/2020;00:08:44;0,00nds;315�;0,00nds;000�;0,22�;5,21m;99%;+;non;ind�termin�e;;;;-;;;;;;;;;;;;;;;;;;;;;
30/05/2020;22:08:45;46�08,565 N;001�10,070 W;0,00nds;305�;0,00nds;250�;040�;151�;07,3nds;150�;07,0nds;05,7m;-0,00nds;1013,49000hPa;0,00�C(N);22,90�C;---;31/05/2020;00:08:45;0,00nds;305�;0,00nds;000�;0,22�;5,21m;99%;+;non;ind�termin�e;;;;-;;;;;;;;;;;;;;;;;;;;;
30/05/2020;22:08:46;46�08,565 N;001�10,070 W;0,00nds;027�;0,00nds;250�;041�;150�;07,4nds;151�;07,3nds;05,7m;-0,00nds;1013,49000hPa;0,00�C(N);22,90�C;---;31/05/2020;00:08:46;0,00nds;027�;0,00nds;000�;0,22�;5,21m;99%;+;non;ind�termin�e;;;;-;;;;;;;;;;;;;;;;;;;;;
30/05/2020;22:08:47;46�08,565 N;001�10,070 W;0,00nds;007�;0,01nds;250�;040�;155�;07,2nds;150�;07,4nds;05,7m;-0,01nds;1013,49000hPa;0,00�C(N);22,90�C;---;31/05/2020;00:08:47;0,01nds;070�;0,00nds;000�;0,22�;5,21m;99%;+;non;ind�termin�e;;;;-;;;;;;;;;;;;;;;;;;;;;
30/05/2020;22:08:48;46�08,565 N;001�10,070 W;0,00nds;023�;0,01nds;250�;050�;158�;06,8nds;160�;07,0nds;05,8m;-0,01nds;1013,49000hPa;0,00�C(N);22,90�C;---;31/05/2020;00:08:48;0,01nds;070�;0,00nds;000�;0,22�;5,21m;99%;+;non;ind�termin�e;;;;-;;;;;;;;;;;;;;;;;;;;;
30/05/2020;22:08:49;46�08,565 N;001�10,070 W;0,00nds;019�;0,01nds;250�;048�;157�;06,7nds;158�;06,8nds;05,7m;-0,01nds;1013,49000hPa;0,00�C(N);22,90�C;---;31/05/2020;00:08:49;0,01nds;070�;0,00nds;000�;0,22�;5,21m;99%;+;non;ind�termin�e;;;;-;;;;;;;;;;;;;;;;;;;;;
30/05/2020;22:08:50;46�08,565 N;001�10,070 W;0,00nds;016�;0,01nds;250�;044�;154�;06,6nds;154�;06,5nds;05,7m;-0,01nds;1013,50000hPa;0,00�C(N);22,90�C;---;31/05/2020;00:08:50;0,01nds;070�;0,00nds;000�;0,22�;5,21m;99%;+;non;ind�termin�e;;;;-;;;;;;;;;;;;;;;;;;;;;
30/05/2020;22:08:51;46�08,565 N;001�10,070 W;0,00nds;119�;0,01nds;251�;043�;153�;06,0nds;153�;06,3nds;05,7m;-0,01nds;1013,50000hPa;0,00�C(N);22,80�C;---;31/05/2020;00:08:51;0,01nds;071�;0,00nds;000�;0,22�;5,21m;99%;+;non;ind�termin�e;;;;-;;;;;;;;;;;;;;;;;;;;;
30/05/2020;22:08:52;46�08,565 N;001�10,070 W;0,00nds;150�;0,01nds;251�;043�;152�;05,9nds;153�;06,3nds;05,7m;-0,01nds;1013,49000hPa;0,00�C(N);22,80�C;---;31/05/2020;00:08:52;0,01nds;071�;0,00nds;000�;0,22�;5,21m;99%;+;non;ind�termin�e;;;;-;;;;;;;;;;;;;;;;;;;;;
30/05/2020;22:08:53;46�08,565 N;001�10,070 W;0,00nds;196�;0,00nds;251�;045�;157�;05,6nds;154�;05,8nds;05,7m;-0,00nds;1013,49000hPa;0,00�C(N);22,80�C;---;31/05/2020;00:08:53;0,00nds;196�;0,00nds;000�;0,22�;5,21m;99%;+;non;ind�termin�e;;;;-;;;;;;;;;;;;;;;;;;;;;
30/05/2020;22:08:54;46�08,565 N;001�10,070 W;0,00nds;159�;0,00nds;251�;048�;157�;05,5nds;157�;05,5nds;05,7m;-0,00nds;1013,49000hPa;0,00�C(N);22,80�C;---;31/05/2020;00:08:54;0,00nds;159�;0,00nds;000�;0,22�;5,21m;99%;+;non;ind�termin�e;;;;-;;;;;;;;;;;;;;;;;;;;;
30/05/2020;22:08:55;46�08,565 N;001�10,070 W;0,00nds;201�;0,00nds;251�;048�;159�;05,3nds;157�;05,5nds;05,7m;-0,00nds;1013,50000hPa;0,00�C(N);22,80�C;---;31/05/2020;00:08:55;0,00nds;201�;0,00nds;000�;0,22�;5,21m;99%;+;non;ind�termin�e;;;;-;;;;;;;;;;;;;;;;;;;;;
30/05/2020;22:08:56;46�08,565 N;001�10,070 W;0,00nds;295�;0,01nds;251�;051�;157�;05,6nds;160�;05,3nds;05,7m;-0,01nds;1013,49000hPa;0,00�C(N);22,80�C;---;31/05/2020;00:08:56;0,01nds;071�;0,00nds;000�;0,22�;5,21m;99%;+;non;ind�termin�e;;;;-;;;;;;;;;;;;;;;;;;;;;
30/05/2020;22:08:57;46�08,565 N;001�10,070 W;0,00nds;266�;0,01nds;251�;048�;152�;06,1nds;157�;05,5nds;05,7m;-0,01nds;1013,49000hPa;0,00�C(N);22,80�C;---;31/05/2020;00:08:57;0,01nds;071�;0,00nds;000�;0,22�;5,21m;99%;+;non;ind�termin�e;;;;-;;;;;;;;;;;;;;;;;;;;;
30/05/2020;22:08:58;46�08,565 N;001�10,070 W;0,00nds;267�;0,01nds;251�;042�;151�;06,4nds;151�;06,4nds;05,7m;-0,01nds;1013,50000hPa;0,00�C(N);22,80�C;---;31/05/2020;00:08:58;0,01nds;071�;0,00nds;000�;0,22�;5,21m;99%;+;non;ind�termin�e;;;;-;;;;;;;;;;;;;;;;;;;;;
30/05/2020;22:08:59;46�08,565 N;001�10,070 W;0,00nds;216�;0,01nds;251�;040�;149�;06,9nds;149�;06,6nds;05,7m;-0,01nds;1013,00000hPa;0,00�C(N);22,80�C;---;31/05/2020;00:08:59;0,01nds;071�;0,00nds;000�;0,22�;5,21m;99%;+;non;ind�termin�e;;;;-;;;;;;;;;;;;;;;;;;;;;
30/05/2020;22:09:00;46�08,565 N;001�10,070 W;0,00nds;195�;0,01nds;251�;040�;147�;06,8nds;149�;06,6nds;05,7m;-0,01nds;1013,49000hPa;0,00�C(N);22,80�C;---;31/05/2020;00:09:00;0,01nds;071�;0,00nds;000�;0,22�;5,21m;99%;+;non;ind�termin�e;;;;-;;;;;;;;;;;;;;;;;;;;;
30/05/2020;22:09:01;46�08,565 N;001�10,070 W;0,00nds;147�;0,01nds;251�;038�;148�;06,8nds;147�;06,5nds;05,7m;-0,01nds;1013,00000hPa;0,00�C(N);22,80�C;---;31/05/2020;00:09:01;0,01nds;071�;0,00nds;000�;0,22�;5,21m;99%;+;non;ind�termin�e;;;;-;;;;;;;;;;;;;;;;;;;;;
30/05/2020;22:09:02;46�08,565 N;001�10,070 W;0,00nds;245�;0,01nds;251�;039�;147�;06,8nds;148�;06,8nds;05,7m;-0,01nds;1013,00000hPa;0,00�C(N);22,80�C;---;31/05/2020;00:09:02;0,01nds;071�;0,00nds;000�;0,22�;5,21m;99%;+;non;ind�termin�e;;;;-;;;;;;;;;;;;;;;;;;;;;
30/05/2020;22:09:03;46�08,565 N;001�10,070 W;0,00nds;247�;0,01nds;251�;038�;150�;06,7nds;147�;06,8nds;05,7m;-0,01nds;1013,49000hPa;0,00�C(N);22,80�C;---;31/05/2020;00:09:03;0,01nds;071�;0,00nds;000�;0,22�;5,21m;99%;+;non;ind�termin�e;;;;-;;;;;;;;;;;;;;;;;;;;;
30/05/2020;22:09:04;46�08,565 N;001�10,070 W;0,00nds;283�;0,01nds;250�;045�;158�;06,0nds;154�;06,4nds;05,7m;-0,01nds;1014,00000hPa;0,00�C(N);22,80�C;---;31/05/2020;00:09:04;0,01nds;070�;0,00nds;000�;0,22�;5,21m;99%;+;non;ind�termin�e;;;;-;;;;;;;;;;;;;;;;;;;;;
30/05/2020;22:09:05;46�08,565 N;001�10,070 W;0,00nds;289�;0,00nds;250�;048�;159�;05,7nds;158�;06,0nds;05,7m;-0,00nds;1013,50000hPa;0,00�C(N);22,80�C;---;31/05/2020;00:09:05;0,00nds;289�;0,00nds;000�;0,22�;5,21m;99%;+;non;ind�termin�e;;;;-;;;;;;;;;;;;;;;;;;;;;
30/05/2020;22:09:06;46�08,565 N;001�10,070 W;0,00nds;314�;0,00nds;250�;050�;160�;05,5nds;160�;05,5nds;05,7m;-0,00nds;1013,50000hPa;0,00�C(N);22,80�C;---;31/05/2020;00:09:06;0,00nds;314�;0,00nds;000�;0,22�;5,21m;99%;+;non;ind�termin�e;;;;-;;;;;;;;;;;;;;;;;;;;;
30/05/2020;22:09:07;46�08,565 N;001�10,070 W;0,00nds;322�;0,00nds;251�;054�;164�;05,0nds;164�;05,3nds;05,7m;-0,00nds;1013,49000hPa;0,00�C(N);22,80�C;---;31/05/2020;00:09:07;0,00nds;322�;0,00nds;000�;0,22�;5,21m;99%;+;non;ind�termin�e;;;;-;;;;;;;;;;;;;;;;;;;;;
30/05/2020;22:09:08;46�08,565 N;001�10,070 W;0,00nds;312�;0,00nds;251�;054�;164�;04,9nds;164�;05,3nds;05,7m;-0,00nds;1013,49000hPa;0,00�C(N);22,80�C;---;31/05/2020;00:09:08;0,00nds;312�;0,00nds;000�;0,22�;5,21m;99%;+;non;ind�termin�e;;;;-;;;;;;;;;;;;;;;;;;;;;
30/05/2020;22:09:09;46�08,565 N;001�10,070 W;0,00nds;337�;0,00nds;250�;056�;163�;05,1nds;165�;04,8nds;05,9m;-0,00nds;1013,49000hPa;0,00�C(N);22,80�C;---;31/05/2020;00:09:09;0,00nds;337�;0,00nds;000�;0,22�;5,21m;99%;+;non;ind�termin�e;;;;-;;;;;;;;;;;;;;;;;;;;;
30/05/2020;22:09:10;46�08,565 N;001�10,070 W;0,00nds;330�;0,00nds;250�;053�;165�;05,3nds;163�;05,0nds;05,9m;-0,00nds;1013,49000hPa;0,00�C(N);22,80�C;---;31/05/2020;00:09:10;0,00nds;330�;0,00nds;000�;0,22�;5,21m;99%;+;non;ind�termin�e;;;;-;;;;;;;;;;;;;;;;;;;;;
30/05/2020;22:09:11;46�08,565 N;001�10,070 W;0,00nds;323�;0,00nds;250�;055�;168�;05,6nds;165�;05,3nds;05,9m;-0,00nds;1013,50000hPa;0,00�C(N);22,80�C;---;31/05/2020;00:09:11;0,00nds;323�;0,00nds;000�;0,22�;5,21m;99%;+;non;ind�termin�e;;;;-;;;;;;;;;;;;;;;;;;;;;
30/05/2020;22:09:12;46�08,565 N;001�10,070 W;0,00nds;296�;0,00nds;250�;061�;174�;06,1nds;171�;05,8nds;05,7m;-0,00nds;1013,50000hPa;0,00�C(N);22,80�C;---;31/05/2020;00:09:12;0,00nds;296�;0,00nds;000�;0,22�;5,21m;99%;+;non;ind�termin�e;;;;-;;;;;;;;;;;;;;;;;;;;;
30/05/2020;22:09:13;46�08,565 N;001�10,070 W;0,00nds;015�;0,00nds;250�;064�;176�;06,7nds;174�;06,0nds;05,7m;-0,00nds;1013,50000hPa;0,00�C(N);22,90�C;---;31/05/2020;00:09:13;0,00nds;015�;0,00nds;000�;0,22�;5,21m;99%;+;non;ind�termin�e;;;;-;;;;;;;;;;;;;;;;;;;;;
30/05/2020;22:09:14;46�08,565 N;001�10,070 W;0,00nds;043�;0,00nds;250�;066�;176�;07,0nds;176�;06,6nds;05,7m;-0,00nds;1013,50000hPa;0,00�C(N);22,90�C;---;31/05/2020;00:09:14;0,00nds;043�;0,00nds;000�;0,22�;5,21m;99%;+;non;ind�termin�e;;;;-;;;;;;;;;;;;;;;;;;;;;
30/05/2020;22:09:15;46�08,565 N;001�10,070 W;0,00nds;071�;0,00nds;250�;067�;180�;07,2nds;177�;07,1nds;05,7m;-0,00nds;1013,50000hPa;0,00�C(N);22,90�C;---;31/05/2020;00:09:15;0,00nds;071�;0,00nds;000�;0,22�;5,21m;99%;+;non;ind�termin�e;;;;-;;;;;;;;;;;;;;;;;;;;;
30/05/2020;22:09:16;46�08,565 N;001�10,070 W;0,00nds;041�;0,00nds;251�;070�;182�;06,9nds;177�;07,1nds;05,7m;-0,00nds;1013,50000hPa;0,00�C(N);22,90�C;---;31/05/2020;00:09:16;0,00nds;041�;0,00nds;000�;0,22�;5,21m;99%;+;non;ind�termin�e;;;;-;;;;;;;;;;;;;;;;;;;;;
30/05/2020;22:09:17;46�08,565 N;001�10,070 W;0,00nds;030�;0,00nds;251�;074�;183�;06,3nds;183�;06,5nds;05,7m;-0,00nds;1013,49000hPa;0,00�C(N);22,90�C;---;31/05/2020;00:09:17;0,00nds;030�;0,00nds;000�;0,22�;5,21m;99%;+;non;ind�termin�e;;;;-;;;;;;;;;;;;;;;;;;;;;
30/05/2020;22:09:18;46�08,565 N;001�10,070 W;0,00nds;023�;0,00nds;251�;074�;182�;06,4nds;183�;06,3nds;05,7m;-0,00nds;1013,50000hPa;0,00�C(N);22,90�C;---;31/05/2020;00:09:18;0,00nds;023�;0,00nds;000�;0,22�;5,21m;99%;+;non;ind�termin�e;;;;-;;;;;;;;;;;;;;;;;;;;;
30/05/2020;22:09:19;46�08,565 N;001�10,070 W;0,00nds;021�;0,00nds;251�;074�;181�;06,6nds;183�;06,3nds;05,7m;-0,00nds;1013,50000hPa;0,00�C(N);22,90�C;---;31/05/2020;00:09:19;0,00nds;021�;0,00nds;000�;0,22�;5,21m;99%;+;non;ind�termin�e;;;;-;;;;;;;;;;;;;;;;;;;;;
30/05/2020;22:09:20;46�08,565 N;001�10,070 W;0,00nds;337�;0,00nds;251�;071�;179�;06,6nds;180�;06,5nds;05,7m;-0,00nds;1013,50000hPa;0,00�C(N);22,90�C;---;31/05/2020;00:09:20;0,00nds;337�;0,00nds;000�;0,22�;5,21m;99%;+;non;ind�termin�e;;;;-;;;;;;;;;;;;;;;;;;;;;
30/05/2020;22:09:21;46�08,565 N;001�10,070 W;0,00nds;012�;0,00nds;251�;070�;177�;06,5nds;179�;06,5nds;05,7m;-0,00nds;1013,49000hPa;0,00�C(N);22,80�C;---;31/05/2020;00:09:21;0,00nds;012�;0,00nds;000�;0,22�;5,21m;99%;+;non;ind�termin�e;;;;-;;;;;;;;;;;;;;;;;;;;;
30/05/2020;22:09:22;46�08,565 N;001�10,070 W;0,00nds;337�;0,00nds;251�;068�;175�;06,3nds;177�;06,5nds;05,7m;-0,00nds;1013,00000hPa;0,00�C(N);22,80�C;---;31/05/2020;00:09:22;0,00nds;337�;0,00nds;000�;0,22�;5,21m;99%;+;non;ind�termin�e;;;;-;;;;;;;;;;;;;;;;;;;;;
30/05/2020;22:09:23;46�08,565 N;001�10,070 W;0,00nds;319�;0,00nds;251�;065�;173�;06,2nds;174�;06,1nds;05,7m;-0,00nds;1013,00000hPa;0,00�C(N);22,80�C;---;31/05/2020;00:09:23;0,00nds;319�;0,00nds;000�;0,22�;5,21m;99%;+;non;ind�termin�e;;;;-;;;;;;;;;;;;;;;;;;;;;
30/05/2020;22:09:24;46�08,565 N;001�10,070 W;0,00nds;316�;0,00nds;251�;064�;171�;06,2nds;173�;06,1nds;05,7m;-0,00nds;1013,00000hPa;0,00�C(N);22,80�C;---;31/05/2020;00:09:24;0,00nds;316�;0,00nds;000�;0,22�;5,21m;99%;+;non;ind�termin�e;;;;-;;;;;;;;;;;;;;;;;;;;;
30/05/2020;22:09:25;46�08,565 N;001�10,070 W;0,00nds;245�;0,00nds;251�;062�;171�;06,1nds;171�;06,0nds;05,7m;-0,00nds;1013,00000hPa;0,00�C(N);22,80�C;---;31/05/2020;00:09:25;0,00nds;245�;0,00nds;000�;0,22�;5,21m;99%;+;non;ind�termin�e;;;;-;;;;;;;;;;;;;;;;;;;;;
30/05/2020;22:09:26;46�08,565 N;001�10,070 W;0,00nds;304�;0,00nds;251�;060�;166�;05,5nds;169�;05,9nds;05,7m;-0,00nds;1013,00000hPa;0,00�C(N);22,80�C;---;31/05/2020;00:09:26;0,00nds;304�;0,00nds;000�;0,22�;5,21m;99%;+;non;ind�termin�e;;;;-;;;;;;;;;;;;;;;;;;;;;
30/05/2020;22:09:27;46�08,565 N;001�10,070 W;0,00nds;306�;0,00nds;251�;060�;176�;05,3nds;169�;05,9nds;05,7m;-0,00nds;1013,48000hPa;0,00�C(N);22,80�C;---;31/05/2020;00:09:27;0,00nds;306�;0,00nds;000�;0,22�;5,21m;99%;+;non;ind�termin�e;;;;-;;;;;;;;;;;;;;;;;;;;;
30/05/2020;22:09:28;46�08,565 N;001�10,070 W;0,00nds;330�;0,00nds;251�;066�;176�;05,8nds;175�;05,5nds;05,7m;-0,00nds;1013,48000hPa;0,00�C(N);22,80�C;---;31/05/2020;00:09:28;0,00nds;330�;0,00nds;000�;0,22�;5,21m;99%;+;non;ind�termin�e;;;;-;;;;;;;;;;;;;;;;;;;;;
30/05/2020;22:09:29;46�08,565 N;001�10,070 W;0,00nds;330�;0,00nds;251�;067�;179�;07,2nds;176�;05,8nds;05,7m;-0,00nds;1013,48000hPa;0,00�C(N);22,80�C;---;31/05/2020;00:09:29;0,00nds;330�;0,00nds;000�;0,22�;5,21m;99%;+;non;ind�termin�e;;;;-;;;;;;;;;;;;;;;;;;;;;
30/05/2020;22:09:30;46�08,565 N;001�10,070 W;0,00nds;324�;0,00nds;251�;070�;178�;08,8nds;179�;07,1nds;05,7m;-0,00nds;1013,48000hPa;0,00�C(N);22,80�C;---;31/05/2020;00:09:30;0,00nds;324�;0,00nds;000�;0,22�;5,21m;99%;+;non;ind�termin�e;;;;-;;;;;;;;;;;;;;;;;;;;;
30/05/2020;22:09:31;46�08,565 N;001�10,070 W;0,00nds;305�;0,01nds;250�;069�;179�;10,9nds;178�;10,1nds;05,7m;-0,01nds;1013,48000hPa;0,00�C(N);22,80�C;---;31/05/2020;00:09:31;0,01nds;070�;0,00nds;000�;0,22�;5,21m;99%;+;non;ind�termin�e;;;;-;;;;;;;;;;;;;;;;;;;;;
30/05/2020;22:09:32;46�08,565 N;001�10,070 W;0,00nds;311�;0,01nds;250�;069�;179�;10,9nds;179�;10,8nds;05,7m;-0,01nds;1013,48000hPa;0,00�C(N);22,80�C;---;31/05/2020;00:09:32;0,01nds;070�;0,00nds;000�;0,22�;5,21m;99%;+;non;ind�termin�e;;;;-;;;;;;;;;;;;;;;;;;;;;
30/05/2020;22:09:33;46�08,565 N;001�10,070 W;0,00nds;324�;0,01nds;250�;069�;179�;10,7nds;179�;10,6nds;05,7m;-0,01nds;1013,48000hPa;0,00�C(N);22,80�C;---;31/05/2020;00:09:33;0,01nds;070�;0,00nds;000�;0,22�;5,21m;99%;+;non;ind�termin�e;;;;-;;;;;;;;;;;;;;;;;;;;;
30/05/2020;22:09:34;46�08,565 N;001�10,070 W;0,00nds;001�;0,01nds;250�;067�;174�;09,5nds;177�;10,1nds;05,7m;-0,01nds;1013,48000hPa;0,00�C(N);22,80�C;---;31/05/2020;00:09:34;0,01nds;070�;0,00nds;000�;0,22�;5,21m;99%;+;non;ind�termin�e;;;;-;;;;;;;;;;;;;;;;;;;;;
30/05/2020;22:09:35;46�08,565 N;001�10,070 W;0,00nds;032�;0,01nds;250�;067�;168�;08,9nds;177�;10,1nds;05,7m;-0,01nds;1013,48000hPa;0,00�C(N);22,80�C;---;31/05/2020;00:09:35;0,01nds;070�;0,00nds;000�;0,22�;5,21m;99%;+;non;ind�termin�e;;;;-;;;;;;;;;;;;;;;;;;;;;
30/05/2020;22:09:36;46�08,565 N;001�10,070 W;0,00nds;035�;0,01nds;250�;051�;156�;08,7nds;161�;09,0nds;05,7m;-0,01nds;1013,48000hPa;0,00�C(N);22,80�C;---;31/05/2020;00:09:36;0,01nds;070�;0,00nds;000�;0,22�;5,21m;99%;+;non;ind�termin�e;;;;-;;;;;;;;;;;;;;;;;;;;;
30/05/2020;22:09:37;46�08,565 N;001�10,070 W;0,00nds;099�;0,01nds;250�;046�;150�;08,5nds;156�;08,7nds;05,7m;-0,01nds;1013,47000hPa;0,00�C(N);22,80�C;---;31/05/2020;00:09:37;0,01nds;070�;0,00nds;000�;0,22�;5,21m;99%;+;non;ind�termin�e;;;;-;;;;;;;;;;;;;;;;;;;;;
30/05/2020;22:09:38;46�08,565 N;001�10,070 W;0,00nds;141�;0,01nds;250�;040�;148�;08,4nds;150�;08,5nds;05,7m;-0,01nds;1013,48000hPa;0,00�C(N);22,80�C;---;31/05/2020;00:09:38;0,01nds;070�;0,00nds;000�;0,22�;5,21m;99%;+;non;ind�termin�e;;;;-;;;;;;;;;;;;;;;;;;;;;
30/05/2020;22:09:39;46�08,565 N;001�10,070 W;0,00nds;189�;0,01nds;250�;040�;151�;09,3nds;150�;08,8nds;05,7m;-0,01nds;1013,48000hPa;0,00�C(N);22,80�C;---;31/05/2020;00:09:39;0,01nds;070�;0,00nds;000�;0,22�;5,21m;99%;+;non;ind�termin�e;;;;-;;;;;;;;;;;;;;;;;;;;;
30/05/2020;22:09:40;46�08,565 N;001�10,070 W;0,00nds;191�;0,01nds;251�;041�;151�;09,4nds;151�;09,3nds;05,7m;-0,01nds;1013,48000hPa;0,00�C(N);22,80�C;---;31/05/2020;00:09:40;0,01nds;071�;0,00nds;000�;0,22�;5,21m;99%;+;non;ind�termin�e;;;;-;;;;;;;;;;;;;;;;;;;;;
30/05/2020;22:09:41;46�08,565 N;001�10,070 W;0,00nds;181�;0,01nds;251�;043�;152�;09,3nds;152�;09,3nds;05,7m;-0,01nds;1013,48000hPa;0,00�C(N);22,80�C;---;31/05/2020;00:09:41;0,01nds;071�;0,00nds;000�;0,22�;5,21m;99%;+;non;ind�termin�e;;;;-;;;;;;;;;;;;;;;;;;;;;
30/05/2020;22:09:42;46�08,565 N;001�10,070 W;0,00nds;167�;0,01nds;251�;041�;148�;08,8nds;150�;09,1nds;05,7m;-0,01nds;1013,48000hPa;0,00�C(N);22,80�C;---;31/05/2020;00:09:42;0,01nds;071�;0,00nds;000�;0,22�;5,21m;99%;+;non;ind�termin�e;;;;-;;;;;;;;;;;;;;;;;;;;;
30/05/2020;22:09:43;46�08,565 N;001�10,070 W;0,00nds;167�;0,01nds;251�;041�;154�;08,5nds;150�;09,1nds;05,7m;-0,01nds;1013,48000hPa;0,00�C(N);22,80�C;---;31/05/2020;00:09:43;0,01nds;071�;0,00nds;000�;0,22�;5,21m;99%;+;non;ind�termin�e;;;;-;;;;;;;;;;;;;;;;;;;;;
30/05/2020;22:09:44;46�08,565 N;001�10,070 W;0,00nds;148�;0,01nds;251�;047�;160�;07,0nds;156�;07,8nds;05,7m;-0,01nds;1013,48000hPa;0,00�C(N);22,80�C;---;31/05/2020;00:09:44;0,01nds;071�;0,00nds;000�;0,22�;5,21m;99%;+;non;ind�termin�e;;;;-;;;;;;;;;;;;;;;;;;;;;
30/05/2020;22:09:45;46�08,565 N;001�10,070 W;0,00nds;148�;0,01nds;251�;051�;162�;06,3nds;160�;07,0nds;05,7m;-0,01nds;1013,48000hPa;0,00�C(N);22,80�C;---;31/05/2020;00:09:45;0,01nds;071�;0,00nds;000�;0,22�;5,21m;99%;+;non;ind�termin�e;;;;-;;;;;;;;;;;;;;;;;;;;;
30/05/2020;22:09:46;46�08,565 N;001�10,070 W;0,00nds;105�;0,01nds;251�;051�;161�;05,9nds;162�;06,3nds;05,7m;-0,01nds;1013,48000hPa;0,00�C(N);22,80�C;---;31/05/2020;00:09:46;0,01nds;071�;0,00nds;000�;0,22�;5,21m;99%;+;non;ind�termin�e;;;;-;;;;;;;;;;;;;;;;;;;;;
30/05/2020;22:09:47;46�08,565 N;001�10,070 W;0,00nds;104�;0,01nds;251�;049�;155�;05,4nds;158�;05,5nds;05,7m;-0,01nds;1013,48000hPa;0,00�C(N);22,80�C;---;31/05/2020;00:09:47;0,01nds;071�;0,00nds;000�;0,22�;5,21m;99%;+;non;ind�termin�e;;;;-;;;;;;;;;;;;;;;;;;;;;
30/05/2020;22:09:48;46�08,565 N;001�10,070 W;0,00nds;172�;0,01nds;251�;046�;156�;05,3nds;155�;05,4nds;05,7m;-0,01nds;1013,48000hPa;0,00�C(N);22,80�C;---;31/05/2020;00:09:48;0,01nds;071�;0,00nds;000�;0,22�;5,21m;99%;+;non;ind�termin�e;;;;-;;;;;;;;;;;;;;;;;;;;;
30/05/2020;22:09:49;46�08,565 N;001�10,070 W;0,00nds;129�;0,01nds;251�;047�;166�;05,6nds;156�;05,3nds;05,7m;-0,01nds;1013,48000hPa;0,00�C(N);22,80�C;---;31/05/2020;00:09:49;0,01nds;071�;0,00nds;000�;0,22�;5,21m;99%;+;non;ind�termin�e;;;;-;;;;;;;;;;;;;;;;;;;;;
30/05/2020;22:09:50;46�08,565 N;001�10,070 W;0,00nds;151�;0,01nds;251�;063�;174�;06,0nds;172�;05,9nds;05,7m;-0,01nds;1013,48000hPa;0,00�C(N);22,80�C;---;31/05/2020;00:09:50;0,01nds;071�;0,00nds;000�;0,22�;5,21m;99%;+;non;ind�termin�e;;;;-;;;;;;;;;;;;;;;;;;;;;
30/05/2020;22:09:51;46�08,565 N;001�10,070 W;0,00nds;114�;0,01nds;251�;065�;173�;05,9nds;174�;05,9nds;05,7m;-0,01nds;1013,48000hPa;0,00�C(N);22,80�C;---;31/05/2020;00:09:51;0,01nds;071�;0,00nds;000�;0,22�;5,21m;99%;+;non;ind�termin�e;;;;-;;;;;;;;;;;;;;;;;;;;;
30/05/2020;22:09:52;46�08,565 N;001�10,070 W;0,00nds;078�;0,01nds;250�;059�;169�;05,7nds;169�;05,6nds;05,7m;-0,01nds;1013,48000hPa;0,00�C(N);22,80�C;---;31/05/2020;00:09:52;0,01nds;070�;0,00nds;000�;0,22�;5,21m;99%;+;non;ind�termin�e;;;;-;;;;;;;;;;;;;;;;;;;;;
30/05/2020;22:09:53;46�08,565 N;001�10,070 W;0,00nds;352�;0,00nds;250�;059�;166�;05,1nds;169�;05,4nds;05,8m;-0,00nds;1013,48000hPa;0,00�C(N);22,80�C;---;31/05/2020;00:09:53;0,00nds;352�;0,00nds;000�;0,22�;5,21m;99%;+;non;ind�termin�e;;;;-;;;;;;;;;;;;;;;;;;;;;
30/05/2020;22:09:54;46�08,565 N;001�10,070 W;0,00nds;009�;0,00nds;250�;059�;164�;04,9nds;169�;05,4nds;05,7m;-0,00nds;1013,48000hPa;0,00�C(N);22,80�C;---;31/05/2020;00:09:54;0,00nds;009�;0,00nds;000�;0,22�;5,21m;99%;+;non;ind�termin�e;;;;-;;;;;;;;;;;;;;;;;;;;;
30/05/2020;22:09:55;46�08,565 N;001�10,070 W;0,00nds;317�;0,00nds;251�;057�;165�;04,8nds;166�;04,7nds;05,7m;-0,00nds;1013,48000hPa;0,00�C(N);22,80�C;---;31/05/2020;00:09:55;0,00nds;317�;0,00nds;000�;0,22�;5,21m;99%;+;non;ind�termin�e;;;;-;;;;;;;;;;;;;;;;;;;;;
30/05/2020;22:09:56;46�08,565 N;001�10,070 W;0,00nds;272�;0,00nds;251�;056�;161�;04,9nds;165�;04,8nds;05,7m;-0,00nds;1013,47000hPa;0,00�C(N);22,80�C;---;31/05/2020;00:09:56;0,00nds;272�;0,00nds;000�;0,22�;5,21m;99%;+;non;ind�termin�e;;;;-;;;;;;;;;;;;;;;;;;;;;
30/05/2020;22:09:57;46�08,565 N;001�10,070 W;0,00nds;281�;0,00nds;251�;052�;157�;05,3nds;161�;04,9nds;05,7m;-0,00nds;1013,47000hPa;0,00�C(N);22,80�C;---;31/05/2020;00:09:57;0,00nds;281�;0,00nds;000�;0,22�;5,21m;99%;+;non;ind�termin�e;;;;-;;;;;;;;;;;;;;;;;;;;;
30/05/2020;22:09:58;46�08,565 N;001�10,070 W;0,00nds;293�;0,00nds;251�;046�;153�;06,8nds;155�;06,0nds;05,7m;-0,00nds;1013,47000hPa;0,00�C(N);22,80�C;---;31/05/2020;00:09:58;0,00nds;293�;0,00nds;000�;0,22�;5,21m;99%;+;non;ind�termin�e;;;;-;;;;;;;;;;;;;;;;;;;;;
30/05/2020;22:09:59;46�08,565 N;001�10,070 W;0,00nds;302�;0,00nds;251�;044�;150�;07,3nds;153�;06,8nds;05,8m;-0,00nds;1013,48000hPa;0,00�C(N);22,80�C;---;31/05/2020;00:09:59;0,00nds;302�;0,00nds;000�;0,22�;5,21m;99%;+;non;ind�termin�e;;;;-;;;;;;;;;;;;;;;;;;;;;
30/05/2020;22:10:00;46�08,565 N;001�10,070 W;0,00nds;305�;0,00nds;251�;037�;146�;07,4nds;146�;07,4nds;05,8m;-0,00nds;1013,47000hPa;0,00�C(N);22,80�C;---;31/05/2020;00:10:00;0,00nds;305�;0,00nds;000�;0,22�;5,21m;99%;+;non;ind�termin�e;;;;-;;;;;;;;;;;;;;;;;;;;;
30/05/2020;22:10:01;46�08,565 N;001�10,070 W;0,00nds;320�;0,00nds;251�;037�;146�;07,7nds;146�;07,5nds;05,7m;-0,00nds;1013,48000hPa;0,00�C(N);22,80�C;---;31/05/2020;00:10:01;0,00nds;320�;0,00nds;000�;0,22�;5,21m;99%;+;non;ind�termin�e;;;;-;;;;;;;;;;;;;;;;;;;;;
30/05/2020;22:10:02;46�08,565 N;001�10,070 W;0,00nds;347�;0,00nds;250�;037�;151�;07,7nds;146�;07,5nds;05,7m;-0,00nds;1013,48000hPa;0,00�C(N);22,80�C;---;31/05/2020;00:10:02;0,00nds;347�;0,00nds;000�;0,22�;5,21m;99%;+;non;ind�termin�e;;;;-;;;;;;;;;;;;;;;;;;;;;
30/05/2020;22:10:03;46�08,565 N;001�10,070 W;0,00nds;030�;0,00nds;250�;047�;158�;07,5nds;157�;07,6nds;05,6m;-0,00nds;1013,48000hPa;0,00�C(N);22,80�C;---;31/05/2020;00:10:03;0,00nds;030�;0,00nds;000�;0,22�;5,21m;99%;+;non;ind�termin�e;;;;-;;;;;;;;;;;;;;;;;;;;;
30/05/2020;22:10:04;46�08,565 N;001�10,070 W;0,00nds;115�;0,00nds;250�;048�;157�;07,8nds;158�;07,5nds;05,7m;-0,00nds;1013,48000hPa;0,00�C(N);22,80�C;---;31/05/2020;00:10:04;0,00nds;115�;0,00nds;000�;0,22�;5,21m;99%;+;non;ind�termin�e;;;;-;;;;;;;;;;;;;;;;;;;;;
30/05/2020;22:10:05;46�08,565 N;001�10,070 W;0,00nds;120�;0,00nds;250�;047�;160�;07,8nds;157�;07,8nds;05,5m;-0,00nds;1013,48000hPa;0,00�C(N);22,80�C;---;31/05/2020;00:10:05;0,00nds;120�;0,00nds;000�;0,22�;5,21m;99%;+;non;ind�termin�e;;;;-;;;;;;;;;;;;;;;;;;;;;
30/05/2020;22:10:06;46�08,565 N;001�10,070 W;0,00nds;231�;0,00nds;250�;054�;162�;08,2nds;164�;08,1nds;05,7m;-0,00nds;1013,48000hPa;0,00�C(N);22,80�C;---;31/05/2020;00:10:06;0,00nds;231�;0,00nds;000�;0,22�;5,21m;99%;+;non;ind�termin�e;;;;-;;;;;;;;;;;;;;;;;;;;;
30/05/2020;22:10:07;46�08,565 N;001�10,070 W;0,00nds;201�;0,00nds;250�;052�;160�;08,6nds;162�;08,1nds;05,7m;-0,00nds;1013,48000hPa;0,00�C(N);22,80�C;---;31/05/2020;00:10:07;0,00nds;201�;0,00nds;000�;0,22�;5,21m;99%;+;non;ind�termin�e;;;;-;;;;;;;;;;;;;;;;;;;;;
30/05/2020;22:10:08;46�08,565 N;001�10,070 W;0,00nds;255�;0,00nds;250�;052�;162�;08,8nds;162�;08,7nds;05,7m;-0,00nds;1013,48000hPa;0,00�C(N);22,80�C;---;31/05/2020;00:10:08;0,00nds;255�;0,00nds;000�;0,22�;5,21m;99%;+;non;ind�termin�e;;;;-;;;;;;;;;;;;;;;;;;;;;
30/05/2020;22:10:09;46�08,565 N;001�10,070 W;0,00nds;201�;0,00nds;250�;053�;162�;08,7nds;163�;09,0nds;05,7m;-0,00nds;1013,48000hPa;0,00�C(N);22,80�C;---;31/05/2020;00:10:09;0,00nds;201�;0,00nds;000�;0,22�;5,21m;99%;+;non;ind�termin�e;;;;-;;;;;;;;;;;;;;;;;;;;;
30/05/2020;22:10:10;46�08,565 N;001�10,070 W;0,00nds;199�;0,00nds;250�;053�;159�;08,9nds;163�;09,0nds;05,7m;-0,00nds;1013,48000hPa;0,00�C(N);22,80�C;---;31/05/2020;00:10:10;0,00nds;199�;0,00nds;000�;0,22�;5,21m;99%;+;non;ind�termin�e;;;;-;;;;;;;;;;;;;;;;;;;;;
30/05/2020;22:10:11;46�08,565 N;001�10,070 W;0,00nds;238�;0,00nds;250�;049�;159�;08,5nds;159�;09,1nds;05,8m;-0,00nds;1013,48000hPa;0,00�C(N);22,80�C;---;31/05/2020;00:10:11;0,00nds;238�;0,00nds;000�;0,22�;5,21m;99%;+;non;ind�termin�e;;;;-;;;;;;;;;;;;;;;;;;;;;
30/05/2020;22:10:12;46�08,565 N;001�10,070 W;0,00nds;299�;0,00nds;250�;049�;157�;08,3nds;159�;08,5nds;05,8m;-0,00nds;1013,49000hPa;0,00�C(N);22,80�C;---;31/05/2020;00:10:12;0,00nds;299�;0,00nds;000�;0,22�;5,21m;99%;+;non;ind�termin�e;;;;-;;;;;;;;;;;;;;;;;;;;;
30/05/2020;22:10:13;46�08,565 N;001�10,070 W;0,00nds;326�;0,00nds;250�;047�;158�;07,9nds;157�;08,3nds;05,7m;-0,00nds;1013,48000hPa;0,00�C(N);22,80�C;---;31/05/2020;00:10:13;0,00nds;326�;0,00nds;000�;0,22�;5,21m;99%;+;non;ind�termin�e;;;;-;;;;;;;;;;;;;;;;;;;;;
30/05/2020;22:10:14;46�08,565 N;001�10,070 W;0,00nds;316�;0,00nds;250�;050�;162�;07,6nds;160�;07,5nds;05,7m;-0,00nds;1013,48000hPa;0,00�C(N);22,80�C;---;31/05/2020;00:10:14;0,00nds;316�;0,00nds;000�;0,22�;5,21m;99%;+;non;ind�termin�e;;;;-;;;;;;;;;;;;;;;;;;;;;
30/05/2020;22:10:15;46�08,565 N;001�10,070 W;0,00nds;003�;0,00nds;250�;052�;167�;08,5nds;162�;07,5nds;05,7m;-0,00nds;1013,49000hPa;0,00�C(N);22,80�C;---;31/05/2020;00:10:15;0,00nds;003�;0,00nds;000�;0,22�;5,21m;99%;+;non;ind�termin�e;;;;-;;;;;;;;;;;;;;;;;;;;;
30/05/2020;22:10:16;46�08,565 N;001�10,070 W;0,00nds;041�;0,00nds;250�;058�;168�;09,2nds;168�;09,2nds;05,8m;-0,00nds;1013,48000hPa;0,00�C(N);22,80�C;---;31/05/2020;00:10:16;0,00nds;041�;0,00nds;000�;0,22�;5,21m;99%;+;non;ind�termin�e;;;;-;;;;;;;;;;;;;;;;;;;;;
30/05/2020;22:10:17;46�08,565 N;001�10,070 W;0,00nds;095�;0,00nds;250�;062�;174�;10,0nds;172�;09,7nds;05,7m;-0,00nds;1013,48000hPa;0,00�C(N);22,80�C;---;31/05/2020;00:10:17;0,00nds;095�;0,00nds;000�;0,22�;5,21m;99%;+;non;ind�termin�e;;;;-;;;;;;;;;;;;;;;;;;;;;
30/05/2020;22:10:18;46�08,565 N;001�10,070 W;0,00nds;110�;0,00nds;250�;062�;175�;10,1nds;172�;09,7nds;05,7m;-0,00nds;1013,48000hPa;0,00�C(N);22,80�C;---;31/05/2020;00:10:18;0,00nds;110�;0,00nds;000�;0,22�;5,21m;99%;+;non;ind�termin�e;;;;-;;;;;;;;;;;;;;;;;;;;;
30/05/2020;22:10:19;46�08,565 N;001�10,070 W;0,00nds;118�;0,00nds;250�;065�;175�;10,1nds;175�;10,1nds;05,7m;-0,00nds;1013,48000hPa;0,00�C(N);22,80�C;---;31/05/2020;00:10:19;0,00nds;118�;0,00nds;000�;0,22�;5,21m;99%;+;non;ind�termin�e;;;;-;;;;;;;;;;;;;;;;;;;;;
30/05/2020;22:10:20;46�08,565 N;001�10,070 W;0,00nds;104�;0,01nds;251�;069�;179�;09,6nds;179�;10,0nds;05,7m;-0,01nds;1013,48000hPa;0,00�C(N);22,80�C;---;31/05/2020;00:10:20;0,01nds;071�;0,00nds;000�;0,22�;5,21m;99%;+;non;ind�termin�e;;;;-;;;;;;;;;;;;;;;;;;;;;
30/05/2020;22:10:21;46�08,565 N;001�10,070 W;0,00nds;065�;0,01nds;251�;070�;178�;09,4nds;179�;09,5nds;05,7m;-0,01nds;1013,48000hPa;0,00�C(N);22,80�C;---;31/05/2020;00:10:21;0,01nds;071�;0,00nds;000�;0,22�;5,21m;99%;+;non;ind�termin�e;;;;-;;;;;;;;;;;;;;;;;;;;;
30/05/2020;22:10:22;46�08,565 N;001�10,070 W;0,00nds;044�;0,01nds;251�;069�;178�;08,6nds;178�;09,1nds;05,7m;-0,01nds;1013,48000hPa;0,00�C(N);22,80�C;---;31/05/2020;00:10:22;0,01nds;071�;0,00nds;000�;0,22�;5,21m;99%;+;non;ind�termin�e;;;;-;;;;;;;;;;;;;;;;;;;;;
30/05/2020;22:10:23;46�08,565 N;001�10,070 W;0,00nds;000�;0,01nds;251�;069�;177�;08,4nds;178�;08,6nds;05,7m;-0,01nds;1013,48000hPa;0,00�C(N);22,80�C;---;31/05/2020;00:10:23;0,01nds;071�;0,00nds;000�;0,22�;5,21m;99%;+;non;ind�termin�e;;;;-;;;;;;;;;;;;;;;;;;;;;
30/05/2020;22:10:24;46�08,565 N;001�10,070 W;0,00nds;345�;0,01nds;251�;068�;176�;08,3nds;177�;08,3nds;05,7m;-0,01nds;1013,48000hPa;0,00�C(N);22,80�C;---;31/05/2020;00:10:24;0,01nds;071�;0,00nds;000�;0,22�;5,21m;99%;+;non;ind�termin�e;;;;-;;;;;;;;;;;;;;;;;;;;;
30/05/2020;22:10:25;46�08,565 N;001�10,070 W;0,00nds;324�;0,01nds;250�;065�;172�;08,0nds;175�;08,2nds;05,7m;-0,01nds;1013,48000hPa;0,00�C(N);22,80�C;---;31/05/2020;00:10:25;0,01nds;070�;0,00nds;000�;0,22�;5,21m;99%;+;non;ind�termin�e;;;;-;;;;;;;;;;;;;;;;;;;;;
30/05/2020;22:10:26;46�08,565 N;001�10,070 W;0,00nds;329�;0,01nds;250�;062�;172�;07,6nds;172�;08,2nds;05,7m;-0,01nds;1013,48000hPa;0,00�C(N);22,80�C;---;31/05/2020;00:10:26;0,01nds;070�;0,00nds;000�;0,22�;5,21m;99%;+;non;ind�termin�e;;;;-;;;;;;;;;;;;;;;;;;;;;
30/05/2020;22:10:27;46�08,565 N;001�10,070 W;0,00nds;321�;0,01nds;250�;062�;172�;07,3nds;172�;07,3nds;05,7m;-0,01nds;1013,48000hPa;0,00�C(N);22,80�C;---;31/05/2020;00:10:27;0,01nds;070�;0,00nds;000�;0,22�;5,21m;99%;+;non;ind�termin�e;;;;-;;;;;;;;;;;;;;;;;;;;;
30/05/2020;22:10:28;46�08,565 N;001�10,070 W;0,00nds;320�;0,01nds;250�;061�;170�;07,2nds;171�;07,1nds;05,7m;-0,01nds;1013,48000hPa;0,00�C(N);22,80�C;---;31/05/2020;00:10:28;0,01nds;070�;0,00nds;000�;0,22�;5,21m;99%;+;non;ind�termin�e;;;;-;;;;;;;;;;;;;;;;;;;;;
30/05/2020;22:10:29;46�08,565 N;001�10,070 W;0,00nds;285�;0,01nds;250�;061�;172�;07,1nds;171�;07,1nds;05,7m;-0,01nds;1013,48000hPa;0,00�C(N);22,80�C;---;31/05/2020;00:10:29;0,01nds;070�;0,00nds;000�;0,22�;5,21m;99%;+;non;ind�termin�e;;;;-;;;;;;;;;;;;;;;;;;;;;
30/05/2020;22:10:30;46�08,565 N;001�10,070 W;0,00nds;045�;0,01nds;250�;063�;170�;07,0nds;173�;07,0nds;05,7m;-0,01nds;1013,48000hPa;0,00�C(N);22,80�C;---;31/05/2020;00:10:30;0,01nds;070�;0,00nds;000�;0,22�;5,21m;99%;+;non;ind�termin�e;;;;-;;;;;;;;;;;;;;;;;;;;;
30/05/2020;22:10:31;46�08,565 N;001�10,070 W;0,00nds;049�;0,01nds;250�;060�;170�;06,9nds;170�;07,0nds;05,7m;-0,01nds;1013,49000hPa;0,00�C(N);22,80�C;---;31/05/2020;00:10:31;0,01nds;070�;0,00nds;000�;0,22�;5,21m;99%;+;non;ind�termin�e;;;;-;;;;;;;;;;;;;;;;;;;;;
30/05/2020;22:10:32;46�08,565 N;001�10,070 W;0,00nds;057�;0,01nds;250�;060�;168�;07,0nds;170�;06,9nds;05,8m;-0,01nds;1013,49000hPa;0,00�C(N);22,80�C;---;31/05/2020;00:10:32;0,01nds;070�;0,00nds;000�;0,22�;5,21m;99%;+;non;ind�termin�e;;;;-;;;;;;;;;;;;;;;;;;;;;
30/05/2020;22:10:33;46�08,565 N;001�10,070 W;0,00nds;019�;0,01nds;250�;058�;163�;06,6nds;168�;06,8nds;05,8m;-0,01nds;1013,49000hPa;0,00�C(N);22,80�C;---;31/05/2020;00:10:33;0,01nds;070�;0,00nds;000�;0,22�;5,21m;99%;+;non;ind�termin�e;;;;-;;;;;;;;;;;;;;;;;;;;;
30/05/2020;22:10:34;46�08,565 N;001�10,070 W;0,00nds;045�;0,01nds;250�;053�;156�;06,6nds;163�;06,5nds;05,7m;-0,01nds;1013,49000hPa;0,00�C(N);22,80�C;---;31/05/2020;00:10:34;0,01nds;070�;0,00nds;000�;0,22�;5,21m;99%;+;non;ind�termin�e;;;;-;;;;;;;;;;;;;;;;;;;;;
30/05/2020;22:10:35;46�08,565 N;001�10,070 W;0,00nds;013�;0,01nds;250�;045�;155�;06,4nds;155�;06,4nds;05,7m;-0,01nds;1013,49000hPa;0,00�C(N);22,80�C;---;31/05/2020;00:10:35;0,01nds;070�;0,00nds;000�;0,22�;5,21m;99%;+;non;ind�termin�e;;;;-;;;;;;;;;;;;;;;;;;;;;
30/05/2020;22:10:36;46�08,565 N;001�10,070 W;0,00nds;322�;0,01nds;250�;043�;154�;06,4nds;153�;06,3nds;05,7m;-0,01nds;1013,49000hPa;0,00�C(N);22,80�C;---;31/05/2020;00:10:36;0,01nds;070�;0,00nds;000�;0,22�;5,21m;99%;+;non;ind�termin�e;;;;-;;;;;;;;;;;;;;;;;;;;;
30/05/2020;22:10:37;46�08,565 N;001�10,070 W;0,00nds;337�;0,00nds;250�;043�;152�;07,2nds;153�;06,3nds;05,7m;-0,00nds;1013,49000hPa;0,00�C(N);22,80�C;---;31/05/2020;00:10:37;0,00nds;337�;0,00nds;000�;0,22�;5,21m;99%;+;non;ind�termin�e;;;;-;;;;;;;;;;;;;;;;;;;;;
30/05/2020;22:10:38;46�08,565 N;001�10,070 W;0,00nds;043�;0,00nds;250�;045�;155�;07,7nds;155�;07,5nds;05,7m;-0,00nds;1013,49000hPa;0,00�C(N);22,80�C;---;31/05/2020;00:10:38;0,00nds;043�;0,00nds;000�;0,22�;5,21m;99%;+;non;ind�termin�e;;;;-;;;;;;;;;;;;;;;;;;;;;
30/05/2020;22:10:39;46�08,565 N;001�10,070 W;0,00nds;092�;0,00nds;250�;045�;158�;07,4nds;155�;07,6nds;05,7m;-0,00nds;1013,49000hPa;0,00�C(N);22,80�C;---;31/05/2020;00:10:39;0,00nds;092�;0,00nds;000�;0,22�;5,21m;99%;+;non;ind�termin�e;;;;-;;;;;;;;;;;;;;;;;;;;;
30/05/2020;22:10:40;46�08,565 N;001�10,070 W;0,00nds;077�;0,00nds;250�;048�;163�;07,0nds;158�;07,4nds;05,7m;-0,00nds;1013,49000hPa;0,00�C(N);22,80�C;---;31/05/2020;00:10:40;0,00nds;077�;0,00nds;000�;0,22�;5,21m;99%;+;non;ind�termin�e;;;;-;;;;;;;;;;;;;;;;;;;;;
30/05/2020;22:10:41;46�08,565 N;001�10,070 W;0,00nds;153�;0,00nds;250�;055�;167�;07,5nds;165�;07,0nds;05,7m;-0,00nds;1013,49000hPa;0,00�C(N);22,80�C;---;31/05/2020;00:10:41;0,00nds;153�;0,00nds;000�;0,22�;5,21m;99%;+;non;ind�termin�e;;;;-;;;;;;;;;;;;;;;;;;;;;
30/05/2020;22:10:42;46�08,565 N;001�10,070 W;0,00nds;113�;0,00nds;250�;057�;172�;07,8nds;167�;07,5nds;05,7m;-0,00nds;1013,48000hPa;0,00�C(N);22,80�C;---;31/05/2020;00:10:42;0,00nds;113�;0,00nds;000�;0,22�;5,21m;99%;+;non;ind�termin�e;;;;-;;;;;;;;;;;;;;;;;;;;;
30/05/2020;22:10:43;46�08,565 N;001�10,070 W;0,00nds;131�;0,00nds;250�;065�;175�;07,6nds;175�;07,5nds;05,7m;-0,00nds;1013,48000hPa;0,00�C(N);22,80�C;---;31/05/2020;00:10:43;0,00nds;131�;0,00nds;000�;0,22�;5,21m;99%;+;non;ind�termin�e;;;;-;;;;;;;;;;;;;;;;;;;;;
30/05/2020;22:10:44;46�08,565 N;001�10,070 W;0,00nds;092�;0,00nds;251�;066�;176�;06,9nds;176�;07,2nds;05,7m;-0,00nds;1013,48000hPa;0,00�C(N);22,80�C;---;31/05/2020;00:10:44;0,00nds;092�;0,00nds;000�;0,22�;5,21m;99%;+;non;ind�termin�e;;;;-;;;;;;;;;;;;;;;;;;;;;
30/05/2020;22:10:45;46�08,565 N;001�10,070 W;0,00nds;080�;0,00nds;250�;066�;183�;06,7nds;176�;07,2nds;05,7m;-0,00nds;1013,48000hPa;0,00�C(N);22,80�C;---;31/05/2020;00:10:45;0,00nds;080�;0,00nds;000�;0,22�;5,21m;99%;+;non;ind�termin�e;;;;-;;;;;;;;;;;;;;;;;;;;;
30/05/2020;22:10:46;46�08,565 N;001�10,070 W;0,00nds;050�;0,00nds;251�;072�;181�;06,5nds;181�;06,5nds;05,7m;-0,00nds;1013,48000hPa;0,00�C(N);22,80�C;---;31/05/2020;00:10:46;0,00nds;050�;0,00nds;000�;0,22�;5,21m;99%;+;non;ind�termin�e;;;;-;;;;;;;;;;;;;;;;;;;;;
30/05/2020;22:10:47;46�08,565 N;001�10,070 W;0,00nds;028�;0,00nds;251�;064�;172�;06,3nds;174�;06,1nds;05,7m;-0,00nds;1013,48000hPa;0,00�C(N);22,80�C;---;31/05/2020;00:10:47;0,00nds;028�;0,00nds;000�;0,22�;5,21m;99%;+;non;ind�termin�e;;;;-;;;;;;;;;;;;;;;;;;;;;
30/05/2020;22:10:48;46�08,565 N;001�10,070 W;0,00nds;346�;0,00nds;251�;063�;172�;06,5nds;172�;06,3nds;05,7m;-0,00nds;1013,48000hPa;0,00�C(N);22,80�C;---;31/05/2020;00:10:48;0,00nds;346�;0,00nds;000�;0,22�;5,21m;99%;+;non;ind�termin�e;;;;-;;;;;;;;;;;;;;;;;;;;;
30/05/2020;22:10:49;46�08,565 N;001�10,070 W;0,00nds;314�;0,00nds;251�;061�;166�;06,4nds;170�;06,5nds;05,7m;-0,00nds;1013,47000hPa;0,00�C(N);22,80�C;---;31/05/2020;00:10:49;0,00nds;314�;0,00nds;000�;0,22�;5,21m;99%;+;non;ind�termin�e;;;;-;;;;;;;;;;;;;;;;;;;;;
30/05/2020;22:10:50;46�08,565 N;001�10,070 W;0,00nds;328�;0,00nds;251�;057�;166�;06,3nds;166�;06,4nds;05,7m;-0,00nds;1013,47000hPa;0,00�C(N);22,80�C;---;31/05/2020;00:10:50;0,00nds;328�;0,00nds;000�;0,22�;5,21m;99%;+;non;ind�termin�e;;;;-;;;;;;;;;;;;;;;;;;;;;
30/05/2020;22:10:51;46�08,565 N;001�10,070 W;0,00nds;329�;0,00nds;251�;057�;165�;06,4nds;166�;06,3nds;05,7m;-0,00nds;1013,48000hPa;0,00�C(N);22,90�C;---;31/05/2020;00:10:51;0,00nds;329�;0,00nds;000�;0,22�;5,21m;99%;+;non;ind�termin�e;;;;-;;;;;;;;;;;;;;;;;;;;;
30/05/2020;22:10:52;46�08,565 N;001�10,070 W;0,00nds;006�;0,00nds;250�;056�;166�;06,7nds;166�;06,5nds;05,7m;-0,00nds;1013,47000hPa;0,00�C(N);22,90�C;---;31/05/2020;00:10:52;0,00nds;006�;0,00nds;000�;0,22�;5,21m;99%;+;non;ind�termin�e;;;;-;;;;;;;;;;;;;;;;;;;;;
30/05/2020;22:10:53;46�08,565 N;001�10,070 W;0,00nds;347�;0,01nds;250�;056�;165�;06,4nds;166�;06,5nds;05,7m;-0,01nds;1013,48000hPa;0,00�C(N);22,90�C;---;31/05/2020;00:10:53;0,01nds;070�;0,00nds;000�;0,22�;5,21m;99%;+;non;ind�termin�e;;;;-;;;;;;;;;;;;;;;;;;;;;
30/05/2020;22:10:54;46�08,565 N;001�10,070 W;0,00nds;034�;0,01nds;250�;053�;163�;06,2nds;163�;06,1nds;05,7m;-0,01nds;1013,48000hPa;0,00�C(N);22,90�C;---;31/05/2020;00:10:54;0,01nds;070�;0,00nds;000�;0,22�;5,21m;99%;+;non;ind�termin�e;;;;-;;;;;;;;;;;;;;;;;;;;;
30/05/2020;22:10:55;46�08,565 N;001�10,070 W;0,00nds;052�;0,01nds;250�;051�;163�;06,6nds;161�;06,5nds;05,7m;-0,01nds;1013,48000hPa;0,00�C(N);22,90�C;---;31/05/2020;00:10:55;0,01nds;070�;0,00nds;000�;0,22�;5,21m;99%;+;non;ind�termin�e;;;;-;;;;;;;;;;;;;;;;;;;;;
30/05/2020;22:10:56;46�08,565 N;001�10,070 W;0,00nds;092�;0,01nds;250�;051�;164�;07,0nds;161�;06,5nds;05,7m;-0,01nds;1013,48000hPa;0,00�C(N);22,90�C;---;31/05/2020;00:10:56;0,01nds;070�;0,00nds;000�;0,22�;5,21m;99%;+;non;ind�termin�e;;;;-;;;;;;;;;;;;;;;;;;;;;
30/05/2020;22:10:57;46�08,565 N;001�10,070 W;0,00nds;129�;0,01nds;250�;053�;163�;06,8nds;163�;07,0nds;05,8m;-0,01nds;1013,49000hPa;0,00�C(N);22,90�C;---;31/05/2020;00:10:57;0,01nds;070�;0,00nds;000�;0,22�;5,21m;99%;+;non;ind�termin�e;;;;-;;;;;;;;;;;;;;;;;;;;;
30/05/2020;22:10:58;46�08,565 N;001�10,070 W;0,00nds;109�;0,01nds;250�;053�;163�;06,6nds;163�;06,8nds;05,7m;-0,01nds;1013,48000hPa;0,00�C(N);22,80�C;---;31/05/2020;00:10:58;0,01nds;070�;0,00nds;000�;0,22�;5,21m;99%;+;non;ind�termin�e;;;;-;;;;;;;;;;;;;;;;;;;;;
30/05/2020;22:10:59;46�08,565 N;001�10,070 W;0,00nds;084�;0,01nds;251�;053�;165�;06,5nds;163�;06,5nds;05,7m;-0,01nds;1013,49000hPa;0,00�C(N);22,80�C;---;31/05/2020;00:10:59;0,01nds;071�;0,00nds;000�;0,22�;5,21m;99%;+;non;ind�termin�e;;;;-;;;;;;;;;;;;;;;;;;;;;
30/05/2020;22:11:00;46�08,565 N;001�10,070 W;0,00nds;108�;0,01nds;251�;060�;169�;06,8nds;169�;06,6nds;05,7m;-0,01nds;1013,49000hPa;0,00�C(N);22,80�C;---;31/05/2020;00:11:00;0,01nds;071�;0,00nds;000�;0,22�;5,21m;99%;+;non;ind�termin�e;;;;-;;;;;;;;;;;;;;;;;;;;;
30/05/2020;22:11:01;46�08,565 N;001�10,070 W;0,00nds;144�;0,01nds;251�;060�;164�;06,6nds;169�;06,7nds;05,7m;-0,01nds;1013,49000hPa;0,00�C(N);22,80�C;---;31/05/2020;00:11:01;0,01nds;071�;0,00nds;000�;0,22�;5,21m;99%;+;non;ind�termin�e;;;;-;;;;;;;;;;;;;;;;;;;;;
30/05/2020;22:11:02;46�08,565 N;001�10,070 W;0,00nds;221�;0,01nds;251�;056�;165�;06,1nds;165�;06,1nds;05,7m;-0,01nds;1013,49000hPa;0,00�C(N);22,80�C;---;31/05/2020;00:11:02;0,01nds;071�;0,00nds;000�;0,22�;5,21m;99%;+;non;ind�termin�e;;;;-;;;;;;;;;;;;;;;;;;;;;
30/05/2020;22:11:03;46�08,565 N;001�10,070 W;0,00nds;291�;0,01nds;250�;054�;162�;05,0nds;163�;05,5nds;05,9m;-0,01nds;1013,49000hPa;0,00�C(N);22,80�C;---;31/05/2020;00:11:03;0,01nds;070�;0,00nds;000�;0,22�;5,21m;99%;+;non;ind�termin�e;;;;-;;;;;;;;;;;;;;;;;;;;;
30/05/2020;22:11:04;46�08,565 N;001�10,070 W;0,00nds;293�;0,01nds;250�;054�;164�;04,7nds;163�;05,5nds;05,8m;-0,01nds;1013,49000hPa;0,00�C(N);22,80�C;---;31/05/2020;00:11:04;0,01nds;070�;0,00nds;000�;0,22�;5,21m;99%;+;non;ind�termin�e;;;;-;;;;;;;;;;;;;;;;;;;;;
30/05/2020;22:11:05;46�08,565 N;001�10,070 W;0,00nds;319�;0,02nds;250�;048�;157�;05,2nds;158�;04,8nds;05,7m;-0,02nds;1013,49000hPa;0,00�C(N);22,80�C;---;31/05/2020;00:11:05;0,02nds;070�;0,00nds;000�;0,22�;5,21m;99%;+;non;ind�termin�e;;;;-;;;;;;;;;;;;;;;;;;;;;
30/05/2020;22:11:06;46�08,565 N;001�10,070 W;0,00nds;337�;0,02nds;250�;047�;153�;05,9nds;157�;05,2nds;05,7m;-0,02nds;1013,48000hPa;0,00�C(N);22,80�C;---;31/05/2020;00:11:06;0,02nds;070�;0,00nds;000�;0,22�;5,21m;99%;+;non;ind�termin�e;;;;-;;;;;;;;;;;;;;;;;;;;;
30/05/2020;22:11:07;46�08,565 N;001�10,070 W;0,00nds;352�;0,02nds;250�;043�;154�;06,6nds;153�;05,9nds;05,7m;-0,02nds;1013,48000hPa;0,00�C(N);22,80�C;---;31/05/2020;00:11:07;0,02nds;070�;0,00nds;000�;0,22�;5,21m;99%;+;non;ind�termin�e;;;;-;;;;;;;;;;;;;;;;;;;;;
30/05/2020;22:11:08;46�08,565 N;001�10,070 W;0,00nds;055�;0,02nds;250�;044�;152�;07,0nds;154�;07,0nds;05,7m;-0,02nds;1013,48000hPa;0,00�C(N);22,80�C;---;31/05/2020;00:11:08;0,02nds;070�;0,00nds;000�;0,22�;5,21m;99%;+;non;ind�termin�e;;;;-;;;;;;;;;;;;;;;;;;;;;
30/05/2020;22:11:09;46�08,565 N;001�10,070 W;0,00nds;067�;0,02nds;250�;042�;153�;06,7nds;152�;07,0nds;05,7m;-0,02nds;1013,48000hPa;0,00�C(N);22,80�C;---;31/05/2020;00:11:09;0,02nds;070�;0,00nds;000�;0,22�;5,21m;99%;+;non;ind�termin�e;;;;-;;;;;;;;;;;;;;;;;;;;;
30/05/2020;22:11:10;46�08,565 N;001�10,070 W;0,00nds;075�;0,02nds;250�;049�;159�;06,2nds;159�;06,2nds;05,7m;-0,02nds;1013,47000hPa;0,00�C(N);22,80�C;---;31/05/2020;00:11:10;0,02nds;070�;0,00nds;000�;0,22�;5,21m;99%;+;non;ind�termin�e;;;;-;;;;;;;;;;;;;;;;;;;;;
30/05/2020;22:11:11;46�08,565 N;001�10,070 W;0,00nds;119�;0,02nds;250�;052�;162�;05,6nds;162�;06,0nds;05,7m;-0,02nds;1013,47000hPa;0,00�C(N);22,80�C;---;31/05/2020;00:11:11;0,02nds;070�;0,00nds;000�;0,22�;5,21m;99%;+;non;ind�termin�e;;;;-;;;;;;;;;;;;;;;;;;;;;
30/05/2020;22:11:12;46�08,565 N;001�10,070 W;0,00nds;138�;0,02nds;250�;052�;163�;05,4nds;162�;06,0nds;05,7m;-0,02nds;1013,48000hPa;0,00�C(N);22,80�C;---;31/05/2020;00:11:12;0,02nds;070�;0,00nds;000�;0,22�;5,21m;99%;+;non;ind�termin�e;;;;-;;;;;;;;;;;;;;;;;;;;;
30/05/2020;22:11:13;46�08,565 N;001�10,070 W;0,00nds;156�;0,01nds;250�;054�;169�;06,7nds;164�;05,6nds;05,7m;-0,01nds;1013,48000hPa;0,00�C(N);22,80�C;---;31/05/2020;00:11:13;0,01nds;070�;0,00nds;000�;0,22�;5,21m;99%;+;non;ind�termin�e;;;;-;;;;;;;;;;;;;;;;;;;;;
30/05/2020;22:11:14;46�08,565 N;001�10,070 W;0,00nds;115�;0,01nds;250�;059�;172�;07,8nds;169�;06,7nds;05,7m;-0,01nds;1013,48000hPa;0,00�C(N);22,80�C;---;31/05/2020;00:11:14;0,01nds;070�;0,00nds;000�;0,22�;5,21m;99%;+;non;ind�termin�e;;;;-;;;;;;;;;;;;;;;;;;;;;
30/05/2020;22:11:15;46�08,565 N;001�10,070 W;0,00nds;076�;0,01nds;250�;062�;169�;08,3nds;172�;07,8nds;05,7m;-0,01nds;1013,48000hPa;0,00�C(N);22,80�C;---;31/05/2020;00:11:15;0,01nds;070�;0,00nds;000�;0,22�;5,21m;99%;+;non;ind�termin�e;;;;-;;;;;;;;;;;;;;;;;;;;;
30/05/2020;22:11:16;46�08,565 N;001�10,070 W;0,00nds;042�;0,01nds;250�;056�;166�;07,7nds;166�;08,1nds;05,8m;-0,01nds;1013,48000hPa;0,00�C(N);22,80�C;---;31/05/2020;00:11:16;0,01nds;070�;0,00nds;000�;0,22�;5,21m;99%;+;non;ind�termin�e;;;;-;;;;;;;;;;;;;;;;;;;;;
30/05/2020;22:11:17;46�08,565 N;001�10,070 W;0,00nds;023�;0,01nds;250�;056�;165�;07,4nds;166�;07,7nds;05,8m;-0,01nds;1013,48000hPa;0,00�C(N);22,80�C;---;31/05/2020;00:11:17;0,01nds;070�;0,00nds;000�;0,22�;5,21m;99%;+;non;ind�termin�e;;;;-;;;;;;;;;;;;;;;;;;;;;
30/05/2020;22:11:18;46�08,565 N;001�10,070 W;0,00nds;009�;0,01nds;250�;055�;164�;07,2nds;165�;07,2nds;05,7m;-0,01nds;1013,49000hPa;0,00�C(N);22,80�C;---;31/05/2020;00:11:18;0,01nds;070�;0,00nds;000�;0,22�;5,21m;99%;+;non;ind�termin�e;;;;-;;;;;;;;;;;;;;;;;;;;;
30/05/2020;22:11:19;46�08,565 N;001�10,070 W;0,00nds;004�;0,01nds;250�;053�;163�;07,4nds;163�;07,1nds;05,7m;-0,01nds;1013,48000hPa;0,00�C(N);22,80�C;---;31/05/2020;00:11:19;0,01nds;070�;0,00nds;000�;0,22�;5,21m;99%;+;non;ind�termin�e;;;;-;;;;;;;;;;;;;;;;;;;;;
30/05/2020;22:11:20;46�08,565 N;001�10,070 W;0,00nds;017�;0,01nds;250�;053�;165�;07,3nds;163�;07,1nds;05,7m;-0,01nds;1013,48000hPa;0,00�C(N);22,80�C;---;31/05/2020;00:11:20;0,01nds;070�;0,00nds;000�;0,22�;5,21m;99%;+;non;ind�termin�e;;;;-;;;;;;;;;;;;;;;;;;;;;
30/05/2020;22:11:21;46�08,565 N;001�10,070 W;0,00nds;350�;0,01nds;250�;054�;164�;07,1nds;164�;07,1nds;05,7m;-0,01nds;1013,48000hPa;0,00�C(N);22,80�C;---;31/05/2020;00:11:21;0,01nds;070�;0,00nds;000�;0,22�;5,21m;99%;+;non;ind�termin�e;;;;-;;;;;;;;;;;;;;;;;;;;;
30/05/2020;22:11:22;46�08,565 N;001�10,070 W;0,00nds;351�;0,01nds;250�;052�;162�;06,5nds;162�;06,6nds;05,7m;-0,01nds;1013,49000hPa;0,00�C(N);22,80�C;---;31/05/2020;00:11:22;0,01nds;070�;0,00nds;000�;0,22�;5,21m;99%;+;non;ind�termin�e;;;;-;;;;;;;;;;;;;;;;;;;;;
30/05/2020;22:11:23;46�08,565 N;001�10,070 W;0,00nds;330�;0,01nds;250�;052�;164�;06,4nds;162�;06,6nds;05,7m;-0,01nds;1013,49000hPa;0,00�C(N);22,80�C;---;31/05/2020;00:11:23;0,01nds;070�;0,00nds;000�;0,22�;5,21m;99%;+;non;ind�termin�e;;;;-;;;;;;;;;;;;;;;;;;;;;
30/05/2020;22:11:24;46�08,565 N;001�10,070 W;0,00nds;001�;0,01nds;250�;056�;167�;06,4nds;166�;06,5nds;05,7m;-0,01nds;1013,49000hPa;0,00�C(N);22,80�C;---;31/05/2020;00:11:24;0,01nds;070�;0,00nds;000�;0,22�;5,21m;99%;+;non;ind�termin�e;;;;-;;;;;;;;;;;;;;;;;;;;;
30/05/2020;22:11:25;46�08,565 N;001�10,070 W;0,00nds;055�;0,01nds;250�;057�;167�;06,6nds;167�;06,4nds;05,7m;-0,01nds;1013,49000hPa;0,00�C(N);22,80�C;---;31/05/2020;00:11:25;0,01nds;070�;0,00nds;000�;0,22�;5,21m;99%;+;non;ind�termin�e;;;;-;;;;;;;;;;;;;;;;;;;;;
30/05/2020;22:11:26;46�08,565 N;001�10,070 W;0,00nds;049�;0,00nds;250�;057�;171�;07,1nds;167�;06,5nds;05,7m;-0,00nds;1013,49000hPa;0,00�C(N);22,80�C;---;31/05/2020;00:11:26;0,00nds;049�;0,00nds;000�;0,22�;5,21m;99%;+;non;ind�termin�e;;;;-;;;;;;;;;;;;;;;;;;;;;
30/05/2020;22:11:27;46�08,565 N;001�10,070 W;0,00nds;016�;0,00nds;250�;064�;174�;08,2nds;174�;07,6nds;05,7m;-0,00nds;1013,49000hPa;0,00�C(N);22,80�C;---;31/05/2020;00:11:27;0,00nds;016�;0,00nds;000�;0,22�;5,21m;99%;+;non;ind�termin�e;;;;-;;;;;;;;;;;;;;;;;;;;;
30/05/2020;22:11:28;46�08,565 N;001�10,070 W;0,00nds;053�;0,00nds;250�;064�;176�;08,5nds;174�;08,1nds;05,7m;-0,00nds;1013,49000hPa;0,00�C(N);22,80�C;---;31/05/2020;00:11:28;0,00nds;053�;0,00nds;000�;0,22�;5,21m;99%;+;non;ind�termin�e;;;;-;;;;;;;;;;;;;;;;;;;;;
30/05/2020;22:11:29;46�08,565 N;001�10,070 W;0,00nds;110�;0,00nds;250�;068�;178�;08,5nds;178�;08,5nds;05,7m;-0,00nds;1013,49000hPa;0,00�C(N);22,80�C;---;31/05/2020;00:11:29;0,00nds;110�;0,00nds;000�;0,22�;5,21m;99%;+;non;ind�termin�e;;;;-;;;;;;;;;;;;;;;;;;;;;
30/05/2020;22:11:30;46�08,565 N;001�10,070 W;0,00nds;141�;0,00nds;250�;068�;171�;08,4nds;178�;08,6nds;05,7m;-0,00nds;1013,49000hPa;0,00�C(N);22,80�C;---;31/05/2020;00:11:30;0,00nds;141�;0,00nds;000�;0,22�;5,21m;99%;+;non;ind�termin�e;;;;-;;;;;;;;;;;;;;;;;;;;;
30/05/2020;22:11:31;46�08,565 N;001�10,070 W;0,00nds;146�;0,00nds;250�;068�;168�;08,1nds;178�;08,6nds;05,7m;-0,00nds;1013,48000hPa;0,00�C(N);22,80�C;---;31/05/2020;00:11:31;0,00nds;146�;0,00nds;000�;0,22�;5,21m;99%;+;non;ind�termin�e;;;;-;;;;;;;;;;;;;;;;;;;;;
30/05/2020;22:11:32;46�08,565 N;001�10,070 W;0,00nds;142�;0,01nds;251�;058�;167�;07,6nds;167�;07,8nds;05,7m;-0,01nds;1013,48000hPa;0,00�C(N);22,80�C;---;31/05/2020;00:11:32;0,01nds;071�;0,00nds;000�;0,22�;5,21m;99%;+;non;ind�termin�e;;;;-;;;;;;;;;;;;;;;;;;;;;
30/05/2020;22:11:33;46�08,565 N;001�10,070 W;0,00nds;124�;0,01nds;251�;058�;168�;07,3nds;167�;07,5nds;05,7m;-0,01nds;1013,48000hPa;0,00�C(N);22,80�C;---;31/05/2020;00:11:33;0,01nds;071�;0,00nds;000�;0,22�;5,21m;99%;+;non;ind�termin�e;;;;-;;;;;;;;;;;;;;;;;;;;;
30/05/2020;22:11:34;46�08,565 N;001�10,070 W;0,00nds;122�;0,01nds;251�;059�;171�;07,2nds;168�;07,3nds;05,7m;-0,01nds;1013,48000hPa;0,00�C(N);22,80�C;---;31/05/2020;00:11:34;0,01nds;071�;0,00nds;000�;0,22�;5,21m;99%;+;non;ind�termin�e;;;;-;;;;;;;;;;;;;;;;;;;;;
30/05/2020;22:11:35;46�08,565 N;001�10,070 W;0,00nds;039�;0,01nds;251�;064�;172�;07,3nds;173�;07,1nds;05,7m;-0,01nds;1013,47000hPa;0,00�C(N);22,80�C;---;31/05/2020;00:11:35;0,01nds;071�;0,00nds;000�;0,22�;5,21m;99%;+;non;ind�termin�e;;;;-;;;;;;;;;;;;;;;;;;;;;
30/05/2020;22:11:36;46�08,565 N;001�10,070 W;0,00nds;021�;0,01nds;251�;063�;174�;07,7nds;172�;07,3nds;05,7m;-0,01nds;1013,48000hPa;0,00�C(N);22,80�C;---;31/05/2020;00:11:36;0,01nds;071�;0,00nds;000�;0,22�;5,21m;99%;+;non;ind�termin�e;;;;-;;;;;;;;;;;;;;;;;;;;;
30/05/2020;22:11:37;46�08,565 N;001�10,070 W;0,00nds;003�;0,01nds;251�;065�;174�;08,1nds;174�;08,1nds;05,8m;-0,01nds;1013,48000hPa;0,00�C(N);22,80�C;---;31/05/2020;00:11:37;0,01nds;071�;0,00nds;000�;0,22�;5,21m;99%;+;non;ind�termin�e;;;;-;;;;;;;;;;;;;;;;;;;;;
30/05/2020;22:11:38;46�08,565 N;001�10,070 W;0,00nds;354�;0,01nds;250�;066�;175�;07,4nds;175�;07,9nds;05,8m;-0,01nds;1013,47000hPa;0,00�C(N);22,80�C;---;31/05/2020;00:11:38;0,01nds;070�;0,00nds;000�;0,22�;5,21m;99%;+;non;ind�termin�e;;;;-;;;;;;;;;;;;;;;;;;;;;
30/05/2020;22:11:39;46�08,565 N;001�10,070 W;0,00nds;339�;0,01nds;250�;066�;174�;06,9nds;175�;07,9nds;05,9m;-0,01nds;1013,47000hPa;0,00�C(N);22,80�C;---;31/05/2020;00:11:39;0,01nds;070�;0,00nds;000�;0,22�;5,21m;99%;+;non;ind�termin�e;;;;-;;;;;;;;;;;;;;;;;;;;;
30/05/2020;22:11:40;46�08,565 N;001�10,070 W;0,00nds;001�;0,01nds;250�;056�;167�;06,4nds;166�;06,6nds;05,8m;-0,01nds;1013,48000hPa;0,00�C(N);22,80�C;---;31/05/2020;00:11:40;0,01nds;070�;0,00nds;000�;0,22�;5,21m;99%;+;non;ind�termin�e;;;;-;;;;;;;;;;;;;;;;;;;;;
30/05/2020;22:11:41;46�08,565 N;001�10,070 W;0,00nds;047�;0,01nds;250�;057�;168�;06,2nds;167�;06,4nds;05,7m;-0,01nds;1013,47000hPa;0,00�C(N);22,80�C;---;31/05/2020;00:11:41;0,01nds;070�;0,00nds;000�;0,22�;5,21m;99%;+;non;ind�termin�e;;;;-;;;;;;;;;;;;;;;;;;;;;
30/05/2020;22:11:42;46�08,565 N;001�10,070 W;0,00nds;068�;0,01nds;250�;058�;165�;06,1nds;168�;06,2nds;05,8m;-0,01nds;1013,47000hPa;0,00�C(N);22,80�C;---;31/05/2020;00:11:42;0,01nds;070�;0,00nds;000�;0,22�;5,21m;99%;+;non;ind�termin�e;;;;-;;;;;;;;;;;;;;;;;;;;;
30/05/2020;22:11:43;46�08,565 N;001�10,070 W;0,00nds;122�;0,01nds;250�;051�;159�;06,2nds;161�;06,0nds;05,9m;-0,01nds;1013,47000hPa;0,00�C(N);22,80�C;---;31/05/2020;00:11:43;0,01nds;070�;0,00nds;000�;0,22�;5,21m;99%;+;non;ind�termin�e;;;;-;;;;;;;;;;;;;;;;;;;;;
30/05/2020;22:11:44;46�08,565 N;001�10,070 W;0,00nds;106�;0,01nds;251�;049�;162�;06,3nds;159�;06,2nds;05,9m;-0,01nds;1013,47000hPa;0,00�C(N);22,80�C;---;31/05/2020;00:11:44;0,01nds;071�;0,00nds;000�;0,22�;5,21m;99%;+;non;ind�termin�e;;;;-;;;;;;;;;;;;;;;;;;;;;
30/05/2020;22:11:45;46�08,565 N;001�10,070 W;0,00nds;112�;0,01nds;251�;053�;162�;06,3nds;162�;06,3nds;05,8m;-0,01nds;1013,47000hPa;0,00�C(N);22,80�C;---;31/05/2020;00:11:45;0,01nds;071�;0,00nds;000�;0,22�;5,21m;99%;+;non;ind�termin�e;;;;-;;;;;;;;;;;;;;;;;;;;;
30/05/2020;22:11:46;46�08,565 N;001�10,070 W;0,00nds;034�;0,01nds;251�;053�;157�;06,3nds;162�;06,2nds;05,7m;-0,01nds;1013,47000hPa;0,00�C(N);22,80�C;---;31/05/2020;00:11:46;0,01nds;071�;0,00nds;000�;0,22�;5,21m;99%;+;non;ind�termin�e;;;;-;;;;;;;;;;;;;;;;;;;;;
30/05/2020;22:11:47;46�08,565 N;001�10,070 W;0,00nds;010�;0,01nds;251�;053�;153�;06,5nds;162�;06,2nds;05,8m;-0,01nds;1013,47000hPa;0,00�C(N);22,80�C;---;31/05/2020;00:11:47;0,01nds;071�;0,00nds;000�;0,22�;5,21m;99%;+;non;ind�termin�e;;;;-;;;;;;;;;;;;;;;;;;;;;
30/05/2020;22:11:48;46�08,565 N;001�10,070 W;0,00nds;004�;0,01nds;250�;041�;148�;06,9nds;151�;06,6nds;05,7m;-0,01nds;1013,47000hPa;0,00�C(N);22,80�C;---;31/05/2020;00:11:48;0,01nds;070�;0,00nds;000�;0,22�;5,21m;99%;+;non;ind�termin�e;;;;-;;;;;;;;;;;;;;;;;;;;;
30/05/2020;22:11:49;46�08,565 N;001�10,070 W;0,00nds;032�;0,01nds;250�;038�;148�;06,9nds;148�;06,9nds;05,7m;-0,01nds;1013,47000hPa;0,00�C(N);22,80�C;---;31/05/2020;00:11:49;0,01nds;070�;0,00nds;000�;0,22�;5,21m;99%;+;non;ind�termin�e;;;;-;;;;;;;;;;;;;;;;;;;;;
30/05/2020;22:11:50;46�08,565 N;001�10,070 W;0,00nds;034�;0,01nds;250�;038�;149�;07,2nds;148�;06,9nds;05,7m;-0,01nds;1013,47000hPa;0,00�C(N);22,80�C;---;31/05/2020;00:11:50;0,01nds;070�;0,00nds;000�;0,22�;5,21m;99%;+;non;ind�termin�e;;;;-;;;;;;;;;;;;;;;;;;;;;
30/05/2020;22:11:51;46�08,565 N;001�10,070 W;0,00nds;009�;0,01nds;250�;039�;148�;07,7nds;149�;07,6nds;05,7m;-0,01nds;1013,48000hPa;0,00�C(N);22,80�C;---;31/05/2020;00:11:51;0,01nds;070�;0,00nds;000�;0,22�;5,21m;99%;+;non;ind�termin�e;;;;-;;;;;;;;;;;;;;;;;;;;;
30/05/2020;22:11:52;46�08,565 N;001�10,070 W;0,00nds;317�;0,01nds;250�;038�;150�;07,9nds;148�;07,6nds;05,7m;-0,01nds;1013,47000hPa;0,00�C(N);22,80�C;---;31/05/2020;00:11:52;0,01nds;070�;0,00nds;000�;0,22�;5,21m;99%;+;non;ind�termin�e;;;;-;;;;;;;;;;;;;;;;;;;;;
30/05/2020;22:11:53;46�08,565 N;001�10,070 W;0,00nds;359�;0,01nds;250�;041�;151�;08,1nds;151�;08,1nds;05,7m;-0,01nds;1013,47000hPa;0,00�C(N);22,80�C;---;31/05/2020;00:11:53;0,01nds;070�;0,00nds;000�;0,22�;5,21m;99%;+;non;ind�termin�e;;;;-;;;;;;;;;;;;;;;;;;;;;
30/05/2020;22:11:54;46�08,565 N;001�10,070 W;0,00nds;358�;0,01nds;250�;043�;158�;07,7nds;153�;08,2nds;05,7m;-0,01nds;1013,47000hPa;0,00�C(N);22,80�C;---;31/05/2020;00:11:54;0,01nds;070�;0,00nds;000�;0,22�;5,21m;99%;+;non;ind�termin�e;;;;-;;;;;;;;;;;;;;;;;;;;;
30/05/2020;22:11:55;46�08,565 N;001�10,070 W;0,00nds;335�;0,01nds;250�;043�;160�;07,5nds;153�;08,2nds;05,7m;-0,01nds;1013,47000hPa;0,00�C(N);22,80�C;---;31/05/2020;00:11:55;0,01nds;070�;0,00nds;000�;0,22�;5,21m;99%;+;non;ind�termin�e;;;;-;;;;;;;;;;;;;;;;;;;;;
30/05/2020;22:11:56;46�08,565 N;001�10,070 W;0,00nds;262�;0,01nds;250�;051�;159�;07,9nds;161�;07,6nds;05,8m;-0,01nds;1013,47000hPa;0,00�C(N);22,80�C;---;31/05/2020;00:11:56;0,01nds;070�;0,00nds;000�;0,22�;5,21m;99%;+;non;ind�termin�e;;;;-;;;;;;;;;;;;;;;;;;;;;
30/05/2020;22:11:57;46�08,565 N;001�10,070 W;0,00nds;195�;0,01nds;250�;049�;156�;08,2nds;159�;07,9nds;05,8m;-0,01nds;1013,47000hPa;0,00�C(N);22,80�C;---;31/05/2020;00:11:57;0,01nds;070�;0,00nds;000�;0,22�;5,21m;99%;+;non;ind�termin�e;;;;-;;;;;;;;;;;;;;;;;;;;;
30/05/2020;22:11:58;46�08,565 N;001�10,070 W;0,00nds;186�;0,01nds;250�;046�;157�;08,6nds;156�;08,1nds;05,7m;-0,01nds;1013,47000hPa;0,00�C(N);22,80�C;---;31/05/2020;00:11:58;0,01nds;070�;0,00nds;000�;0,22�;5,21m;99%;+;non;ind�termin�e;;;;-;;;;;;;;;;;;;;;;;;;;;
30/05/2020;22:11:59;46�08,565 N;001�10,070 W;0,00nds;140�;0,01nds;250�;049�;157�;08,3nds;159�;08,5nds;05,7m;-0,01nds;1013,46000hPa;0,00�C(N);22,80�C;---;31/05/2020;00:11:59;0,01nds;070�;0,00nds;000�;0,22�;5,21m;99%;+;non;ind�termin�e;;;;-;;;;;;;;;;;;;;;;;;;;;
30/05/2020;22:12:00;46�08,565 N;001�10,070 W;0,00nds;074�;0,01nds;250�;047�;153�;08,2nds;157�;08,3nds;05,7m;-0,01nds;1013,47000hPa;0,00�C(N);22,80�C;---;31/05/2020;00:12:00;0,01nds;070�;0,00nds;000�;0,22�;5,21m;99%;+;non;ind�termin�e;;;;-;;;;;;;;;;;;;;;;;;;;;
30/05/2020;22:12:01;46�08,565 N;001�10,070 W;0,00nds;111�;0,01nds;251�;043�;147�;08,1nds;153�;08,1nds;05,7m;-0,01nds;1013,47000hPa;0,00�C(N);22,80�C;---;31/05/2020;00:12:01;0,01nds;071�;0,00nds;000�;0,22�;5,21m;99%;+;non;ind�termin�e;;;;-;;;;;;;;;;;;;;;;;;;;;
30/05/2020;22:12:02;46�08,565 N;001�10,070 W;0,00nds;091�;0,01nds;251�;038�;150�;08,2nds;147�;08,3nds;05,7m;-0,01nds;1013,47000hPa;0,00�C(N);22,80�C;---;31/05/2020;00:12:02;0,01nds;071�;0,00nds;000�;0,22�;5,21m;99%;+;non;ind�termin�e;;;;-;;;;;;;;;;;;;;;;;;;;;
30/05/2020;22:12:03;46�08,565 N;001�10,070 W;0,00nds;054�;0,01nds;251�;041�;156�;07,7nds;150�;08,3nds;05,7m;-0,01nds;1013,47000hPa;0,00�C(N);22,80�C;---;31/05/2020;00:12:03;0,01nds;071�;0,00nds;000�;0,22�;5,21m;99%;+;non;ind�termin�e;;;;-;;;;;;;;;;;;;;;;;;;;;
30/05/2020;22:12:04;46�08,565 N;001�10,070 W;0,00nds;098�;0,01nds;251�;050�;159�;07,2nds;159�;07,1nds;05,7m;-0,01nds;1013,47000hPa;0,00�C(N);22,80�C;---;31/05/2020;00:12:04;0,01nds;071�;0,00nds;000�;0,22�;5,21m;99%;+;non;ind�termin�e;;;;-;;;;;;;;;;;;;;;;;;;;;
30/05/2020;22:12:05;46�08,565 N;001�10,070 W;0,00nds;014�;0,01nds;251�;052�;159�;06,8nds;161�;06,8nds;05,8m;-0,01nds;1013,47000hPa;0,00�C(N);22,80�C;---;31/05/2020;00:12:05;0,01nds;071�;0,00nds;000�;0,22�;5,21m;99%;+;non;ind�termin�e;;;;-;;;;;;;;;;;;;;;;;;;;;
30/05/2020;22:12:06;46�08,565 N;001�10,070 W;0,00nds;016�;0,00nds;251�;052�;159�;06,6nds;161�;06,8nds;05,7m;-0,00nds;1013,47000hPa;0,00�C(N);22,80�C;---;31/05/2020;00:12:06;0,00nds;016�;0,00nds;000�;0,22�;5,21m;99%;+;non;ind�termin�e;;;;-;;;;;;;;;;;;;;;;;;;;;
30/05/2020;22:12:07;46�08,565 N;001�10,070 W;0,00nds;342�;0,00nds;251�;049�;159�;06,5nds;158�;06,5nds;05,7m;-0,00nds;1013,47000hPa;0,00�C(N);22,80�C;---;31/05/2020;00:12:07;0,00nds;342�;0,00nds;000�;0,22�;5,21m;99%;+;non;ind�termin�e;;;;-;;;;;;;;;;;;;;;;;;;;;
30/05/2020;22:12:08;46�08,565 N;001�10,070 W;0,00nds;015�;0,00nds;250�;050�;162�;06,3nds;159�;06,5nds;05,7m;-0,00nds;1013,47000hPa;0,00�C(N);22,80�C;---;31/05/2020;00:12:08;0,00nds;015�;0,00nds;000�;0,22�;5,21m;99%;+;non;ind�termin�e;;;;-;;;;;;;;;;;;;;;;;;;;;
30/05/2020;22:12:09;46�08,565 N;001�10,070 W;0,00nds;032�;0,00nds;250�;052�;165�;06,2nds;162�;06,3nds;05,7m;-0,00nds;1013,47000hPa;0,00�C(N);22,80�C;---;31/05/2020;00:12:09;0,00nds;032�;0,00nds;000�;0,22�;5,21m;99%;+;non;ind�termin�e;;;;-;;;;;;;;;;;;;;;;;;;;;
30/05/2020;22:12:10;46�08,565 N;001�10,070 W;0,00nds;079�;0,01nds;251�;056�;167�;06,5nds;166�;06,1nds;05,9m;-0,01nds;1013,47000hPa;0,00�C(N);22,80�C;---;31/05/2020;00:12:10;0,01nds;071�;0,00nds;000�;0,22�;5,21m;99%;+;non;ind�termin�e;;;;-;;;;;;;;;;;;;;;;;;;;;
30/05/2020;22:12:11;46�08,565 N;001�10,070 W;0,00nds;077�;0,01nds;251�;058�;167�;06,5nds;167�;06,5nds;05,7m;-0,01nds;1013,47000hPa;0,00�C(N);22,80�C;---;31/05/2020;00:12:11;0,01nds;071�;0,00nds;000�;0,22�;5,21m;99%;+;non;ind�termin�e;;;;-;;;;;;;;;;;;;;;;;;;;;
30/05/2020;22:12:12;46�08,565 N;001�10,070 W;0,00nds;062�;0,01nds;251�;054�;163�;06,4nds;163�;06,4nds;05,7m;-0,01nds;1013,46000hPa;0,00�C(N);22,80�C;---;31/05/2020;00:12:12;0,01nds;071�;0,00nds;000�;0,22�;5,21m;99%;+;non;ind�termin�e;;;;-;;;;;;;;;;;;;;;;;;;;;
30/05/2020;22:12:13;46�08,565 N;001�10,070 W;0,00nds;068�;0,01nds;251�;053�;160�;06,8nds;162�;06,5nds;05,7m;-0,01nds;1013,47000hPa;0,00�C(N);22,80�C;---;31/05/2020;00:12:13;0,01nds;071�;0,00nds;000�;0,22�;5,21m;99%;+;non;ind�termin�e;;;;-;;;;;;;;;;;;;;;;;;;;;
30/05/2020;22:12:14;46�08,565 N;001�10,070 W;0,00nds;074�;0,01nds;251�;053�;161�;06,9nds;162�;06,5nds;05,7m;-0,01nds;1013,47000hPa;0,00�C(N);22,80�C;---;31/05/2020;00:12:14;0,01nds;071�;0,00nds;000�;0,22�;5,21m;99%;+;non;ind�termin�e;;;;-;;;;;;;;;;;;;;;;;;;;;
30/05/2020;22:12:15;46�08,565 N;001�10,070 W;0,00nds;006�;0,01nds;251�;049�;157�;07,7nds;158�;07,1nds;05,7m;-0,01nds;1013,47000hPa;0,00�C(N);22,80�C;---;31/05/2020;00:12:15;0,01nds;071�;0,00nds;000�;0,22�;5,21m;99%;+;non;ind�termin�e;;;;-;;;;;;;;;;;;;;;;;;;;;
30/05/2020;22:12:16;46�08,565 N;001�10,070 W;0,00nds;334�;0,01nds;251�;048�;160�;08,2nds;157�;07,6nds;05,8m;-0,01nds;1013,47000hPa;0,00�C(N);22,80�C;---;31/05/2020;00:12:16;0,01nds;071�;0,00nds;000�;0,22�;5,21m;99%;+;non;ind�termin�e;;;;-;;;;;;;;;;;;;;;;;;;;;
30/05/2020;22:12:17;46�08,565 N;001�10,070 W;0,00nds;290�;0,01nds;251�;051�;166�;08,4nds;160�;08,1nds;05,8m;-0,01nds;1013,47000hPa;0,00�C(N);22,80�C;---;31/05/2020;00:12:17;0,01nds;071�;0,00nds;000�;0,22�;5,21m;99%;+;non;ind�termin�e;;;;-;;;;;;;;;;;;;;;;;;;;;
30/05/2020;22:12:18;46�08,565 N;001�10,070 W;0,00nds;308�;0,01nds;251�;062�;173�;07,5nds;171�;07,9nds;05,7m;-0,01nds;1013,47000hPa;0,00�C(N);22,80�C;---;31/05/2020;00:12:18;0,01nds;071�;0,00nds;000�;0,22�;5,21m;99%;+;non;ind�termin�e;;;;-;;;;;;;;;;;;;;;;;;;;;
30/05/2020;22:12:19;46�08,565 N;001�10,070 W;0,00nds;331�;0,01nds;251�;064�;174�;07,4nds;173�;07,5nds;05,7m;-0,01nds;1013,47000hPa;0,00�C(N);22,80�C;---;31/05/2020;00:12:19;0,01nds;071�;0,00nds;000�;0,22�;5,21m;99%;+;non;ind�termin�e;;;;-;;;;;;;;;;;;;;;;;;;;;
30/05/2020;22:12:20;46�08,565 N;001�10,070 W;0,00nds;303�;0,01nds;251�;064�;173�;07,3nds;173�;07,3nds;05,7m;-0,01nds;1013,47000hPa;0,00�C(N);22,80�C;---;31/05/2020;00:12:20;0,01nds;071�;0,00nds;000�;0,22�;5,21m;99%;+;non;ind�termin�e;;;;-;;;;;;;;;;;;;;;;;;;;;
30/05/2020;22:12:21;46�08,565 N;001�10,070 W;0,00nds;338�;0,01nds;250�;063�;173�;07,1nds;173�;07,3nds;05,9m;-0,01nds;1013,47000hPa;0,00�C(N);22,80�C;---;31/05/2020;00:12:21;0,01nds;070�;0,00nds;000�;0,22�;5,21m;99%;+;non;ind�termin�e;;;;-;;;;;;;;;;;;;;;;;;;;;
30/05/2020;22:12:22;46�08,565 N;001�10,070 W;0,00nds;336�;0,01nds;251�;063�;173�;06,8nds;173�;07,3nds;05,9m;-0,01nds;1013,47000hPa;0,00�C(N);22,80�C;---;31/05/2020;00:12:22;0,01nds;071�;0,00nds;000�;0,22�;5,21m;99%;+;non;ind�termin�e;;;;-;;;;;;;;;;;;;;;;;;;;;
30/05/2020;22:12:23;46�08,565 N;001�10,070 W;0,00nds;294�;0,01nds;251�;065�;174�;06,4nds;174�;06,5nds;05,9m;-0,01nds;1013,47000hPa;0,00�C(N);22,80�C;---;31/05/2020;00:12:23;0,01nds;071�;0,00nds;000�;0,22�;5,21m;99%;+;non;ind�termin�e;;;;-;;;;;;;;;;;;;;;;;;;;;
30/05/2020;22:12:24;46�08,565 N;001�10,070 W;0,00nds;288�;0,01nds;251�;065�;173�;06,5nds;174�;06,4nds;05,9m;-0,01nds;1013,47000hPa;0,00�C(N);22,80�C;---;31/05/2020;00:12:24;0,01nds;071�;0,00nds;000�;0,22�;5,21m;99%;+;non;ind�termin�e;;;;-;;;;;;;;;;;;;;;;;;;;;
30/05/2020;22:12:25;46�08,565 N;001�10,070 W;0,00nds;287�;0,01nds;251�;064�;171�;06,6nds;173�;06,5nds;05,7m;-0,01nds;1013,47000hPa;0,00�C(N);22,80�C;---;31/05/2020;00:12:25;0,01nds;071�;0,00nds;000�;0,22�;5,21m;99%;+;non;ind�termin�e;;;;-;;;;;;;;;;;;;;;;;;;;;
30/05/2020;22:12:26;46�08,565 N;001�10,070 W;0,00nds;316�;0,01nds;251�;059�;165�;06,7nds;168�;06,5nds;05,7m;-0,01nds;1013,47000hPa;0,00�C(N);22,80�C;---;31/05/2020;00:12:26;0,01nds;071�;0,00nds;000�;0,22�;5,21m;99%;+;non;ind�termin�e;;;;-;;;;;;;;;;;;;;;;;;;;;
30/05/2020;22:12:27;46�08,565 N;001�10,070 W;0,00nds;340�;0,01nds;251�;056�;164�;06,5nds;165�;06,6nds;05,7m;-0,01nds;1013,47000hPa;0,00�C(N);22,80�C;---;31/05/2020;00:12:27;0,01nds;071�;0,00nds;000�;0,22�;5,21m;99%;+;non;ind�termin�e;;;;-;;;;;;;;;;;;;;;;;;;;;
30/05/2020;22:12:28;46�08,565 N;001�10,070 W;0,00nds;336�;0,01nds;251�;055�;166�;06,7nds;164�;06,6nds;05,7m;-0,01nds;1013,47000hPa;0,00�C(N);22,80�C;---;31/05/2020;00:12:28;0,01nds;071�;0,00nds;000�;0,22�;5,21m;99%;+;non;ind�termin�e;;;;-;;;;;;;;;;;;;;;;;;;;;
30/05/2020;22:12:29;46�08,565 N;001�10,070 W;0,00nds;033�;0,01nds;251�;060�;171�;07,5nds;169�;07,0nds;05,9m;-0,01nds;1013,47000hPa;0,00�C(N);22,80�C;---;31/05/2020;00:12:29;0,01nds;071�;0,00nds;000�;0,22�;5,21m;99%;+;non;ind�termin�e;;;;-;;;;;;;;;;;;;;;;;;;;;
30/05/2020;22:12:30;46�08,565 N;001�10,070 W;0,00nds;064�;0,01nds;251�;060�;172�;07,7nds;169�;07,0nds;05,8m;-0,01nds;1013,47000hPa;0,00�C(N);22,80�C;---;31/05/2020;00:12:30;0,01nds;071�;0,00nds;266�;0,22�;5,21m;99%;+;non;ind�termin�e;;;;-;;;;;;;;;;;;;;;;;;;;;
30/05/2020;22:12:31;46�08,565 N;001�10,070 W;0,00nds;042�;0,01nds;251�;065�;174�;07,9nds;174�;07,8nds;05,7m;-0,01nds;1013,47000hPa;0,00�C(N);22,80�C;---;31/05/2020;00:12:31;0,01nds;071�;0,00nds;266�;0,22�;5,21m;99%;+;non;ind�termin�e;;;;-;;;;;;;;;;;;;;;;;;;;;
30/05/2020;22:12:32;46�08,565 N;001�10,070 W;0,00nds;049�;0,00nds;251�;064�;172�;08,3nds;173�;08,1nds;05,7m;-0,00nds;1013,47000hPa;0,00�C(N);22,80�C;---;31/05/2020;00:12:32;0,00nds;049�;0,00nds;266�;0,22�;5,21m;99%;+;non;ind�termin�e;;;;-;;;;;;;;;;;;;;;;;;;;;
30/05/2020;22:12:33;46�08,565 N;001�10,070 W;0,00nds;076�;0,00nds;251�;064�;170�;08,3nds;173�;08,1nds;05,7m;-0,00nds;1013,47000hPa;0,00�C(N);22,80�C;---;31/05/2020;00:12:33;0,00nds;076�;0,00nds;266�;0,22�;5,21m;99%;+;non;ind�termin�e;;;;-;;;;;;;;;;;;;;;;;;;;;
30/05/2020;22:12:34;46�08,565 N;001�10,070 W;0,00nds;012�;0,00nds;251�;058�;168�;08,4nds;167�;08,0nds;05,7m;-0,00nds;1013,46000hPa;0,00�C(N);22,80�C;---;31/05/2020;00:12:34;0,00nds;012�;0,00nds;266�;0,22�;5,21m;99%;+;non;ind�termin�e;;;;-;;;;;;;;;;;;;;;;;;;;;
30/05/2020;22:12:35;46�08,565 N;001�10,070 W;0,00nds;051�;0,00nds;251�;059�;172�;08,8nds;168�;08,3nds;05,7m;-0,00nds;1013,46000hPa;0,00�C(N);22,80�C;---;31/05/2020;00:12:35;0,00nds;051�;0,00nds;266�;0,22�;5,21m;99%;+;non;ind�termin�e;;;;-;;;;;;;;;;;;;;;;;;;;;
30/05/2020;22:12:36;46�08,565 N;001�10,070 W;0,00nds;070�;0,00nds;251�;063�;174�;08,8nds;172�;08,8nds;05,7m;-0,00nds;1013,45000hPa;0,00�C(N);22,80�C;---;31/05/2020;00:12:36;0,00nds;070�;0,00nds;266�;0,22�;5,21m;99%;+;non;ind�termin�e;;;;-;;;;;;;;;;;;;;;;;;;;;
30/05/2020;22:12:37;46�08,565 N;001�10,070 W;0,00nds;074�;0,00nds;250�;064�;171�;08,5nds;173�;08,6nds;05,7m;-0,00nds;1013,46000hPa;0,00�C(N);22,80�C;---;31/05/2020;00:12:37;0,00nds;074�;0,00nds;266�;0,22�;5,21m;99%;+;non;ind�termin�e;;;;-;;;;;;;;;;;;;;;;;;;;;
30/05/2020;22:12:38;46�08,565 N;001�10,070 W;0,00nds;066�;0,00nds;250�;061�;169�;08,4nds;171�;08,5nds;05,7m;-0,00nds;1013,46000hPa;0,00�C(N);22,80�C;---;31/05/2020;00:12:38;0,00nds;066�;0,00nds;266�;0,22�;5,21m;99%;+;non;ind�termin�e;;;;-;;;;;;;;;;;;;;;;;;;;;
30/05/2020;22:12:39;46�08,565 N;001�10,070 W;0,00nds;102�;0,00nds;250�;057�;167�;08,3nds;167�;08,3nds;05,7m;-0,00nds;1013,46000hPa;0,00�C(N);22,80�C;---;31/05/2020;00:12:39;0,00nds;102�;0,00nds;266�;0,22�;5,22m;99%;+;non;ind�termin�e;;;;-;;;;;;;;;;;;;;;;;;;;;
30/05/2020;22:12:40;46�08,565 N;001�10,070 W;0,00nds;130�;0,01nds;251�;057�;166�;08,2nds;166�;08,3nds;05,7m;-0,01nds;1013,46000hPa;0,00�C(N);22,80�C;---;31/05/2020;00:12:40;0,01nds;071�;0,00nds;266�;0,22�;5,22m;99%;+;non;ind�termin�e;;;;-;;;;;;;;;;;;;;;;;;;;;
30/05/2020;22:12:41;46�08,565 N;001�10,070 W;0,00nds;124�;0,01nds;251�;057�;164�;07,8nds;166�;08,3nds;05,7m;-0,01nds;1013,46000hPa;0,00�C(N);22,80�C;---;31/05/2020;00:12:41;0,01nds;071�;0,00nds;266�;0,22�;5,22m;99%;+;non;ind�termin�e;;;;-;;;;;;;;;;;;;;;;;;;;;
30/05/2020;22:12:42;46�08,565 N;001�10,070 W;0,00nds;099�;0,01nds;251�;056�;164�;07,0nds;165�;07,3nds;05,7m;-0,01nds;1013,47000hPa;0,00�C(N);22,80�C;---;31/05/2020;00:12:42;0,01nds;071�;0,00nds;266�;0,22�;5,22m;99%;+;non;ind�termin�e;;;;-;;;;;;;;;;;;;;;;;;;;;
30/05/2020;22:12:43;46�08,565 N;001�10,070 W;0,00nds;003�;0,01nds;251�;055�;157�;06,7nds;164�;07,0nds;05,7m;-0,01nds;1013,47000hPa;0,00�C(N);22,80�C;---;31/05/2020;00:12:43;0,01nds;071�;0,00nds;266�;0,22�;5,22m;99%;+;non;ind�termin�e;;;;-;;;;;;;;;;;;;;;;;;;;;
30/05/2020;22:12:44;46�08,565 N;001�10,070 W;0,00nds;001�;0,01nds;251�;048�;157�;06,8nds;157�;06,7nds;05,7m;-0,01nds;1013,46000hPa;0,00�C(N);22,80�C;---;31/05/2020;00:12:44;0,01nds;071�;0,00nds;266�;0,22�;5,22m;99%;+;non;ind�termin�e;;;;-;;;;;;;;;;;;;;;;;;;;;
30/05/2020;22:12:45;46�08,565 N;001�10,070 W;0,00nds;328�;0,01nds;251�;054�;166�;06,9nds;163�;06,8nds;05,7m;-0,01nds;1013,46000hPa;0,00�C(N);22,80�C;---;31/05/2020;00:12:45;0,01nds;071�;0,00nds;266�;0,22�;5,22m;99%;+;non;ind�termin�e;;;;-;;;;;;;;;;;;;;;;;;;;;
30/05/2020;22:12:46;46�08,565 N;001�10,070 W;0,00nds;314�;0,01nds;251�;057�;171�;06,9nds;166�;06,9nds;05,7m;-0,01nds;1013,46000hPa;0,00�C(N);22,80�C;---;31/05/2020;00:12:46;0,01nds;071�;0,00nds;266�;0,22�;5,22m;99%;+;non;ind�termin�e;;;;-;;;;;;;;;;;;;;;;;;;;;
30/05/2020;22:12:47;46�08,565 N;001�10,070 W;0,00nds;345�;0,02nds;251�;063�;172�;07,0nds;172�;07,0nds;05,7m;-0,02nds;1013,45000hPa;0,00�C(N);22,80�C;---;31/05/2020;00:12:47;0,02nds;071�;0,00nds;266�;0,22�;5,22m;99%;+;non;ind�termin�e;;;;-;;;;;;;;;;;;;;;;;;;;;
30/05/2020;22:12:48;46�08,565 N;001�10,070 W;0,00nds;298�;0,02nds;250�;059�;167�;06,9nds;169�;07,0nds;05,7m;-0,02nds;1013,46000hPa;0,00�C(N);22,80�C;---;31/05/2020;00:12:48;0,02nds;070�;0,00nds;266�;0,22�;5,22m;99%;+;non;ind�termin�e;;;;-;;;;;;;;;;;;;;;;;;;;;
30/05/2020;22:12:49;46�08,565 N;001�10,070 W;0,00nds;306�;0,02nds;250�;059�;164�;07,0nds;169�;07,0nds;05,7m;-0,02nds;1013,46000hPa;0,00�C(N);22,80�C;---;31/05/2020;00:12:49;0,02nds;070�;0,00nds;266�;0,22�;5,22m;99%;+;non;ind�termin�e;;;;-;;;;;;;;;;;;;;;;;;;;;
30/05/2020;22:12:50;46�08,565 N;001�10,070 W;0,00nds;348�;0,01nds;250�;049�;153�;08,3nds;159�;07,5nds;05,7m;-0,01nds;1013,46000hPa;0,00�C(N);22,80�C;---;31/05/2020;00:12:50;0,01nds;070�;0,00nds;266�;0,22�;5,22m;99%;+;non;ind�termin�e;;;;-;;;;;;;;;;;;;;;;;;;;;
30/05/2020;22:12:51;46�08,565 N;001�10,070 W;0,00nds;004�;0,01nds;250�;043�;151�;08,6nds;153�;08,3nds;05,7m;-0,01nds;1013,46000hPa;0,00�C(N);22,80�C;---;31/05/2020;00:12:51;0,01nds;070�;0,00nds;266�;0,22�;5,22m;99%;+;non;ind�termin�e;;;;-;;;;;;;;;;;;;;;;;;;;;
30/05/2020;22:12:52;46�08,565 N;001�10,070 W;0,00nds;027�;0,01nds;250�;041�;154�;08,7nds;151�;08,6nds;05,8m;-0,01nds;1013,46000hPa;0,00�C(N);22,80�C;---;31/05/2020;00:12:52;0,01nds;070�;0,00nds;266�;0,22�;5,22m;99%;+;non;ind�termin�e;;;;-;;;;;;;;;;;;;;;;;;;;;
30/05/2020;22:12:53;46�08,565 N;001�10,070 W;0,00nds;109�;0,01nds;251�;046�;159�;08,3nds;156�;08,7nds;05,7m;-0,01nds;1013,46000hPa;0,00�C(N);22,80�C;---;31/05/2020;00:12:53;0,01nds;071�;0,00nds;266�;0,22�;5,22m;99%;+;non;ind�termin�e;;;;-;;;;;;;;;;;;;;;;;;;;;
30/05/2020;22:12:54;46�08,565 N;001�10,070 W;0,00nds;062�;0,01nds;251�;050�;156�;07,9nds;159�;08,3nds;05,7m;-0,01nds;1013,46000hPa;0,00�C(N);22,80�C;---;31/05/2020;00:12:54;0,01nds;071�;0,00nds;266�;0,22�;5,22m;99%;+;non;ind�termin�e;;;;-;;;;;;;;;;;;;;;;;;;;;
30/05/2020;22:12:55;46�08,565 N;001�10,070 W;0,00nds;034�;0,01nds;251�;050�;159�;07,6nds;159�;07,6nds;05,7m;-0,01nds;1013,47000hPa;0,00�C(N);22,80�C;---;31/05/2020;00:12:55;0,01nds;071�;0,00nds;266�;0,22�;5,22m;99%;+;non;ind�termin�e;;;;-;;;;;;;;;;;;;;;;;;;;;
30/05/2020;22:12:56;46�08,565 N;001�10,070 W;0,00nds;317�;0,01nds;251�;055�;160�;06,8nds;164�;07,1nds;05,7m;-0,01nds;1013,47000hPa;0,00�C(N);22,80�C;---;31/05/2020;00:12:56;0,01nds;071�;0,00nds;266�;0,22�;5,22m;99%;+;non;ind�termin�e;;;;-;;;;;;;;;;;;;;;;;;;;;
30/05/2020;22:12:57;46�08,565 N;001�10,070 W;0,00nds;319�;0,01nds;251�;055�;156�;07,0nds;164�;07,1nds;05,7m;-0,01nds;1013,47000hPa;0,00�C(N);22,80�C;---;31/05/2020;00:12:57;0,01nds;071�;0,00nds;266�;0,22�;5,22m;99%;+;non;ind�termin�e;;;;-;;;;;;;;;;;;;;;;;;;;;
30/05/2020;22:12:58;46�08,565 N;001�10,070 W;0,00nds;347�;0,01nds;250�;044�;154�;07,1nds;154�;07,2nds;05,7m;-0,01nds;1013,47000hPa;0,00�C(N);22,80�C;---;31/05/2020;00:12:58;0,01nds;070�;0,00nds;266�;0,22�;5,22m;99%;+;non;ind�termin�e;;;;-;;;;;;;;;;;;;;;;;;;;;
30/05/2020;22:12:59;46�08,565 N;001�10,070 W;0,00nds;072�;0,01nds;251�;044�;156�;06,8nds;153�;07,1nds;05,7m;-0,01nds;1013,47000hPa;0,00�C(N);22,80�C;---;31/05/2020;00:12:59;0,01nds;071�;0,00nds;266�;0,22�;5,22m;99%;+;non;ind�termin�e;;;;-;;;;;;;;;;;;;;;;;;;;;
30/05/2020;22:13:00;46�08,565 N;001�10,070 W;0,00nds;092�;0,01nds;251�;044�;158�;06,5nds;153�;07,1nds;05,7m;-0,01nds;1013,47000hPa;0,00�C(N);22,80�C;---;31/05/2020;00:13:00;0,01nds;071�;0,00nds;266�;0,22�;5,22m;99%;+;non;ind�termin�e;;;;-;;;;;;;;;;;;;;;;;;;;;
30/05/2020;22:13:01;46�08,565 N;001�10,070 W;0,00nds;126�;0,01nds;251�;051�;165�;06,0nds;161�;06,3nds;05,7m;-0,01nds;1013,47000hPa;0,00�C(N);22,80�C;---;31/05/2020;00:13:01;0,01nds;071�;0,00nds;266�;0,22�;5,22m;99%;+;non;ind�termin�e;;;;-;;;;;;;;;;;;;;;;;;;;;
30/05/2020;22:13:02;46�08,565 N;001�10,070 W;0,00nds;062�;0,01nds;251�;056�;169�;05,9nds;165�;06,0nds;05,7m;-0,01nds;1013,47000hPa;0,00�C(N);22,80�C;---;31/05/2020;00:13:02;0,01nds;071�;0,00nds;266�;0,22�;5,22m;99%;+;non;ind�termin�e;;;;-;;;;;;;;;;;;;;;;;;;;;
30/05/2020;22:13:03;46�08,565 N;001�10,070 W;0,00nds;100�;0,01nds;251�;060�;171�;06,1nds;169�;05,9nds;05,7m;-0,01nds;1013,48000hPa;0,00�C(N);22,80�C;---;31/05/2020;00:13:03;0,01nds;071�;0,00nds;266�;0,22�;5,22m;99%;+;non;ind�termin�e;;;;-;;;;;;;;;;;;;;;;;;;;;
30/05/2020;22:13:04;46�08,565 N;001�10,070 W;0,00nds;104�;0,01nds;251�;063�;174�;06,2nds;172�;06,0nds;05,7m;-0,01nds;1013,48000hPa;0,00�C(N);22,80�C;---;31/05/2020;00:13:04;0,01nds;071�;0,00nds;266�;0,22�;5,22m;99%;+;non;ind�termin�e;;;;-;;;;;;;;;;;;;;;;;;;;;
30/05/2020;22:13:05;46�08,565 N;001�10,070 W;0,00nds;080�;0,01nds;251�;063�;172�;06,1nds;172�;06,0nds;05,7m;-0,01nds;1013,48000hPa;0,00�C(N);22,80�C;---;31/05/2020;00:13:05;0,01nds;071�;0,00nds;266�;0,22�;5,22m;99%;+;non;ind�termin�e;;;;-;;;;;;;;;;;;;;;;;;;;;
30/05/2020;22:13:06;46�08,565 N;001�10,070 W;0,00nds;027�;0,01nds;251�;060�;169�;06,1nds;169�;06,0nds;05,7m;-0,01nds;1013,48000hPa;0,00�C(N);22,80�C;---;31/05/2020;00:13:06;0,01nds;071�;0,00nds;266�;0,22�;5,22m;99%;+;non;ind�termin�e;;;;-;;;;;;;;;;;;;;;;;;;;;
30/05/2020;22:13:07;46�08,565 N;001�10,070 W;0,00nds;024�;0,01nds;251�;060�;169�;06,7nds;169�;06,5nds;05,7m;-0,01nds;1013,48000hPa;0,00�C(N);22,80�C;---;31/05/2020;00:13:07;0,01nds;071�;0,00nds;266�;0,22�;5,22m;99%;+;non;ind�termin�e;;;;-;;;;;;;;;;;;;;;;;;;;;
30/05/2020;22:13:08;46�08,565 N;001�10,070 W;0,00nds;016�;0,01nds;250�;060�;168�;07,0nds;169�;06,5nds;05,7m;-0,01nds;1013,48000hPa;0,00�C(N);22,80�C;---;31/05/2020;00:13:08;0,01nds;070�;0,00nds;266�;0,22�;5,22m;99%;+;non;ind�termin�e;;;;-;;;;;;;;;;;;;;;;;;;;;
30/05/2020;22:13:09;46�08,565 N;001�10,070 W;0,00nds;020�;0,01nds;250�;057�;171�;07,4nds;167�;07,1nds;05,7m;-0,01nds;1013,48000hPa;0,00�C(N);22,80�C;---;31/05/2020;00:13:09;0,01nds;070�;0,00nds;266�;0,22�;5,22m;99%;+;non;ind�termin�e;;;;-;;;;;;;;;;;;;;;;;;;;;
30/05/2020;22:13:10;46�08,565 N;001�10,070 W;0,00nds;071�;0,01nds;250�;061�;173�;08,1nds;171�;07,4nds;05,7m;-0,01nds;1013,48000hPa;0,00�C(N);22,80�C;---;31/05/2020;00:13:10;0,01nds;070�;0,00nds;266�;0,22�;5,22m;99%;+;non;ind�termin�e;;;;-;;;;;;;;;;;;;;;;;;;;;
30/05/2020;22:13:11;46�08,565 N;001�10,070 W;0,00nds;056�;0,01nds;250�;063�;171�;08,7nds;173�;08,1nds;05,7m;-0,01nds;1013,49000hPa;0,00�C(N);22,80�C;---;31/05/2020;00:13:11;0,01nds;070�;0,00nds;266�;0,22�;5,22m;99%;+;non;ind�termin�e;;;;-;;;;;;;;;;;;;;;;;;;;;
30/05/2020;22:13:12;46�08,565 N;001�10,070 W;0,00nds;076�;0,01nds;250�;059�;168�;08,3nds;169�;08,7nds;05,7m;-0,01nds;1013,48000hPa;0,00�C(N);22,80�C;---;31/05/2020;00:13:12;0,01nds;070�;0,00nds;266�;0,22�;5,22m;99%;+;non;ind�termin�e;;;;-;;;;;;;;;;;;;;;;;;;;;
30/05/2020;22:13:13;46�08,565 N;001�10,070 W;0,00nds;080�;0,01nds;250�;058�;168�;07,9nds;168�;08,3nds;05,7m;-0,01nds;1013,48000hPa;0,00�C(N);22,80�C;---;31/05/2020;00:13:13;0,01nds;070�;0,00nds;266�;0,22�;5,22m;99%;+;non;ind�termin�e;;;;-;;;;;;;;;;;;;;;;;;;;;
30/05/2020;22:13:14;46�08,565 N;001�10,070 W;0,00nds;066�;0,01nds;250�;055�;165�;07,5nds;165�;07,5nds;05,7m;-0,01nds;1013,49000hPa;0,00�C(N);22,80�C;---;31/05/2020;00:13:14;0,01nds;070�;0,00nds;266�;0,22�;5,22m;99%;+;non;ind�termin�e;;;;-;;;;;;;;;;;;;;;;;;;;;
30/05/2020;22:13:15;46�08,565 N;001�10,070 W;0,00nds;024�;0,02nds;250�;055�;163�;07,0nds;165�;07,1nds;05,7m;-0,02nds;1013,48000hPa;0,00�C(N);22,80�C;---;31/05/2020;00:13:15;0,02nds;070�;0,00nds;266�;0,22�;5,22m;99%;+;non;ind�termin�e;;;;-;;;;;;;;;;;;;;;;;;;;;
30/05/2020;22:13:16;46�08,565 N;001�10,070 W;0,00nds;067�;0,02nds;250�;055�;161�;07,1nds;165�;07,1nds;05,7m;-0,02nds;1013,48000hPa;0,00�C(N);22,80�C;---;31/05/2020;00:13:16;0,02nds;070�;0,00nds;266�;0,22�;5,22m;99%;+;non;ind�termin�e;;;;-;;;;;;;;;;;;;;;;;;;;;
30/05/2020;22:13:17;46�08,565 N;001�10,070 W;0,00nds;084�;0,01nds;250�;047�;154�;07,7nds;157�;07,4nds;05,7m;-0,01nds;1013,48000hPa;0,00�C(N);22,80�C;---;31/05/2020;00:13:17;0,01nds;070�;0,00nds;266�;0,22�;5,22m;99%;+;non;ind�termin�e;;;;-;;;;;;;;;;;;;;;;;;;;;
30/05/2020;22:13:18;46�08,565 N;001�10,070 W;0,00nds;086�;0,01nds;250�;044�;163�;07,8nds;154�;07,7nds;05,7m;-0,01nds;1013,48000hPa;0,00�C(N);22,80�C;---;31/05/2020;00:13:18;0,01nds;070�;0,00nds;266�;0,22�;5,22m;99%;+;non;ind�termin�e;;;;-;;;;;;;;;;;;;;;;;;;;;
30/05/2020;22:13:19;46�08,565 N;001�10,070 W;0,00nds;091�;0,01nds;250�;053�;166�;08,2nds;163�;07,8nds;05,7m;-0,01nds;1013,48000hPa;0,00�C(N);22,80�C;---;31/05/2020;00:13:19;0,01nds;070�;0,00nds;266�;0,22�;5,22m;99%;+;non;ind�termin�e;;;;-;;;;;;;;;;;;;;;;;;;;;
30/05/2020;22:13:20;46�08,565 N;001�10,070 W;0,00nds;119�;0,01nds;250�;058�;168�;08,8nds;168�;08,7nds;05,7m;-0,01nds;1013,48000hPa;0,00�C(N);22,80�C;---;31/05/2020;00:13:20;0,01nds;070�;0,00nds;266�;0,22�;5,22m;99%;+;non;ind�termin�e;;;;-;;;;;;;;;;;;;;;;;;;;;
30/05/2020;22:13:21;46�08,565 N;001�10,070 W;0,00nds;119�;0,01nds;250�;058�;169�;08,6nds;168�;08,8nds;05,7m;-0,01nds;1013,49000hPa;0,00�C(N);22,80�C;---;31/05/2020;00:13:21;0,01nds;070�;0,00nds;266�;0,22�;5,22m;99%;+;non;ind�termin�e;;;;-;;;;;;;;;;;;;;;;;;;;;
30/05/2020;22:13:22;46�08,565 N;001�10,070 W;0,00nds;121�;0,01nds;251�;064�;173�;08,2nds;173�;08,2nds;05,7m;-0,01nds;1013,49000hPa;0,00�C(N);22,80�C;---;31/05/2020;00:13:22;0,01nds;071�;0,00nds;266�;0,22�;5,22m;99%;+;non;ind�termin�e;;;;-;;;;;;;;;;;;;;;;;;;;;
30/05/2020;22:13:23;46�08,565 N;001�10,070 W;0,00nds;123�;0,01nds;251�;066�;173�;08,3nds;175�;08,1nds;05,7m;-0,01nds;1013,49000hPa;0,00�C(N);22,80�C;---;31/05/2020;00:13:23;0,01nds;071�;0,00nds;266�;0,22�;5,22m;99%;+;non;ind�termin�e;;;;-;;;;;;;;;;;;;;;;;;;;;
30/05/2020;22:13:24;46�08,565 N;001�10,070 W;0,00nds;092�;0,01nds;251�;066�;170�;08,6nds;175�;08,1nds;05,7m;-0,01nds;1013,50000hPa;0,00�C(N);22,80�C;---;31/05/2020;00:13:24;0,01nds;071�;0,00nds;266�;0,22�;5,22m;99%;+;non;ind�termin�e;;;;-;;;;;;;;;;;;;;;;;;;;;
30/05/2020;22:13:25;46�08,565 N;001�10,070 W;0,00nds;061�;0,01nds;251�;057�;162�;08,4nds;166�;08,4nds;05,7m;-0,01nds;1013,50000hPa;0,00�C(N);22,80�C;---;31/05/2020;00:13:25;0,01nds;071�;0,00nds;266�;0,22�;5,22m;99%;+;non;ind�termin�e;;;;-;;;;;;;;;;;;;;;;;;;;;
30/05/2020;22:13:26;46�08,565 N;001�10,070 W;0,00nds;315�;0,01nds;251�;053�;163�;08,6nds;162�;08,4nds;05,7m;-0,01nds;1013,50000hPa;0,00�C(N);22,80�C;---;31/05/2020;00:13:26;0,01nds;071�;0,00nds;266�;0,22�;5,22m;99%;+;non;ind�termin�e;;;;-;;;;;;;;;;;;;;;;;;;;;
30/05/2020;22:13:27;46�08,565 N;001�10,070 W;0,00nds;335�;0,01nds;251�;054�;163�;08,6nds;163�;08,6nds;05,7m;-0,01nds;1013,49000hPa;0,00�C(N);22,80�C;---;31/05/2020;00:13:27;0,01nds;071�;0,00nds;266�;0,22�;5,22m;99%;+;non;ind�termin�e;;;;-;;;;;;;;;;;;;;;;;;;;;
30/05/2020;22:13:28;46�08,565 N;001�10,070 W;0,00nds;355�;0,01nds;251�;055�;162�;07,8nds;164�;08,2nds;05,7m;-0,01nds;1013,49000hPa;0,00�C(N);22,80�C;---;31/05/2020;00:13:28;0,01nds;071�;0,00nds;266�;0,22�;5,22m;99%;+;non;ind�termin�e;;;;-;;;;;;;;;;;;;;;;;;;;;
30/05/2020;22:13:29;46�08,565 N;001�10,070 W;0,00nds;348�;0,01nds;251�;053�;159�;07,8nds;162�;07,8nds;05,7m;-0,01nds;1013,49000hPa;0,00�C(N);22,80�C;---;31/05/2020;00:13:29;0,01nds;071�;0,00nds;266�;0,22�;5,22m;99%;+;non;ind�termin�e;;;;-;;;;;;;;;;;;;;;;;;;;;
30/05/2020;22:13:30;46�08,565 N;001�10,070 W;0,00nds;310�;0,01nds;250�;047�;157�;07,8nds;157�;07,8nds;05,7m;-0,01nds;1013,49000hPa;0,00�C(N);22,80�C;---;31/05/2020;00:13:30;0,01nds;070�;0,00nds;266�;0,22�;5,22m;99%;+;non;ind�termin�e;;;;-;;;;;;;;;;;;;;;;;;;;;
30/05/2020;22:13:31;46�08,565 N;001�10,070 W;0,00nds;328�;0,01nds;250�;047�;157�;07,3nds;157�;07,6nds;05,7m;-0,01nds;1013,49000hPa;0,00�C(N);22,80�C;---;31/05/2020;00:13:31;0,01nds;070�;0,00nds;266�;0,22�;5,22m;99%;+;non;ind�termin�e;;;;-;;;;;;;;;;;;;;;;;;;;;
30/05/2020;22:13:32;46�08,565 N;001�10,070 W;0,00nds;326�;0,01nds;250�;047�;157�;07,4nds;157�;07,6nds;05,7m;-0,01nds;1013,49000hPa;0,00�C(N);22,80�C;---;31/05/2020;00:13:32;0,01nds;070�;0,00nds;266�;0,22�;5,22m;99%;+;non;ind�termin�e;;;;-;;;;;;;;;;;;;;;;;;;;;
30/05/2020;22:13:33;46�08,565 N;001�10,070 W;0,00nds;266�;0,01nds;250�;046�;156�;06,7nds;156�;07,0nds;05,7m;-0,01nds;1013,50000hPa;0,00�C(N);22,80�C;---;31/05/2020;00:13:33;0,01nds;070�;0,00nds;266�;0,22�;5,22m;99%;+;non;ind�termin�e;;;;-;;;;;;;;;;;;;;;;;;;;;
30/05/2020;22:13:34;46�08,565 N;001�10,070 W;0,00nds;015�;0,01nds;251�;047�;164�;06,5nds;157�;06,7nds;05,7m;-0,01nds;1013,00000hPa;0,00�C(N);22,80�C;---;31/05/2020;00:13:34;0,01nds;071�;0,00nds;266�;0,22�;5,22m;99%;+;non;ind�termin�e;;;;-;;;;;;;;;;;;;;;;;;;;;
30/05/2020;22:13:35;46�08,565 N;001�10,070 W;0,00nds;047�;0,01nds;251�;047�;167�;06,6nds;157�;06,5nds;05,7m;-0,01nds;1013,49000hPa;0,00�C(N);22,80�C;---;31/05/2020;00:13:35;0,01nds;071�;0,00nds;266�;0,22�;5,22m;99%;+;non;ind�termin�e;;;;-;;;;;;;;;;;;;;;;;;;;;
30/05/2020;22:13:36;46�08,565 N;001�10,070 W;0,00nds;044�;0,01nds;251�;058�;165�;06,9nds;167�;06,8nds;05,7m;-0,01nds;1013,50000hPa;0,00�C(N);22,80�C;---;31/05/2020;00:13:36;0,01nds;071�;0,00nds;266�;0,22�;5,22m;99%;+;non;ind�termin�e;;;;-;;;;;;;;;;;;;;;;;;;;;
30/05/2020;22:13:37;46�08,565 N;001�10,070 W;0,00nds;045�;0,01nds;251�;056�;164�;06,7nds;165�;06,9nds;05,7m;-0,01nds;1013,51000hPa;0,00�C(N);22,80�C;---;31/05/2020;00:13:37;0,01nds;071�;0,00nds;266�;0,22�;5,22m;99%;+;non;ind�termin�e;;;;-;;;;;;;;;;;;;;;;;;;;;
30/05/2020;22:13:38;46�08,565 N;001�10,070 W;0,00nds;034�;0,01nds;251�;055�;163�;06,9nds;164�;06,7nds;05,7m;-0,01nds;1013,51000hPa;0,00�C(N);22,80�C;---;31/05/2020;00:13:38;0,01nds;071�;0,00nds;266�;0,22�;5,22m;99%;+;non;ind�termin�e;;;;-;;;;;;;;;;;;;;;;;;;;;
30/05/2020;22:13:39;46�08,565 N;001�10,070 W;0,00nds;004�;0,01nds;251�;054�;163�;07,7nds;163�;07,5nds;05,7m;-0,01nds;1013,51000hPa;0,00�C(N);22,80�C;---;31/05/2020;00:13:39;0,01nds;071�;0,00nds;266�;0,22�;5,22m;99%;+;non;ind�termin�e;;;;-;;;;;;;;;;;;;;;;;;;;;
30/05/2020;22:13:40;46�08,565 N;001�10,070 W;0,00nds;358�;0,01nds;251�;054�;163�;07,9nds;163�;07,5nds;05,7m;-0,01nds;1013,50000hPa;0,00�C(N);22,80�C;---;31/05/2020;00:13:40;0,01nds;071�;0,00nds;266�;0,22�;5,22m;99%;+;non;ind�termin�e;;;;-;;;;;;;;;;;;;;;;;;;;;
30/05/2020;22:13:41;46�08,565 N;001�10,070 W;0,00nds;347�;0,01nds;251�;054�;163�;08,0nds;163�;08,0nds;05,7m;-0,01nds;1013,50000hPa;0,00�C(N);22,80�C;---;31/05/2020;00:13:41;0,01nds;071�;0,00nds;266�;0,22�;5,22m;99%;+;non;ind�termin�e;;;;-;;;;;;;;;;;;;;;;;;;;;
30/05/2020;22:13:42;46�08,565 N;001�10,070 W;0,00nds;344�;0,02nds;250�;053�;162�;07,7nds;162�;07,9nds;05,7m;-0,02nds;1013,50000hPa;0,00�C(N);22,80�C;---;31/05/2020;00:13:42;0,02nds;070�;0,00nds;266�;0,22�;5,22m;99%;+;non;ind�termin�e;;;;-;;;;;;;;;;;;;;;;;;;;;
30/05/2020;22:13:43;46�08,565 N;001�10,070 W;0,00nds;018�;0,02nds;250�;053�;162�;07,8nds;162�;07,9nds;05,7m;-0,02nds;1013,50000hPa;0,00�C(N);22,80�C;---;31/05/2020;00:13:43;0,02nds;070�;0,00nds;266�;0,22�;5,22m;99%;+;non;ind�termin�e;;;;-;;;;;;;;;;;;;;;;;;;;;
30/05/2020;22:13:44;46�08,565 N;001�10,070 W;0,00nds;080�;0,02nds;250�;051�;158�;08,5nds;161�;07,9nds;05,7m;-0,02nds;1013,50000hPa;0,00�C(N);22,70�C;---;31/05/2020;00:13:44;0,02nds;070�;0,00nds;266�;0,22�;5,22m;99%;+;non;ind�termin�e;;;;-;;;;;;;;;;;;;;;;;;;;;
30/05/2020;22:13:45;46�08,565 N;001�10,070 W;0,00nds;098�;0,02nds;250�;048�;157�;09,3nds;158�;08,5nds;05,7m;-0,02nds;1013,50000hPa;0,00�C(N);22,70�C;---;31/05/2020;00:13:45;0,02nds;070�;0,00nds;266�;0,22�;5,22m;99%;+;non;ind�termin�e;;;;-;;;;;;;;;;;;;;;;;;;;;
30/05/2020;22:13:46;46�08,565 N;001�10,070 W;0,00nds;127�;0,02nds;250�;047�;154�;09,9nds;157�;09,3nds;05,7m;-0,02nds;1013,51000hPa;0,00�C(N);22,70�C;---;31/05/2020;00:13:46;0,02nds;070�;0,00nds;266�;0,22�;5,22m;99%;+;non;ind�termin�e;;;;-;;;;;;;;;;;;;;;;;;;;;
30/05/2020;22:13:47;46�08,565 N;001�10,070 W;0,00nds;117�;0,02nds;251�;044�;151�;10,1nds;153�;10,1nds;05,7m;-0,02nds;1013,50000hPa;0,00�C(N);22,70�C;---;31/05/2020;00:13:47;0,02nds;071�;0,00nds;266�;0,22�;5,22m;99%;+;non;ind�termin�e;;;;-;;;;;;;;;;;;;;;;;;;;;
30/05/2020;22:13:48;46�08,565 N;001�10,070 W;0,00nds;161�;0,02nds;251�;042�;147�;09,8nds;151�;10,1nds;05,7m;-0,02nds;1013,50000hPa;0,00�C(N);22,70�C;---;31/05/2020;00:13:48;0,02nds;071�;0,00nds;266�;0,22�;5,22m;99%;+;non;ind�termin�e;;;;-;;;;;;;;;;;;;;;;;;;;;
30/05/2020;22:13:49;46�08,565 N;001�10,070 W;0,00nds;090�;0,02nds;251�;039�;148�;09,3nds;148�;09,3nds;05,7m;-0,02nds;1013,49000hPa;0,00�C(N);22,70�C;---;31/05/2020;00:13:49;0,02nds;071�;0,00nds;266�;0,22�;5,22m;99%;+;non;ind�termin�e;;;;-;;;;;;;;;;;;;;;;;;;;;
30/05/2020;22:13:50;46�08,565 N;001�10,070 W;0,00nds;078�;0,02nds;251�;039�;149�;08,2nds;149�;08,8nds;05,7m;-0,02nds;1013,49000hPa;0,00�C(N);22,80�C;---;31/05/2020;00:13:50;0,02nds;071�;0,00nds;266�;0,22�;5,22m;99%;+;non;ind�termin�e;;;;-;;;;;;;;;;;;;;;;;;;;;
30/05/2020;22:13:51;46�08,565 N;001�10,070 W;0,00nds;114�;0,02nds;250�;039�;148�;07,9nds;149�;08,8nds;05,7m;-0,02nds;1013,49000hPa;0,00�C(N);22,80�C;---;31/05/2020;00:13:51;0,02nds;070�;0,00nds;266�;0,22�;5,22m;99%;+;non;ind�termin�e;;;;-;;;;;;;;;;;;;;;;;;;;;
30/05/2020;22:13:52;46�08,565 N;001�10,070 W;0,00nds;112�;0,02nds;250�;043�;154�;08,1nds;153�;08,2nds;05,7m;-0,02nds;1013,49000hPa;0,00�C(N);22,80�C;---;31/05/2020;00:13:52;0,02nds;070�;0,00nds;266�;0,22�;5,22m;99%;+;non;ind�termin�e;;;;-;;;;;;;;;;;;;;;;;;;;;
30/05/2020;22:13:53;46�08,565 N;001�10,070 W;0,00nds;143�;0,02nds;250�;044�;151�;08,3nds;154�;08,1nds;05,7m;-0,02nds;1013,49000hPa;0,00�C(N);22,70�C;---;31/05/2020;00:13:53;0,02nds;070�;0,00nds;266�;0,22�;5,22m;99%;+;non;ind�termin�e;;;;-;;;;;;;;;;;;;;;;;;;;;
30/05/2020;22:13:54;46�08,565 N;001�10,070 W;0,00nds;160�;0,02nds;251�;041�;152�;08,7nds;151�;08,3nds;05,7m;-0,02nds;1013,49000hPa;0,00�C(N);22,70�C;---;31/05/2020;00:13:54;0,02nds;071�;0,00nds;266�;0,22�;5,22m;99%;+;non;ind�termin�e;;;;-;;;;;;;;;;;;;;;;;;;;;
30/05/2020;22:13:55;46�08,565 N;001�10,070 W;0,00nds;173�;0,02nds;250�;042�;153�;08,8nds;152�;08,8nds;05,8m;-0,02nds;1014,00000hPa;0,00�C(N);22,70�C;---;31/05/2020;00:13:55;0,02nds;070�;0,00nds;266�;0,22�;5,22m;99%;+;non;ind�termin�e;;;;-;;;;;;;;;;;;;;;;;;;;;
30/05/2020;22:13:56;46�08,565 N;001�10,070 W;0,00nds;134�;0,02nds;251�;043�;154�;08,5nds;153�;08,8nds;05,7m;-0,02nds;1013,50000hPa;0,00�C(N);22,70�C;---;31/05/2020;00:13:56;0,02nds;071�;0,00nds;266�;0,22�;5,22m;99%;+;non;ind�termin�e;;;;-;;;;;;;;;;;;;;;;;;;;;
30/05/2020;22:13:57;46�08,565 N;001�10,070 W;0,00nds;150�;0,02nds;251�;046�;155�;08,3nds;155�;08,3nds;05,7m;-0,02nds;1013,49000hPa;0,00�C(N);22,70�C;---;31/05/2020;00:13:57;0,02nds;071�;0,00nds;266�;0,22�;5,22m;99%;+;non;ind�termin�e;;;;-;;;;;;;;;;;;;;;;;;;;;
30/05/2020;22:13:58;46�08,565 N;001�10,070 W;0,00nds;062�;0,02nds;251�;047�;156�;08,8nds;156�;08,3nds;05,7m;-0,02nds;1013,50000hPa;0,00�C(N);22,70�C;---;31/05/2020;00:13:58;0,02nds;071�;0,00nds;266�;0,22�;5,22m;99%;+;non;ind�termin�e;;;;-;;;;;;;;;;;;;;;;;;;;;
30/05/2020;22:13:59;46�08,565 N;001�10,070 W;0,00nds;031�;0,02nds;250�;047�;155�;09,4nds;156�;08,3nds;05,7m;-0,02nds;1013,49000hPa;0,00�C(N);22,70�C;---;31/05/2020;00:13:59;0,02nds;070�;0,00nds;266�;0,22�;5,22m;99%;+;non;ind�termin�e;;;;-;;;;;;;;;;;;;;;;;;;;;
30/05/2020;22:14:00;46�08,565 N;001�10,070 W;0,00nds;000�;0,02nds;250�;041�;151�;10,2nds;151�;09,9nds;05,7m;-0,02nds;1013,49000hPa;0,00�C(N);22,70�C;---;31/05/2020;00:14:00;0,02nds;070�;0,00nds;266�;0,22�;5,22m;99%;+;non;ind�termin�e;;;;-;;;;;;;;;;;;;;;;;;;;;
30/05/2020;22:14:01;46�08,565 N;001�10,070 W;0,00nds;342�;0,02nds;250�;041�;151�;10,5nds;151�;10,2nds;05,7m;-0,02nds;1013,49000hPa;0,00�C(N);22,70�C;---;31/05/2020;00:14:01;0,02nds;070�;0,00nds;266�;0,22�;5,22m;99%;+;non;ind�termin�e;;;;-;;;;;;;;;;;;;;;;;;;;;
30/05/2020;22:14:02;46�08,565 N;001�10,070 W;0,00nds;339�;0,02nds;250�;041�;151�;10,5nds;151�;10,5nds;05,7m;-0,02nds;1013,49000hPa;0,00�C(N);22,70�C;---;31/05/2020;00:14:02;0,02nds;070�;0,00nds;266�;0,22�;5,22m;99%;+;non;ind�termin�e;;;;-;;;;;;;;;;;;;;;;;;;;;
30/05/2020;22:14:03;46�08,565 N;001�10,070 W;0,00nds;350�;0,02nds;250�;041�;151�;10,1nds;151�;10,3nds;05,7m;-0,02nds;1013,49000hPa;0,00�C(N);22,70�C;---;31/05/2020;00:14:03;0,02nds;070�;0,00nds;266�;0,22�;5,22m;99%;+;non;ind�termin�e;;;;-;;;;;;;;;;;;;;;;;;;;;
30/05/2020;22:14:04;46�08,565 N;001�10,070 W;0,00nds;031�;0,02nds;250�;041�;153�;09,7nds;151�;10,1nds;05,7m;-0,02nds;1013,49000hPa;0,00�C(N);22,70�C;---;31/05/2020;00:14:04;0,02nds;070�;0,00nds;266�;0,22�;5,22m;99%;+;non;ind�termin�e;;;;-;;;;;;;;;;;;;;;;;;;;;
30/05/2020;22:14:05;46�08,565 N;001�10,070 W;0,00nds;063�;0,02nds;250�;045�;155�;09,0nds;155�;09,0nds;05,7m;-0,02nds;1013,49000hPa;0,00�C(N);22,70�C;---;31/05/2020;00:14:05;0,02nds;070�;0,00nds;266�;0,22�;5,22m;99%;+;non;ind�termin�e;;;;-;;;;;;;;;;;;;;;;;;;;;
30/05/2020;22:14:06;46�08,565 N;001�10,070 W;0,00nds;114�;0,01nds;250�;043�;152�;08,3nds;153�;08,5nds;05,7m;-0,01nds;1013,49000hPa;0,00�C(N);22,70�C;---;31/05/2020;00:14:06;0,01nds;070�;0,00nds;266�;0,22�;5,22m;99%;+;non;ind�termin�e;;;;-;;;;;;;;;;;;;;;;;;;;;
30/05/2020;22:14:07;46�08,565 N;001�10,070 W;0,00nds;134�;0,01nds;250�;043�;154�;08,1nds;153�;08,5nds;05,7m;-0,01nds;1013,50000hPa;0,00�C(N);22,70�C;---;31/05/2020;00:14:07;0,01nds;070�;0,00nds;266�;0,22�;5,22m;99%;+;non;ind�termin�e;;;;-;;;;;;;;;;;;;;;;;;;;;
30/05/2020;22:14:08;46�08,565 N;001�10,070 W;0,10nds;151�;0,01nds;250�;046�;156�;07,7nds;156�;07,7nds;05,7m;-0,01nds;1013,50000hPa;0,00�C(N);22,70�C;---;31/05/2020;00:14:08;0,10nds;145�;0,00nds;266�;0,22�;5,22m;99%;+;non;ind�termin�e;;;;-;;;;;;;;;;;;;;;;;;;;;
30/05/2020;22:14:09;46�08,565 N;001�10,070 W;0,10nds;166�;0,02nds;250�;048�;157�;07,5nds;158�;07,4nds;05,9m;-0,02nds;1013,50000hPa;0,00�C(N);22,70�C;---;31/05/2020;00:14:09;0,10nds;155�;0,00nds;266�;0,22�;5,22m;99%;+;non;ind�termin�e;;;;-;;;;;;;;;;;;;;;;;;;;;
30/05/2020;22:14:10;46�08,565 N;001�10,070 W;0,10nds;173�;0,03nds;251�;048�;155�;07,8nds;158�;07,5nds;05,7m;-0,03nds;1013,50000hPa;0,00�C(N);22,70�C;---;31/05/2020;00:14:10;0,10nds;156�;0,00nds;266�;0,22�;5,22m;99%;+;non;ind�termin�e;;;;-;;;;;;;;;;;;;;;;;;;;;
30/05/2020;22:14:11;46�08,565 N;001�10,070 W;0,10nds;146�;0,03nds;251�;045�;154�;08,0nds;154�;08,0nds;05,7m;-0,03nds;1013,50000hPa;0,00�C(N);22,70�C;---;31/05/2020;00:14:11;0,11nds;131�;0,00nds;266�;0,22�;5,22m;99%;+;non;ind�termin�e;;;;-;;;;;;;;;;;;;;;;;;;;;
30/05/2020;22:14:12;46�08,565 N;001�10,070 W;0,00nds;099�;0,03nds;251�;045�;156�;07,7nds;154�;08,0nds;05,7m;-0,03nds;1013,51000hPa;0,00�C(N);22,70�C;---;31/05/2020;00:14:12;0,03nds;071�;0,00nds;266�;0,22�;5,22m;99%;+;non;ind�termin�e;;;;-;;;;;;;;;;;;;;;;;;;;;
30/05/2020;22:14:13;46�08,565 N;001�10,070 W;0,00nds;066�;0,03nds;251�;045�;164�;07,4nds;154�;08,0nds;05,7m;-0,03nds;1013,51000hPa;0,00�C(N);22,70�C;---;31/05/2020;00:14:13;0,03nds;071�;0,00nds;266�;0,22�;5,22m;99%;+;non;ind�termin�e;;;;-;;;;;;;;;;;;;;;;;;;;;
30/05/2020;22:14:14;46�08,565 N;001�10,070 W;0,00nds;066�;0,03nds;251�;045�;164�;07,4nds;154�;08,0nds;05,7m;-0,03nds;1013,51000hPa;0,00�C(N);22,70�C;---;31/05/2020;00:14:14;0,03nds;071�;0,00nds;266�;0,22�;5,22m;99%;+;non;ind�termin�e;;;;-;;;;;;;;;;;;;;;;;;;;;
30/05/2020;22:14:15;46�08,565 N;001�10,070 W;0,00nds;066�;0,03nds;251�;045�;164�;07,4nds;154�;08,0nds;05,7m;-0,03nds;1013,51000hPa;0,00�C(N);22,70�C;---;31/05/2020;00:14:15;0,03nds;071�;0,00nds;266�;0,22�;5,22m;99%;+;non;ind�termin�e;;;;-;;;;;;;;;;;;;;;;;;;;;
30/05/2020;22:14:16;46�08,565 N;001�10,070 W;0,00nds;066�;0,03nds;251�;045�;164�;07,4nds;154�;08,0nds;05,7m;-0,03nds;1013,51000hPa;0,00�C(N);22,70�C;---;31/05/2020;00:14:16;0,03nds;071�;0,00nds;266�;0,22�;5,22m;99%;+;non;ind�termin�e;;;;-;;;;;;;;;;;;;;;;;;;;;
30/05/2020;22:14:17;46�08,565 N;001�10,070 W;0,00nds;066�;0,03nds;251�;045�;164�;07,4nds;154�;08,0nds;05,7m;-0,03nds;1013,51000hPa;0,00�C(N);22,70�C;---;31/05/2020;00:14:17;0,03nds;071�;0,00nds;266�;0,22�;5,22m;99%;+;non;ind�termin�e;;;;-;;;;;;;;;;;;;;;;;;;;;
30/05/2020;22:14:18;46�08,565 N;001�10,070 W;0,00nds;066�;0,03nds;251�;045�;164�;07,4nds;154�;08,0nds;05,7m;-0,03nds;1013,51000hPa;0,00�C(N);22,70�C(T);---;31/05/2020;00:14:18;0,03nds;071�;0,00nds;266�;0,22�;5,22m;99%;+;non;ind�termin�e;;;;-;;;;;;;;;;;;;;;;;;;;;
30/05/2020;22:14:19;46�08,565 N;001�10,070 W;0,00nds;066�;0,03nds;251�;045�;164�;07,4nds;154�;08,0nds;05,7m;-0,03nds;1013,51000hPa;0,00�C(N);22,70�C(T);---;31/05/2020;00:14:19;0,03nds;071�;0,00nds;266�;0,22�;5,22m;99%;+;non;ind�termin�e;;;;-;;;;;;;;;;;;;;;;;;;;;
30/05/2020;22:14:20;46�08,565 N;001�10,070 W;0,00nds;066�;0,03nds;251�;045�;164�;07,4nds;154�;08,0nds;05,7m(T);-0,03nds;1013,51000hPa;0,00�C(N);22,70�C(T);---;31/05/2020;00:14:20;0,03nds;071�;0,00nds;266�;0,22�;5,22m;99%;+;non;ind�termin�e;;;;-;;;;;;;;;;;;;;;;;;;;;
30/05/2020;22:14:21;46�08,565 N;001�10,070 W(T);0,00nds;066�;0,03nds;251�;045�;164�;07,4nds;164�;08,0nds;05,7m(T);-0,03nds;1013,51000hPa;0,00�C(N);22,70�C(T);---;31/05/2020;00:14:21;0,03nds;071�;0,00nds(C);266�(C);0,22�;5,22m;99%;+;non;ind�termin�e;;;;-;;;;;;;;;;;;;;;;;;;;;
30/05/2020;22:14:22;46�08,565 N;001�10,070 W(T);0,00nds;066�;0,00nds;086�(c);045�;164�;07,4nds;154�(T);08,0nds;05,7m(T);0,00nds(N);1013,51000hPa(T);0,00�C(N);22,70�C(T);---;31/05/2020;00:14:22;0,00nds(T);266�(T);0,00nds(C);266�(C);0,22�;5,22m;99%;+;non;ind�termin�e;;;;-;;;;;;;;;;;;;;;;;;;;;
30/05/2020;22:14:23;46�08,565 N;001�10,070 W(T);0,00nds(T);066�(T);0,00nds;251�(T);045�(T);164�(T);07,4nds(T);154�(T);08,0nds(T);05,7m(T);0,00nds(N);1013,51000hPa(T);0,00�C(N);22,70�C(T);---;31/05/2020;00:14:23;0,00nds(T);071�(T);0,00nds(C);266�(C);0,22�;5,22m;99%;+;non;ind�termin�e;;;;-;;;;;;;;;;;;;;;;;;;;;
30/05/2020;22:14:24;46�08,565 N;001�10,070 W(T);0,00nds(T);066�(T);0,00nds;251�(T);045�(T);164�(T);07,4nds(T);154�(T);08,0nds(T);05,7m(T);0,00nds(N);1013,51000hPa(T);0,00�C(N);22,70�C(T);---;31/05/2020;00:14:24;0,00nds(T);071�(T);0,00nds(C);266�(C);0,22�;5,22m;99%;+;non;ind�termin�e;;;;-;;;;;;;;;;;;;;;;;;;;;
30/05/2020;22:14:25;46�08,565 N;001�10,070 W(T);0,00nds(T);066�(T);0,00nds;251�(T);045�(T);164�(T);07,4nds(T);154�(T);08,0nds(T);05,7m(T);0,00nds(N);1013,51000hPa(T);0,00�C(N);22,70�C(T);---;31/05/2020;00:14:25;0,00nds(T);071�(T);0,00nds(C);266�(C);0,22�;5,22m;99%;+;non;ind�termin�e;;;;-;;;;;;;;;;;;;;;;;;;;;
30/05/2020;22:14:26;46�08,565 N;001�10,070 W(T);0,00nds(T);066�(T);0,00nds;251�(T);045�(T);164�(T);07,4nds(T);154�(T);08,0nds(T);05,7m(T);0,00nds(N);1013,51000hPa(T);0,00�C(N);22,70�C(T);---;31/05/2020;00:14:26;0,00nds(T);071�(T);0,00nds(C);266�(C);0,22�;5,22m;99%;+;non;ind�termin�e;;;;-;;;;;;;;;;;;;;;;;;;;;
30/05/2020;22:14:27;46�08,565 N;001�10,070 W(T);0,00nds(T);066�(T);0,00nds;251�(T);045�(T);164�(T);07,4nds(T);154�(T);08,0nds(T);05,7m(T);0,00nds(N);1013,51000hPa(T);0,00�C(N);22,70�C(T);---;31/05/2020;00:14:27;0,00nds(T);071�(T);0,00nds(C);266�(C);0,22�;5,22m;99%;+;non;ind�termin�e;;;;-;;;;;;;;;;;;;;;;;;;;;
30/05/2020;22:14:28;46�08,565 N;001�10,070 W(T);0,00nds(T);066�(T);0,00nds;251�(T);045�(T);164�(T);07,4nds(T);154�(T);08,0nds(T);05,7m(T);0,00nds(N);1013,51000hPa(T);0,00�C(N);22,70�C(T);---;31/05/2020;00:14:28;0,00nds(T);071�(T);0,00nds(C);266�(C);0,22�;5,22m;99%;+;non;ind�termin�e;;;;-;;;;;;;;;;;;;;;;;;;;;
30/05/2020;22:14:29;46�08,565 N;001�10,070 W(T);0,00nds(T);066�(T);0,00nds;251�(T);045�(T);164�(T);07,4nds(T);154�(T);08,0nds(T);05,7m(T);0,00nds(N);1013,51000hPa(T);0,00�C(N);22,70�C(T);---;31/05/2020;00:14:29;0,00nds(T);071�(T);0,00nds(C);266�(C);0,22�;5,22m;99%;+;non;ind�termin�e;;;;-;;;;;;;;;;;;;;;;;;;;;
30/05/2020;22:14:30;46�08,565 N;001�10,070 W(T);0,00nds(T);066�(T);0,00nds;251�(T);045�(T);164�(T);07,4nds(T);154�(T);08,0nds(T);05,7m(T);0,00nds(N);1013,51000hPa(T);0,00�C(N);22,70�C(T);---;31/05/2020;00:14:30;0,00nds(T);071�(T);0,00nds(C);266�(C);0,22�;5,22m;99%;+;non;ind�termin�e;;;;-;;;;;;;;;;;;;;;;;;;;;
30/05/2020;22:14:31;46�08,565 N;001�10,070 W(T);0,00nds(T);066�(T);0,00nds;251�(T);045�(T);164�(T);07,4nds(T);154�(T);08,0nds(T);05,7m(T);0,00nds(N);1013,51000hPa(T);0,00�C(N);22,70�C(T);---;31/05/2020;00:14:31;0,00nds(T);071�(T);0,00nds(C);266�(C);0,22�;5,22m;99%;+;non;ind�termin�e;;;;-;;;;;;;;;;;;;;;;;;;;;
30/05/2020;22:14:32;46�08,565 N;001�10,070 W(T);0,00nds(T);066�(T);0,00nds;251�(T);045�(T);164�(T);07,4nds(T);154�(T);08,0nds(T);05,7m(T);0,00nds(N);1013,51000hPa(T);0,00�C(N);22,70�C(T);---;31/05/2020;00:14:32;0,00nds(T);071�(T);0,00nds(C);266�(C);0,22�;5,22m;99%;+;non;ind�termin�e;;;;-;;;;;;;;;;;;;;;;;;;;;
30/05/2020;22:14:33;46�08,565 N;001�10,070 W(T);0,00nds(T);066�(T);0,00nds;251�(T);045�(T);164�(T);07,4nds(T);154�(T);08,0nds(T);05,7m(T);0,00nds(N);1013,51000hPa(T);0,00�C(N);22,70�C(T);---;31/05/2020;00:14:33;0,00nds(T);071�(T);0,00nds(C);266�(C);0,22�;5,22m;99%;+;non;ind�termin�e;;;;-;;;;;;;;;;;;;;;;;;;;;
30/05/2020;22:14:34;46�08,565 N;001�10,070 W(T);0,00nds(T);066�(T);0,00nds;251�(T);045�(T);164�(T);07,4nds(T);154�(T);08,0nds(T);05,7m(T);0,00nds(N);1013,51000hPa(T);0,00�C(N);22,70�C(T);---;31/05/2020;00:14:34;0,00nds(T);071�(T);0,00nds(C);266�(C);0,22�;5,22m;99%;+;non;ind�termin�e;;;;-;;;;;;;;;;;;;;;;;;;;;
30/05/2020;22:14:35;46�08,565 N;001�10,070 W(T);0,00nds(T);066�(T);0,00nds;251�(T);045�(T);164�(T);07,4nds(T);154�(T);08,0nds(T);05,7m(T);0,00nds(N);1013,51000hPa(T);0,00�C(N);22,70�C(T);---;31/05/2020;00:14:35;0,00nds(T);071�(T);0,00nds(C);266�(C);0,22�;5,22m;99%;+;non;ind�termin�e;;;;-;;;;;;;;;;;;;;;;;;;;;
30/05/2020;22:14:36;46�08,565 N;001�10,070 W(T);0,00nds(T);066�(T);0,00nds;251�(T);045�(T);164�(T);07,4nds(T);154�(T);08,0nds(T);05,7m(T);0,00nds(N);1013,51000hPa(T);0,00�C(N);22,70�C(T);---;31/05/2020;00:14:36;0,00nds(T);071�(T);0,00nds(C);266�(C);0,22�;5,22m;99%;+;non;ind�termin�e;;;;-;;;;;;;;;;;;;;;;;;;;;
30/05/2020;22:14:37;46�08,565 N;001�10,070 W(T);0,00nds(T);066�(T);0,00nds;251�(T);045�(T);164�(T);07,4nds(T);154�(T);08,0nds(T);05,7m(T);0,00nds(N);1013,51000hPa(T);0,00�C(N);22,70�C(T);---;31/05/2020;00:14:37;0,00nds(T);071�(T);0,00nds(C);266�(C);0,22�;5,22m;99%;+;non;ind�termin�e;;;;-;;;;;;;;;;;;;;;;;;;;;
30/05/2020;22:14:38;46�08,565 N;001�10,070 W(T);0,00nds(T);066�(T);0,00nds;251�(T);045�(T);164�(T);07,4nds(T);154�(T);08,0nds(T);05,7m(T);0,00nds(N);1013,51000hPa(T);0,00�C(N);22,70�C(T);---;31/05/2020;00:14:38;0,00nds(T);071�(T);0,00nds(C);266�(C);0,22�;5,22m;99%;+;non;ind�termin�e;;;;-;;;;;;;;;;;;;;;;;;;;;
30/05/2020;22:14:39;46�08,565 N;001�10,070 W(T);0,00nds(T);066�(T);0,00nds;251�(T);045�(T);164�(T);07,4nds(T);154�(T);08,0nds(T);05,7m(T);0,00nds(N);1013,51000hPa(T);0,00�C(N);22,70�C(T);---;31/05/2020;00:14:39;0,00nds(T);071�(T);0,00nds(C);266�(C);0,22�;5,22m;99%;+;non;ind�termin�e;;;;-;;;;;;;;;;;;;;;;;;;;;
30/05/2020;22:14:40;46�08,565 N;001�10,070 W(T);0,00nds(T);066�(T);0,00nds;251�(T);045�(T);164�(T);07,4nds(T);154�(T);08,0nds(T);05,7m(T);0,00nds(N);1013,51000hPa(T);0,00�C(N);22,70�C(T);---;31/05/2020;00:14:40;0,00nds(T);071�(T);0,00nds(C);266�(C);0,22�;5,22m;99%;+;non;ind�termin�e;;;;-;;;;;;;;;;;;;;;;;;;;;
30/05/2020;22:14:41;46�08,565 N;001�10,070 W(T);0,00nds(T);066�(T);0,00nds;251�(T);045�(T);164�(T);07,4nds(T);154�(T);08,0nds(T);05,7m(T);0,00nds(N);1013,51000hPa(T);0,00�C(N);22,70�C(T);---;31/05/2020;00:14:41;0,00nds(T);071�(T);0,00nds(C);266�(C);0,22�;5,22m;99%;+;non;ind�termin�e;;;;-;;;;;;;;;;;;;;;;;;;;;
30/05/2020;22:14:42;46�08,565 N;001�10,070 W(T);0,00nds(T);066�(T);0,00nds;251�(T);045�(T);164�(T);07,4nds(T);154�(T);08,0nds(T);05,7m(T);0,00nds(N);1013,51000hPa(T);0,00�C(N);22,70�C(T);---;31/05/2020;00:14:42;0,00nds(T);071�(T);0,00nds(C);266�(C);0,22�;5,22m;99%;+;non;ind�termin�e;;;;-;;;;;;;;;;;;;;;;;;;;;
30/05/2020;22:14:43;46�08,565 N;001�10,070 W(T);0,00nds(T);066�(T);0,00nds;251�(T);045�(T);164�(T);07,4nds(T);154�(T);08,0nds(T);05,7m(T);0,00nds(N);1013,51000hPa(T);0,00�C(N);22,70�C(T);---;31/05/2020;00:14:43;0,00nds(T);071�(T);0,00nds(C);266�(C);0,22�;5,22m;99%;+;non;ind�termin�e;;;;-;;;;;;;;;;;;;;;;;;;;;
30/05/2020;22:14:44;46�08,565 N;001�10,070 W(T);0,00nds(T);066�(T);0,00nds;251�(T);045�(T);164�(T);07,4nds(T);154�(T);08,0nds(T);05,7m(T);0,00nds(N);1013,51000hPa(T);0,00�C(N);22,70�C(T);---;31/05/2020;00:14:44;0,00nds(T);071�(T);0,00nds(C);266�(C);0,22�;5,22m;99%;+;non;ind�termin�e;;;;-;;;;;;;;;;;;;;;;;;;;;
30/05/2020;22:14:45;46�08,565 N;001�10,070 W(T);0,00nds(T);066�(T);0,00nds;251�(T);045�(T);164�(T);07,4nds(T);154�(T);08,0nds(T);05,7m(T);0,00nds(N);1013,51000hPa(T);0,00�C(N);22,70�C(T);---;31/05/2020;00:14:45;0,00nds(T);071�(T);0,00nds(C);266�(C);0,22�;5,22m;99%;+;non;ind�termin�e;;;;-;;;;;;;;;;;;;;;;;;;;;
30/05/2020;22:14:46;46�08,565 N;001�10,070 W(T);0,00nds(T);066�(T);0,00nds;251�(T);045�(T);164�(T);07,4nds(T);154�(T);08,0nds(T);05,7m(T);0,00nds(N);1013,51000hPa(T);0,00�C(N);22,70�C(T);---;31/05/2020;00:14:46;0,00nds(T);071�(T);0,00nds(C);266�(C);0,22�;5,22m;99%;+;non;ind�termin�e;;;;-;;;;;;;;;;;;;;;;;;;;;
30/05/2020;22:14:47;46�08,565 N;001�10,070 W(T);0,00nds(T);066�(T);0,00nds;251�(T);045�(T);164�(T);07,4nds(T);154�(T);08,0nds(T);05,7m(T);0,00nds(N);1013,51000hPa(T);0,00�C(N);22,70�C(T);---;31/05/2020;00:14:47;0,00nds(T);071�(T);0,00nds(C);266�(C);0,22�;5,22m;99%;+;non;ind�termin�e;;;;-;;;;;;;;;;;;;;;;;;;;;
30/05/2020;22:14:48;46�08,565 N;001�10,070 W(T);0,00nds(T);066�(T);0,00nds;251�(T);045�(T);164�(T);07,4nds(T);154�(T);08,0nds(T);05,7m(T);0,00nds(N);1013,51000hPa(T);0,00�C(N);22,70�C(T);---;31/05/2020;00:14:48;0,00nds(T);071�(T);0,00nds(C);266�(C);0,22�;5,22m;99%;+;non;ind�termin�e;;;;-;;;;;;;;;;;;;;;;;;;;;
30/05/2020;22:14:49;46�08,565 N;001�10,070 W(T);0,00nds(T);066�(T);0,00nds;251�(T);045�(T);164�(T);07,4nds(T);154�(T);08,0nds(T);05,7m(T);0,00nds(N);1013,51000hPa(T);0,00�C(N);22,70�C(T);---;31/05/2020;00:14:49;0,00nds(T);071�(T);0,00nds(C);266�(C);0,22�;5,22m;99%;+;non;ind�termin�e;;;;-;;;;;;;;;;;;;;;;;;;;;
30/05/2020;22:14:50;46�08,565 N;001�10,070 W(T);0,00nds(T);066�(T);0,00nds;251�(T);045�(T);164�(T);07,4nds(T);154�(T);08,0nds(T);05,7m(T);0,00nds(N);1013,51000hPa(T);0,00�C(N);22,70�C(T);---;31/05/2020;00:14:50;0,00nds(T);071�(T);0,00nds(C);266�(C);0,22�;5,22m;99%;+;non;ind�termin�e;;;;-;;;;;;;;;;;;;;;;;;;;;
30/05/2020;22:14:51;46�08,565 N;001�10,070 W(T);0,00nds(T);066�(T);0,00nds;251�(T);045�(T);164�(T);07,4nds(T);154�(T);08,0nds(T);05,7m(T);0,00nds(N);1013,51000hPa(T);0,00�C(N);22,70�C(T);---;31/05/2020;00:14:51;0,00nds(T);071�(T);0,00nds(C);266�(C);0,22�;5,22m;99%;+;non;ind�termin�e;;;;-;;;;;;;;;;;;;;;;;;;;;
30/05/2020;22:14:52;46�08,565 N;001�10,070 W(T);0,00nds(T);066�(T);0,00nds;251�(T);045�(T);164�(T);07,4nds(T);154�(T);08,0nds(T);05,7m(T);0,00nds(N);1013,51000hPa(T);0,00�C(N);22,70�C(T);---;31/05/2020;00:14:52;0,00nds(T);071�(T);0,00nds(C);266�(C);0,22�;5,22m;99%;+;non;ind�termin�e;;;;-;;;;;;;;;;;;;;;;;;;;;
30/05/2020;22:14:53;46�08,565 N;001�10,070 W(T);0,00nds(T);066�(T);0,00nds;251�(T);045�(T);164�(T);07,4nds(T);154�(T);08,0nds(T);05,7m(T);0,00nds(N);1013,51000hPa(T);0,00�C(N);22,70�C(T);---;31/05/2020;00:14:53;0,00nds(T);066�(T);0,00nds(C);266�(C);0,22�;5,22m;99%;+;non;ind�termin�e;;;;-;;;;;;;;;;;;;;;;;;;;;
30/05/2020;22:14:54;46�08,565 N;001�10,070 W(T);0,00nds(T);066�(T);0,00nds;251�(T);045�(T);164�(T);07,4nds(T);154�(T);08,0nds(T);05,7m(T);0,00nds(N);1013,51000hPa(T);0,00�C(N);22,70�C(T);---;31/05/2020;00:14:54;0,00nds(T);066�(T);0,00nds(C);266�(C);0,22�;5,22m;99%;+;non;ind�termin�e;;;;-;;;;;;;;;;;;;;;;;;;;;
30/05/2020;22:14:55;46�08,565 N;001�10,070 W(T);0,00nds(T);066�(T);0,00nds;251�(T);045�(T);164�(T);07,4nds(T);154�(T);08,0nds(T);05,7m(T);0,00nds(N);1013,51000hPa(T);0,00�C(N);22,70�C(T);---;31/05/2020;00:14:55;0,00nds(T);066�(T);0,00nds(C);266�(C);0,22�;5,22m;99%;+;non;ind�termin�e;;;;-;;;;;;;;;;;;;;;;;;;;;
30/05/2020;22:14:56;46�08,565 N;001�10,070 W(T);0,00nds(T);066�(T);0,00nds;251�(T);045�(T);164�(T);07,4nds(T);154�(T);08,0nds(T);05,7m(T);0,00nds(N);1013,51000hPa(T);0,00�C(N);22,70�C(T);---;31/05/2020;00:14:56;0,00nds(T);066�(T);0,00nds(C);266�(C);0,22�;5,22m;99%;+;non;ind�termin�e;;;;-;;;;;;;;;;;;;;;;;;;;;
30/05/2020;22:14:57;46�08,565 N;001�10,070 W(T);0,00nds(T);066�(T);0,00nds;251�(T);045�(T);164�(T);07,4nds(T);154�(T);08,0nds(T);05,7m(T);0,00nds(N);1013,51000hPa(T);0,00�C(N);22,70�C(T);---;31/05/2020;00:14:57;0,00nds(T);066�(T);0,00nds(C);266�(C);0,22�;5,22m;99%;+;non;ind�termin�e;;;;-;;;;;;;;;;;;;;;;;;;;;
30/05/2020;22:14:58;46�08,565 N;001�10,070 W(T);0,00nds(T);066�(T);0,00nds;251�(T);045�(T);164�(T);07,4nds(T);154�(T);08,0nds(T);05,7m(T);0,00nds(N);1013,51000hPa(T);0,00�C(N);22,70�C(T);---;31/05/2020;00:14:58;0,00nds(T);066�(T);0,00nds(C);266�(C);0,22�;5,22m;99%;+;non;ind�termin�e;;;;-;;;;;;;;;;;;;;;;;;;;;
30/05/2020;22:14:59;46�08,565 N;001�10,070 W(T);0,00nds(T);066�(T);0,00nds;251�(T);045�(T);164�(T);07,4nds(T);154�(T);08,0nds(T);05,7m(T);0,00nds(N);1013,51000hPa(T);0,00�C(N);22,70�C(T);---;31/05/2020;00:14:59;0,00nds(T);066�(T);0,00nds(C);266�(C);0,22�;5,22m;99%;+;non;ind�termin�e;;;;-;;;;;;;;;;;;;;;;;;;;;
30/05/2020;22:15:00;46�08,565 N;001�10,070 W(T);0,00nds(T);066�(T);0,00nds;251�(T);045�(T);164�(T);07,4nds(T);154�(T);08,0nds(T);05,7m(T);0,00nds(N);1013,51000hPa(T);0,00�C(N);22,70�C(T);---;31/05/2020;00:15:00;0,00nds(T);066�(T);0,00nds(C);266�(C);0,22�;5,22m;99%;+;non;ind�termin�e;;;;-;;;;;;;;;;;;;;;;;;;;;
30/05/2020;22:15:01;46�08,565 N;001�10,070 W(T);0,00nds(T);066�(T);0,00nds;251�(T);045�(T);164�(T);07,4nds(T);154�(T);08,0nds(T);05,7m(T);0,00nds(N);1013,51000hPa(T);0,00�C(N);22,70�C(T);---;31/05/2020;00:15:01;0,00nds(T);066�(T);0,00nds(C);266�(C);0,22�;5,22m;99%;+;non;ind�termin�e;;;;-;;;;;;;;;;;;;;;;;;;;;
30/05/2020;22:15:02;46�08,565 N;001�10,070 W(T);0,00nds(T);066�(T);0,00nds;251�(T);045�(T);164�(T);07,4nds(T);154�(T);08,0nds(T);05,7m(T);0,00nds(N);1013,51000hPa(T);0,00�C(N);22,70�C(T);---;31/05/2020;00:15:02;0,00nds(T);066�(T);0,00nds(C);266�(C);0,22�;5,22m;99%;+;non;ind�termin�e;;;;-;;;;;;;;;;;;;;;;;;;;;
30/05/2020;22:15:03;46�08,565 N;001�10,070 W(T);0,00nds(T);066�(T);0,00nds;251�(T);045�(T);164�(T);07,4nds(T);154�(T);08,0nds(T);05,7m(T);0,00nds(N);1013,51000hPa(T);0,00�C(N);22,70�C(T);---;31/05/2020;00:15:03;0,00nds(T);066�(T);0,00nds(C);266�(C);0,22�;5,22m;99%;+;non;ind�termin�e;;;;-;;;;;;;;;;;;;;;;;;;;;
30/05/2020;22:15:04;46�08,565 N;001�10,070 W(T);0,00nds(T);066�(T);0,00nds;251�(T);045�(T);164�(T);07,4nds(T);154�(T);08,0nds(T);05,7m(T);0,00nds(N);1013,51000hPa(T);0,00�C(N);22,70�C(T);---;31/05/2020;00:15:04;0,00nds(T);066�(T);0,00nds(C);266�(C);0,22�;5,22m;99%;+;non;ind�termin�e;;;;-;;;;;;;;;;;;;;;;;;;;;
30/05/2020;22:15:05;46�08,565 N;001�10,070 W(T);0,00nds(T);066�(T);0,00nds;251�(T);045�(T);164�(T);07,4nds(T);154�(T);08,0nds(T);05,7m(T);0,00nds(N);1013,51000hPa(T);0,00�C(N);22,70�C(T);---;31/05/2020;00:15:05;0,00nds(T);066�(T);0,00nds(C);266�(C);0,22�;5,22m;99%;+;non;ind�termin�e;;;;-;;;;;;;;;;;;;;;;;;;;;
30/05/2020;22:15:06;46�08,565 N;001�10,070 W(T);0,00nds(T);066�(T);0,00nds;251�(T);045�(T);164�(T);07,4nds(T);154�(T);08,0nds(T);05,7m(T);0,00nds(N);1013,51000hPa(T);0,00�C(N);22,70�C(T);---;31/05/2020;00:15:06;0,00nds(T);066�(T);0,00nds(C);266�(C);0,22�;5,22m;99%;+;non;ind�termin�e;;;;-;;;;;;;;;;;;;;;;;;;;;
30/05/2020;22:15:07;46�08,565 N;001�10,070 W(T);0,00nds(T);066�(T);0,00nds;251�(T);045�(T);164�(T);07,4nds(T);154�(T);08,0nds(T);05,7m(T);0,00nds(N);1013,51000hPa(T);0,00�C(N);22,70�C(T);---;31/05/2020;00:15:07;0,00nds(T);066�(T);0,00nds(C);266�(C);0,22�;5,22m;99%;+;non;ind�termin�e;;;;-;;;;;;;;;;;;;;;;;;;;;
30/05/2020;22:15:08;46�08,565 N;001�10,070 W(T);0,00nds(T);066�(T);0,00nds;251�(T);045�(T);164�(T);07,4nds(T);154�(T);08,0nds(T);05,7m(T);0,00nds(N);1013,51000hPa(T);0,00�C(N);22,70�C(T);---;31/05/2020;00:15:08;0,00nds(T);066�(T);0,00nds(C);266�(C);0,22�;5,22m;99%;+;non;ind�termin�e;;;;-;;;;;;;;;;;;;;;;;;;;;
30/05/2020;22:15:09;46�08,565 N;001�10,070 W(T);0,00nds(T);066�(T);0,00nds;251�(T);045�(T);164�(T);07,4nds(T);154�(T);08,0nds(T);05,7m(T);0,00nds(N);1013,51000hPa(T);0,00�C(N);22,70�C(T);---;31/05/2020;00:15:09;0,00nds(T);066�(T);0,00nds(C);266�(C);0,22�;5,22m;99%;+;non;ind�termin�e;;;;-;;;;;;;;;;;;;;;;;;;;;
30/05/2020;22:15:10;46�08,565 N;001�10,070 W(T);0,00nds(T);066�(T);0,00nds;251�(T);045�(T);164�(T);07,4nds(T);154�(T);08,0nds(T);05,7m(T);0,00nds(N);1013,51000hPa(T);0,00�C(N);22,70�C(T);---;31/05/2020;00:15:10;0,00nds(T);066�(T);0,00nds(C);266�(C);0,22�;5,22m;99%;+;non;ind�termin�e;;;;-;;;;;;;;;;;;;;;;;;;;;
30/05/2020;22:15:11;46�08,565 N;001�10,070 W(T);0,00nds(T);066�(T);0,00nds;251�(T);045�(T);164�(T);07,4nds(T);154�(T);08,0nds(T);05,7m(T);0,00nds(N);1013,51000hPa(T);0,00�C(N);22,70�C(T);---;31/05/2020;00:15:11;0,00nds(T);066�(T);0,00nds(C);266�(C);0,22�;5,22m;99%;+;non;ind�termin�e;;;;-;;;;;;;;;;;;;;;;;;;;;
30/05/2020;22:15:12;46�08,565 N;001�10,070 W(T);0,00nds(T);066�(T);0,00nds;251�(T);045�(T);164�(T);07,4nds(T);154�(T);08,0nds(T);05,7m(T);0,00nds(N);1013,51000hPa(T);0,00�C(N);22,70�C(T);---;31/05/2020;00:15:12;0,00nds(T);066�(T);0,00nds(C);266�(C);0,22�;5,22m;99%;+;non;ind�termin�e;;;;-;;;;;;;;;;;;;;;;;;;;;
30/05/2020;22:15:13;46�08,565 N;001�10,070 W(T);0,00nds(T);066�(T);0,00nds;251�(T);045�(T);164�(T);07,4nds(T);154�(T);08,0nds(T);05,7m(T);0,00nds(N);1013,51000hPa(T);0,00�C(N);22,70�C(T);---;31/05/2020;00:15:13;0,00nds(T);066�(T);0,00nds(C);266�(C);0,22�;5,22m;99%;+;non;ind�termin�e;;;;-;;;;;;;;;;;;;;;;;;;;;
30/05/2020;22:15:14;46�08,565 N;001�10,070 W(T);0,00nds(T);066�(T);0,00nds;251�(T);045�(T);164�(T);07,4nds(T);154�(T);08,0nds(T);05,7m(T);0,00nds(N);1013,51000hPa(T);0,00�C(N);22,70�C(T);---;31/05/2020;00:15:14;0,00nds(T);066�(T);0,00nds(C);266�(C);0,22�;5,22m;99%;+;non;ind�termin�e;;;;-;;;;;;;;;;;;;;;;;;;;;
30/05/2020;22:15:15;46�08,565 N;001�10,070 W(T);0,00nds(T);066�(T);0,00nds;251�(T);045�(T);164�(T);07,4nds(T);154�(T);08,0nds(T);05,7m(T);0,00nds(N);1013,51000hPa(T);0,00�C(N);22,70�C(T);---;31/05/2020;00:15:15;0,00nds(T);066�(T);0,00nds(C);266�(C);0,22�;5,22m;99%;+;non;ind�termin�e;;;;-;;;;;;;;;;;;;;;;;;;;;
30/05/2020;22:15:16;46�08,565 N;001�10,070 W(T);0,00nds(T);066�(T);0,00nds;251�(T);045�(T);164�(T);07,4nds(T);154�(T);08,0nds(T);05,7m(T);0,00nds(N);1013,51000hPa(T);0,00�C(N);22,70�C(T);---;31/05/2020;00:15:16;0,00nds(T);066�(T);0,00nds(C);266�(C);0,22�;5,22m;99%;+;non;ind�termin�e;;;;-;;;;;;;;;;;;;;;;;;;;;
30/05/2020;22:15:17;46�08,565 N;001�10,070 W(T);0,00nds(T);066�(T);0,00nds;251�(T);045�(T);164�(T);07,4nds(T);154�(T);08,0nds(T);05,7m(T);0,00nds(N);1013,51000hPa(T);0,00�C(N);22,70�C(T);---;31/05/2020;00:15:17;0,00nds(T);066�(T);0,00nds(C);266�(C);0,22�;5,22m;99%;+;non;ind�termin�e;;;;-;;;;;;;;;;;;;;;;;;;;;
30/05/2020;22:15:18;46�08,565 N;001�10,070 W(T);0,00nds(T);066�(T);0,00nds;251�(T);045�(T);164�(T);07,4nds(T);154�(T);08,0nds(T);05,7m(T);0,00nds(N);1013,51000hPa(T);0,00�C(N);22,70�C(T);---;31/05/2020;00:15:18;0,00nds(T);066�(T);0,00nds(C);266�(C);0,22�;5,22m;99%;+;non;ind�termin�e;;;;-;;;;;;;;;;;;;;;;;;;;;
30/05/2020;22:15:19;46�08,565 N;001�10,070 W(T);0,00nds(T);066�(T);0,00nds;251�(T);045�(T);164�(T);07,4nds(T);154�(T);08,0nds(T);05,7m(T);0,00nds(N);1013,51000hPa(T);0,00�C(N);22,70�C(T);---;31/05/2020;00:15:19;0,00nds(T);066�(T);0,00nds(C);266�(C);0,22�;5,22m;99%;+;non;ind�termin�e;;;;-;;;;;;;;;;;;;;;;;;;;;
30/05/2020;22:15:20;46�08,565 N;001�10,070 W(T);0,00nds(T);066�(T);0,00nds;251�(T);045�(T);164�(T);07,4nds(T);154�(T);08,0nds(T);05,7m(T);0,00nds(N);1013,51000hPa(T);0,00�C(N);22,70�C(T);---;31/05/2020;00:15:20;0,00nds(T);066�(T);0,00nds(C);266�(C);0,22�;5,22m;99%;+;non;ind�termin�e;;;;-;;;;;;;;;;;;;;;;;;;;;
30/05/2020;22:15:21;46�08,565 N;001�10,070 W(T);0,00nds(T);066�(T);0,00nds;251�(T);045�(T);164�(T);07,4nds(T);154�(T);08,0nds(T);05,7m(T);0,00nds(N);1013,51000hPa(T);0,00�C(N);22,70�C(T);---;31/05/2020;00:15:21;0,00nds(T);066�(T);0,00nds(C);266�(C);0,22�;5,22m;99%;+;non;ind�termin�e;;;;-;;;;;;;;;;;;;;;;;;;;;
30/05/2020;22:15:22;46�08,565 N;001�10,070 W(T);0,00nds(T);066�(T);0,00nds;251�(T);045�(T);164�(T);07,4nds(T);154�(T);08,0nds(T);05,7m(T);0,00nds(N);1013,51000hPa(T);0,00�C(N);22,70�C(T);---;31/05/2020;00:15:22;0,00nds(T);066�(T);0,00nds(C);266�(C);0,22�;5,22m;99%;+;non;ind�termin�e;;;;-;;;;;;;;;;;;;;;;;;;;;
30/05/2020;22:15:23;46�08,565 N;001�10,070 W(T);0,00nds(T);066�(T);0,00nds;251�(T);045�(T);164�(T);07,4nds(T);154�(T);08,0nds(T);05,7m(T);0,00nds(N);1013,51000hPa(T);0,00�C(N);22,70�C(T);---;31/05/2020;00:15:23;0,00nds(T);066�(T);0,00nds(C);266�(C);0,22�;5,22m;99%;+;non;ind�termin�e;;;;-;;;;;;;;;;;;;;;;;;;;;
30/05/2020;22:15:24;46�08,565 N;001�10,070 W(T);0,00nds(T);066�(T);0,00nds;251�(T);045�(T);164�(T);07,4nds(T);154�(T);08,0nds(T);05,7m(T);0,00nds(N);1013,51000hPa(T);0,00�C(N);22,70�C(T);---;31/05/2020;00:15:24;0,00nds(T);066�(T);0,00nds(C);266�(C);0,22�;5,22m;99%;+;non;ind�termin�e;;;;-;;;;;;;;;;;;;;;;;;;;;
30/05/2020;22:15:25;46�08,565 N;001�10,070 W(T);0,00nds(T);066�(T);0,00nds;251�(T);045�(T);164�(T);07,4nds(T);154�(T);08,0nds(T);05,7m(T);0,00nds(N);1013,51000hPa(T);0,00�C(N);22,70�C(T);---;31/05/2020;00:15:25;0,00nds(T);066�(T);0,00nds(C);266�(C);0,22�;5,22m;99%;+;non;ind�termin�e;;;;-;;;;;;;;;;;;;;;;;;;;;
30/05/2020;22:15:26;46�08,565 N;001�10,070 W(T);0,00nds(T);066�(T);0,00nds;251�(T);045�(T);164�(T);07,4nds(T);154�(T);08,0nds(T);05,7m(T);0,00nds(N);1013,51000hPa(T);0,00�C(N);22,70�C(T);---;31/05/2020;00:15:26;0,00nds(T);066�(T);0,00nds(C);266�(C);0,22�;5,22m;99%;+;non;ind�termin�e;;;;-;;;;;;;;;;;;;;;;;;;;;
30/05/2020;22:15:27;46�08,565 N;001�10,070 W(T);0,00nds(T);066�(T);0,00nds;251�(T);045�(T);164�(T);07,4nds(T);154�(T);08,0nds(T);05,7m(T);0,00nds(N);1013,51000hPa(T);0,00�C(N);22,70�C(T);---;31/05/2020;00:15:27;0,00nds(T);066�(T);0,00nds(C);266�(C);0,22�;5,22m;99%;+;non;ind�termin�e;;;;-;;;;;;;;;;;;;;;;;;;;;
30/05/2020;22:15:28;46�08,565 N;001�10,070 W(T);0,00nds(T);066�(T);0,00nds;251�(T);045�(T);164�(T);07,4nds(T);154�(T);08,0nds(T);05,7m(T);0,00nds(N);1013,51000hPa(T);0,00�C(N);22,70�C(T);---;31/05/2020;00:15:28;0,00nds(T);066�(T);0,00nds(C);266�(C);0,22�;5,22m;99%;+;non;ind�termin�e;;;;-;;;;;;;;;;;;;;;;;;;;;
30/05/2020;22:15:29;46�08,565 N;001�10,070 W(T);0,00nds(T);066�(T);0,00nds;251�(T);045�(T);164�(T);07,4nds(T);154�(T);08,0nds(T);05,7m(T);0,00nds(N);1013,51000hPa(T);0,00�C(N);22,70�C(T);---;31/05/2020;00:15:29;0,00nds(T);066�(T);0,00nds(C);266�(C);0,22�;5,22m;99%;+;non;ind�termin�e;;;;-;;;;;;;;;;;;;;;;;;;;;
30/05/2020;22:15:30;46�08,565 N;001�10,070 W(T);0,00nds(T);066�(T);0,00nds;251�(T);045�(T);164�(T);07,4nds(T);154�(T);08,0nds(T);05,7m(T);0,00nds(N);1013,51000hPa(T);0,00�C(N);22,70�C(T);---;31/05/2020;00:15:30;0,00nds(T);066�(T);0,00nds(C);266�(C);0,22�;5,22m;99%;+;non;ind�termin�e;;;;-;;;;;;;;;;;;;;;;;;;;;
30/05/2020;22:15:31;46�08,565 N;001�10,070 W(T);0,00nds(T);066�(T);0,00nds;251�(T);045�(T);164�(T);07,4nds(T);154�(T);08,0nds(T);05,7m(T);0,00nds(N);1013,51000hPa(T);0,00�C(N);22,70�C(T);---;31/05/2020;00:15:31;0,00nds(T);066�(T);0,00nds(C);266�(C);0,22�;5,22m;99%;+;non;ind�termin�e;;;;-;;;;;;;;;;;;;;;;;;;;;
30/05/2020;22:15:32;46�08,565 N;001�10,070 W(T);0,00nds(T);066�(T);0,00nds;251�(T);045�(T);164�(T);07,4nds(T);154�(T);08,0nds(T);05,7m(T);0,00nds(N);1013,51000hPa(T);0,00�C(N);22,70�C(T);---;31/05/2020;00:15:32;0,00nds(T);066�(T);0,00nds(C);266�(C);0,22�;5,22m;99%;+;non;ind�termin�e;;;;-;;;;;;;;;;;;;;;;;;;;;
30/05/2020;22:15:33;46�08,565 N;001�10,070 W(T);0,00nds(T);066�(T);0,00nds;251�(T);045�(T);164�(T);07,4nds(T);154�(T);08,0nds(T);05,7m(T);0,00nds(N);1013,51000hPa(T);0,00�C(N);22,70�C(T);---;31/05/2020;00:15:33;0,00nds(T);066�(T);0,00nds(C);266�(C);0,22�;5,22m;99%;+;non;ind�termin�e;;;;-;;;;;;;;;;;;;;;;;;;;;
30/05/2020;22:15:34;46�08,565 N;001�10,070 W(T);0,00nds(T);066�(T);0,00nds;251�(T);045�(T);164�(T);07,4nds(T);154�(T);08,0nds(T);05,7m(T);0,00nds(N);1013,51000hPa(T);0,00�C(N);22,70�C(T);---;31/05/2020;00:15:34;0,00nds(T);066�(T);0,00nds(C);266�(C);0,22�;5,22m;99%;+;non;ind�termin�e;;;;-;;;;;;;;;;;;;;;;;;;;;
30/05/2020;22:15:35;46�08,565 N;001�10,070 W(T);0,00nds(T);066�(T);0,00nds;251�(T);045�(T);164�(T);07,4nds(T);154�(T);08,0nds(T);05,7m(T);0,00nds(N);1013,51000hPa(T);0,00�C(N);22,70�C(T);---;31/05/2020;00:15:35;0,00nds(T);066�(T);0,00nds(C);266�(C);0,22�;5,22m;99%;+;non;ind�termin�e;;;;-;;;;;;;;;;;;;;;;;;;;;
30/05/2020;22:15:36;46�08,565 N;001�10,070 W(T);0,00nds(T);066�(T);0,00nds;251�(T);045�(T);164�(T);07,4nds(T);154�(T);08,0nds(T);05,7m(T);0,00nds(N);1013,51000hPa(T);0,00�C(N);22,70�C(T);---;31/05/2020;00:15:36;0,00nds(T);066�(T);0,00nds(C);266�(C);0,22�;5,22m;99%;+;non;ind�termin�e;;;;-;;;;;;;;;;;;;;;;;;;;;
30/05/2020;22:15:37;46�08,565 N;001�10,070 W(T);0,00nds(T);066�(T);0,00nds;251�(T);045�(T);164�(T);07,4nds(T);154�(T);08,0nds(T);05,7m(T);0,00nds(N);1013,51000hPa(T);0,00�C(N);22,70�C(T);---;31/05/2020;00:15:37;0,00nds(T);066�(T);0,00nds(C);266�(C);0,22�;5,22m;99%;+;non;ind�termin�e;;;;-;;;;;;;;;;;;;;;;;;;;;
30/05/2020;22:15:38;46�08,565 N;001�10,070 W(T);0,00nds(T);066�(T);0,00nds;251�(T);045�(T);164�(T);07,4nds(T);154�(T);08,0nds(T);05,7m(T);0,00nds(N);1013,51000hPa(T);0,00�C(N);22,70�C(T);---;31/05/2020;00:15:38;0,00nds(T);066�(T);0,00nds(C);266�(C);0,22�;5,22m;99%;+;non;ind�termin�e;;;;-;;;;;;;;;;;;;;;;;;;;;
30/05/2020;22:15:39;46�08,565 N;001�10,070 W(T);0,00nds(T);066�(T);0,00nds;251�(T);045�(T);164�(T);07,4nds(T);154�(T);08,0nds(T);05,7m(T);0,00nds(N);1013,51000hPa(T);0,00�C(N);22,70�C(T);---;31/05/2020;00:15:39;0,00nds(T);066�(T);0,00nds(C);266�(C);0,22�;5,22m;99%;+;non;ind�termin�e;;;;-;;;;;;;;;;;;;;;;;;;;;
30/05/2020;22:15:40;46�08,565 N;001�10,070 W(T);0,00nds(T);066�(T);0,00nds;251�(T);045�(T);164�(T);07,4nds(T);154�(T);08,0nds(T);05,7m(T);0,00nds(N);1013,51000hPa(T);0,00�C(N);22,70�C(T);---;31/05/2020;00:15:40;0,00nds(T);066�(T);0,00nds(C);266�(C);0,22�;5,22m;99%;+;non;ind�termin�e;;;;-;;;;;;;;;;;;;;;;;;;;;
30/05/2020;22:15:41;46�08,565 N;001�10,070 W(T);0,00nds(T);066�(T);0,00nds;251�(T);045�(T);164�(T);07,4nds(T);154�(T);08,0nds(T);05,7m(T);0,00nds(N);1013,51000hPa(T);0,00�C(N);22,70�C(T);---;31/05/2020;00:15:41;0,00nds(T);066�(T);0,00nds(C);266�(C);0,22�;5,22m;99%;+;non;ind�termin�e;;;;-;;;;;;;;;;;;;;;;;;;;;
30/05/2020;22:15:42;46�08,565 N;001�10,070 W(T);0,00nds(T);066�(T);0,00nds;251�(T);045�(T);164�(T);07,4nds(T);154�(T);08,0nds(T);05,7m(T);0,00nds(N);1013,51000hPa(T);0,00�C(N);22,70�C(T);---;31/05/2020;00:15:42;0,00nds(T);066�(T);0,00nds(C);266�(C);0,22�;5,22m;99%;+;non;ind�termin�e;;;;-;;;;;;;;;;;;;;;;;;;;;
30/05/2020;22:15:43;46�08,565 N;001�10,070 W(T);0,00nds(T);066�(T);0,00nds;251�(T);045�(T);164�(T);07,4nds(T);154�(T);08,0nds(T);05,7m(T);0,00nds(N);1013,51000hPa(T);0,00�C(N);22,70�C(T);---;31/05/2020;00:15:43;0,00nds(T);066�(T);0,00nds(C);266�(C);0,22�;5,22m;99%;+;non;ind�termin�e;;;;-;;;;;;;;;;;;;;;;;;;;;
30/05/2020;22:15:44;46�08,565 N;001�10,070 W(T);0,00nds(T);066�(T);0,00nds;251�(T);045�(T);164�(T);07,4nds(T);154�(T);08,0nds(T);05,7m(T);0,00nds(N);1013,51000hPa(T);0,00�C(N);22,70�C(T);---;31/05/2020;00:15:44;0,00nds(T);066�(T);0,00nds(C);266�(C);0,22�;5,22m;99%;+;non;ind�termin�e;;;;-;;;;;;;;;;;;;;;;;;;;;
30/05/2020;22:15:45;46�08,565 N;001�10,070 W(T);0,00nds(T);066�(T);0,00nds;251�(T);045�(T);164�(T);07,4nds(T);154�(T);08,0nds(T);05,7m(T);0,00nds(N);1013,51000hPa(T);0,00�C(N);22,70�C(T);---;31/05/2020;00:15:45;0,00nds(T);066�(T);0,00nds(C);266�(C);0,22�;5,22m;99%;+;non;ind�termin�e;;;;-;;;;;;;;;;;;;;;;;;;;;
30/05/2020;22:15:46;46�08,565 N;001�10,070 W(T);0,00nds(T);066�(T);0,00nds;251�(T);045�(T);164�(T);07,4nds(T);154�(T);08,0nds(T);05,7m(T);0,00nds(N);1013,51000hPa(T);0,00�C(N);22,70�C(T);---;31/05/2020;00:15:46;0,00nds(T);066�(T);0,00nds(C);266�(C);0,22�;5,22m;99%;+;non;ind�termin�e;;;;-;;;;;;;;;;;;;;;;;;;;;
30/05/2020;22:15:47;46�08,565 N;001�10,070 W(T);0,00nds(T);066�(T);0,00nds;251�(T);045�(T);164�(T);07,4nds(T);154�(T);08,0nds(T);05,7m(T);0,00nds(N);1013,51000hPa(T);0,00�C(N);22,70�C(T);---;31/05/2020;00:15:47;0,00nds(T);066�(T);0,00nds(C);266�(C);0,22�;5,22m;99%;+;non;ind�termin�e;;;;-;;;;;;;;;;;;;;;;;;;;;
30/05/2020;22:15:48;46�08,565 N;001�10,070 W(T);0,00nds(T);066�(T);0,00nds;251�(T);045�(T);164�(T);07,4nds(T);154�(T);08,0nds(T);05,7m(T);0,00nds(N);1013,51000hPa(T);0,00�C(N);22,70�C(T);---;31/05/2020;00:15:48;0,00nds(T);066�(T);0,00nds(C);266�(C);0,22�;5,22m;99%;+;non;ind�termin�e;;;;-;;;;;;;;;;;;;;;;;;;;;
30/05/2020;22:15:49;46�08,565 N;001�10,070 W(T);0,00nds(T);066�(T);0,00nds;251�(T);045�(T);164�(T);07,4nds(T);154�(T);08,0nds(T);05,7m(T);0,00nds(N);1013,51000hPa(T);0,00�C(N);22,70�C(T);---;31/05/2020;00:15:49;0,00nds(T);066�(T);0,00nds(C);266�(C);0,22�;5,22m;99%;+;non;ind�termin�e;;;;-;;;;;;;;;;;;;;;;;;;;;
30/05/2020;22:15:50;46�08,565 N;001�10,070 W(T);0,00nds(T);066�(T);0,00nds;251�(T);045�(T);164�(T);07,4nds(T);154�(T);08,0nds(T);05,7m(T);0,00nds(N);1013,51000hPa(T);0,00�C(N);22,70�C(T);---;31/05/2020;00:15:50;0,00nds(T);066�(T);0,00nds(C);266�(C);0,22�;5,22m;99%;+;non;ind�termin�e;;;;-;;;;;;;;;;;;;;;;;;;;;
30/05/2020;22:15:51;46�08,565 N;001�10,070 W(T);0,00nds(T);066�(T);0,00nds;251�(T);045�(T);164�(T);07,4nds(T);154�(T);08,0nds(T);05,7m(T);0,00nds(N);1013,51000hPa(T);0,00�C(N);22,70�C(T);---;31/05/2020;00:15:51;0,00nds(T);066�(T);0,00nds(C);266�(C);0,22�;5,22m;99%;+;non;ind�termin�e;;;;-;;;;;;;;;;;;;;;;;;;;;
30/05/2020;22:15:52;46�08,565 N;001�10,070 W(T);0,00nds(T);066�(T);0,00nds;251�(T);045�(T);164�(T);07,4nds(T);154�(T);08,0nds(T);05,7m(T);0,00nds(N);1013,51000hPa(T);0,00�C(N);22,70�C(T);---;31/05/2020;00:15:52;0,00nds(T);066�(T);0,00nds(C);266�(C);0,22�;5,22m;99%;+;non;ind�termin�e;;;;-;;;;;;;;;;;;;;;;;;;;;
30/05/2020;22:15:53;46�08,565 N;001�10,070 W(T);0,00nds(T);066�(T);0,00nds;251�(T);045�(T);164�(T);07,4nds(T);154�(T);08,0nds(T);05,7m(T);0,00nds(N);1013,51000hPa(T);0,00�C(N);22,70�C(T);---;31/05/2020;00:15:53;0,00nds(T);066�(T);0,00nds(C);266�(C);0,22�;5,22m;99%;+;non;ind�termin�e;;;;-;;;;;;;;;;;;;;;;;;;;;
30/05/2020;22:15:54;46�08,565 N;001�10,070 W(T);0,00nds(T);066�(T);0,00nds;251�(T);045�(T);164�(T);07,4nds(T);154�(T);08,0nds(T);05,7m(T);0,00nds(N);1013,51000hPa(T);0,00�C(N);22,70�C(T);---;31/05/2020;00:15:54;0,00nds(T);066�(T);0,00nds(C);266�(C);0,22�;5,22m;99%;+;non;ind�termin�e;;;;-;;;;;;;;;;;;;;;;;;;;;
30/05/2020;22:15:55;46�08,565 N;001�10,070 W(T);0,00nds(T);066�(T);0,00nds;251�(T);045�(T);164�(T);07,4nds(T);154�(T);08,0nds(T);05,7m(T);0,00nds(N);1013,51000hPa(T);0,00�C(N);22,70�C(T);---;31/05/2020;00:15:55;0,00nds(T);066�(T);0,00nds(C);266�(C);0,22�;5,22m;99%;+;non;ind�termin�e;;;;-;;;;;;;;;;;;;;;;;;;;;
30/05/2020;22:15:56;46�08,565 N;001�10,070 W(T);0,00nds(T);066�(T);0,00nds;251�(T);045�(T);164�(T);07,4nds(T);154�(T);08,0nds(T);05,7m(T);0,00nds(N);1013,51000hPa(T);0,00�C(N);22,70�C(T);---;31/05/2020;00:15:56;0,00nds(T);066�(T);0,00nds(C);266�(C);0,22�;5,22m;99%;+;non;ind�termin�e;;;;-;;;;;;;;;;;;;;;;;;;;;
30/05/2020;22:15:57;46�08,565 N;001�10,070 W(T);0,00nds(T);066�(T);0,00nds;251�(T);045�(T);164�(T);07,4nds(T);154�(T);08,0nds(T);05,7m(T);0,00nds(N);1013,51000hPa(T);0,00�C(N);22,70�C(T);---;31/05/2020;00:15:57;0,00nds(T);066�(T);0,00nds(C);266�(C);0,22�;5,22m;99%;+;non;ind�termin�e;;;;-;;;;;;;;;;;;;;;;;;;;;
30/05/2020;22:15:58;46�08,565 N;001�10,070 W(T);0,00nds(T);066�(T);0,00nds;251�(T);045�(T);164�(T);07,4nds(T);154�(T);08,0nds(T);05,7m(T);0,00nds(N);1013,51000hPa(T);0,00�C(N);22,70�C(T);---;31/05/2020;00:15:58;0,00nds(T);066�(T);0,00nds(C);266�(C);0,22�;5,22m;99%;+;non;ind�termin�e;;;;-;;;;;;;;;;;;;;;;;;;;;
30/05/2020;22:15:59;46�08,565 N;001�10,070 W(T);0,00nds(T);066�(T);0,00nds;251�(T);045�(T);164�(T);07,4nds(T);154�(T);08,0nds(T);05,7m(T);0,00nds(N);1013,51000hPa(T);0,00�C(N);22,70�C(T);---;31/05/2020;00:15:59;0,00nds(T);066�(T);0,00nds(C);266�(C);0,22�;5,22m;99%;+;non;ind�termin�e;;;;-;;;;;;;;;;;;;;;;;;;;;
30/05/2020;22:16:00;46�08,565 N;001�10,070 W(T);0,00nds(T);066�(T);0,00nds;251�(T);045�(T);164�(T);07,4nds(T);154�(T);08,0nds(T);05,7m(T);0,00nds(N);1013,51000hPa(T);0,00�C(N);22,70�C(T);---;31/05/2020;00:16:00;0,00nds(T);066�(T);0,00nds(C);266�(C);0,22�;5,22m;99%;+;non;ind�termin�e;;;;-;;;;;;;;;;;;;;;;;;;;;
30/05/2020;22:16:01;46�08,565 N;001�10,070 W(T);0,00nds(T);066�(T);0,00nds;251�(T);045�(T);164�(T);07,4nds(T);154�(T);08,0nds(T);05,7m(T);0,00nds(N);1013,51000hPa(T);0,00�C(N);22,70�C(T);---;31/05/2020;00:16:01;0,00nds(T);066�(T);0,00nds(C);266�(C);0,22�;5,22m;99%;+;non;ind�termin�e;;;;-;;;;;;;;;;;;;;;;;;;;;
30/05/2020;22:16:02;46�08,565 N;001�10,070 W(T);0,00nds(T);066�(T);0,00nds;251�(T);045�(T);164�(T);07,4nds(T);154�(T);08,0nds(T);05,7m(T);0,00nds(N);1013,51000hPa(T);0,00�C(N);22,70�C(T);---;31/05/2020;00:16:02;0,00nds(T);066�(T);0,00nds(C);266�(C);0,22�;5,22m;99%;+;non;ind�termin�e;;;;-;;;;;;;;;;;;;;;;;;;;;
30/05/2020;22:16:03;46�08,565 N;001�10,070 W(T);0,00nds(T);066�(T);0,00nds;251�(T);045�(T);164�(T);07,4nds(T);154�(T);08,0nds(T);05,7m(T);0,00nds(N);1013,51000hPa(T);0,00�C(N);22,70�C(T);---;31/05/2020;00:16:03;0,00nds(T);066�(T);0,00nds(C);266�(C);0,22�;5,22m;99%;+;non;ind�termin�e;;;;-;;;;;;;;;;;;;;;;;;;;;
30/05/2020;22:16:04;46�08,565 N;001�10,070 W(T);0,00nds(T);066�(T);0,00nds;251�(T);045�(T);164�(T);07,4nds(T);154�(T);08,0nds(T);05,7m(T);0,00nds(N);1013,51000hPa(T);0,00�C(N);22,70�C(T);---;31/05/2020;00:16:04;0,00nds(T);066�(T);0,00nds(C);266�(C);0,22�;5,22m;99%;+;non;ind�termin�e;;;;-;;;;;;;;;;;;;;;;;;;;;
30/05/2020;22:16:05;46�08,565 N;001�10,070 W(T);0,00nds(T);066�(T);0,00nds;251�(T);045�(T);164�(T);07,4nds(T);154�(T);08,0nds(T);05,7m(T);0,00nds(N);1013,51000hPa(T);0,00�C(N);22,70�C(T);---;31/05/2020;00:16:05;0,00nds(T);066�(T);0,00nds(C);266�(C);0,22�;5,22m;99%;+;non;ind�termin�e;;;;-;;;;;;;;;;;;;;;;;;;;;
30/05/2020;22:16:06;46�08,565 N;001�10,070 W(T);0,00nds(T);066�(T);0,00nds;251�(T);045�(T);164�(T);07,4nds(T);154�(T);08,0nds(T);05,7m(T);0,00nds(N);1013,51000hPa(T);0,00�C(N);22,70�C(T);---;31/05/2020;00:16:06;0,00nds(T);066�(T);0,00nds(C);266�(C);0,22�;5,22m;99%;+;non;ind�termin�e;;;;-;;;;;;;;;;;;;;;;;;;;;
30/05/2020;22:16:07;46�08,565 N;001�10,070 W(T);0,00nds(T);066�(T);0,00nds;251�(T);045�(T);164�(T);07,4nds(T);154�(T);08,0nds(T);05,7m(T);0,00nds(N);1013,51000hPa(T);0,00�C(N);22,70�C(T);---;31/05/2020;00:16:07;0,00nds(T);066�(T);0,00nds(C);266�(C);0,22�;5,22m;99%;+;non;ind�termin�e;;;;-;;;;;;;;;;;;;;;;;;;;;
30/05/2020;22:16:08;46�08,565 N;001�10,070 W(T);0,00nds(T);066�(T);0,00nds;251�(T);045�(T);164�(T);07,4nds(T);154�(T);08,0nds(T);05,7m(T);0,00nds(N);1013,51000hPa(T);0,00�C(N);22,70�C(T);---;31/05/2020;00:16:08;0,00nds(T);066�(T);0,00nds(C);266�(C);0,22�;5,22m;99%;+;non;ind�termin�e;;;;-;;;;;;;;;;;;;;;;;;;;;
30/05/2020;22:16:09;46�08,565 N;001�10,070 W(T);0,00nds(T);066�(T);0,00nds;251�(T);045�(T);164�(T);07,4nds(T);154�(T);08,0nds(T);05,7m(T);0,00nds(N);1013,51000hPa(T);0,00�C(N);22,70�C(T);---;31/05/2020;00:16:09;0,00nds(T);066�(T);0,00nds(C);266�(C);0,22�;5,22m;99%;+;non;ind�termin�e;;;;-;;;;;;;;;;;;;;;;;;;;;
30/05/2020;22:16:10;46�08,565 N;001�10,070 W(T);0,00nds(T);066�(T);0,00nds;251�(T);045�(T);164�(T);07,4nds(T);154�(T);08,0nds(T);05,7m(T);0,00nds(N);1013,51000hPa(T);0,00�C(N);22,70�C(T);---;31/05/2020;00:16:10;0,00nds(T);066�(T);0,00nds(C);266�(C);0,22�;5,22m;99%;+;non;ind�termin�e;;;;-;;;;;;;;;;;;;;;;;;;;;
30/05/2020;22:16:11;46�08,565 N;001�10,070 W(T);0,00nds(T);066�(T);0,00nds;251�(T);045�(T);164�(T);07,4nds(T);154�(T);08,0nds(T);05,7m(T);0,00nds(N);1013,51000hPa(T);0,00�C(N);22,70�C(T);---;31/05/2020;00:16:11;0,00nds(T);066�(T);0,00nds(C);266�(C);0,22�;5,22m;99%;+;non;ind�termin�e;;;;-;;;;;;;;;;;;;;;;;;;;;
30/05/2020;22:16:12;46�08,565 N;001�10,070 W(T);0,00nds(T);066�(T);0,00nds;251�(T);045�(T);164�(T);07,4nds(T);154�(T);08,0nds(T);05,7m(T);0,00nds(N);1013,51000hPa(T);0,00�C(N);22,70�C(T);---;31/05/2020;00:16:12;0,00nds(T);066�(T);0,00nds(C);266�(C);0,22�;5,22m;99%;+;non;ind�termin�e;;;;-;;;;;;;;;;;;;;;;;;;;;
30/05/2020;22:16:13;46�08,565 N;001�10,070 W(T);0,00nds(T);066�(T);0,00nds;251�(T);045�(T);164�(T);07,4nds(T);154�(T);08,0nds(T);05,7m(T);0,00nds(N);1013,51000hPa(T);0,00�C(N);22,70�C(T);---;31/05/2020;00:16:13;0,00nds(T);066�(T);0,00nds(C);266�(C);0,22�;5,22m;99%;+;non;ind�termin�e;;;;-;;;;;;;;;;;;;;;;;;;;;
30/05/2020;22:16:14;46�08,565 N;001�10,070 W(T);0,00nds(T);066�(T);0,00nds;251�(T);045�(T);164�(T);07,4nds(T);154�(T);08,0nds(T);05,7m(T);0,00nds(N);1013,51000hPa(T);0,00�C(N);22,70�C(T);---;31/05/2020;00:16:14;0,00nds(T);066�(T);0,00nds(C);266�(C);0,22�;5,22m;99%;+;non;ind�termin�e;;;;-;;;;;;;;;;;;;;;;;;;;;
30/05/2020;22:16:15;46�08,565 N;001�10,070 W(T);0,00nds(T);066�(T);0,00nds;251�(T);045�(T);164�(T);07,4nds(T);154�(T);08,0nds(T);05,7m(T);0,00nds(N);1013,51000hPa(T);0,00�C(N);22,70�C(T);---;31/05/2020;00:16:15;0,00nds(T);066�(T);0,00nds(C);266�(C);0,22�;5,22m;99%;+;non;ind�termin�e;;;;-;;;;;;;;;;;;;;;;;;;;;
30/05/2020;22:16:16;46�08,565 N;001�10,070 W(T);0,00nds(T);066�(T);0,00nds;251�(T);045�(T);164�(T);07,4nds(T);154�(T);08,0nds(T);05,7m(T);0,00nds(N);1013,51000hPa(T);0,00�C(N);22,70�C(T);---;31/05/2020;00:16:16;0,00nds(T);066�(T);0,00nds(C);266�(C);0,22�;5,22m;99%;+;non;ind�termin�e;;;;-;;;;;;;;;;;;;;;;;;;;;
30/05/2020;22:16:17;46�08,565 N;001�10,070 W(T);0,00nds(T);066�(T);0,00nds;251�(T);045�(T);164�(T);07,4nds(T);154�(T);08,0nds(T);05,7m(T);0,00nds(N);1013,51000hPa(T);0,00�C(N);22,70�C(T);---;31/05/2020;00:16:17;0,00nds(T);066�(T);0,00nds(C);266�(C);0,22�;5,22m;99%;+;non;ind�termin�e;;;;-;;;;;;;;;;;;;;;;;;;;;
30/05/2020;22:16:18;46�08,565 N;001�10,070 W(T);0,00nds(T);066�(T);0,00nds;251�(T);045�(T);164�(T);07,4nds(T);154�(T);08,0nds(T);05,7m(T);0,00nds(N);1013,51000hPa(T);0,00�C(N);22,70�C(T);---;31/05/2020;00:16:18;0,00nds(T);066�(T);0,00nds(C);266�(C);0,22�;5,22m;99%;+;non;ind�termin�e;;;;-;;;;;;;;;;;;;;;;;;;;;
30/05/2020;22:16:19;46�08,565 N;001�10,070 W(T);0,00nds(T);066�(T);0,00nds;251�(T);045�(T);164�(T);07,4nds(T);154�(T);08,0nds(T);05,7m(T);0,00nds(N);1013,51000hPa(T);0,00�C(N);22,70�C(T);---;31/05/2020;00:16:19;0,00nds(T);066�(T);0,00nds(C);266�(C);0,22�;5,22m;99%;+;non;ind�termin�e;;;;-;;;;;;;;;;;;;;;;;;;;;
30/05/2020;22:16:20;46�08,565 N;001�10,070 W(T);0,00nds(T);066�(T);0,00nds;251�(T);045�(T);164�(T);07,4nds(T);154�(T);08,0nds(T);05,7m(T);0,00nds(N);1013,51000hPa(T);0,00�C(N);22,70�C(T);---;31/05/2020;00:16:20;0,00nds(T);066�(T);0,00nds(C);266�(C);0,22�;5,22m;99%;+;non;ind�termin�e;;;;-;;;;;;;;;;;;;;;;;;;;;
30/05/2020;22:16:21;46�08,565 N;001�10,070 W(T);0,00nds(T);066�(T);0,00nds;251�(T);045�(T);164�(T);07,4nds(T);154�(T);08,0nds(T);05,7m(T);0,00nds(N);1013,51000hPa(T);0,00�C(N);22,70�C(T);---;31/05/2020;00:16:21;0,00nds(T);066�(T);0,00nds(C);266�(C);0,22�;5,22m;99%;+;non;ind�termin�e;;;;-;;;;;;;;;;;;;;;;;;;;;
30/05/2020;22:16:22;46�08,565 N;001�10,070 W(T);0,00nds(T);066�(T);0,00nds;251�(T);045�(T);164�(T);07,4nds(T);154�(T);08,0nds(T);05,7m(T);0,00nds(N);1013,51000hPa(T);0,00�C(N);22,70�C(T);---;31/05/2020;00:16:22;0,00nds(T);066�(T);0,00nds(C);266�(C);0,22�;5,22m;99%;+;non;ind�termin�e;;;;-;;;;;;;;;;;;;;;;;;;;;
30/05/2020;22:16:23;46�08,565 N;001�10,070 W(T);0,00nds(T);066�(T);0,00nds;251�(T);045�(T);164�(T);07,4nds(T);154�(T);08,0nds(T);05,7m(T);0,00nds(N);1013,51000hPa(T);0,00�C(N);22,70�C(T);---;31/05/2020;00:16:23;0,00nds(T);066�(T);0,00nds(C);266�(C);0,22�;5,22m;99%;+;non;ind�termin�e;;;;-;;;;;;;;;;;;;;;;;;;;;
30/05/2020;22:16:24;46�08,565 N;001�10,070 W(T);0,00nds(T);066�(T);0,00nds;251�(T);045�(T);164�(T);07,4nds(T);154�(T);08,0nds(T);05,7m(T);0,00nds(N);1013,51000hPa(T);0,00�C(N);22,70�C(T);---;31/05/2020;00:16:24;0,00nds(T);066�(T);0,00nds(C);266�(C);0,22�;5,22m;99%;+;non;ind�termin�e;;;;-;;;;;;;;;;;;;;;;;;;;;
30/05/2020;22:16:25;46�08,565 N;001�10,070 W(T);0,00nds(T);066�(T);0,00nds;251�(T);045�(T);164�(T);07,4nds(T);154�(T);08,0nds(T);05,7m(T);0,00nds(N);1013,51000hPa(T);0,00�C(N);22,70�C(T);---;31/05/2020;00:16:25;0,00nds(T);066�(T);0,00nds(C);266�(C);0,22�;5,22m;99%;+;non;ind�termin�e;;;;-;;;;;;;;;;;;;;;;;;;;;
30/05/2020;22:16:26;46�08,565 N;001�10,070 W(T);0,00nds(T);066�(T);0,00nds;251�(T);045�(T);164�(T);07,4nds(T);154�(T);08,0nds(T);05,7m(T);0,00nds(N);1013,51000hPa(T);0,00�C(N);22,70�C(T);---;31/05/2020;00:16:26;0,00nds(T);066�(T);0,00nds(C);266�(C);0,22�;5,22m;99%;+;non;ind�termin�e;;;;-;;;;;;;;;;;;;;;;;;;;;
30/05/2020;22:16:27;46�08,565 N;001�10,070 W(T);0,00nds(T);066�(T);0,00nds;251�(T);045�(T);164�(T);07,4nds(T);154�(T);08,0nds(T);05,7m(T);0,00nds(N);1013,51000hPa(T);0,00�C(N);22,70�C(T);---;31/05/2020;00:16:27;0,00nds(T);066�(T);0,00nds(C);266�(C);0,22�;5,22m;99%;+;non;ind�termin�e;;;;-;;;;;;;;;;;;;;;;;;;;;
30/05/2020;22:16:28;46�08,565 N;001�10,070 W(T);0,00nds(T);066�(T);0,00nds;251�(T);045�(T);164�(T);07,4nds(T);154�(T);08,0nds(T);05,7m(T);0,00nds(N);1013,51000hPa(T);0,00�C(N);22,70�C(T);---;31/05/2020;00:16:28;0,00nds(T);066�(T);0,00nds(C);266�(C);0,22�;5,22m;99%;+;non;ind�termin�e;;;;-;;;;;;;;;;;;;;;;;;;;;
30/05/2020;22:16:29;46�08,565 N;001�10,070 W(T);0,00nds(T);066�(T);0,00nds;251�(T);045�(T);164�(T);07,4nds(T);154�(T);08,0nds(T);05,7m(T);0,00nds(N);1013,51000hPa(T);0,00�C(N);22,70�C(T);---;31/05/2020;00:16:29;0,00nds(T);066�(T);0,00nds(C);266�(C);0,22�;5,22m;99%;+;non;ind�termin�e;;;;-;;;;;;;;;;;;;;;;;;;;;
30/05/2020;22:16:30;46�08,565 N;001�10,070 W(T);0,00nds(T);066�(T);0,00nds;251�(T);045�(T);164�(T);07,4nds(T);154�(T);08,0nds(T);05,7m(T);0,00nds(N);1013,51000hPa(T);0,00�C(N);22,70�C(T);---;31/05/2020;00:16:30;0,00nds(T);066�(T);0,00nds(C);266�(C);0,22�;5,22m;99%;+;non;ind�termin�e;;;;-;;;;;;;;;;;;;;;;;;;;;
30/05/2020;22:16:31;46�08,565 N;001�10,070 W(T);0,00nds(T);066�(T);0,00nds;251�(T);045�(T);164�(T);07,4nds(T);154�(T);08,0nds(T);05,7m(T);0,00nds(N);1013,51000hPa(T);0,00�C(N);22,70�C(T);---;31/05/2020;00:16:31;0,00nds(T);066�(T);0,00nds(C);266�(C);0,22�;5,22m;99%;+;non;ind�termin�e;;;;-;;;;;;;;;;;;;;;;;;;;;
30/05/2020;22:16:32;46�08,565 N;001�10,070 W(T);0,00nds(T);066�(T);0,00nds;251�(T);045�(T);164�(T);07,4nds(T);154�(T);08,0nds(T);05,7m(T);0,00nds(N);1013,51000hPa(T);0,00�C(N);22,70�C(T);---;31/05/2020;00:16:32;0,00nds(T);066�(T);0,00nds(C);266�(C);0,22�;5,22m;99%;+;non;ind�termin�e;;;;-;;;;;;;;;;;;;;;;;;;;;
30/05/2020;22:16:33;46�08,565 N;001�10,070 W(T);0,00nds(T);066�(T);0,00nds;251�(T);045�(T);164�(T);07,4nds(T);154�(T);08,0nds(T);05,7m(T);0,00nds(N);1013,51000hPa(T);0,00�C(N);22,70�C(T);---;31/05/2020;00:16:33;0,00nds(T);066�(T);0,00nds(C);266�(C);0,22�;5,22m;99%;+;non;ind�termin�e;;;;-;;;;;;;;;;;;;;;;;;;;;
30/05/2020;22:16:34;46�08,565 N;001�10,070 W(T);0,00nds(T);066�(T);0,00nds;251�(T);045�(T);164�(T);07,4nds(T);154�(T);08,0nds(T);05,7m(T);0,00nds(N);1013,51000hPa(T);0,00�C(N);22,70�C(T);---;31/05/2020;00:16:34;0,00nds(T);066�(T);0,00nds(C);266�(C);0,22�;5,22m;99%;+;non;ind�termin�e;;;;-;;;;;;;;;;;;;;;;;;;;;
30/05/2020;22:16:35;46�08,565 N;001�10,070 W(T);0,00nds(T);066�(T);0,00nds;251�(T);045�(T);164�(T);07,4nds(T);154�(T);08,0nds(T);05,7m(T);0,00nds(N);1013,51000hPa(T);0,00�C(N);22,70�C(T);---;31/05/2020;00:16:35;0,00nds(T);066�(T);0,00nds(C);266�(C);0,22�;5,22m;99%;+;non;ind�termin�e;;;;-;;;;;;;;;;;;;;;;;;;;;
30/05/2020;22:16:36;46�08,565 N;001�10,070 W(T);0,00nds(T);066�(T);0,00nds;251�(T);045�(T);164�(T);07,4nds(T);154�(T);08,0nds(T);05,7m(T);0,00nds(N);1013,51000hPa(T);0,00�C(N);22,70�C(T);---;31/05/2020;00:16:36;0,00nds(T);066�(T);0,00nds(C);266�(C);0,22�;5,22m;99%;+;non;ind�termin�e;;;;-;;;;;;;;;;;;;;;;;;;;;
30/05/2020;22:16:37;46�08,565 N;001�10,070 W(T);0,00nds(T);066�(T);0,00nds;251�(T);045�(T);164�(T);07,4nds(T);154�(T);08,0nds(T);05,7m(T);0,00nds(N);1013,51000hPa(T);0,00�C(N);22,70�C(T);---;31/05/2020;00:16:37;0,00nds(T);066�(T);0,00nds(C);266�(C);0,22�;5,22m;99%;+;non;ind�termin�e;;;;-;;;;;;;;;;;;;;;;;;;;;
30/05/2020;22:16:38;46�08,565 N;001�10,070 W(T);0,00nds(T);066�(T);0,00nds;251�(T);045�(T);164�(T);07,4nds(T);154�(T);08,0nds(T);05,7m(T);0,00nds(N);1013,51000hPa(T);0,00�C(N);22,70�C(T);---;31/05/2020;00:16:38;0,00nds(T);066�(T);0,00nds(C);266�(C);0,22�;5,22m;99%;+;non;ind�termin�e;;;;-;;;;;;;;;;;;;;;;;;;;;
30/05/2020;22:16:39;46�08,565 N;001�10,070 W(T);0,00nds(T);066�(T);0,00nds;251�(T);045�(T);164�(T);07,4nds(T);154�(T);08,0nds(T);05,7m(T);0,00nds(N);1013,51000hPa(T);0,00�C(N);22,70�C(T);---;31/05/2020;00:16:39;0,00nds(T);066�(T);0,00nds(C);266�(C);0,22�;5,22m;99%;+;non;ind�termin�e;;;;-;;;;;;;;;;;;;;;;;;;;;


Partager le fichier


Télécharger small.csv


Télécharger small.csv